<?xml version="1.0" encoding="UTF-8" standalone="no" ?>
<gpx xmlns="http://www.topografix.com/GPX/1/1" xmlns:xsi="http://www.w3.org/2001/XMLSchema-instance" xsi:schemaLocation="http://www.topografix.com/GPX/1/1 http://www.topografix.com/GPX/1/1/gpx.xsd" version="1.1" creator="VisuGPX - https://www.visugpx.com">
  <metadata>
    <name>1er sortie le mardi en 2020.</name>
  </metadata>
  <trk>
    <name><![CDATA[1er sortie le mardi en 2020.]]></name>
    <trkseg>
      <trkpt lat="45.41481" lon="4.73296">
        <ele>160.4</ele>
        <time>2020-02-18T15:41:00Z</time>
      </trkpt>
      <trkpt lat="45.41477" lon="4.73288">
        <ele>160</ele>
        <time>2020-02-18T15:41:02Z</time>
      </trkpt>
      <trkpt lat="45.41473" lon="4.73286">
        <ele>158.8</ele>
        <time>2020-02-18T15:41:03Z</time>
      </trkpt>
      <trkpt lat="45.41469" lon="4.73286">
        <ele>157.2</ele>
        <time>2020-02-18T15:41:04Z</time>
      </trkpt>
      <trkpt lat="45.41465" lon="4.73288">
        <ele>155.4</ele>
        <time>2020-02-18T15:41:05Z</time>
      </trkpt>
      <trkpt lat="45.4146" lon="4.73291">
        <ele>152.8</ele>
        <time>2020-02-18T15:41:06Z</time>
      </trkpt>
      <trkpt lat="45.41454" lon="4.73295">
        <ele>154.2</ele>
        <time>2020-02-18T15:41:07Z</time>
      </trkpt>
      <trkpt lat="45.4144" lon="4.73306">
        <ele>152.2</ele>
        <time>2020-02-18T15:41:09Z</time>
      </trkpt>
      <trkpt lat="45.41432" lon="4.73312">
        <ele>149.8</ele>
        <time>2020-02-18T15:41:10Z</time>
      </trkpt>
      <trkpt lat="45.41424" lon="4.73317">
        <ele>147.4</ele>
        <time>2020-02-18T15:41:11Z</time>
      </trkpt>
      <trkpt lat="45.41416" lon="4.73323">
        <ele>144.8</ele>
        <time>2020-02-18T15:41:12Z</time>
      </trkpt>
      <trkpt lat="45.41409" lon="4.73329">
        <ele>141.8</ele>
        <time>2020-02-18T15:41:13Z</time>
      </trkpt>
      <trkpt lat="45.41403" lon="4.73334">
        <ele>138.8</ele>
        <time>2020-02-18T15:41:14Z</time>
      </trkpt>
      <trkpt lat="45.41398" lon="4.73339">
        <ele>135.8</ele>
        <time>2020-02-18T15:41:15Z</time>
      </trkpt>
      <trkpt lat="45.41392" lon="4.73343">
        <ele>132.8</ele>
        <time>2020-02-18T15:41:16Z</time>
      </trkpt>
      <trkpt lat="45.41388" lon="4.73347">
        <ele>129.8</ele>
        <time>2020-02-18T15:41:17Z</time>
      </trkpt>
      <trkpt lat="45.41385" lon="4.7335">
        <ele>126.8</ele>
        <time>2020-02-18T15:41:18Z</time>
      </trkpt>
      <trkpt lat="45.41383" lon="4.73353">
        <ele>124.2</ele>
        <time>2020-02-18T15:41:19Z</time>
      </trkpt>
      <trkpt lat="45.41383" lon="4.73357">
        <ele>121.4</ele>
        <time>2020-02-18T15:41:20Z</time>
      </trkpt>
      <trkpt lat="45.41383" lon="4.73362">
        <ele>118.8</ele>
        <time>2020-02-18T15:41:21Z</time>
      </trkpt>
      <trkpt lat="45.41384" lon="4.73367">
        <ele>116.2</ele>
        <time>2020-02-18T15:41:22Z</time>
      </trkpt>
      <trkpt lat="45.41385" lon="4.73372">
        <ele>114</ele>
        <time>2020-02-18T15:41:23Z</time>
      </trkpt>
      <trkpt lat="45.41385" lon="4.73378">
        <ele>112</ele>
        <time>2020-02-18T15:41:24Z</time>
      </trkpt>
      <trkpt lat="45.41385" lon="4.73384">
        <ele>110.2</ele>
        <time>2020-02-18T15:41:25Z</time>
      </trkpt>
      <trkpt lat="45.41385" lon="4.7339">
        <ele>108.6</ele>
        <time>2020-02-18T15:41:26Z</time>
      </trkpt>
      <trkpt lat="45.41386" lon="4.73397">
        <ele>107</ele>
        <time>2020-02-18T15:41:27Z</time>
      </trkpt>
      <trkpt lat="45.41387" lon="4.73404">
        <ele>105</ele>
        <time>2020-02-18T15:41:28Z</time>
      </trkpt>
      <trkpt lat="45.41388" lon="4.73411">
        <ele>103</ele>
        <time>2020-02-18T15:41:29Z</time>
      </trkpt>
      <trkpt lat="45.41389" lon="4.73418">
        <ele>101.4</ele>
        <time>2020-02-18T15:41:30Z</time>
      </trkpt>
      <trkpt lat="45.4139" lon="4.73425">
        <ele>99.8</ele>
        <time>2020-02-18T15:41:31Z</time>
      </trkpt>
      <trkpt lat="45.41391" lon="4.73433">
        <ele>98</ele>
        <time>2020-02-18T15:41:32Z</time>
      </trkpt>
      <trkpt lat="45.41392" lon="4.7344">
        <ele>96.2</ele>
        <time>2020-02-18T15:41:33Z</time>
      </trkpt>
      <trkpt lat="45.41393" lon="4.73447">
        <ele>94.2</ele>
        <time>2020-02-18T15:41:34Z</time>
      </trkpt>
      <trkpt lat="45.41394" lon="4.73454">
        <ele>92.6</ele>
        <time>2020-02-18T15:41:35Z</time>
      </trkpt>
      <trkpt lat="45.41394" lon="4.7346">
        <ele>90.8</ele>
        <time>2020-02-18T15:41:36Z</time>
      </trkpt>
      <trkpt lat="45.41394" lon="4.73467">
        <ele>89.2</ele>
        <time>2020-02-18T15:41:37Z</time>
      </trkpt>
      <trkpt lat="45.41393" lon="4.73474">
        <ele>87.4</ele>
        <time>2020-02-18T15:41:38Z</time>
      </trkpt>
      <trkpt lat="45.41393" lon="4.73482">
        <ele>85.8</ele>
        <time>2020-02-18T15:41:39Z</time>
      </trkpt>
      <trkpt lat="45.41392" lon="4.73489">
        <ele>84</ele>
        <time>2020-02-18T15:41:40Z</time>
      </trkpt>
      <trkpt lat="45.41392" lon="4.73496">
        <ele>82.4</ele>
        <time>2020-02-18T15:41:41Z</time>
      </trkpt>
      <trkpt lat="45.41391" lon="4.73503">
        <ele>80.2</ele>
        <time>2020-02-18T15:41:42Z</time>
      </trkpt>
      <trkpt lat="45.41392" lon="4.7351">
        <ele>78.4</ele>
        <time>2020-02-18T15:41:43Z</time>
      </trkpt>
      <trkpt lat="45.41392" lon="4.73517">
        <ele>76.2</ele>
        <time>2020-02-18T15:41:44Z</time>
      </trkpt>
      <trkpt lat="45.41392" lon="4.73524">
        <ele>74.4</ele>
        <time>2020-02-18T15:41:45Z</time>
      </trkpt>
      <trkpt lat="45.41393" lon="4.73532">
        <ele>72.4</ele>
        <time>2020-02-18T15:41:46Z</time>
      </trkpt>
      <trkpt lat="45.41394" lon="4.73539">
        <ele>70.8</ele>
        <time>2020-02-18T15:41:47Z</time>
      </trkpt>
      <trkpt lat="45.41394" lon="4.73546">
        <ele>69.2</ele>
        <time>2020-02-18T15:41:48Z</time>
      </trkpt>
      <trkpt lat="45.41395" lon="4.73553">
        <ele>67.4</ele>
        <time>2020-02-18T15:41:49Z</time>
      </trkpt>
      <trkpt lat="45.41396" lon="4.73559">
        <ele>65.8</ele>
        <time>2020-02-18T15:41:50Z</time>
      </trkpt>
      <trkpt lat="45.41397" lon="4.73564">
        <ele>63.8</ele>
        <time>2020-02-18T15:41:51Z</time>
      </trkpt>
      <trkpt lat="45.41397" lon="4.7357">
        <ele>62.2</ele>
        <time>2020-02-18T15:41:52Z</time>
      </trkpt>
      <trkpt lat="45.41397" lon="4.73577">
        <ele>60.2</ele>
        <time>2020-02-18T15:41:53Z</time>
      </trkpt>
      <trkpt lat="45.41397" lon="4.73583">
        <ele>58.4</ele>
        <time>2020-02-18T15:41:54Z</time>
      </trkpt>
      <trkpt lat="45.41399" lon="4.7359">
        <ele>56.4</ele>
        <time>2020-02-18T15:41:55Z</time>
      </trkpt>
      <trkpt lat="45.414" lon="4.73597">
        <ele>54.6</ele>
        <time>2020-02-18T15:41:56Z</time>
      </trkpt>
      <trkpt lat="45.41402" lon="4.73604">
        <ele>52.8</ele>
        <time>2020-02-18T15:41:57Z</time>
      </trkpt>
      <trkpt lat="45.41403" lon="4.73609">
        <ele>51.2</ele>
        <time>2020-02-18T15:41:58Z</time>
      </trkpt>
      <trkpt lat="45.41405" lon="4.73613">
        <ele>49.6</ele>
        <time>2020-02-18T15:41:59Z</time>
      </trkpt>
      <trkpt lat="45.41406" lon="4.73616">
        <ele>48.2</ele>
        <time>2020-02-18T15:42:00Z</time>
      </trkpt>
      <trkpt lat="45.41406" lon="4.7362">
        <ele>46.6</ele>
        <time>2020-02-18T15:42:01Z</time>
      </trkpt>
      <trkpt lat="45.41405" lon="4.73622">
        <ele>45</ele>
        <time>2020-02-18T15:42:02Z</time>
      </trkpt>
      <trkpt lat="45.41403" lon="4.73625">
        <ele>43.4</ele>
        <time>2020-02-18T15:42:03Z</time>
      </trkpt>
      <trkpt lat="45.414" lon="4.73627">
        <ele>42.4</ele>
        <time>2020-02-18T15:42:04Z</time>
      </trkpt>
      <trkpt lat="45.41397" lon="4.73629">
        <ele>41.2</ele>
        <time>2020-02-18T15:42:05Z</time>
      </trkpt>
      <trkpt lat="45.41393" lon="4.73632">
        <ele>38.4</ele>
        <time>2020-02-18T15:42:06Z</time>
      </trkpt>
      <trkpt lat="45.41386" lon="4.73636">
        <ele>36.8</ele>
        <time>2020-02-18T15:42:08Z</time>
      </trkpt>
      <trkpt lat="45.41383" lon="4.73638">
        <ele>35.4</ele>
        <time>2020-02-18T15:42:09Z</time>
      </trkpt>
      <trkpt lat="45.4138" lon="4.7364">
        <ele>33.8</ele>
        <time>2020-02-18T15:42:10Z</time>
      </trkpt>
      <trkpt lat="45.41378" lon="4.73642">
        <ele>32.4</ele>
        <time>2020-02-18T15:42:11Z</time>
      </trkpt>
      <trkpt lat="45.41377" lon="4.73646">
        <ele>30.8</ele>
        <time>2020-02-18T15:42:12Z</time>
      </trkpt>
      <trkpt lat="45.41377" lon="4.7365">
        <ele>29</ele>
        <time>2020-02-18T15:42:13Z</time>
      </trkpt>
      <trkpt lat="45.41376" lon="4.73653">
        <ele>27.4</ele>
        <time>2020-02-18T15:42:14Z</time>
      </trkpt>
      <trkpt lat="45.41374" lon="4.73654">
        <ele>26</ele>
        <time>2020-02-18T15:42:15Z</time>
      </trkpt>
      <trkpt lat="45.41371" lon="4.73654">
        <ele>24.4</ele>
        <time>2020-02-18T15:42:16Z</time>
      </trkpt>
      <trkpt lat="45.41368" lon="4.73656">
        <ele>22.8</ele>
        <time>2020-02-18T15:42:17Z</time>
      </trkpt>
      <trkpt lat="45.41367" lon="4.73659">
        <ele>21</ele>
        <time>2020-02-18T15:42:18Z</time>
      </trkpt>
      <trkpt lat="45.41368" lon="4.73663">
        <ele>19</ele>
        <time>2020-02-18T15:42:19Z</time>
      </trkpt>
      <trkpt lat="45.41369" lon="4.73668">
        <ele>16.8</ele>
        <time>2020-02-18T15:42:20Z</time>
      </trkpt>
      <trkpt lat="45.4137" lon="4.73673">
        <ele>14.8</ele>
        <time>2020-02-18T15:42:21Z</time>
      </trkpt>
      <trkpt lat="45.41371" lon="4.73679">
        <ele>12.8</ele>
        <time>2020-02-18T15:42:22Z</time>
      </trkpt>
      <trkpt lat="45.41372" lon="4.73685">
        <ele>11</ele>
        <time>2020-02-18T15:42:23Z</time>
      </trkpt>
      <trkpt lat="45.41372" lon="4.73691">
        <ele>9</ele>
        <time>2020-02-18T15:42:24Z</time>
      </trkpt>
      <trkpt lat="45.41373" lon="4.73697">
        <ele>7</ele>
        <time>2020-02-18T15:42:25Z</time>
      </trkpt>
      <trkpt lat="45.41373" lon="4.73703">
        <ele>5.4</ele>
        <time>2020-02-18T15:42:26Z</time>
      </trkpt>
      <trkpt lat="45.41373" lon="4.73709">
        <ele>4</ele>
        <time>2020-02-18T15:42:27Z</time>
      </trkpt>
      <trkpt lat="45.41372" lon="4.73714">
        <ele>2.6</ele>
        <time>2020-02-18T15:42:28Z</time>
      </trkpt>
      <trkpt lat="45.41368" lon="4.73716">
        <ele>1</ele>
        <time>2020-02-18T15:42:29Z</time>
      </trkpt>
      <trkpt lat="45.41365" lon="4.73716">
        <ele>-0.8</ele>
        <time>2020-02-18T15:42:30Z</time>
      </trkpt>
      <trkpt lat="45.4136" lon="4.73715">
        <ele>-2.6</ele>
        <time>2020-02-18T15:42:31Z</time>
      </trkpt>
      <trkpt lat="45.41356" lon="4.73716">
        <ele>-4.2</ele>
        <time>2020-02-18T15:42:32Z</time>
      </trkpt>
      <trkpt lat="45.41351" lon="4.73717">
        <ele>-5.6</ele>
        <time>2020-02-18T15:42:33Z</time>
      </trkpt>
      <trkpt lat="45.41347" lon="4.73717">
        <ele>-6.8</ele>
        <time>2020-02-18T15:42:34Z</time>
      </trkpt>
      <trkpt lat="45.41342" lon="4.73716">
        <ele>-8.4</ele>
        <time>2020-02-18T15:42:35Z</time>
      </trkpt>
      <trkpt lat="45.41336" lon="4.73716">
        <ele>-10</ele>
        <time>2020-02-18T15:42:36Z</time>
      </trkpt>
      <trkpt lat="45.41331" lon="4.73716">
        <ele>-11.4</ele>
        <time>2020-02-18T15:42:37Z</time>
      </trkpt>
      <trkpt lat="45.41327" lon="4.73716">
        <ele>-13</ele>
        <time>2020-02-18T15:42:38Z</time>
      </trkpt>
      <trkpt lat="45.41322" lon="4.73716">
        <ele>-14.4</ele>
        <time>2020-02-18T15:42:39Z</time>
      </trkpt>
      <trkpt lat="45.41318" lon="4.73715">
        <ele>-15.8</ele>
        <time>2020-02-18T15:42:40Z</time>
      </trkpt>
      <trkpt lat="45.41315" lon="4.73715">
        <ele>-17.2</ele>
        <time>2020-02-18T15:42:41Z</time>
      </trkpt>
      <trkpt lat="45.41311" lon="4.73715">
        <ele>-18.8</ele>
        <time>2020-02-18T15:42:42Z</time>
      </trkpt>
      <trkpt lat="45.41307" lon="4.73716">
        <ele>-20.4</ele>
        <time>2020-02-18T15:42:43Z</time>
      </trkpt>
      <trkpt lat="45.41304" lon="4.73719">
        <ele>-21.8</ele>
        <time>2020-02-18T15:42:44Z</time>
      </trkpt>
      <trkpt lat="45.41303" lon="4.73722">
        <ele>-23.4</ele>
        <time>2020-02-18T15:42:45Z</time>
      </trkpt>
      <trkpt lat="45.41303" lon="4.73725">
        <ele>-24.8</ele>
        <time>2020-02-18T15:42:46Z</time>
      </trkpt>
      <trkpt lat="45.41303" lon="4.7373">
        <ele>-26.4</ele>
        <time>2020-02-18T15:42:47Z</time>
      </trkpt>
      <trkpt lat="45.41302" lon="4.73732">
        <ele>-28.2</ele>
        <time>2020-02-18T15:42:48Z</time>
      </trkpt>
      <trkpt lat="45.41302" lon="4.73735">
        <ele>-29.8</ele>
        <time>2020-02-18T15:42:49Z</time>
      </trkpt>
      <trkpt lat="45.41301" lon="4.7374">
        <ele>-31.2</ele>
        <time>2020-02-18T15:42:50Z</time>
      </trkpt>
      <trkpt lat="45.413" lon="4.73742">
        <ele>-32.6</ele>
        <time>2020-02-18T15:42:51Z</time>
      </trkpt>
      <trkpt lat="45.413" lon="4.73745">
        <ele>-34</ele>
        <time>2020-02-18T15:42:52Z</time>
      </trkpt>
      <trkpt lat="45.41301" lon="4.73747">
        <ele>-35.4</ele>
        <time>2020-02-18T15:42:53Z</time>
      </trkpt>
      <trkpt lat="45.41302" lon="4.7375">
        <ele>-36.8</ele>
        <time>2020-02-18T15:42:54Z</time>
      </trkpt>
      <trkpt lat="45.41309" lon="4.7375">
        <ele>-38</ele>
        <time>2020-02-18T15:42:55Z</time>
      </trkpt>
      <trkpt lat="45.41316" lon="4.73748">
        <ele>-39.2</ele>
        <time>2020-02-18T15:42:56Z</time>
      </trkpt>
      <trkpt lat="45.4132" lon="4.73747">
        <ele>-40.4</ele>
        <time>2020-02-18T15:42:57Z</time>
      </trkpt>
      <trkpt lat="45.41325" lon="4.73746">
        <ele>-41.6</ele>
        <time>2020-02-18T15:42:58Z</time>
      </trkpt>
      <trkpt lat="45.41329" lon="4.73746">
        <ele>-42.8</ele>
        <time>2020-02-18T15:42:59Z</time>
      </trkpt>
      <trkpt lat="45.41338" lon="4.73745">
        <ele>-45</ele>
        <time>2020-02-18T15:43:01Z</time>
      </trkpt>
      <trkpt lat="45.41342" lon="4.73745">
        <ele>-46</ele>
        <time>2020-02-18T15:43:02Z</time>
      </trkpt>
      <trkpt lat="45.41346" lon="4.73745">
        <ele>-47.2</ele>
        <time>2020-02-18T15:43:03Z</time>
      </trkpt>
      <trkpt lat="45.4135" lon="4.73745">
        <ele>-48.2</ele>
        <time>2020-02-18T15:43:04Z</time>
      </trkpt>
      <trkpt lat="45.41353" lon="4.73745">
        <ele>-49.2</ele>
        <time>2020-02-18T15:43:05Z</time>
      </trkpt>
      <trkpt lat="45.41356" lon="4.73744">
        <ele>-50.2</ele>
        <time>2020-02-18T15:43:06Z</time>
      </trkpt>
      <trkpt lat="45.41359" lon="4.73744">
        <ele>-51.2</ele>
        <time>2020-02-18T15:43:07Z</time>
      </trkpt>
      <trkpt lat="45.41361" lon="4.73744">
        <ele>-52.4</ele>
        <time>2020-02-18T15:43:08Z</time>
      </trkpt>
      <trkpt lat="45.41363" lon="4.73744">
        <ele>-53.8</ele>
        <time>2020-02-18T15:43:09Z</time>
      </trkpt>
      <trkpt lat="45.41365" lon="4.73744">
        <ele>-55.2</ele>
        <time>2020-02-18T15:43:10Z</time>
      </trkpt>
      <trkpt lat="45.41367" lon="4.73745">
        <ele>-56.6</ele>
        <time>2020-02-18T15:43:11Z</time>
      </trkpt>
      <trkpt lat="45.41369" lon="4.73744">
        <ele>-57.8</ele>
        <time>2020-02-18T15:43:12Z</time>
      </trkpt>
      <trkpt lat="45.41372" lon="4.73744">
        <ele>-58.8</ele>
        <time>2020-02-18T15:43:13Z</time>
      </trkpt>
      <trkpt lat="45.41376" lon="4.73743">
        <ele>-59.8</ele>
        <time>2020-02-18T15:43:14Z</time>
      </trkpt>
      <trkpt lat="45.41379" lon="4.73743">
        <ele>-61</ele>
        <time>2020-02-18T15:43:15Z</time>
      </trkpt>
      <trkpt lat="45.41384" lon="4.73743">
        <ele>-62</ele>
        <time>2020-02-18T15:43:16Z</time>
      </trkpt>
      <trkpt lat="45.41391" lon="4.73743">
        <ele>-63.8</ele>
        <time>2020-02-18T15:43:18Z</time>
      </trkpt>
      <trkpt lat="45.41398" lon="4.73743">
        <ele>-65.6</ele>
        <time>2020-02-18T15:43:20Z</time>
      </trkpt>
      <trkpt lat="45.41401" lon="4.73744">
        <ele>-66.6</ele>
        <time>2020-02-18T15:43:21Z</time>
      </trkpt>
      <trkpt lat="45.41402" lon="4.73748">
        <ele>-67.8</ele>
        <time>2020-02-18T15:43:22Z</time>
      </trkpt>
      <trkpt lat="45.41403" lon="4.73752">
        <ele>-68.8</ele>
        <time>2020-02-18T15:43:23Z</time>
      </trkpt>
      <trkpt lat="45.41405" lon="4.73764">
        <ele>-70.8</ele>
        <time>2020-02-18T15:43:25Z</time>
      </trkpt>
      <trkpt lat="45.41406" lon="4.7377">
        <ele>-71.8</ele>
        <time>2020-02-18T15:43:26Z</time>
      </trkpt>
      <trkpt lat="45.41407" lon="4.73777">
        <ele>-73</ele>
        <time>2020-02-18T15:43:27Z</time>
      </trkpt>
      <trkpt lat="45.41408" lon="4.73784">
        <ele>-74.4</ele>
        <time>2020-02-18T15:43:28Z</time>
      </trkpt>
      <trkpt lat="45.41409" lon="4.73791">
        <ele>-75.8</ele>
        <time>2020-02-18T15:43:29Z</time>
      </trkpt>
      <trkpt lat="45.41411" lon="4.73798">
        <ele>-77</ele>
        <time>2020-02-18T15:43:30Z</time>
      </trkpt>
      <trkpt lat="45.41412" lon="4.73805">
        <ele>-78.2</ele>
        <time>2020-02-18T15:43:31Z</time>
      </trkpt>
      <trkpt lat="45.41413" lon="4.73812">
        <ele>-79.6</ele>
        <time>2020-02-18T15:43:32Z</time>
      </trkpt>
      <trkpt lat="45.41414" lon="4.73819">
        <ele>-81</ele>
        <time>2020-02-18T15:43:33Z</time>
      </trkpt>
      <trkpt lat="45.41415" lon="4.73826">
        <ele>-82.2</ele>
        <time>2020-02-18T15:43:34Z</time>
      </trkpt>
      <trkpt lat="45.41418" lon="4.7384">
        <ele>-84.2</ele>
        <time>2020-02-18T15:43:36Z</time>
      </trkpt>
      <trkpt lat="45.4142" lon="4.73854">
        <ele>-86.2</ele>
        <time>2020-02-18T15:43:38Z</time>
      </trkpt>
      <trkpt lat="45.41421" lon="4.73861">
        <ele>-87.2</ele>
        <time>2020-02-18T15:43:39Z</time>
      </trkpt>
      <trkpt lat="45.41422" lon="4.73868">
        <ele>-88.4</ele>
        <time>2020-02-18T15:43:40Z</time>
      </trkpt>
      <trkpt lat="45.41424" lon="4.73882">
        <ele>-90.4</ele>
        <time>2020-02-18T15:43:42Z</time>
      </trkpt>
      <trkpt lat="45.41424" lon="4.73889">
        <ele>-91.6</ele>
        <time>2020-02-18T15:43:43Z</time>
      </trkpt>
      <trkpt lat="45.41425" lon="4.73897">
        <ele>-93.2</ele>
        <time>2020-02-18T15:43:44Z</time>
      </trkpt>
      <trkpt lat="45.41425" lon="4.73904">
        <ele>-94.4</ele>
        <time>2020-02-18T15:43:45Z</time>
      </trkpt>
      <trkpt lat="45.41426" lon="4.73911">
        <ele>-95.4</ele>
        <time>2020-02-18T15:43:46Z</time>
      </trkpt>
      <trkpt lat="45.41425" lon="4.73918">
        <ele>-96.2</ele>
        <time>2020-02-18T15:43:47Z</time>
      </trkpt>
      <trkpt lat="45.41425" lon="4.73925">
        <ele>-97.4</ele>
        <time>2020-02-18T15:43:48Z</time>
      </trkpt>
      <trkpt lat="45.41424" lon="4.73933">
        <ele>-98.6</ele>
        <time>2020-02-18T15:43:49Z</time>
      </trkpt>
      <trkpt lat="45.41424" lon="4.7394">
        <ele>-100.4</ele>
        <time>2020-02-18T15:43:50Z</time>
      </trkpt>
      <trkpt lat="45.41423" lon="4.73947">
        <ele>-102</ele>
        <time>2020-02-18T15:43:51Z</time>
      </trkpt>
      <trkpt lat="45.41423" lon="4.73955">
        <ele>-103.2</ele>
        <time>2020-02-18T15:43:52Z</time>
      </trkpt>
      <trkpt lat="45.41421" lon="4.7397">
        <ele>-105</ele>
        <time>2020-02-18T15:43:54Z</time>
      </trkpt>
      <trkpt lat="45.4142" lon="4.73978">
        <ele>-106</ele>
        <time>2020-02-18T15:43:55Z</time>
      </trkpt>
      <trkpt lat="45.41419" lon="4.73985">
        <ele>-107.2</ele>
        <time>2020-02-18T15:43:56Z</time>
      </trkpt>
      <trkpt lat="45.41417" lon="4.73992">
        <ele>-108.4</ele>
        <time>2020-02-18T15:43:57Z</time>
      </trkpt>
      <trkpt lat="45.41415" lon="4.73999">
        <ele>-109.4</ele>
        <time>2020-02-18T15:43:58Z</time>
      </trkpt>
      <trkpt lat="45.41413" lon="4.74007">
        <ele>-110.4</ele>
        <time>2020-02-18T15:43:59Z</time>
      </trkpt>
      <trkpt lat="45.41411" lon="4.74014">
        <ele>-111.6</ele>
        <time>2020-02-18T15:44:00Z</time>
      </trkpt>
      <trkpt lat="45.41408" lon="4.7402">
        <ele>-113</ele>
        <time>2020-02-18T15:44:01Z</time>
      </trkpt>
      <trkpt lat="45.41404" lon="4.74025">
        <ele>-114.4</ele>
        <time>2020-02-18T15:44:02Z</time>
      </trkpt>
      <trkpt lat="45.41399" lon="4.74029">
        <ele>-115.6</ele>
        <time>2020-02-18T15:44:03Z</time>
      </trkpt>
      <trkpt lat="45.41394" lon="4.74031">
        <ele>-116.6</ele>
        <time>2020-02-18T15:44:04Z</time>
      </trkpt>
      <trkpt lat="45.41384" lon="4.74035">
        <ele>-118.6</ele>
        <time>2020-02-18T15:44:06Z</time>
      </trkpt>
      <trkpt lat="45.41378" lon="4.74036">
        <ele>-119.8</ele>
        <time>2020-02-18T15:44:07Z</time>
      </trkpt>
      <trkpt lat="45.41373" lon="4.74037">
        <ele>-121</ele>
        <time>2020-02-18T15:44:08Z</time>
      </trkpt>
      <trkpt lat="45.41368" lon="4.74038">
        <ele>-122.4</ele>
        <time>2020-02-18T15:44:09Z</time>
      </trkpt>
      <trkpt lat="45.41363" lon="4.74039">
        <ele>-123.4</ele>
        <time>2020-02-18T15:44:10Z</time>
      </trkpt>
      <trkpt lat="45.41358" lon="4.74039">
        <ele>-124.6</ele>
        <time>2020-02-18T15:44:11Z</time>
      </trkpt>
      <trkpt lat="45.41347" lon="4.74041">
        <ele>-126.8</ele>
        <time>2020-02-18T15:44:13Z</time>
      </trkpt>
      <trkpt lat="45.41342" lon="4.74042">
        <ele>-128</ele>
        <time>2020-02-18T15:44:14Z</time>
      </trkpt>
      <trkpt lat="45.41337" lon="4.74042">
        <ele>-129.2</ele>
        <time>2020-02-18T15:44:15Z</time>
      </trkpt>
      <trkpt lat="45.41332" lon="4.74043">
        <ele>-130.2</ele>
        <time>2020-02-18T15:44:16Z</time>
      </trkpt>
      <trkpt lat="45.41327" lon="4.74044">
        <ele>-131</ele>
        <time>2020-02-18T15:44:17Z</time>
      </trkpt>
      <trkpt lat="45.41317" lon="4.74045">
        <ele>-133</ele>
        <time>2020-02-18T15:44:19Z</time>
      </trkpt>
      <trkpt lat="45.41306" lon="4.74047">
        <ele>-134.8</ele>
        <time>2020-02-18T15:44:21Z</time>
      </trkpt>
      <trkpt lat="45.41296" lon="4.74049">
        <ele>-136.8</ele>
        <time>2020-02-18T15:44:23Z</time>
      </trkpt>
      <trkpt lat="45.41291" lon="4.7405">
        <ele>-137.8</ele>
        <time>2020-02-18T15:44:24Z</time>
      </trkpt>
      <trkpt lat="45.4128" lon="4.74051">
        <ele>-139.4</ele>
        <time>2020-02-18T15:44:26Z</time>
      </trkpt>
      <trkpt lat="45.4127" lon="4.74053">
        <ele>-140.8</ele>
        <time>2020-02-18T15:44:28Z</time>
      </trkpt>
      <trkpt lat="45.41259" lon="4.74055">
        <ele>-142.4</ele>
        <time>2020-02-18T15:44:30Z</time>
      </trkpt>
      <trkpt lat="45.41249" lon="4.74056">
        <ele>-143.4</ele>
        <time>2020-02-18T15:44:32Z</time>
      </trkpt>
      <trkpt lat="45.41244" lon="4.74057">
        <ele>-144</ele>
        <time>2020-02-18T15:44:33Z</time>
      </trkpt>
      <trkpt lat="45.41239" lon="4.74056">
        <ele>-144.6</ele>
        <time>2020-02-18T15:44:34Z</time>
      </trkpt>
      <trkpt lat="45.41234" lon="4.74054">
        <ele>-145.4</ele>
        <time>2020-02-18T15:44:35Z</time>
      </trkpt>
      <trkpt lat="45.4123" lon="4.74049">
        <ele>-146.6</ele>
        <time>2020-02-18T15:44:36Z</time>
      </trkpt>
      <trkpt lat="45.41227" lon="4.74042">
        <ele>-147.6</ele>
        <time>2020-02-18T15:44:37Z</time>
      </trkpt>
      <trkpt lat="45.41225" lon="4.74033">
        <ele>-148.6</ele>
        <time>2020-02-18T15:44:38Z</time>
      </trkpt>
      <trkpt lat="45.41224" lon="4.74023">
        <ele>-149.6</ele>
        <time>2020-02-18T15:44:39Z</time>
      </trkpt>
      <trkpt lat="45.41224" lon="4.74013">
        <ele>-150.2</ele>
        <time>2020-02-18T15:44:40Z</time>
      </trkpt>
      <trkpt lat="45.41222" lon="4.74003">
        <ele>-151</ele>
        <time>2020-02-18T15:44:41Z</time>
      </trkpt>
      <trkpt lat="45.41219" lon="4.73995">
        <ele>-152</ele>
        <time>2020-02-18T15:44:42Z</time>
      </trkpt>
      <trkpt lat="45.41213" lon="4.7399">
        <ele>-153.2</ele>
        <time>2020-02-18T15:44:43Z</time>
      </trkpt>
      <trkpt lat="45.41206" lon="4.73989">
        <ele>-154.4</ele>
        <time>2020-02-18T15:44:44Z</time>
      </trkpt>
      <trkpt lat="45.41199" lon="4.73992">
        <ele>-155.6</ele>
        <time>2020-02-18T15:44:45Z</time>
      </trkpt>
      <trkpt lat="45.41192" lon="4.73996">
        <ele>-156.8</ele>
        <time>2020-02-18T15:44:46Z</time>
      </trkpt>
      <trkpt lat="45.41186" lon="4.73999">
        <ele>-158</ele>
        <time>2020-02-18T15:44:47Z</time>
      </trkpt>
      <trkpt lat="45.4118" lon="4.73999">
        <ele>-159.4</ele>
        <time>2020-02-18T15:44:48Z</time>
      </trkpt>
      <trkpt lat="45.41175" lon="4.73998">
        <ele>-161</ele>
        <time>2020-02-18T15:44:49Z</time>
      </trkpt>
      <trkpt lat="45.4117" lon="4.73999">
        <ele>-162.2</ele>
        <time>2020-02-18T15:44:50Z</time>
      </trkpt>
      <trkpt lat="45.41164" lon="4.74001">
        <ele>-163.2</ele>
        <time>2020-02-18T15:44:51Z</time>
      </trkpt>
      <trkpt lat="45.41158" lon="4.74002">
        <ele>-164.4</ele>
        <time>2020-02-18T15:44:52Z</time>
      </trkpt>
      <trkpt lat="45.41153" lon="4.74002">
        <ele>-165.8</ele>
        <time>2020-02-18T15:44:53Z</time>
      </trkpt>
      <trkpt lat="45.41141" lon="4.74004">
        <ele>-167.6</ele>
        <time>2020-02-18T15:44:55Z</time>
      </trkpt>
      <trkpt lat="45.41135" lon="4.74004">
        <ele>-168.2</ele>
        <time>2020-02-18T15:44:56Z</time>
      </trkpt>
      <trkpt lat="45.4113" lon="4.74004">
        <ele>-169</ele>
        <time>2020-02-18T15:44:57Z</time>
      </trkpt>
      <trkpt lat="45.41118" lon="4.74003">
        <ele>-170.6</ele>
        <time>2020-02-18T15:44:59Z</time>
      </trkpt>
      <trkpt lat="45.41106" lon="4.74004">
        <ele>-172.4</ele>
        <time>2020-02-18T15:45:01Z</time>
      </trkpt>
      <trkpt lat="45.41093" lon="4.74006">
        <ele>-174</ele>
        <time>2020-02-18T15:45:03Z</time>
      </trkpt>
      <trkpt lat="45.41076" lon="4.7401">
        <ele>-175.8</ele>
        <time>2020-02-18T15:45:06Z</time>
      </trkpt>
      <trkpt lat="45.41065" lon="4.74013">
        <ele>-177.4</ele>
        <time>2020-02-18T15:45:08Z</time>
      </trkpt>
      <trkpt lat="45.41053" lon="4.74016">
        <ele>-178.4</ele>
        <time>2020-02-18T15:45:10Z</time>
      </trkpt>
      <trkpt lat="45.41042" lon="4.74019">
        <ele>-179.8</ele>
        <time>2020-02-18T15:45:12Z</time>
      </trkpt>
      <trkpt lat="45.41031" lon="4.74023">
        <ele>-181</ele>
        <time>2020-02-18T15:45:14Z</time>
      </trkpt>
      <trkpt lat="45.4102" lon="4.74027">
        <ele>-182.2</ele>
        <time>2020-02-18T15:45:16Z</time>
      </trkpt>
      <trkpt lat="45.41009" lon="4.74033">
        <ele>-183.6</ele>
        <time>2020-02-18T15:45:18Z</time>
      </trkpt>
      <trkpt lat="45.41004" lon="4.74036">
        <ele>-184.2</ele>
        <time>2020-02-18T15:45:19Z</time>
      </trkpt>
      <trkpt lat="45.40999" lon="4.74039">
        <ele>-184.8</ele>
        <time>2020-02-18T15:45:20Z</time>
      </trkpt>
      <trkpt lat="45.40988" lon="4.74044">
        <ele>-186</ele>
        <time>2020-02-18T15:45:23Z</time>
      </trkpt>
      <trkpt lat="45.40978" lon="4.74049">
        <ele>-187.6</ele>
        <time>2020-02-18T15:45:25Z</time>
      </trkpt>
      <trkpt lat="45.40972" lon="4.74052">
        <ele>-188.4</ele>
        <time>2020-02-18T15:45:26Z</time>
      </trkpt>
      <trkpt lat="45.40967" lon="4.74054">
        <ele>-189</ele>
        <time>2020-02-18T15:45:27Z</time>
      </trkpt>
      <trkpt lat="45.40953" lon="4.74064">
        <ele>-190</ele>
        <time>2020-02-18T15:45:29Z</time>
      </trkpt>
      <trkpt lat="45.40948" lon="4.74066">
        <ele>-190.6</ele>
        <time>2020-02-18T15:45:30Z</time>
      </trkpt>
      <trkpt lat="45.40938" lon="4.7407">
        <ele>-191.8</ele>
        <time>2020-02-18T15:45:32Z</time>
      </trkpt>
      <trkpt lat="45.40923" lon="4.74077">
        <ele>-193</ele>
        <time>2020-02-18T15:45:35Z</time>
      </trkpt>
      <trkpt lat="45.40918" lon="4.74079">
        <ele>-193.8</ele>
        <time>2020-02-18T15:45:36Z</time>
      </trkpt>
      <trkpt lat="45.40916" lon="4.7408">
        <ele>-194.4</ele>
        <time>2020-02-18T15:45:37Z</time>
      </trkpt>
      <trkpt lat="45.40913" lon="4.74081">
        <ele>-195</ele>
        <time>2020-02-18T15:45:38Z</time>
      </trkpt>
      <trkpt lat="45.40903" lon="4.74084">
        <ele>-195.6</ele>
        <time>2020-02-18T15:45:39Z</time>
      </trkpt>
      <trkpt lat="45.40893" lon="4.74089">
        <ele>-196.8</ele>
        <time>2020-02-18T15:45:41Z</time>
      </trkpt>
      <trkpt lat="45.40884" lon="4.74095">
        <ele>-197.8</ele>
        <time>2020-02-18T15:45:43Z</time>
      </trkpt>
      <trkpt lat="45.40869" lon="4.74102">
        <ele>-198.8</ele>
        <time>2020-02-18T15:45:46Z</time>
      </trkpt>
      <trkpt lat="45.40864" lon="4.74105">
        <ele>-199.4</ele>
        <time>2020-02-18T15:45:47Z</time>
      </trkpt>
      <trkpt lat="45.4086" lon="4.74108">
        <ele>-200.8</ele>
        <time>2020-02-18T15:45:49Z</time>
      </trkpt>
      <trkpt lat="45.40851" lon="4.74116">
        <ele>-201.4</ele>
        <time>2020-02-18T15:45:50Z</time>
      </trkpt>
      <trkpt lat="45.40847" lon="4.7412">
        <ele>-202.4</ele>
        <time>2020-02-18T15:45:52Z</time>
      </trkpt>
      <trkpt lat="45.40834" lon="4.74128">
        <ele>-203.4</ele>
        <time>2020-02-18T15:45:54Z</time>
      </trkpt>
      <trkpt lat="45.40831" lon="4.74132">
        <ele>-204.4</ele>
        <time>2020-02-18T15:45:56Z</time>
      </trkpt>
      <trkpt lat="45.40823" lon="4.74139">
        <ele>-204.8</ele>
        <time>2020-02-18T15:45:57Z</time>
      </trkpt>
      <trkpt lat="45.40819" lon="4.74141">
        <ele>-206.2</ele>
        <time>2020-02-18T15:45:59Z</time>
      </trkpt>
      <trkpt lat="45.40804" lon="4.74149">
        <ele>-207.4</ele>
        <time>2020-02-18T15:46:01Z</time>
      </trkpt>
      <trkpt lat="45.40797" lon="4.7415">
        <ele>-208.2</ele>
        <time>2020-02-18T15:46:02Z</time>
      </trkpt>
      <trkpt lat="45.40794" lon="4.7415">
        <ele>-208.8</ele>
        <time>2020-02-18T15:46:03Z</time>
      </trkpt>
      <trkpt lat="45.40791" lon="4.7415">
        <ele>-210</ele>
        <time>2020-02-18T15:46:04Z</time>
      </trkpt>
      <trkpt lat="45.40783" lon="4.74143">
        <ele>-211</ele>
        <time>2020-02-18T15:46:05Z</time>
      </trkpt>
      <trkpt lat="45.40783" lon="4.74137">
        <ele>-212.2</ele>
        <time>2020-02-18T15:46:06Z</time>
      </trkpt>
      <trkpt lat="45.40784" lon="4.74132">
        <ele>-213</ele>
        <time>2020-02-18T15:46:07Z</time>
      </trkpt>
      <trkpt lat="45.40785" lon="4.74126">
        <ele>-213.6</ele>
        <time>2020-02-18T15:46:08Z</time>
      </trkpt>
      <trkpt lat="45.40785" lon="4.7412">
        <ele>-214.2</ele>
        <time>2020-02-18T15:46:09Z</time>
      </trkpt>
      <trkpt lat="45.40785" lon="4.7412">
        <ele>-215</ele>
        <time>2020-02-18T15:46:10Z</time>
      </trkpt>
      <trkpt lat="45.40785" lon="4.74107">
        <ele>-216.8</ele>
        <time>2020-02-18T15:46:12Z</time>
      </trkpt>
      <trkpt lat="45.40778" lon="4.7409">
        <ele>-218.4</ele>
        <time>2020-02-18T15:46:14Z</time>
      </trkpt>
      <trkpt lat="45.40769" lon="4.74089">
        <ele>-220</ele>
        <time>2020-02-18T15:46:16Z</time>
      </trkpt>
      <trkpt lat="45.40764" lon="4.7409">
        <ele>-221</ele>
        <time>2020-02-18T15:46:17Z</time>
      </trkpt>
      <trkpt lat="45.40759" lon="4.74091">
        <ele>-222</ele>
        <time>2020-02-18T15:46:18Z</time>
      </trkpt>
      <trkpt lat="45.40749" lon="4.74093">
        <ele>-224</ele>
        <time>2020-02-18T15:46:20Z</time>
      </trkpt>
      <trkpt lat="45.40739" lon="4.74095">
        <ele>-225.8</ele>
        <time>2020-02-18T15:46:22Z</time>
      </trkpt>
      <trkpt lat="45.40734" lon="4.74096">
        <ele>-227.8</ele>
        <time>2020-02-18T15:46:24Z</time>
      </trkpt>
      <trkpt lat="45.40719" lon="4.741">
        <ele>-229.6</ele>
        <time>2020-02-18T15:46:26Z</time>
      </trkpt>
      <trkpt lat="45.40714" lon="4.74102">
        <ele>-231.4</ele>
        <time>2020-02-18T15:46:28Z</time>
      </trkpt>
      <trkpt lat="45.40699" lon="4.74105">
        <ele>-233.4</ele>
        <time>2020-02-18T15:46:30Z</time>
      </trkpt>
      <trkpt lat="45.40693" lon="4.74105">
        <ele>-235</ele>
        <time>2020-02-18T15:46:32Z</time>
      </trkpt>
      <trkpt lat="45.40684" lon="4.74107">
        <ele>-236.8</ele>
        <time>2020-02-18T15:46:34Z</time>
      </trkpt>
      <trkpt lat="45.40674" lon="4.7411">
        <ele>-237.8</ele>
        <time>2020-02-18T15:46:35Z</time>
      </trkpt>
      <trkpt lat="45.40674" lon="4.7411">
        <ele>-238.8</ele>
        <time>2020-02-18T15:46:36Z</time>
      </trkpt>
      <trkpt lat="45.40661" lon="4.74112">
        <ele>-239.6</ele>
        <time>2020-02-18T15:46:37Z</time>
      </trkpt>
      <trkpt lat="45.40654" lon="4.74113">
        <ele>-241.2</ele>
        <time>2020-02-18T15:46:39Z</time>
      </trkpt>
      <trkpt lat="45.40643" lon="4.74115">
        <ele>-242.6</ele>
        <time>2020-02-18T15:46:41Z</time>
      </trkpt>
      <trkpt lat="45.40633" lon="4.74115">
        <ele>-244.2</ele>
        <time>2020-02-18T15:46:44Z</time>
      </trkpt>
      <trkpt lat="45.40623" lon="4.74116">
        <ele>-245.8</ele>
        <time>2020-02-18T15:46:46Z</time>
      </trkpt>
      <trkpt lat="45.40613" lon="4.74118">
        <ele>-247.4</ele>
        <time>2020-02-18T15:46:48Z</time>
      </trkpt>
      <trkpt lat="45.40603" lon="4.7412">
        <ele>-248.8</ele>
        <time>2020-02-18T15:46:50Z</time>
      </trkpt>
      <trkpt lat="45.40593" lon="4.74122">
        <ele>-250.2</ele>
        <time>2020-02-18T15:46:52Z</time>
      </trkpt>
      <trkpt lat="45.40583" lon="4.74123">
        <ele>-251.2</ele>
        <time>2020-02-18T15:46:54Z</time>
      </trkpt>
      <trkpt lat="45.40574" lon="4.74125">
        <ele>-252.4</ele>
        <time>2020-02-18T15:46:56Z</time>
      </trkpt>
      <trkpt lat="45.40564" lon="4.74129">
        <ele>-253.8</ele>
        <time>2020-02-18T15:46:58Z</time>
      </trkpt>
      <trkpt lat="45.40554" lon="4.74131">
        <ele>-255.4</ele>
        <time>2020-02-18T15:47:00Z</time>
      </trkpt>
      <trkpt lat="45.40545" lon="4.74133">
        <ele>-256.8</ele>
        <time>2020-02-18T15:47:02Z</time>
      </trkpt>
      <trkpt lat="45.4053" lon="4.74137">
        <ele>-258.4</ele>
        <time>2020-02-18T15:47:04Z</time>
      </trkpt>
      <trkpt lat="45.40525" lon="4.74138">
        <ele>-260.2</ele>
        <time>2020-02-18T15:47:06Z</time>
      </trkpt>
      <trkpt lat="45.40515" lon="4.74139">
        <ele>-261.4</ele>
        <time>2020-02-18T15:47:08Z</time>
      </trkpt>
      <trkpt lat="45.40505" lon="4.7414">
        <ele>-263</ele>
        <time>2020-02-18T15:47:10Z</time>
      </trkpt>
      <trkpt lat="45.40495" lon="4.74142">
        <ele>-263.8</ele>
        <time>2020-02-18T15:47:11Z</time>
      </trkpt>
      <trkpt lat="45.4049" lon="4.74143">
        <ele>-264.6</ele>
        <time>2020-02-18T15:47:12Z</time>
      </trkpt>
      <trkpt lat="45.4048" lon="4.74144">
        <ele>-266</ele>
        <time>2020-02-18T15:47:14Z</time>
      </trkpt>
      <trkpt lat="45.40475" lon="4.74145">
        <ele>-267.4</ele>
        <time>2020-02-18T15:47:16Z</time>
      </trkpt>
      <trkpt lat="45.40465" lon="4.74147">
        <ele>-269</ele>
        <time>2020-02-18T15:47:18Z</time>
      </trkpt>
      <trkpt lat="45.40456" lon="4.74149">
        <ele>-270.6</ele>
        <time>2020-02-18T15:47:20Z</time>
      </trkpt>
      <trkpt lat="45.40448" lon="4.74144">
        <ele>-272.4</ele>
        <time>2020-02-18T15:47:22Z</time>
      </trkpt>
      <trkpt lat="45.40447" lon="4.74133">
        <ele>-273.8</ele>
        <time>2020-02-18T15:47:24Z</time>
      </trkpt>
      <trkpt lat="45.40451" lon="4.74118">
        <ele>-275</ele>
        <time>2020-02-18T15:47:26Z</time>
      </trkpt>
      <trkpt lat="45.40453" lon="4.74113">
        <ele>-277</ele>
        <time>2020-02-18T15:47:28Z</time>
      </trkpt>
      <trkpt lat="45.40457" lon="4.74095">
        <ele>-278.6</ele>
        <time>2020-02-18T15:47:30Z</time>
      </trkpt>
      <trkpt lat="45.40458" lon="4.74089">
        <ele>-279.8</ele>
        <time>2020-02-18T15:47:32Z</time>
      </trkpt>
      <trkpt lat="45.40462" lon="4.7407">
        <ele>-281.2</ele>
        <time>2020-02-18T15:47:34Z</time>
      </trkpt>
      <trkpt lat="45.40464" lon="4.74057">
        <ele>-283</ele>
        <time>2020-02-18T15:47:36Z</time>
      </trkpt>
      <trkpt lat="45.40465" lon="4.74051">
        <ele>-284.6</ele>
        <time>2020-02-18T15:47:38Z</time>
      </trkpt>
      <trkpt lat="45.40467" lon="4.74045">
        <ele>-285.6</ele>
        <time>2020-02-18T15:47:39Z</time>
      </trkpt>
      <trkpt lat="45.40468" lon="4.74039">
        <ele>-286.8</ele>
        <time>2020-02-18T15:47:40Z</time>
      </trkpt>
      <trkpt lat="45.40469" lon="4.74032">
        <ele>-288</ele>
        <time>2020-02-18T15:47:41Z</time>
      </trkpt>
      <trkpt lat="45.4047" lon="4.74026">
        <ele>-289.2</ele>
        <time>2020-02-18T15:47:42Z</time>
      </trkpt>
      <trkpt lat="45.40475" lon="4.74009">
        <ele>-291</ele>
        <time>2020-02-18T15:47:44Z</time>
      </trkpt>
      <trkpt lat="45.40478" lon="4.74004">
        <ele>-293</ele>
        <time>2020-02-18T15:47:46Z</time>
      </trkpt>
      <trkpt lat="45.4048" lon="4.74">
        <ele>-294</ele>
        <time>2020-02-18T15:47:47Z</time>
      </trkpt>
      <trkpt lat="45.40483" lon="4.73995">
        <ele>-295.2</ele>
        <time>2020-02-18T15:47:48Z</time>
      </trkpt>
      <trkpt lat="45.40485" lon="4.73991">
        <ele>-296.6</ele>
        <time>2020-02-18T15:47:49Z</time>
      </trkpt>
      <trkpt lat="45.40488" lon="4.73986">
        <ele>-297.8</ele>
        <time>2020-02-18T15:47:50Z</time>
      </trkpt>
      <trkpt lat="45.40493" lon="4.73978">
        <ele>-299</ele>
        <time>2020-02-18T15:47:51Z</time>
      </trkpt>
      <trkpt lat="45.40493" lon="4.73978">
        <ele>-300.4</ele>
        <time>2020-02-18T15:47:52Z</time>
      </trkpt>
      <trkpt lat="45.40496" lon="4.73974">
        <ele>-301.4</ele>
        <time>2020-02-18T15:47:53Z</time>
      </trkpt>
      <trkpt lat="45.40502" lon="4.73966">
        <ele>-303.2</ele>
        <time>2020-02-18T15:47:55Z</time>
      </trkpt>
      <trkpt lat="45.40509" lon="4.73957">
        <ele>-304.2</ele>
        <time>2020-02-18T15:47:56Z</time>
      </trkpt>
      <trkpt lat="45.40512" lon="4.73954">
        <ele>-305.6</ele>
        <time>2020-02-18T15:47:57Z</time>
      </trkpt>
      <trkpt lat="45.40512" lon="4.73954">
        <ele>-306.8</ele>
        <time>2020-02-18T15:47:58Z</time>
      </trkpt>
      <trkpt lat="45.40516" lon="4.73948">
        <ele>-308</ele>
        <time>2020-02-18T15:47:59Z</time>
      </trkpt>
      <trkpt lat="45.40518" lon="4.73946">
        <ele>-309</ele>
        <time>2020-02-18T15:48:00Z</time>
      </trkpt>
      <trkpt lat="45.40524" lon="4.73939">
        <ele>-311</ele>
        <time>2020-02-18T15:48:02Z</time>
      </trkpt>
      <trkpt lat="45.40527" lon="4.73935">
        <ele>-312.2</ele>
        <time>2020-02-18T15:48:03Z</time>
      </trkpt>
      <trkpt lat="45.40529" lon="4.73932">
        <ele>-313.4</ele>
        <time>2020-02-18T15:48:04Z</time>
      </trkpt>
      <trkpt lat="45.40532" lon="4.73929">
        <ele>-314.4</ele>
        <time>2020-02-18T15:48:05Z</time>
      </trkpt>
      <trkpt lat="45.40534" lon="4.73926">
        <ele>-315.2</ele>
        <time>2020-02-18T15:48:06Z</time>
      </trkpt>
      <trkpt lat="45.40537" lon="4.73923">
        <ele>-316</ele>
        <time>2020-02-18T15:48:07Z</time>
      </trkpt>
      <trkpt lat="45.40545" lon="4.73914">
        <ele>-318.2</ele>
        <time>2020-02-18T15:48:09Z</time>
      </trkpt>
      <trkpt lat="45.40545" lon="4.73914">
        <ele>-319.4</ele>
        <time>2020-02-18T15:48:10Z</time>
      </trkpt>
      <trkpt lat="45.40548" lon="4.73911">
        <ele>-320.4</ele>
        <time>2020-02-18T15:48:11Z</time>
      </trkpt>
      <trkpt lat="45.40553" lon="4.73902">
        <ele>-322.4</ele>
        <time>2020-02-18T15:48:13Z</time>
      </trkpt>
      <trkpt lat="45.40554" lon="4.73891">
        <ele>-324.4</ele>
        <time>2020-02-18T15:48:15Z</time>
      </trkpt>
      <trkpt lat="45.40554" lon="4.73885">
        <ele>-325.4</ele>
        <time>2020-02-18T15:48:16Z</time>
      </trkpt>
      <trkpt lat="45.40555" lon="4.7388">
        <ele>-326.6</ele>
        <time>2020-02-18T15:48:17Z</time>
      </trkpt>
      <trkpt lat="45.40555" lon="4.7387">
        <ele>-327.8</ele>
        <time>2020-02-18T15:48:18Z</time>
      </trkpt>
      <trkpt lat="45.40555" lon="4.7387">
        <ele>-328.8</ele>
        <time>2020-02-18T15:48:19Z</time>
      </trkpt>
      <trkpt lat="45.40557" lon="4.73861">
        <ele>-330.6</ele>
        <time>2020-02-18T15:48:21Z</time>
      </trkpt>
      <trkpt lat="45.40557" lon="4.73856">
        <ele>-331.6</ele>
        <time>2020-02-18T15:48:22Z</time>
      </trkpt>
      <trkpt lat="45.40558" lon="4.73852">
        <ele>-332.6</ele>
        <time>2020-02-18T15:48:23Z</time>
      </trkpt>
      <trkpt lat="45.40559" lon="4.73843">
        <ele>-334.2</ele>
        <time>2020-02-18T15:48:25Z</time>
      </trkpt>
      <trkpt lat="45.4056" lon="4.73834">
        <ele>-335</ele>
        <time>2020-02-18T15:48:26Z</time>
      </trkpt>
      <trkpt lat="45.4056" lon="4.73834">
        <ele>-336</ele>
        <time>2020-02-18T15:48:27Z</time>
      </trkpt>
      <trkpt lat="45.4056" lon="4.73829">
        <ele>-337</ele>
        <time>2020-02-18T15:48:28Z</time>
      </trkpt>
      <trkpt lat="45.40561" lon="4.73825">
        <ele>-338.2</ele>
        <time>2020-02-18T15:48:29Z</time>
      </trkpt>
      <trkpt lat="45.40563" lon="4.73812">
        <ele>-340.2</ele>
        <time>2020-02-18T15:48:33Z</time>
      </trkpt>
      <trkpt lat="45.40564" lon="4.73803">
        <ele>-341.8</ele>
        <time>2020-02-18T15:48:35Z</time>
      </trkpt>
      <trkpt lat="45.40564" lon="4.73799">
        <ele>-343</ele>
        <time>2020-02-18T15:48:36Z</time>
      </trkpt>
      <trkpt lat="45.40565" lon="4.73794">
        <ele>-344.2</ele>
        <time>2020-02-18T15:48:37Z</time>
      </trkpt>
      <trkpt lat="45.40566" lon="4.73782">
        <ele>-345.8</ele>
        <time>2020-02-18T15:48:39Z</time>
      </trkpt>
      <trkpt lat="45.40566" lon="4.73782">
        <ele>-346.8</ele>
        <time>2020-02-18T15:48:40Z</time>
      </trkpt>
      <trkpt lat="45.40567" lon="4.73779">
        <ele>-348</ele>
        <time>2020-02-18T15:48:41Z</time>
      </trkpt>
      <trkpt lat="45.40569" lon="4.73767">
        <ele>-349.8</ele>
        <time>2020-02-18T15:48:43Z</time>
      </trkpt>
      <trkpt lat="45.4057" lon="4.73763">
        <ele>-351</ele>
        <time>2020-02-18T15:48:45Z</time>
      </trkpt>
      <trkpt lat="45.40572" lon="4.73753">
        <ele>-352.4</ele>
        <time>2020-02-18T15:48:47Z</time>
      </trkpt>
      <trkpt lat="45.40572" lon="4.7375">
        <ele>-353.8</ele>
        <time>2020-02-18T15:48:49Z</time>
      </trkpt>
      <trkpt lat="45.40573" lon="4.73745">
        <ele>-355.4</ele>
        <time>2020-02-18T15:48:51Z</time>
      </trkpt>
      <trkpt lat="45.40573" lon="4.73744">
        <ele>-357.4</ele>
        <time>2020-02-18T15:48:53Z</time>
      </trkpt>
      <trkpt lat="45.40573" lon="4.73744">
        <ele>-358.4</ele>
        <time>2020-02-18T15:48:54Z</time>
      </trkpt>
      <trkpt lat="45.40573" lon="4.73744">
        <ele>-359.8</ele>
        <time>2020-02-18T15:48:55Z</time>
      </trkpt>
      <trkpt lat="45.40574" lon="4.73744">
        <ele>-364.2</ele>
        <time>2020-02-18T15:48:56Z</time>
      </trkpt>
      <trkpt lat="45.40574" lon="4.73743">
        <ele>-370.2</ele>
        <time>2020-02-18T15:48:57Z</time>
      </trkpt>
      <trkpt lat="45.40574" lon="4.73742">
        <ele>-376.8</ele>
        <time>2020-02-18T15:48:58Z</time>
      </trkpt>
      <trkpt lat="45.40574" lon="4.73741">
        <ele>-381</ele>
        <time>2020-02-18T15:48:59Z</time>
      </trkpt>
      <trkpt lat="45.40574" lon="4.73738">
        <ele>-383.6</ele>
        <time>2020-02-18T15:49:00Z</time>
      </trkpt>
      <trkpt lat="45.40573" lon="4.73736">
        <ele>-385.2</ele>
        <time>2020-02-18T15:49:01Z</time>
      </trkpt>
      <trkpt lat="45.40573" lon="4.73731">
        <ele>-387</ele>
        <time>2020-02-18T15:49:03Z</time>
      </trkpt>
      <trkpt lat="45.40573" lon="4.7373">
        <ele>-388</ele>
        <time>2020-02-18T15:49:04Z</time>
      </trkpt>
      <trkpt lat="45.40573" lon="4.73729">
        <ele>-389.2</ele>
        <time>2020-02-18T15:49:05Z</time>
      </trkpt>
      <trkpt lat="45.40573" lon="4.73728">
        <ele>-390.4</ele>
        <time>2020-02-18T15:49:06Z</time>
      </trkpt>
      <trkpt lat="45.40573" lon="4.73726">
        <ele>-391.6</ele>
        <time>2020-02-18T15:49:07Z</time>
      </trkpt>
      <trkpt lat="45.40575" lon="4.73717">
        <ele>-393.4</ele>
        <time>2020-02-18T15:49:09Z</time>
      </trkpt>
      <trkpt lat="45.40575" lon="4.73714">
        <ele>-395.2</ele>
        <time>2020-02-18T15:49:11Z</time>
      </trkpt>
      <trkpt lat="45.40577" lon="4.73706">
        <ele>-396.8</ele>
        <time>2020-02-18T15:49:13Z</time>
      </trkpt>
      <trkpt lat="45.40578" lon="4.737">
        <ele>-398.6</ele>
        <time>2020-02-18T15:49:15Z</time>
      </trkpt>
      <trkpt lat="45.40578" lon="4.73694">
        <ele>-400.4</ele>
        <time>2020-02-18T15:49:17Z</time>
      </trkpt>
      <trkpt lat="45.40578" lon="4.73691">
        <ele>-402.2</ele>
        <time>2020-02-18T15:49:19Z</time>
      </trkpt>
      <trkpt lat="45.40579" lon="4.73687">
        <ele>-404.2</ele>
        <time>2020-02-18T15:49:21Z</time>
      </trkpt>
      <trkpt lat="45.4058" lon="4.73684">
        <ele>-405.4</ele>
        <time>2020-02-18T15:49:22Z</time>
      </trkpt>
      <trkpt lat="45.40581" lon="4.73676">
        <ele>-407</ele>
        <time>2020-02-18T15:49:24Z</time>
      </trkpt>
      <trkpt lat="45.40582" lon="4.73668">
        <ele>-408.4</ele>
        <time>2020-02-18T15:49:26Z</time>
      </trkpt>
      <trkpt lat="45.40582" lon="4.73666">
        <ele>-409.4</ele>
        <time>2020-02-18T15:49:27Z</time>
      </trkpt>
      <trkpt lat="45.40583" lon="4.7366">
        <ele>-410.4</ele>
        <time>2020-02-18T15:49:28Z</time>
      </trkpt>
      <trkpt lat="45.40583" lon="4.73656">
        <ele>-411.8</ele>
        <time>2020-02-18T15:49:30Z</time>
      </trkpt>
      <trkpt lat="45.4058" lon="4.73648">
        <ele>-413.2</ele>
        <time>2020-02-18T15:49:32Z</time>
      </trkpt>
      <trkpt lat="45.40575" lon="4.73642">
        <ele>-414.8</ele>
        <time>2020-02-18T15:49:34Z</time>
      </trkpt>
      <trkpt lat="45.4057" lon="4.73638">
        <ele>-416.4</ele>
        <time>2020-02-18T15:49:36Z</time>
      </trkpt>
      <trkpt lat="45.40567" lon="4.73636">
        <ele>-417.2</ele>
        <time>2020-02-18T15:49:37Z</time>
      </trkpt>
      <trkpt lat="45.40565" lon="4.73633">
        <ele>-417.8</ele>
        <time>2020-02-18T15:49:38Z</time>
      </trkpt>
      <trkpt lat="45.4056" lon="4.73629">
        <ele>-419.4</ele>
        <time>2020-02-18T15:49:40Z</time>
      </trkpt>
      <trkpt lat="45.40556" lon="4.73624">
        <ele>-420.6</ele>
        <time>2020-02-18T15:49:42Z</time>
      </trkpt>
      <trkpt lat="45.40552" lon="4.73618">
        <ele>-421.8</ele>
        <time>2020-02-18T15:49:44Z</time>
      </trkpt>
      <trkpt lat="45.40549" lon="4.73611">
        <ele>-423.2</ele>
        <time>2020-02-18T15:49:46Z</time>
      </trkpt>
      <trkpt lat="45.40547" lon="4.73607">
        <ele>-423.8</ele>
        <time>2020-02-18T15:49:47Z</time>
      </trkpt>
      <trkpt lat="45.40545" lon="4.73603">
        <ele>-424.6</ele>
        <time>2020-02-18T15:49:48Z</time>
      </trkpt>
      <trkpt lat="45.4054" lon="4.73597">
        <ele>-426</ele>
        <time>2020-02-18T15:49:50Z</time>
      </trkpt>
      <trkpt lat="45.40536" lon="4.73592">
        <ele>-427</ele>
        <time>2020-02-18T15:49:52Z</time>
      </trkpt>
      <trkpt lat="45.40529" lon="4.73585">
        <ele>-428.2</ele>
        <time>2020-02-18T15:49:55Z</time>
      </trkpt>
      <trkpt lat="45.40525" lon="4.73578">
        <ele>-429.4</ele>
        <time>2020-02-18T15:49:57Z</time>
      </trkpt>
      <trkpt lat="45.40524" lon="4.7357">
        <ele>-430.6</ele>
        <time>2020-02-18T15:49:59Z</time>
      </trkpt>
      <trkpt lat="45.40521" lon="4.73557">
        <ele>-431.8</ele>
        <time>2020-02-18T15:50:02Z</time>
      </trkpt>
      <trkpt lat="45.40519" lon="4.73544">
        <ele>-432.8</ele>
        <time>2020-02-18T15:50:05Z</time>
      </trkpt>
      <trkpt lat="45.40517" lon="4.73537">
        <ele>-433.6</ele>
        <time>2020-02-18T15:50:07Z</time>
      </trkpt>
      <trkpt lat="45.40516" lon="4.73533">
        <ele>-434.4</ele>
        <time>2020-02-18T15:50:08Z</time>
      </trkpt>
      <trkpt lat="45.40513" lon="4.73524">
        <ele>-435.6</ele>
        <time>2020-02-18T15:50:11Z</time>
      </trkpt>
      <trkpt lat="45.4051" lon="4.73508">
        <ele>-437</ele>
        <time>2020-02-18T15:50:15Z</time>
      </trkpt>
      <trkpt lat="45.4051" lon="4.73506">
        <ele>-437.6</ele>
        <time>2020-02-18T15:50:17Z</time>
      </trkpt>
      <trkpt lat="45.40509" lon="4.73503">
        <ele>-438</ele>
        <time>2020-02-18T15:50:18Z</time>
      </trkpt>
      <trkpt lat="45.40507" lon="4.73495">
        <ele>-439.2</ele>
        <time>2020-02-18T15:50:21Z</time>
      </trkpt>
      <trkpt lat="45.40506" lon="4.73486">
        <ele>-440.4</ele>
        <time>2020-02-18T15:50:24Z</time>
      </trkpt>
      <trkpt lat="45.40505" lon="4.73476">
        <ele>-441.6</ele>
        <time>2020-02-18T15:50:27Z</time>
      </trkpt>
      <trkpt lat="45.40505" lon="4.73464">
        <ele>-442.8</ele>
        <time>2020-02-18T15:50:31Z</time>
      </trkpt>
      <trkpt lat="45.40506" lon="4.73453">
        <ele>-444.2</ele>
        <time>2020-02-18T15:50:34Z</time>
      </trkpt>
      <trkpt lat="45.40507" lon="4.73448">
        <ele>-445.6</ele>
        <time>2020-02-18T15:50:37Z</time>
      </trkpt>
      <trkpt lat="45.40507" lon="4.7344">
        <ele>-446.6</ele>
        <time>2020-02-18T15:50:40Z</time>
      </trkpt>
      <trkpt lat="45.40508" lon="4.73439">
        <ele>-446.8</ele>
        <time>2020-02-18T15:50:41Z</time>
      </trkpt>
      <trkpt lat="45.40509" lon="4.73434">
        <ele>-448.2</ele>
        <time>2020-02-18T15:50:45Z</time>
      </trkpt>
      <trkpt lat="45.40509" lon="4.73434">
        <ele>-449.4</ele>
        <time>2020-02-18T15:50:47Z</time>
      </trkpt>
      <trkpt lat="45.40509" lon="4.73435">
        <ele>-450.8</ele>
        <time>2020-02-18T15:50:49Z</time>
      </trkpt>
      <trkpt lat="45.40509" lon="4.73435">
        <ele>-452.2</ele>
        <time>2020-02-18T15:50:51Z</time>
      </trkpt>
      <trkpt lat="45.40509" lon="4.73435">
        <ele>-453.6</ele>
        <time>2020-02-18T15:50:53Z</time>
      </trkpt>
      <trkpt lat="45.40509" lon="4.73435">
        <ele>-455</ele>
        <time>2020-02-18T15:50:55Z</time>
      </trkpt>
      <trkpt lat="45.40509" lon="4.73435">
        <ele>-456.4</ele>
        <time>2020-02-18T15:50:57Z</time>
      </trkpt>
      <trkpt lat="45.40509" lon="4.73435">
        <ele>-457.6</ele>
        <time>2020-02-18T15:50:59Z</time>
      </trkpt>
      <trkpt lat="45.40509" lon="4.73435">
        <ele>-459</ele>
        <time>2020-02-18T15:51:01Z</time>
      </trkpt>
      <trkpt lat="45.40509" lon="4.73435">
        <ele>-460.6</ele>
        <time>2020-02-18T15:51:03Z</time>
      </trkpt>
      <trkpt lat="45.40509" lon="4.73435">
        <ele>-461.8</ele>
        <time>2020-02-18T15:51:05Z</time>
      </trkpt>
      <trkpt lat="45.40509" lon="4.73435">
        <ele>-463.2</ele>
        <time>2020-02-18T15:51:07Z</time>
      </trkpt>
      <trkpt lat="45.40509" lon="4.73435">
        <ele>-464.6</ele>
        <time>2020-02-18T15:51:09Z</time>
      </trkpt>
      <trkpt lat="45.40509" lon="4.73435">
        <ele>-465.8</ele>
        <time>2020-02-18T15:51:11Z</time>
      </trkpt>
      <trkpt lat="45.40509" lon="4.73435">
        <ele>-466.8</ele>
        <time>2020-02-18T15:51:13Z</time>
      </trkpt>
      <trkpt lat="45.40509" lon="4.73435">
        <ele>-468.2</ele>
        <time>2020-02-18T15:51:15Z</time>
      </trkpt>
      <trkpt lat="45.40509" lon="4.73435">
        <ele>-469.6</ele>
        <time>2020-02-18T15:51:17Z</time>
      </trkpt>
      <trkpt lat="45.40509" lon="4.73435">
        <ele>-471</ele>
        <time>2020-02-18T15:51:19Z</time>
      </trkpt>
      <trkpt lat="45.40509" lon="4.73435">
        <ele>-472.4</ele>
        <time>2020-02-18T15:51:21Z</time>
      </trkpt>
      <trkpt lat="45.40509" lon="4.73435">
        <ele>-473.4</ele>
        <time>2020-02-18T15:51:23Z</time>
      </trkpt>
      <trkpt lat="45.40509" lon="4.73435">
        <ele>-475</ele>
        <time>2020-02-18T15:51:25Z</time>
      </trkpt>
      <trkpt lat="45.40509" lon="4.73433">
        <ele>-476.2</ele>
        <time>2020-02-18T15:51:27Z</time>
      </trkpt>
      <trkpt lat="45.40507" lon="4.73427">
        <ele>-477.8</ele>
        <time>2020-02-18T15:51:30Z</time>
      </trkpt>
      <trkpt lat="45.40506" lon="4.73424">
        <ele>-479</ele>
        <time>2020-02-18T15:51:32Z</time>
      </trkpt>
      <trkpt lat="45.40505" lon="4.73416">
        <ele>-480.2</ele>
        <time>2020-02-18T15:51:35Z</time>
      </trkpt>
      <trkpt lat="45.40504" lon="4.7341">
        <ele>-481.2</ele>
        <time>2020-02-18T15:51:37Z</time>
      </trkpt>
      <trkpt lat="45.40503" lon="4.73408">
        <ele>-481.6</ele>
        <time>2020-02-18T15:51:38Z</time>
      </trkpt>
      <trkpt lat="45.40501" lon="4.73401">
        <ele>-482.8</ele>
        <time>2020-02-18T15:51:41Z</time>
      </trkpt>
      <trkpt lat="45.40499" lon="4.73393">
        <ele>-483.8</ele>
        <time>2020-02-18T15:51:44Z</time>
      </trkpt>
      <trkpt lat="45.40498" lon="4.73384">
        <ele>-485.2</ele>
        <time>2020-02-18T15:51:47Z</time>
      </trkpt>
      <trkpt lat="45.40496" lon="4.73376">
        <ele>-486.4</ele>
        <time>2020-02-18T15:51:50Z</time>
      </trkpt>
      <trkpt lat="45.40495" lon="4.73365">
        <ele>-487.6</ele>
        <time>2020-02-18T15:51:54Z</time>
      </trkpt>
      <trkpt lat="45.40494" lon="4.73357">
        <ele>-488.4</ele>
        <time>2020-02-18T15:51:57Z</time>
      </trkpt>
      <trkpt lat="45.40494" lon="4.73354">
        <ele>-488.6</ele>
        <time>2020-02-18T15:51:58Z</time>
      </trkpt>
      <trkpt lat="45.40493" lon="4.73346">
        <ele>-489.8</ele>
        <time>2020-02-18T15:52:01Z</time>
      </trkpt>
      <trkpt lat="45.40491" lon="4.73335">
        <ele>-491</ele>
        <time>2020-02-18T15:52:05Z</time>
      </trkpt>
      <trkpt lat="45.40491" lon="4.7333">
        <ele>-492</ele>
        <time>2020-02-18T15:52:07Z</time>
      </trkpt>
      <trkpt lat="45.40491" lon="4.73327">
        <ele>-492.2</ele>
        <time>2020-02-18T15:52:08Z</time>
      </trkpt>
      <trkpt lat="45.4049" lon="4.73313">
        <ele>-493.4</ele>
        <time>2020-02-18T15:52:13Z</time>
      </trkpt>
      <trkpt lat="45.40489" lon="4.73306">
        <ele>-494.4</ele>
        <time>2020-02-18T15:52:16Z</time>
      </trkpt>
      <trkpt lat="45.40489" lon="4.73304">
        <ele>-495</ele>
        <time>2020-02-18T15:52:17Z</time>
      </trkpt>
      <trkpt lat="45.4049" lon="4.73298">
        <ele>-495.6</ele>
        <time>2020-02-18T15:52:19Z</time>
      </trkpt>
      <trkpt lat="45.40489" lon="4.7329">
        <ele>-496.8</ele>
        <time>2020-02-18T15:52:22Z</time>
      </trkpt>
      <trkpt lat="45.40488" lon="4.73281">
        <ele>-498.2</ele>
        <time>2020-02-18T15:52:25Z</time>
      </trkpt>
      <trkpt lat="45.40488" lon="4.73276">
        <ele>-499</ele>
        <time>2020-02-18T15:52:27Z</time>
      </trkpt>
      <trkpt lat="45.40488" lon="4.73273">
        <ele>-499.4</ele>
        <time>2020-02-18T15:52:28Z</time>
      </trkpt>
      <trkpt lat="45.40488" lon="4.73264">
        <ele>-500</ele>
        <time>2020-02-18T15:52:31Z</time>
      </trkpt>
      <trkpt lat="45.40488" lon="4.73255">
        <ele>-500</ele>
        <time>2020-02-18T15:52:34Z</time>
      </trkpt>
      <trkpt lat="45.40489" lon="4.73247">
        <ele>-500</ele>
        <time>2020-02-18T15:52:37Z</time>
      </trkpt>
      <trkpt lat="45.40489" lon="4.73237">
        <ele>-500</ele>
        <time>2020-02-18T15:52:40Z</time>
      </trkpt>
      <trkpt lat="45.4049" lon="4.73231">
        <ele>-500</ele>
        <time>2020-02-18T15:52:42Z</time>
      </trkpt>
      <trkpt lat="45.40492" lon="4.73225">
        <ele>-500</ele>
        <time>2020-02-18T15:52:44Z</time>
      </trkpt>
      <trkpt lat="45.40492" lon="4.73216">
        <ele>-500</ele>
        <time>2020-02-18T15:52:47Z</time>
      </trkpt>
      <trkpt lat="45.40492" lon="4.73209">
        <ele>-500</ele>
        <time>2020-02-18T15:52:49Z</time>
      </trkpt>
      <trkpt lat="45.40492" lon="4.73198">
        <ele>-500</ele>
        <time>2020-02-18T15:52:52Z</time>
      </trkpt>
      <trkpt lat="45.40491" lon="4.73188">
        <ele>-500</ele>
        <time>2020-02-18T15:52:55Z</time>
      </trkpt>
      <trkpt lat="45.40489" lon="4.73181">
        <ele>-500</ele>
        <time>2020-02-18T15:52:57Z</time>
      </trkpt>
      <trkpt lat="45.40489" lon="4.73177">
        <ele>-500</ele>
        <time>2020-02-18T15:52:58Z</time>
      </trkpt>
      <trkpt lat="45.40487" lon="4.7317">
        <ele>-500</ele>
        <time>2020-02-18T15:53:00Z</time>
      </trkpt>
      <trkpt lat="45.40485" lon="4.73163">
        <ele>-500</ele>
        <time>2020-02-18T15:53:02Z</time>
      </trkpt>
      <trkpt lat="45.40482" lon="4.73154">
        <ele>-500</ele>
        <time>2020-02-18T15:53:05Z</time>
      </trkpt>
      <trkpt lat="45.40481" lon="4.73152">
        <ele>-500</ele>
        <time>2020-02-18T15:53:06Z</time>
      </trkpt>
      <trkpt lat="45.40479" lon="4.7315">
        <ele>-500</ele>
        <time>2020-02-18T15:53:07Z</time>
      </trkpt>
      <trkpt lat="45.40474" lon="4.73143">
        <ele>-500</ele>
        <time>2020-02-18T15:53:10Z</time>
      </trkpt>
      <trkpt lat="45.40471" lon="4.73139">
        <ele>-500</ele>
        <time>2020-02-18T15:53:12Z</time>
      </trkpt>
      <trkpt lat="45.40465" lon="4.73131">
        <ele>-500</ele>
        <time>2020-02-18T15:53:15Z</time>
      </trkpt>
      <trkpt lat="45.40462" lon="4.73126">
        <ele>-500</ele>
        <time>2020-02-18T15:53:17Z</time>
      </trkpt>
      <trkpt lat="45.40459" lon="4.73121">
        <ele>-500</ele>
        <time>2020-02-18T15:53:19Z</time>
      </trkpt>
      <trkpt lat="45.40455" lon="4.73113">
        <ele>-500</ele>
        <time>2020-02-18T15:53:22Z</time>
      </trkpt>
      <trkpt lat="45.40452" lon="4.73108">
        <ele>-500</ele>
        <time>2020-02-18T15:53:24Z</time>
      </trkpt>
      <trkpt lat="45.4045" lon="4.73102">
        <ele>-500</ele>
        <time>2020-02-18T15:53:26Z</time>
      </trkpt>
      <trkpt lat="45.40449" lon="4.731">
        <ele>-500</ele>
        <time>2020-02-18T15:53:27Z</time>
      </trkpt>
      <trkpt lat="45.40447" lon="4.73094">
        <ele>-500</ele>
        <time>2020-02-18T15:53:29Z</time>
      </trkpt>
      <trkpt lat="45.40446" lon="4.73089">
        <ele>-500</ele>
        <time>2020-02-18T15:53:31Z</time>
      </trkpt>
      <trkpt lat="45.40445" lon="4.73079">
        <ele>-500</ele>
        <time>2020-02-18T15:53:34Z</time>
      </trkpt>
      <trkpt lat="45.40446" lon="4.7307">
        <ele>-500</ele>
        <time>2020-02-18T15:53:37Z</time>
      </trkpt>
      <trkpt lat="45.40448" lon="4.73057">
        <ele>-500</ele>
        <time>2020-02-18T15:53:41Z</time>
      </trkpt>
      <trkpt lat="45.40449" lon="4.73048">
        <ele>-500</ele>
        <time>2020-02-18T15:53:44Z</time>
      </trkpt>
      <trkpt lat="45.4045" lon="4.73039">
        <ele>-500</ele>
        <time>2020-02-18T15:53:47Z</time>
      </trkpt>
      <trkpt lat="45.40451" lon="4.73036">
        <ele>-500</ele>
        <time>2020-02-18T15:53:48Z</time>
      </trkpt>
      <trkpt lat="45.40454" lon="4.73028">
        <ele>-500</ele>
        <time>2020-02-18T15:53:51Z</time>
      </trkpt>
      <trkpt lat="45.40458" lon="4.73017">
        <ele>-500</ele>
        <time>2020-02-18T15:53:55Z</time>
      </trkpt>
      <trkpt lat="45.40458" lon="4.73012">
        <ele>-500</ele>
        <time>2020-02-18T15:53:57Z</time>
      </trkpt>
      <trkpt lat="45.40457" lon="4.73006">
        <ele>-500</ele>
        <time>2020-02-18T15:53:59Z</time>
      </trkpt>
      <trkpt lat="45.40456" lon="4.73003">
        <ele>-500</ele>
        <time>2020-02-18T15:54:00Z</time>
      </trkpt>
      <trkpt lat="45.40452" lon="4.73001">
        <ele>-500</ele>
        <time>2020-02-18T15:54:02Z</time>
      </trkpt>
      <trkpt lat="45.40447" lon="4.73005">
        <ele>-500</ele>
        <time>2020-02-18T15:54:05Z</time>
      </trkpt>
      <trkpt lat="45.40445" lon="4.7301">
        <ele>-500</ele>
        <time>2020-02-18T15:54:07Z</time>
      </trkpt>
      <trkpt lat="45.40443" lon="4.73017">
        <ele>-500</ele>
        <time>2020-02-18T15:54:09Z</time>
      </trkpt>
      <trkpt lat="45.40442" lon="4.73028">
        <ele>-500</ele>
        <time>2020-02-18T15:54:12Z</time>
      </trkpt>
      <trkpt lat="45.4044" lon="4.7304">
        <ele>-500</ele>
        <time>2020-02-18T15:54:15Z</time>
      </trkpt>
      <trkpt lat="45.40438" lon="4.73047">
        <ele>-500</ele>
        <time>2020-02-18T15:54:17Z</time>
      </trkpt>
      <trkpt lat="45.40435" lon="4.73054">
        <ele>-500</ele>
        <time>2020-02-18T15:54:19Z</time>
      </trkpt>
      <trkpt lat="45.40433" lon="4.73062">
        <ele>-500</ele>
        <time>2020-02-18T15:54:21Z</time>
      </trkpt>
      <trkpt lat="45.40431" lon="4.7307">
        <ele>-500</ele>
        <time>2020-02-18T15:54:23Z</time>
      </trkpt>
      <trkpt lat="45.40429" lon="4.73079">
        <ele>-500</ele>
        <time>2020-02-18T15:54:25Z</time>
      </trkpt>
      <trkpt lat="45.40429" lon="4.73087">
        <ele>-500</ele>
        <time>2020-02-18T15:54:27Z</time>
      </trkpt>
      <trkpt lat="45.40429" lon="4.73091">
        <ele>-500</ele>
        <time>2020-02-18T15:54:28Z</time>
      </trkpt>
      <trkpt lat="45.40429" lon="4.73099">
        <ele>-500</ele>
        <time>2020-02-18T15:54:30Z</time>
      </trkpt>
      <trkpt lat="45.4043" lon="4.73111">
        <ele>-500</ele>
        <time>2020-02-18T15:54:33Z</time>
      </trkpt>
      <trkpt lat="45.40431" lon="4.73118">
        <ele>-500</ele>
        <time>2020-02-18T15:54:35Z</time>
      </trkpt>
      <trkpt lat="45.40433" lon="4.73125">
        <ele>-500</ele>
        <time>2020-02-18T15:54:37Z</time>
      </trkpt>
      <trkpt lat="45.40434" lon="4.73128">
        <ele>-500</ele>
        <time>2020-02-18T15:54:38Z</time>
      </trkpt>
      <trkpt lat="45.40437" lon="4.73134">
        <ele>-500</ele>
        <time>2020-02-18T15:54:40Z</time>
      </trkpt>
      <trkpt lat="45.40441" lon="4.73143">
        <ele>-500</ele>
        <time>2020-02-18T15:54:43Z</time>
      </trkpt>
      <trkpt lat="45.40446" lon="4.73155">
        <ele>-500</ele>
        <time>2020-02-18T15:54:47Z</time>
      </trkpt>
      <trkpt lat="45.4045" lon="4.73168">
        <ele>-500</ele>
        <time>2020-02-18T15:54:51Z</time>
      </trkpt>
      <trkpt lat="45.40452" lon="4.73178">
        <ele>-500</ele>
        <time>2020-02-18T15:54:54Z</time>
      </trkpt>
      <trkpt lat="45.4045" lon="4.73187">
        <ele>-500</ele>
        <time>2020-02-18T15:54:57Z</time>
      </trkpt>
      <trkpt lat="45.40443" lon="4.73192">
        <ele>-500</ele>
        <time>2020-02-18T15:55:00Z</time>
      </trkpt>
      <trkpt lat="45.40436" lon="4.73192">
        <ele>-500</ele>
        <time>2020-02-18T15:55:03Z</time>
      </trkpt>
      <trkpt lat="45.40429" lon="4.73191">
        <ele>-500</ele>
        <time>2020-02-18T15:55:06Z</time>
      </trkpt>
      <trkpt lat="45.40426" lon="4.7319">
        <ele>-500</ele>
        <time>2020-02-18T15:55:07Z</time>
      </trkpt>
      <trkpt lat="45.40419" lon="4.73189">
        <ele>-500</ele>
        <time>2020-02-18T15:55:10Z</time>
      </trkpt>
      <trkpt lat="45.40412" lon="4.73187">
        <ele>-500</ele>
        <time>2020-02-18T15:55:13Z</time>
      </trkpt>
      <trkpt lat="45.40407" lon="4.73186">
        <ele>-500</ele>
        <time>2020-02-18T15:55:15Z</time>
      </trkpt>
      <trkpt lat="45.40401" lon="4.73184">
        <ele>-500</ele>
        <time>2020-02-18T15:55:18Z</time>
      </trkpt>
      <trkpt lat="45.40394" lon="4.73183">
        <ele>-500</ele>
        <time>2020-02-18T15:55:21Z</time>
      </trkpt>
      <trkpt lat="45.40388" lon="4.73182">
        <ele>-500</ele>
        <time>2020-02-18T15:55:24Z</time>
      </trkpt>
      <trkpt lat="45.4038" lon="4.7318">
        <ele>-500</ele>
        <time>2020-02-18T15:55:28Z</time>
      </trkpt>
      <trkpt lat="45.40374" lon="4.73175">
        <ele>-500</ele>
        <time>2020-02-18T15:55:31Z</time>
      </trkpt>
      <trkpt lat="45.4037" lon="4.73167">
        <ele>-500</ele>
        <time>2020-02-18T15:55:34Z</time>
      </trkpt>
      <trkpt lat="45.40366" lon="4.73159">
        <ele>-500</ele>
        <time>2020-02-18T15:55:37Z</time>
      </trkpt>
      <trkpt lat="45.40364" lon="4.73156">
        <ele>-500</ele>
        <time>2020-02-18T15:55:38Z</time>
      </trkpt>
      <trkpt lat="45.40362" lon="4.73151">
        <ele>-500</ele>
        <time>2020-02-18T15:55:40Z</time>
      </trkpt>
      <trkpt lat="45.40357" lon="4.73141">
        <ele>-500</ele>
        <time>2020-02-18T15:55:44Z</time>
      </trkpt>
      <trkpt lat="45.40353" lon="4.73133">
        <ele>-500</ele>
        <time>2020-02-18T15:55:47Z</time>
      </trkpt>
      <trkpt lat="45.40352" lon="4.73131">
        <ele>-500</ele>
        <time>2020-02-18T15:55:48Z</time>
      </trkpt>
      <trkpt lat="45.40347" lon="4.73122">
        <ele>-500</ele>
        <time>2020-02-18T15:55:52Z</time>
      </trkpt>
      <trkpt lat="45.40343" lon="4.73116">
        <ele>-500</ele>
        <time>2020-02-18T15:55:55Z</time>
      </trkpt>
      <trkpt lat="45.40339" lon="4.73111">
        <ele>-500</ele>
        <time>2020-02-18T15:55:58Z</time>
      </trkpt>
      <trkpt lat="45.40337" lon="4.73102">
        <ele>-500</ele>
        <time>2020-02-18T15:56:02Z</time>
      </trkpt>
      <trkpt lat="45.40335" lon="4.73096">
        <ele>-500</ele>
        <time>2020-02-18T15:56:06Z</time>
      </trkpt>
      <trkpt lat="45.40333" lon="4.73094">
        <ele>-500</ele>
        <time>2020-02-18T15:56:08Z</time>
      </trkpt>
      <trkpt lat="45.40331" lon="4.73092">
        <ele>-500</ele>
        <time>2020-02-18T15:56:10Z</time>
      </trkpt>
      <trkpt lat="45.40326" lon="4.7309">
        <ele>-500</ele>
        <time>2020-02-18T15:56:14Z</time>
      </trkpt>
      <trkpt lat="45.40323" lon="4.73089">
        <ele>-500</ele>
        <time>2020-02-18T15:56:16Z</time>
      </trkpt>
      <trkpt lat="45.4032" lon="4.73088">
        <ele>-500</ele>
        <time>2020-02-18T15:56:18Z</time>
      </trkpt>
      <trkpt lat="45.40319" lon="4.73087">
        <ele>-500</ele>
        <time>2020-02-18T15:56:19Z</time>
      </trkpt>
      <trkpt lat="45.40314" lon="4.73086">
        <ele>-500</ele>
        <time>2020-02-18T15:56:22Z</time>
      </trkpt>
      <trkpt lat="45.40308" lon="4.73083">
        <ele>-500</ele>
        <time>2020-02-18T15:56:27Z</time>
      </trkpt>
      <trkpt lat="45.40306" lon="4.73083">
        <ele>-500</ele>
        <time>2020-02-18T15:56:28Z</time>
      </trkpt>
      <trkpt lat="45.40304" lon="4.73082">
        <ele>-500</ele>
        <time>2020-02-18T15:56:30Z</time>
      </trkpt>
      <trkpt lat="45.403" lon="4.73078">
        <ele>-500</ele>
        <time>2020-02-18T15:56:33Z</time>
      </trkpt>
      <trkpt lat="45.40299" lon="4.73075">
        <ele>-500</ele>
        <time>2020-02-18T15:56:35Z</time>
      </trkpt>
      <trkpt lat="45.40298" lon="4.73071">
        <ele>-500</ele>
        <time>2020-02-18T15:56:38Z</time>
      </trkpt>
      <trkpt lat="45.40302" lon="4.73067">
        <ele>-500</ele>
        <time>2020-02-18T15:56:42Z</time>
      </trkpt>
      <trkpt lat="45.40304" lon="4.73061">
        <ele>-500</ele>
        <time>2020-02-18T15:56:46Z</time>
      </trkpt>
      <trkpt lat="45.40305" lon="4.73057">
        <ele>-500</ele>
        <time>2020-02-18T15:56:48Z</time>
      </trkpt>
      <trkpt lat="45.40304" lon="4.7305">
        <ele>-500</ele>
        <time>2020-02-18T15:56:52Z</time>
      </trkpt>
      <trkpt lat="45.40302" lon="4.73042">
        <ele>-500</ele>
        <time>2020-02-18T15:56:58Z</time>
      </trkpt>
      <trkpt lat="45.40301" lon="4.73041">
        <ele>-500</ele>
        <time>2020-02-18T15:56:59Z</time>
      </trkpt>
      <trkpt lat="45.40297" lon="4.73036">
        <ele>-500</ele>
        <time>2020-02-18T15:57:04Z</time>
      </trkpt>
      <trkpt lat="45.40293" lon="4.73034">
        <ele>-500</ele>
        <time>2020-02-18T15:57:08Z</time>
      </trkpt>
      <trkpt lat="45.40285" lon="4.73027">
        <ele>-500</ele>
        <time>2020-02-18T15:57:18Z</time>
      </trkpt>
      <trkpt lat="45.40283" lon="4.73026">
        <ele>-500</ele>
        <time>2020-02-18T15:57:20Z</time>
      </trkpt>
      <trkpt lat="45.40281" lon="4.73027">
        <ele>-500</ele>
        <time>2020-02-18T15:57:21Z</time>
      </trkpt>
      <trkpt lat="45.40278" lon="4.73027">
        <ele>-500</ele>
        <time>2020-02-18T15:57:23Z</time>
      </trkpt>
      <trkpt lat="45.40276" lon="4.73026">
        <ele>-500</ele>
        <time>2020-02-18T15:57:25Z</time>
      </trkpt>
      <trkpt lat="45.40274" lon="4.73024">
        <ele>-500</ele>
        <time>2020-02-18T15:57:27Z</time>
      </trkpt>
      <trkpt lat="45.40273" lon="4.73023">
        <ele>-500</ele>
        <time>2020-02-18T15:57:28Z</time>
      </trkpt>
      <trkpt lat="45.40271" lon="4.73022">
        <ele>-500</ele>
        <time>2020-02-18T15:57:29Z</time>
      </trkpt>
      <trkpt lat="45.40268" lon="4.73018">
        <ele>-500</ele>
        <time>2020-02-18T15:57:33Z</time>
      </trkpt>
      <trkpt lat="45.40266" lon="4.73014">
        <ele>-500</ele>
        <time>2020-02-18T15:57:36Z</time>
      </trkpt>
      <trkpt lat="45.40264" lon="4.73012">
        <ele>-500</ele>
        <time>2020-02-18T15:57:38Z</time>
      </trkpt>
      <trkpt lat="45.4026" lon="4.73008">
        <ele>-500</ele>
        <time>2020-02-18T15:57:43Z</time>
      </trkpt>
      <trkpt lat="45.40256" lon="4.73003">
        <ele>-500</ele>
        <time>2020-02-18T15:57:48Z</time>
      </trkpt>
      <trkpt lat="45.40255" lon="4.73002">
        <ele>-500</ele>
        <time>2020-02-18T15:57:49Z</time>
      </trkpt>
      <trkpt lat="45.40252" lon="4.72998">
        <ele>-500</ele>
        <time>2020-02-18T15:57:53Z</time>
      </trkpt>
      <trkpt lat="45.40249" lon="4.72994">
        <ele>-500</ele>
        <time>2020-02-18T15:57:57Z</time>
      </trkpt>
      <trkpt lat="45.40248" lon="4.72992">
        <ele>-500</ele>
        <time>2020-02-18T15:57:58Z</time>
      </trkpt>
      <trkpt lat="45.4025" lon="4.72989">
        <ele>-500</ele>
        <time>2020-02-18T15:58:01Z</time>
      </trkpt>
      <trkpt lat="45.40253" lon="4.72988">
        <ele>-500</ele>
        <time>2020-02-18T15:58:05Z</time>
      </trkpt>
      <trkpt lat="45.40257" lon="4.72988">
        <ele>-500</ele>
        <time>2020-02-18T15:58:08Z</time>
      </trkpt>
      <trkpt lat="45.40261" lon="4.72987">
        <ele>-500</ele>
        <time>2020-02-18T15:58:11Z</time>
      </trkpt>
      <trkpt lat="45.40265" lon="4.72986">
        <ele>-500</ele>
        <time>2020-02-18T15:58:14Z</time>
      </trkpt>
      <trkpt lat="45.40269" lon="4.72984">
        <ele>-500</ele>
        <time>2020-02-18T15:58:17Z</time>
      </trkpt>
      <trkpt lat="45.40271" lon="4.72983">
        <ele>-500</ele>
        <time>2020-02-18T15:58:18Z</time>
      </trkpt>
      <trkpt lat="45.40274" lon="4.72982">
        <ele>-500</ele>
        <time>2020-02-18T15:58:20Z</time>
      </trkpt>
      <trkpt lat="45.40279" lon="4.72979">
        <ele>-500</ele>
        <time>2020-02-18T15:58:23Z</time>
      </trkpt>
      <trkpt lat="45.40286" lon="4.72976">
        <ele>-500</ele>
        <time>2020-02-18T15:58:27Z</time>
      </trkpt>
      <trkpt lat="45.40288" lon="4.72976">
        <ele>-500</ele>
        <time>2020-02-18T15:58:28Z</time>
      </trkpt>
      <trkpt lat="45.40291" lon="4.72975">
        <ele>-500</ele>
        <time>2020-02-18T15:58:30Z</time>
      </trkpt>
      <trkpt lat="45.40297" lon="4.72973">
        <ele>-500</ele>
        <time>2020-02-18T15:58:34Z</time>
      </trkpt>
      <trkpt lat="45.40302" lon="4.72971">
        <ele>-500</ele>
        <time>2020-02-18T15:58:37Z</time>
      </trkpt>
      <trkpt lat="45.40304" lon="4.7297">
        <ele>-500</ele>
        <time>2020-02-18T15:58:38Z</time>
      </trkpt>
      <trkpt lat="45.40307" lon="4.72968">
        <ele>-500</ele>
        <time>2020-02-18T15:58:40Z</time>
      </trkpt>
      <trkpt lat="45.40312" lon="4.72962">
        <ele>-500</ele>
        <time>2020-02-18T15:58:43Z</time>
      </trkpt>
      <trkpt lat="45.40317" lon="4.72954">
        <ele>-500</ele>
        <time>2020-02-18T15:58:47Z</time>
      </trkpt>
      <trkpt lat="45.40318" lon="4.72952">
        <ele>-500</ele>
        <time>2020-02-18T15:58:48Z</time>
      </trkpt>
      <trkpt lat="45.40319" lon="4.7295">
        <ele>-500</ele>
        <time>2020-02-18T15:58:49Z</time>
      </trkpt>
      <trkpt lat="45.40322" lon="4.72943">
        <ele>-500</ele>
        <time>2020-02-18T15:58:52Z</time>
      </trkpt>
      <trkpt lat="45.40325" lon="4.72936">
        <ele>-500</ele>
        <time>2020-02-18T15:58:55Z</time>
      </trkpt>
      <trkpt lat="45.40328" lon="4.72929">
        <ele>-500</ele>
        <time>2020-02-18T15:58:58Z</time>
      </trkpt>
      <trkpt lat="45.40331" lon="4.72921">
        <ele>-500</ele>
        <time>2020-02-18T15:59:01Z</time>
      </trkpt>
      <trkpt lat="45.40334" lon="4.72912">
        <ele>-500</ele>
        <time>2020-02-18T15:59:05Z</time>
      </trkpt>
      <trkpt lat="45.40336" lon="4.72905">
        <ele>-500</ele>
        <time>2020-02-18T15:59:08Z</time>
      </trkpt>
      <trkpt lat="45.40336" lon="4.72903">
        <ele>-500</ele>
        <time>2020-02-18T15:59:09Z</time>
      </trkpt>
      <trkpt lat="45.40335" lon="4.72894">
        <ele>-500</ele>
        <time>2020-02-18T15:59:12Z</time>
      </trkpt>
      <trkpt lat="45.4033" lon="4.72888">
        <ele>-500</ele>
        <time>2020-02-18T15:59:16Z</time>
      </trkpt>
      <trkpt lat="45.40327" lon="4.72887">
        <ele>-500</ele>
        <time>2020-02-18T15:59:18Z</time>
      </trkpt>
      <trkpt lat="45.40325" lon="4.72887">
        <ele>-500</ele>
        <time>2020-02-18T15:59:19Z</time>
      </trkpt>
      <trkpt lat="45.40317" lon="4.72888">
        <ele>-500</ele>
        <time>2020-02-18T15:59:23Z</time>
      </trkpt>
      <trkpt lat="45.4031" lon="4.72892">
        <ele>-500</ele>
        <time>2020-02-18T15:59:27Z</time>
      </trkpt>
      <trkpt lat="45.40309" lon="4.72893">
        <ele>-500</ele>
        <time>2020-02-18T15:59:28Z</time>
      </trkpt>
      <trkpt lat="45.40303" lon="4.72897">
        <ele>-500</ele>
        <time>2020-02-18T15:59:31Z</time>
      </trkpt>
      <trkpt lat="45.40297" lon="4.72902">
        <ele>-500</ele>
        <time>2020-02-18T15:59:35Z</time>
      </trkpt>
      <trkpt lat="45.40291" lon="4.72903">
        <ele>-500</ele>
        <time>2020-02-18T15:59:38Z</time>
      </trkpt>
      <trkpt lat="45.40289" lon="4.72903">
        <ele>-500</ele>
        <time>2020-02-18T15:59:39Z</time>
      </trkpt>
      <trkpt lat="45.40277" lon="4.729">
        <ele>-500</ele>
        <time>2020-02-18T15:59:45Z</time>
      </trkpt>
      <trkpt lat="45.40271" lon="4.72898">
        <ele>-500</ele>
        <time>2020-02-18T15:59:48Z</time>
      </trkpt>
      <trkpt lat="45.40252" lon="4.7289">
        <ele>-500</ele>
        <time>2020-02-18T15:59:58Z</time>
      </trkpt>
      <trkpt lat="45.4024" lon="4.7289">
        <ele>-500</ele>
        <time>2020-02-18T16:00:04Z</time>
      </trkpt>
      <trkpt lat="45.40232" lon="4.72891">
        <ele>-500</ele>
        <time>2020-02-18T16:00:08Z</time>
      </trkpt>
      <trkpt lat="45.4023" lon="4.72892">
        <ele>-500</ele>
        <time>2020-02-18T16:00:09Z</time>
      </trkpt>
      <trkpt lat="45.40219" lon="4.72896">
        <ele>-500</ele>
        <time>2020-02-18T16:00:14Z</time>
      </trkpt>
      <trkpt lat="45.40211" lon="4.729">
        <ele>-500</ele>
        <time>2020-02-18T16:00:18Z</time>
      </trkpt>
      <trkpt lat="45.40203" lon="4.72903">
        <ele>-500</ele>
        <time>2020-02-18T16:00:22Z</time>
      </trkpt>
      <trkpt lat="45.40194" lon="4.72906">
        <ele>-500</ele>
        <time>2020-02-18T16:00:26Z</time>
      </trkpt>
      <trkpt lat="45.4019" lon="4.72908">
        <ele>-500</ele>
        <time>2020-02-18T16:00:28Z</time>
      </trkpt>
      <trkpt lat="45.40186" lon="4.7291">
        <ele>-500</ele>
        <time>2020-02-18T16:00:30Z</time>
      </trkpt>
      <trkpt lat="45.40177" lon="4.72914">
        <ele>-500</ele>
        <time>2020-02-18T16:00:34Z</time>
      </trkpt>
      <trkpt lat="45.40173" lon="4.72916">
        <ele>-500</ele>
        <time>2020-02-18T16:00:36Z</time>
      </trkpt>
      <trkpt lat="45.40168" lon="4.72917">
        <ele>-500</ele>
        <time>2020-02-18T16:00:38Z</time>
      </trkpt>
      <trkpt lat="45.40164" lon="4.72917">
        <ele>-500</ele>
        <time>2020-02-18T16:00:40Z</time>
      </trkpt>
      <trkpt lat="45.40157" lon="4.72917">
        <ele>-500</ele>
        <time>2020-02-18T16:00:43Z</time>
      </trkpt>
      <trkpt lat="45.40149" lon="4.72915">
        <ele>-500</ele>
        <time>2020-02-18T16:00:47Z</time>
      </trkpt>
      <trkpt lat="45.40147" lon="4.72914">
        <ele>-500</ele>
        <time>2020-02-18T16:00:48Z</time>
      </trkpt>
      <trkpt lat="45.40139" lon="4.72909">
        <ele>-500</ele>
        <time>2020-02-18T16:00:52Z</time>
      </trkpt>
      <trkpt lat="45.40129" lon="4.72902">
        <ele>-500</ele>
        <time>2020-02-18T16:00:57Z</time>
      </trkpt>
      <trkpt lat="45.40127" lon="4.72901">
        <ele>-500</ele>
        <time>2020-02-18T16:00:58Z</time>
      </trkpt>
      <trkpt lat="45.40116" lon="4.72891">
        <ele>-500</ele>
        <time>2020-02-18T16:01:04Z</time>
      </trkpt>
      <trkpt lat="45.40107" lon="4.72888">
        <ele>-500</ele>
        <time>2020-02-18T16:01:08Z</time>
      </trkpt>
      <trkpt lat="45.401" lon="4.72884">
        <ele>-500</ele>
        <time>2020-02-18T16:01:12Z</time>
      </trkpt>
      <trkpt lat="45.40093" lon="4.72876">
        <ele>-500</ele>
        <time>2020-02-18T16:01:18Z</time>
      </trkpt>
      <trkpt lat="45.40081" lon="4.72867">
        <ele>-500</ele>
        <time>2020-02-18T16:01:28Z</time>
      </trkpt>
      <trkpt lat="45.40075" lon="4.72863">
        <ele>-500</ele>
        <time>2020-02-18T16:01:33Z</time>
      </trkpt>
      <trkpt lat="45.40069" lon="4.72858">
        <ele>-500</ele>
        <time>2020-02-18T16:01:38Z</time>
      </trkpt>
      <trkpt lat="45.40061" lon="4.72853">
        <ele>-500</ele>
        <time>2020-02-18T16:01:44Z</time>
      </trkpt>
      <trkpt lat="45.40057" lon="4.72848">
        <ele>-500</ele>
        <time>2020-02-18T16:01:48Z</time>
      </trkpt>
      <trkpt lat="45.40052" lon="4.72844">
        <ele>-500</ele>
        <time>2020-02-18T16:01:52Z</time>
      </trkpt>
      <trkpt lat="45.40046" lon="4.72838">
        <ele>-500</ele>
        <time>2020-02-18T16:01:57Z</time>
      </trkpt>
      <trkpt lat="45.40045" lon="4.72837">
        <ele>-500</ele>
        <time>2020-02-18T16:01:58Z</time>
      </trkpt>
      <trkpt lat="45.40041" lon="4.72834">
        <ele>-500</ele>
        <time>2020-02-18T16:02:01Z</time>
      </trkpt>
      <trkpt lat="45.40035" lon="4.72829">
        <ele>-500</ele>
        <time>2020-02-18T16:02:06Z</time>
      </trkpt>
      <trkpt lat="45.40033" lon="4.72826">
        <ele>-500</ele>
        <time>2020-02-18T16:02:08Z</time>
      </trkpt>
      <trkpt lat="45.40022" lon="4.72813">
        <ele>-500</ele>
        <time>2020-02-18T16:02:18Z</time>
      </trkpt>
      <trkpt lat="45.40012" lon="4.72801">
        <ele>-500</ele>
        <time>2020-02-18T16:02:28Z</time>
      </trkpt>
      <trkpt lat="45.40006" lon="4.72798">
        <ele>-500</ele>
        <time>2020-02-18T16:02:32Z</time>
      </trkpt>
      <trkpt lat="45.39995" lon="4.72793">
        <ele>-500</ele>
        <time>2020-02-18T16:02:38Z</time>
      </trkpt>
      <trkpt lat="45.39988" lon="4.72791">
        <ele>-500</ele>
        <time>2020-02-18T16:02:41Z</time>
      </trkpt>
      <trkpt lat="45.39973" lon="4.72788">
        <ele>-500</ele>
        <time>2020-02-18T16:02:46Z</time>
      </trkpt>
      <trkpt lat="45.39967" lon="4.72786">
        <ele>-500</ele>
        <time>2020-02-18T16:02:48Z</time>
      </trkpt>
      <trkpt lat="45.39941" lon="4.72784">
        <ele>-500</ele>
        <time>2020-02-18T16:02:58Z</time>
      </trkpt>
      <trkpt lat="45.39928" lon="4.72782">
        <ele>-500</ele>
        <time>2020-02-18T16:03:03Z</time>
      </trkpt>
      <trkpt lat="45.39914" lon="4.72779">
        <ele>-500</ele>
        <time>2020-02-18T16:03:08Z</time>
      </trkpt>
      <trkpt lat="45.39906" lon="4.72777">
        <ele>-500</ele>
        <time>2020-02-18T16:03:11Z</time>
      </trkpt>
      <trkpt lat="45.39887" lon="4.72776">
        <ele>-500</ele>
        <time>2020-02-18T16:03:18Z</time>
      </trkpt>
      <trkpt lat="45.39882" lon="4.72776">
        <ele>-500</ele>
        <time>2020-02-18T16:03:20Z</time>
      </trkpt>
      <trkpt lat="45.39864" lon="4.72771">
        <ele>-500</ele>
        <time>2020-02-18T16:03:26Z</time>
      </trkpt>
      <trkpt lat="45.39859" lon="4.7277">
        <ele>-500</ele>
        <time>2020-02-18T16:03:28Z</time>
      </trkpt>
      <trkpt lat="45.39848" lon="4.72765">
        <ele>-500</ele>
        <time>2020-02-18T16:03:32Z</time>
      </trkpt>
      <trkpt lat="45.39833" lon="4.72754">
        <ele>-500</ele>
        <time>2020-02-18T16:03:38Z</time>
      </trkpt>
      <trkpt lat="45.39824" lon="4.72744">
        <ele>-500</ele>
        <time>2020-02-18T16:03:42Z</time>
      </trkpt>
      <trkpt lat="45.39813" lon="4.72732">
        <ele>-500</ele>
        <time>2020-02-18T16:03:47Z</time>
      </trkpt>
      <trkpt lat="45.3981" lon="4.72729">
        <ele>-500</ele>
        <time>2020-02-18T16:03:48Z</time>
      </trkpt>
      <trkpt lat="45.398" lon="4.72718">
        <ele>-500</ele>
        <time>2020-02-18T16:03:52Z</time>
      </trkpt>
      <trkpt lat="45.3979" lon="4.72706">
        <ele>-500</ele>
        <time>2020-02-18T16:03:56Z</time>
      </trkpt>
      <trkpt lat="45.39785" lon="4.72701">
        <ele>-500</ele>
        <time>2020-02-18T16:03:58Z</time>
      </trkpt>
      <trkpt lat="45.39776" lon="4.72692">
        <ele>-500</ele>
        <time>2020-02-18T16:04:01Z</time>
      </trkpt>
      <trkpt lat="45.39762" lon="4.72677">
        <ele>-500</ele>
        <time>2020-02-18T16:04:06Z</time>
      </trkpt>
      <trkpt lat="45.39756" lon="4.72672">
        <ele>-500</ele>
        <time>2020-02-18T16:04:08Z</time>
      </trkpt>
      <trkpt lat="45.39747" lon="4.72669">
        <ele>-500</ele>
        <time>2020-02-18T16:04:11Z</time>
      </trkpt>
      <trkpt lat="45.39744" lon="4.72677">
        <ele>-500</ele>
        <time>2020-02-18T16:04:13Z</time>
      </trkpt>
      <trkpt lat="45.39748" lon="4.72705">
        <ele>-500</ele>
        <time>2020-02-18T16:04:17Z</time>
      </trkpt>
      <trkpt lat="45.39749" lon="4.72715">
        <ele>-500</ele>
        <time>2020-02-18T16:04:18Z</time>
      </trkpt>
      <trkpt lat="45.39752" lon="4.72725">
        <ele>-500</ele>
        <time>2020-02-18T16:04:19Z</time>
      </trkpt>
      <trkpt lat="45.39755" lon="4.72734">
        <ele>-500</ele>
        <time>2020-02-18T16:04:20Z</time>
      </trkpt>
      <trkpt lat="45.39759" lon="4.72744">
        <ele>-500</ele>
        <time>2020-02-18T16:04:21Z</time>
      </trkpt>
      <trkpt lat="45.39767" lon="4.7276">
        <ele>-500</ele>
        <time>2020-02-18T16:04:23Z</time>
      </trkpt>
      <trkpt lat="45.39776" lon="4.72775">
        <ele>-500</ele>
        <time>2020-02-18T16:04:25Z</time>
      </trkpt>
      <trkpt lat="45.39784" lon="4.72789">
        <ele>-500</ele>
        <time>2020-02-18T16:04:27Z</time>
      </trkpt>
      <trkpt lat="45.39788" lon="4.72796">
        <ele>-500</ele>
        <time>2020-02-18T16:04:28Z</time>
      </trkpt>
      <trkpt lat="45.39795" lon="4.72811">
        <ele>-500</ele>
        <time>2020-02-18T16:04:30Z</time>
      </trkpt>
      <trkpt lat="45.39802" lon="4.72823">
        <ele>-500</ele>
        <time>2020-02-18T16:04:32Z</time>
      </trkpt>
      <trkpt lat="45.39805" lon="4.72828">
        <ele>-500</ele>
        <time>2020-02-18T16:04:33Z</time>
      </trkpt>
      <trkpt lat="45.39808" lon="4.72833">
        <ele>-500</ele>
        <time>2020-02-18T16:04:34Z</time>
      </trkpt>
      <trkpt lat="45.39812" lon="4.72843">
        <ele>-500</ele>
        <time>2020-02-18T16:04:36Z</time>
      </trkpt>
      <trkpt lat="45.39816" lon="4.72852">
        <ele>-500</ele>
        <time>2020-02-18T16:04:38Z</time>
      </trkpt>
      <trkpt lat="45.39822" lon="4.72861">
        <ele>-500</ele>
        <time>2020-02-18T16:04:40Z</time>
      </trkpt>
      <trkpt lat="45.39829" lon="4.72868">
        <ele>-500</ele>
        <time>2020-02-18T16:04:42Z</time>
      </trkpt>
      <trkpt lat="45.39837" lon="4.72877">
        <ele>-500</ele>
        <time>2020-02-18T16:04:44Z</time>
      </trkpt>
      <trkpt lat="45.39845" lon="4.72887">
        <ele>-500</ele>
        <time>2020-02-18T16:04:46Z</time>
      </trkpt>
      <trkpt lat="45.39853" lon="4.72897">
        <ele>-500</ele>
        <time>2020-02-18T16:04:48Z</time>
      </trkpt>
      <trkpt lat="45.39863" lon="4.72906">
        <ele>-500</ele>
        <time>2020-02-18T16:04:50Z</time>
      </trkpt>
      <trkpt lat="45.39873" lon="4.72913">
        <ele>-500</ele>
        <time>2020-02-18T16:04:52Z</time>
      </trkpt>
      <trkpt lat="45.39877" lon="4.72916">
        <ele>-500</ele>
        <time>2020-02-18T16:04:53Z</time>
      </trkpt>
      <trkpt lat="45.39882" lon="4.72919">
        <ele>-500</ele>
        <time>2020-02-18T16:04:54Z</time>
      </trkpt>
      <trkpt lat="45.39885" lon="4.72923">
        <ele>-500</ele>
        <time>2020-02-18T16:04:55Z</time>
      </trkpt>
      <trkpt lat="45.39889" lon="4.72928">
        <ele>-500</ele>
        <time>2020-02-18T16:04:56Z</time>
      </trkpt>
      <trkpt lat="45.39891" lon="4.72932">
        <ele>-500</ele>
        <time>2020-02-18T16:04:57Z</time>
      </trkpt>
      <trkpt lat="45.39893" lon="4.72937">
        <ele>-500</ele>
        <time>2020-02-18T16:04:58Z</time>
      </trkpt>
      <trkpt lat="45.39893" lon="4.72942">
        <ele>-500</ele>
        <time>2020-02-18T16:04:59Z</time>
      </trkpt>
      <trkpt lat="45.39893" lon="4.72946">
        <ele>-500</ele>
        <time>2020-02-18T16:05:00Z</time>
      </trkpt>
      <trkpt lat="45.39892" lon="4.72948">
        <ele>-500</ele>
        <time>2020-02-18T16:05:01Z</time>
      </trkpt>
      <trkpt lat="45.39889" lon="4.72954">
        <ele>-500</ele>
        <time>2020-02-18T16:05:03Z</time>
      </trkpt>
      <trkpt lat="45.39886" lon="4.72962">
        <ele>-500</ele>
        <time>2020-02-18T16:05:05Z</time>
      </trkpt>
      <trkpt lat="45.39878" lon="4.72981">
        <ele>-500</ele>
        <time>2020-02-18T16:05:08Z</time>
      </trkpt>
      <trkpt lat="45.39876" lon="4.72985">
        <ele>-500</ele>
        <time>2020-02-18T16:05:10Z</time>
      </trkpt>
      <trkpt lat="45.3987" lon="4.72989">
        <ele>-500</ele>
        <time>2020-02-18T16:05:12Z</time>
      </trkpt>
      <trkpt lat="45.39864" lon="4.72991">
        <ele>-500</ele>
        <time>2020-02-18T16:05:14Z</time>
      </trkpt>
      <trkpt lat="45.39857" lon="4.72992">
        <ele>-500</ele>
        <time>2020-02-18T16:05:16Z</time>
      </trkpt>
      <trkpt lat="45.39851" lon="4.72993">
        <ele>-500</ele>
        <time>2020-02-18T16:05:18Z</time>
      </trkpt>
      <trkpt lat="45.39846" lon="4.72995">
        <ele>-500</ele>
        <time>2020-02-18T16:05:20Z</time>
      </trkpt>
      <trkpt lat="45.39828" lon="4.73001">
        <ele>-500</ele>
        <time>2020-02-18T16:05:28Z</time>
      </trkpt>
      <trkpt lat="45.39809" lon="4.73006">
        <ele>-500</ele>
        <time>2020-02-18T16:05:38Z</time>
      </trkpt>
      <trkpt lat="45.39797" lon="4.73008">
        <ele>-500</ele>
        <time>2020-02-18T16:05:44Z</time>
      </trkpt>
      <trkpt lat="45.39791" lon="4.73011">
        <ele>-500</ele>
        <time>2020-02-18T16:05:48Z</time>
      </trkpt>
      <trkpt lat="45.39785" lon="4.73012">
        <ele>-500</ele>
        <time>2020-02-18T16:05:51Z</time>
      </trkpt>
      <trkpt lat="45.39775" lon="4.73018">
        <ele>-500</ele>
        <time>2020-02-18T16:05:57Z</time>
      </trkpt>
      <trkpt lat="45.39774" lon="4.7302">
        <ele>-500</ele>
        <time>2020-02-18T16:05:58Z</time>
      </trkpt>
      <trkpt lat="45.3975" lon="4.73054">
        <ele>-500</ele>
        <time>2020-02-18T16:06:08Z</time>
      </trkpt>
      <trkpt lat="45.39743" lon="4.73062">
        <ele>-500</ele>
        <time>2020-02-18T16:06:10Z</time>
      </trkpt>
      <trkpt lat="45.39737" lon="4.73071">
        <ele>-500</ele>
        <time>2020-02-18T16:06:12Z</time>
      </trkpt>
      <trkpt lat="45.39726" lon="4.73085">
        <ele>-500</ele>
        <time>2020-02-18T16:06:15Z</time>
      </trkpt>
      <trkpt lat="45.3972" lon="4.73094">
        <ele>-500</ele>
        <time>2020-02-18T16:06:17Z</time>
      </trkpt>
      <trkpt lat="45.39717" lon="4.73096">
        <ele>-500</ele>
        <time>2020-02-18T16:06:18Z</time>
      </trkpt>
      <trkpt lat="45.39714" lon="4.73096">
        <ele>-500</ele>
        <time>2020-02-18T16:06:19Z</time>
      </trkpt>
      <trkpt lat="45.39712" lon="4.73094">
        <ele>-500</ele>
        <time>2020-02-18T16:06:20Z</time>
      </trkpt>
      <trkpt lat="45.39709" lon="4.73089">
        <ele>-500</ele>
        <time>2020-02-18T16:06:22Z</time>
      </trkpt>
      <trkpt lat="45.39706" lon="4.73082">
        <ele>-500</ele>
        <time>2020-02-18T16:06:25Z</time>
      </trkpt>
      <trkpt lat="45.39702" lon="4.73075">
        <ele>-500</ele>
        <time>2020-02-18T16:06:28Z</time>
      </trkpt>
      <trkpt lat="45.39694" lon="4.73063">
        <ele>-500</ele>
        <time>2020-02-18T16:06:34Z</time>
      </trkpt>
      <trkpt lat="45.39689" lon="4.73053">
        <ele>-500</ele>
        <time>2020-02-18T16:06:38Z</time>
      </trkpt>
      <trkpt lat="45.39684" lon="4.73044">
        <ele>-500</ele>
        <time>2020-02-18T16:06:42Z</time>
      </trkpt>
      <trkpt lat="45.3968" lon="4.73037">
        <ele>-500</ele>
        <time>2020-02-18T16:06:45Z</time>
      </trkpt>
      <trkpt lat="45.39676" lon="4.7303">
        <ele>-500</ele>
        <time>2020-02-18T16:06:48Z</time>
      </trkpt>
      <trkpt lat="45.39674" lon="4.73027">
        <ele>-500</ele>
        <time>2020-02-18T16:06:49Z</time>
      </trkpt>
      <trkpt lat="45.3967" lon="4.73018">
        <ele>-500</ele>
        <time>2020-02-18T16:06:52Z</time>
      </trkpt>
      <trkpt lat="45.39667" lon="4.73012">
        <ele>-500</ele>
        <time>2020-02-18T16:06:54Z</time>
      </trkpt>
      <trkpt lat="45.39659" lon="4.73">
        <ele>-500</ele>
        <time>2020-02-18T16:06:58Z</time>
      </trkpt>
      <trkpt lat="45.39655" lon="4.72996">
        <ele>-500</ele>
        <time>2020-02-18T16:07:00Z</time>
      </trkpt>
      <trkpt lat="45.39643" lon="4.72982">
        <ele>-500</ele>
        <time>2020-02-18T16:07:05Z</time>
      </trkpt>
      <trkpt lat="45.39637" lon="4.72974">
        <ele>-500</ele>
        <time>2020-02-18T16:07:08Z</time>
      </trkpt>
      <trkpt lat="45.3963" lon="4.72966">
        <ele>-500</ele>
        <time>2020-02-18T16:07:11Z</time>
      </trkpt>
      <trkpt lat="45.39624" lon="4.72959">
        <ele>-500</ele>
        <time>2020-02-18T16:07:14Z</time>
      </trkpt>
      <trkpt lat="45.39615" lon="4.72949">
        <ele>-500</ele>
        <time>2020-02-18T16:07:18Z</time>
      </trkpt>
      <trkpt lat="45.39613" lon="4.72947">
        <ele>-500</ele>
        <time>2020-02-18T16:07:19Z</time>
      </trkpt>
      <trkpt lat="45.39604" lon="4.72937">
        <ele>-500</ele>
        <time>2020-02-18T16:07:23Z</time>
      </trkpt>
      <trkpt lat="45.39593" lon="4.72924">
        <ele>-500</ele>
        <time>2020-02-18T16:07:28Z</time>
      </trkpt>
      <trkpt lat="45.39591" lon="4.72922">
        <ele>-500</ele>
        <time>2020-02-18T16:07:29Z</time>
      </trkpt>
      <trkpt lat="45.39582" lon="4.72916">
        <ele>-500</ele>
        <time>2020-02-18T16:07:33Z</time>
      </trkpt>
      <trkpt lat="45.3957" lon="4.72904">
        <ele>-500</ele>
        <time>2020-02-18T16:07:38Z</time>
      </trkpt>
      <trkpt lat="45.39563" lon="4.72894">
        <ele>-500</ele>
        <time>2020-02-18T16:07:42Z</time>
      </trkpt>
      <trkpt lat="45.39555" lon="4.72884">
        <ele>-500</ele>
        <time>2020-02-18T16:07:46Z</time>
      </trkpt>
      <trkpt lat="45.39551" lon="4.72878">
        <ele>-500</ele>
        <time>2020-02-18T16:07:48Z</time>
      </trkpt>
      <trkpt lat="45.39549" lon="4.72876">
        <ele>-500</ele>
        <time>2020-02-18T16:07:49Z</time>
      </trkpt>
      <trkpt lat="45.39544" lon="4.72869">
        <ele>-500</ele>
        <time>2020-02-18T16:07:52Z</time>
      </trkpt>
      <trkpt lat="45.39538" lon="4.72862">
        <ele>-500</ele>
        <time>2020-02-18T16:07:55Z</time>
      </trkpt>
      <trkpt lat="45.39533" lon="4.72853">
        <ele>-500</ele>
        <time>2020-02-18T16:07:58Z</time>
      </trkpt>
      <trkpt lat="45.3953" lon="4.72848">
        <ele>-500</ele>
        <time>2020-02-18T16:08:00Z</time>
      </trkpt>
      <trkpt lat="45.3952" lon="4.72836">
        <ele>-500</ele>
        <time>2020-02-18T16:08:04Z</time>
      </trkpt>
      <trkpt lat="45.39512" lon="4.72826">
        <ele>-500</ele>
        <time>2020-02-18T16:08:07Z</time>
      </trkpt>
      <trkpt lat="45.39508" lon="4.72822">
        <ele>-500</ele>
        <time>2020-02-18T16:08:08Z</time>
      </trkpt>
      <trkpt lat="45.39505" lon="4.72819">
        <ele>-500</ele>
        <time>2020-02-18T16:08:09Z</time>
      </trkpt>
      <trkpt lat="45.39499" lon="4.72812">
        <ele>-500</ele>
        <time>2020-02-18T16:08:11Z</time>
      </trkpt>
      <trkpt lat="45.39494" lon="4.72805">
        <ele>-500</ele>
        <time>2020-02-18T16:08:13Z</time>
      </trkpt>
      <trkpt lat="45.39488" lon="4.72798">
        <ele>-500</ele>
        <time>2020-02-18T16:08:15Z</time>
      </trkpt>
      <trkpt lat="45.39482" lon="4.72791">
        <ele>-500</ele>
        <time>2020-02-18T16:08:17Z</time>
      </trkpt>
      <trkpt lat="45.39479" lon="4.72788">
        <ele>-500</ele>
        <time>2020-02-18T16:08:18Z</time>
      </trkpt>
      <trkpt lat="45.39476" lon="4.72785">
        <ele>-500</ele>
        <time>2020-02-18T16:08:19Z</time>
      </trkpt>
      <trkpt lat="45.39468" lon="4.72775">
        <ele>-500</ele>
        <time>2020-02-18T16:08:22Z</time>
      </trkpt>
      <trkpt lat="45.39462" lon="4.72768">
        <ele>-500</ele>
        <time>2020-02-18T16:08:24Z</time>
      </trkpt>
      <trkpt lat="45.39454" lon="4.72759">
        <ele>-500</ele>
        <time>2020-02-18T16:08:27Z</time>
      </trkpt>
      <trkpt lat="45.39451" lon="4.72756">
        <ele>-500</ele>
        <time>2020-02-18T16:08:28Z</time>
      </trkpt>
      <trkpt lat="45.39449" lon="4.72753">
        <ele>-500</ele>
        <time>2020-02-18T16:08:29Z</time>
      </trkpt>
      <trkpt lat="45.39443" lon="4.72746">
        <ele>-500</ele>
        <time>2020-02-18T16:08:31Z</time>
      </trkpt>
      <trkpt lat="45.39435" lon="4.72737">
        <ele>-500</ele>
        <time>2020-02-18T16:08:34Z</time>
      </trkpt>
      <trkpt lat="45.39429" lon="4.7273">
        <ele>-500</ele>
        <time>2020-02-18T16:08:36Z</time>
      </trkpt>
      <trkpt lat="45.39422" lon="4.72723">
        <ele>-500</ele>
        <time>2020-02-18T16:08:38Z</time>
      </trkpt>
      <trkpt lat="45.39413" lon="4.72713">
        <ele>-500</ele>
        <time>2020-02-18T16:08:41Z</time>
      </trkpt>
      <trkpt lat="45.39408" lon="4.72706">
        <ele>-500</ele>
        <time>2020-02-18T16:08:43Z</time>
      </trkpt>
      <trkpt lat="45.39402" lon="4.72694">
        <ele>-500</ele>
        <time>2020-02-18T16:08:46Z</time>
      </trkpt>
      <trkpt lat="45.39398" lon="4.72685">
        <ele>-500</ele>
        <time>2020-02-18T16:08:48Z</time>
      </trkpt>
      <trkpt lat="45.39397" lon="4.7268">
        <ele>-500</ele>
        <time>2020-02-18T16:08:49Z</time>
      </trkpt>
      <trkpt lat="45.39391" lon="4.72665">
        <ele>-500</ele>
        <time>2020-02-18T16:08:52Z</time>
      </trkpt>
      <trkpt lat="45.39389" lon="4.72656">
        <ele>-500</ele>
        <time>2020-02-18T16:08:54Z</time>
      </trkpt>
      <trkpt lat="45.39388" lon="4.72649">
        <ele>-500</ele>
        <time>2020-02-18T16:08:56Z</time>
      </trkpt>
      <trkpt lat="45.39384" lon="4.72644">
        <ele>-500</ele>
        <time>2020-02-18T16:08:58Z</time>
      </trkpt>
      <trkpt lat="45.39382" lon="4.72643">
        <ele>-500</ele>
        <time>2020-02-18T16:08:59Z</time>
      </trkpt>
      <trkpt lat="45.39379" lon="4.7264">
        <ele>-500</ele>
        <time>2020-02-18T16:09:02Z</time>
      </trkpt>
      <trkpt lat="45.39375" lon="4.7264">
        <ele>-500</ele>
        <time>2020-02-18T16:09:04Z</time>
      </trkpt>
      <trkpt lat="45.39363" lon="4.72643">
        <ele>-500</ele>
        <time>2020-02-18T16:09:08Z</time>
      </trkpt>
      <trkpt lat="45.39354" lon="4.72652">
        <ele>-500</ele>
        <time>2020-02-18T16:09:11Z</time>
      </trkpt>
      <trkpt lat="45.39349" lon="4.7266">
        <ele>-500</ele>
        <time>2020-02-18T16:09:13Z</time>
      </trkpt>
      <trkpt lat="45.39341" lon="4.72669">
        <ele>-500</ele>
        <time>2020-02-18T16:09:16Z</time>
      </trkpt>
      <trkpt lat="45.39337" lon="4.72673">
        <ele>-500</ele>
        <time>2020-02-18T16:09:18Z</time>
      </trkpt>
      <trkpt lat="45.39335" lon="4.72675">
        <ele>-500</ele>
        <time>2020-02-18T16:09:19Z</time>
      </trkpt>
      <trkpt lat="45.39332" lon="4.72675">
        <ele>-500</ele>
        <time>2020-02-18T16:09:21Z</time>
      </trkpt>
      <trkpt lat="45.39331" lon="4.72669">
        <ele>-500</ele>
        <time>2020-02-18T16:09:25Z</time>
      </trkpt>
      <trkpt lat="45.39333" lon="4.72662">
        <ele>-500</ele>
        <time>2020-02-18T16:09:28Z</time>
      </trkpt>
      <trkpt lat="45.39337" lon="4.72645">
        <ele>-500</ele>
        <time>2020-02-18T16:09:34Z</time>
      </trkpt>
      <trkpt lat="45.39339" lon="4.72633">
        <ele>-500</ele>
        <time>2020-02-18T16:09:38Z</time>
      </trkpt>
      <trkpt lat="45.3934" lon="4.72621">
        <ele>-500</ele>
        <time>2020-02-18T16:09:42Z</time>
      </trkpt>
      <trkpt lat="45.39341" lon="4.72609">
        <ele>-500</ele>
        <time>2020-02-18T16:09:46Z</time>
      </trkpt>
      <trkpt lat="45.39341" lon="4.72602">
        <ele>-500</ele>
        <time>2020-02-18T16:09:48Z</time>
      </trkpt>
      <trkpt lat="45.3934" lon="4.72593">
        <ele>-500</ele>
        <time>2020-02-18T16:09:51Z</time>
      </trkpt>
      <trkpt lat="45.39341" lon="4.72581">
        <ele>-500</ele>
        <time>2020-02-18T16:09:55Z</time>
      </trkpt>
      <trkpt lat="45.39341" lon="4.72573">
        <ele>-500</ele>
        <time>2020-02-18T16:09:58Z</time>
      </trkpt>
      <trkpt lat="45.39341" lon="4.7257">
        <ele>-500</ele>
        <time>2020-02-18T16:09:59Z</time>
      </trkpt>
      <trkpt lat="45.39341" lon="4.72558">
        <ele>-500</ele>
        <time>2020-02-18T16:10:03Z</time>
      </trkpt>
      <trkpt lat="45.39339" lon="4.72545">
        <ele>-500</ele>
        <time>2020-02-18T16:10:08Z</time>
      </trkpt>
      <trkpt lat="45.39338" lon="4.72539">
        <ele>-500</ele>
        <time>2020-02-18T16:10:10Z</time>
      </trkpt>
      <trkpt lat="45.39337" lon="4.72527">
        <ele>-500</ele>
        <time>2020-02-18T16:10:14Z</time>
      </trkpt>
      <trkpt lat="45.39336" lon="4.72518">
        <ele>-500</ele>
        <time>2020-02-18T16:10:17Z</time>
      </trkpt>
      <trkpt lat="45.39336" lon="4.72515">
        <ele>-500</ele>
        <time>2020-02-18T16:10:18Z</time>
      </trkpt>
      <trkpt lat="45.39334" lon="4.72508">
        <ele>-500</ele>
        <time>2020-02-18T16:10:21Z</time>
      </trkpt>
      <trkpt lat="45.39329" lon="4.72494">
        <ele>-500</ele>
        <time>2020-02-18T16:10:27Z</time>
      </trkpt>
      <trkpt lat="45.39328" lon="4.72492">
        <ele>-500</ele>
        <time>2020-02-18T16:10:28Z</time>
      </trkpt>
      <trkpt lat="45.39323" lon="4.72481">
        <ele>-500</ele>
        <time>2020-02-18T16:10:33Z</time>
      </trkpt>
      <trkpt lat="45.39318" lon="4.72473">
        <ele>-500</ele>
        <time>2020-02-18T16:10:38Z</time>
      </trkpt>
      <trkpt lat="45.39316" lon="4.72471">
        <ele>-500</ele>
        <time>2020-02-18T16:10:39Z</time>
      </trkpt>
      <trkpt lat="45.3931" lon="4.72462">
        <ele>-500</ele>
        <time>2020-02-18T16:10:44Z</time>
      </trkpt>
      <trkpt lat="45.39306" lon="4.72456">
        <ele>-500</ele>
        <time>2020-02-18T16:10:48Z</time>
      </trkpt>
      <trkpt lat="45.39298" lon="4.72446">
        <ele>-500</ele>
        <time>2020-02-18T16:10:56Z</time>
      </trkpt>
      <trkpt lat="45.39297" lon="4.72442">
        <ele>-500</ele>
        <time>2020-02-18T16:10:58Z</time>
      </trkpt>
      <trkpt lat="45.39294" lon="4.72431">
        <ele>-500</ele>
        <time>2020-02-18T16:11:03Z</time>
      </trkpt>
      <trkpt lat="45.3929" lon="4.72418">
        <ele>-500</ele>
        <time>2020-02-18T16:11:09Z</time>
      </trkpt>
      <trkpt lat="45.39285" lon="4.72398">
        <ele>-500</ele>
        <time>2020-02-18T16:11:19Z</time>
      </trkpt>
      <trkpt lat="45.39283" lon="4.7239">
        <ele>-500</ele>
        <time>2020-02-18T16:11:23Z</time>
      </trkpt>
      <trkpt lat="45.39282" lon="4.72378">
        <ele>-500</ele>
        <time>2020-02-18T16:11:29Z</time>
      </trkpt>
      <trkpt lat="45.3928" lon="4.72374">
        <ele>-500</ele>
        <time>2020-02-18T16:11:34Z</time>
      </trkpt>
      <trkpt lat="45.3928" lon="4.72377">
        <ele>-500</ele>
        <time>2020-02-18T16:11:38Z</time>
      </trkpt>
      <trkpt lat="45.3928" lon="4.72377">
        <ele>-500</ele>
        <time>2020-02-18T16:11:39Z</time>
      </trkpt>
      <trkpt lat="45.3928" lon="4.72377">
        <ele>-500</ele>
        <time>2020-02-18T16:11:41Z</time>
      </trkpt>
      <trkpt lat="45.3928" lon="4.72377">
        <ele>-500</ele>
        <time>2020-02-18T16:11:43Z</time>
      </trkpt>
      <trkpt lat="45.3928" lon="4.72377">
        <ele>-500</ele>
        <time>2020-02-18T16:11:46Z</time>
      </trkpt>
      <trkpt lat="45.3928" lon="4.72377">
        <ele>-500</ele>
        <time>2020-02-18T16:11:49Z</time>
      </trkpt>
      <trkpt lat="45.3928" lon="4.72377">
        <ele>-500</ele>
        <time>2020-02-18T16:11:54Z</time>
      </trkpt>
      <trkpt lat="45.3928" lon="4.72377">
        <ele>-500</ele>
        <time>2020-02-18T16:11:56Z</time>
      </trkpt>
      <trkpt lat="45.39279" lon="4.72375">
        <ele>-500</ele>
        <time>2020-02-18T16:11:59Z</time>
      </trkpt>
      <trkpt lat="45.39279" lon="4.72374">
        <ele>-500</ele>
        <time>2020-02-18T16:12:00Z</time>
      </trkpt>
      <trkpt lat="45.3927" lon="4.72361">
        <ele>-500</ele>
        <time>2020-02-18T16:12:08Z</time>
      </trkpt>
      <trkpt lat="45.39269" lon="4.72359">
        <ele>-500</ele>
        <time>2020-02-18T16:12:09Z</time>
      </trkpt>
      <trkpt lat="45.39267" lon="4.72357">
        <ele>-500</ele>
        <time>2020-02-18T16:12:10Z</time>
      </trkpt>
      <trkpt lat="45.39258" lon="4.72345">
        <ele>-500</ele>
        <time>2020-02-18T16:12:19Z</time>
      </trkpt>
      <trkpt lat="45.39248" lon="4.72328">
        <ele>-500</ele>
        <time>2020-02-18T16:12:29Z</time>
      </trkpt>
      <trkpt lat="45.39248" lon="4.72323">
        <ele>-500</ele>
        <time>2020-02-18T16:12:31Z</time>
      </trkpt>
      <trkpt lat="45.39246" lon="4.72312">
        <ele>-500</ele>
        <time>2020-02-18T16:12:35Z</time>
      </trkpt>
      <trkpt lat="45.39244" lon="4.72303">
        <ele>-500</ele>
        <time>2020-02-18T16:12:38Z</time>
      </trkpt>
      <trkpt lat="45.39243" lon="4.72301">
        <ele>-500</ele>
        <time>2020-02-18T16:12:39Z</time>
      </trkpt>
      <trkpt lat="45.39242" lon="4.72296">
        <ele>-500</ele>
        <time>2020-02-18T16:12:41Z</time>
      </trkpt>
      <trkpt lat="45.3924" lon="4.72286">
        <ele>-500</ele>
        <time>2020-02-18T16:12:46Z</time>
      </trkpt>
      <trkpt lat="45.39239" lon="4.72277">
        <ele>-500</ele>
        <time>2020-02-18T16:12:49Z</time>
      </trkpt>
      <trkpt lat="45.39238" lon="4.72264">
        <ele>-500</ele>
        <time>2020-02-18T16:12:53Z</time>
      </trkpt>
      <trkpt lat="45.39237" lon="4.72244">
        <ele>-500</ele>
        <time>2020-02-18T16:12:59Z</time>
      </trkpt>
      <trkpt lat="45.39238" lon="4.72221">
        <ele>-500</ele>
        <time>2020-02-18T16:13:06Z</time>
      </trkpt>
      <trkpt lat="45.39237" lon="4.72211">
        <ele>-500</ele>
        <time>2020-02-18T16:13:09Z</time>
      </trkpt>
      <trkpt lat="45.39236" lon="4.72201">
        <ele>-500</ele>
        <time>2020-02-18T16:13:12Z</time>
      </trkpt>
      <trkpt lat="45.39234" lon="4.72181">
        <ele>-500</ele>
        <time>2020-02-18T16:13:18Z</time>
      </trkpt>
      <trkpt lat="45.39234" lon="4.72177">
        <ele>-500</ele>
        <time>2020-02-18T16:13:19Z</time>
      </trkpt>
      <trkpt lat="45.39233" lon="4.7216">
        <ele>-500</ele>
        <time>2020-02-18T16:13:24Z</time>
      </trkpt>
      <trkpt lat="45.39232" lon="4.72144">
        <ele>-500</ele>
        <time>2020-02-18T16:13:29Z</time>
      </trkpt>
      <trkpt lat="45.39231" lon="4.72141">
        <ele>-500</ele>
        <time>2020-02-18T16:13:30Z</time>
      </trkpt>
      <trkpt lat="45.39232" lon="4.72125">
        <ele>-500</ele>
        <time>2020-02-18T16:13:35Z</time>
      </trkpt>
      <trkpt lat="45.39231" lon="4.72112">
        <ele>-500</ele>
        <time>2020-02-18T16:13:39Z</time>
      </trkpt>
      <trkpt lat="45.39231" lon="4.72109">
        <ele>-500</ele>
        <time>2020-02-18T16:13:40Z</time>
      </trkpt>
      <trkpt lat="45.39229" lon="4.72082">
        <ele>-500</ele>
        <time>2020-02-18T16:13:49Z</time>
      </trkpt>
      <trkpt lat="45.39219" lon="4.72065">
        <ele>-500</ele>
        <time>2020-02-18T16:13:57Z</time>
      </trkpt>
      <trkpt lat="45.39215" lon="4.72064">
        <ele>-500</ele>
        <time>2020-02-18T16:13:59Z</time>
      </trkpt>
      <trkpt lat="45.39206" lon="4.72062">
        <ele>-500</ele>
        <time>2020-02-18T16:14:03Z</time>
      </trkpt>
      <trkpt lat="45.39201" lon="4.72058">
        <ele>-500</ele>
        <time>2020-02-18T16:14:07Z</time>
      </trkpt>
      <trkpt lat="45.39202" lon="4.72053">
        <ele>-500</ele>
        <time>2020-02-18T16:14:09Z</time>
      </trkpt>
      <trkpt lat="45.39205" lon="4.72049">
        <ele>-500</ele>
        <time>2020-02-18T16:14:11Z</time>
      </trkpt>
      <trkpt lat="45.39219" lon="4.72032">
        <ele>-500</ele>
        <time>2020-02-18T16:14:19Z</time>
      </trkpt>
      <trkpt lat="45.39234" lon="4.72007">
        <ele>-500</ele>
        <time>2020-02-18T16:14:29Z</time>
      </trkpt>
      <trkpt lat="45.39251" lon="4.71982">
        <ele>-500</ele>
        <time>2020-02-18T16:14:39Z</time>
      </trkpt>
      <trkpt lat="45.3926" lon="4.71962">
        <ele>-500</ele>
        <time>2020-02-18T16:14:46Z</time>
      </trkpt>
      <trkpt lat="45.39259" lon="4.71952">
        <ele>-500</ele>
        <time>2020-02-18T16:14:49Z</time>
      </trkpt>
      <trkpt lat="45.39257" lon="4.71946">
        <ele>-500</ele>
        <time>2020-02-18T16:14:51Z</time>
      </trkpt>
      <trkpt lat="45.39248" lon="4.71926">
        <ele>-500</ele>
        <time>2020-02-18T16:14:59Z</time>
      </trkpt>
      <trkpt lat="45.39246" lon="4.71924">
        <ele>-500</ele>
        <time>2020-02-18T16:15:00Z</time>
      </trkpt>
      <trkpt lat="45.39233" lon="4.71904">
        <ele>-500</ele>
        <time>2020-02-18T16:15:09Z</time>
      </trkpt>
      <trkpt lat="45.39228" lon="4.71898">
        <ele>-500</ele>
        <time>2020-02-18T16:15:12Z</time>
      </trkpt>
      <trkpt lat="45.39217" lon="4.71879">
        <ele>-500</ele>
        <time>2020-02-18T16:15:19Z</time>
      </trkpt>
      <trkpt lat="45.39206" lon="4.71842">
        <ele>-500</ele>
        <time>2020-02-18T16:15:29Z</time>
      </trkpt>
      <trkpt lat="45.39201" lon="4.7182">
        <ele>-500</ele>
        <time>2020-02-18T16:15:35Z</time>
      </trkpt>
      <trkpt lat="45.39197" lon="4.71806">
        <ele>-500</ele>
        <time>2020-02-18T16:15:39Z</time>
      </trkpt>
      <trkpt lat="45.3919" lon="4.71786">
        <ele>-500</ele>
        <time>2020-02-18T16:15:45Z</time>
      </trkpt>
      <trkpt lat="45.39185" lon="4.71772">
        <ele>-500</ele>
        <time>2020-02-18T16:15:49Z</time>
      </trkpt>
      <trkpt lat="45.39183" lon="4.71765">
        <ele>-500</ele>
        <time>2020-02-18T16:15:51Z</time>
      </trkpt>
      <trkpt lat="45.39178" lon="4.71745">
        <ele>-500</ele>
        <time>2020-02-18T16:15:57Z</time>
      </trkpt>
      <trkpt lat="45.39176" lon="4.71739">
        <ele>-500</ele>
        <time>2020-02-18T16:15:59Z</time>
      </trkpt>
      <trkpt lat="45.3917" lon="4.71724">
        <ele>-500</ele>
        <time>2020-02-18T16:16:04Z</time>
      </trkpt>
      <trkpt lat="45.39167" lon="4.71709">
        <ele>-500</ele>
        <time>2020-02-18T16:16:09Z</time>
      </trkpt>
      <trkpt lat="45.39165" lon="4.7169">
        <ele>-500</ele>
        <time>2020-02-18T16:16:14Z</time>
      </trkpt>
      <trkpt lat="45.39162" lon="4.71668">
        <ele>-500</ele>
        <time>2020-02-18T16:16:19Z</time>
      </trkpt>
      <trkpt lat="45.3916" lon="4.71659">
        <ele>-500</ele>
        <time>2020-02-18T16:16:21Z</time>
      </trkpt>
      <trkpt lat="45.39157" lon="4.71633">
        <ele>-500</ele>
        <time>2020-02-18T16:16:27Z</time>
      </trkpt>
      <trkpt lat="45.39156" lon="4.71623">
        <ele>-500</ele>
        <time>2020-02-18T16:16:29Z</time>
      </trkpt>
      <trkpt lat="45.39155" lon="4.71608">
        <ele>-500</ele>
        <time>2020-02-18T16:16:32Z</time>
      </trkpt>
      <trkpt lat="45.39153" lon="4.71594">
        <ele>-500</ele>
        <time>2020-02-18T16:16:35Z</time>
      </trkpt>
      <trkpt lat="45.39152" lon="4.71584">
        <ele>-500</ele>
        <time>2020-02-18T16:16:37Z</time>
      </trkpt>
      <trkpt lat="45.39151" lon="4.71573">
        <ele>-500</ele>
        <time>2020-02-18T16:16:39Z</time>
      </trkpt>
      <trkpt lat="45.39151" lon="4.71562">
        <ele>-500</ele>
        <time>2020-02-18T16:16:41Z</time>
      </trkpt>
      <trkpt lat="45.39152" lon="4.71545">
        <ele>-500</ele>
        <time>2020-02-18T16:16:44Z</time>
      </trkpt>
      <trkpt lat="45.39153" lon="4.71525">
        <ele>-500</ele>
        <time>2020-02-18T16:16:48Z</time>
      </trkpt>
      <trkpt lat="45.39153" lon="4.7152">
        <ele>-500</ele>
        <time>2020-02-18T16:16:49Z</time>
      </trkpt>
      <trkpt lat="45.39153" lon="4.71509">
        <ele>-500</ele>
        <time>2020-02-18T16:16:51Z</time>
      </trkpt>
      <trkpt lat="45.39154" lon="4.71488">
        <ele>-500</ele>
        <time>2020-02-18T16:16:55Z</time>
      </trkpt>
      <trkpt lat="45.39155" lon="4.71472">
        <ele>-500</ele>
        <time>2020-02-18T16:16:58Z</time>
      </trkpt>
      <trkpt lat="45.39156" lon="4.71466">
        <ele>-500</ele>
        <time>2020-02-18T16:16:59Z</time>
      </trkpt>
      <trkpt lat="45.39157" lon="4.71455">
        <ele>-500</ele>
        <time>2020-02-18T16:17:01Z</time>
      </trkpt>
      <trkpt lat="45.39159" lon="4.71439">
        <ele>-500</ele>
        <time>2020-02-18T16:17:04Z</time>
      </trkpt>
      <trkpt lat="45.3916" lon="4.71416">
        <ele>-500</ele>
        <time>2020-02-18T16:17:08Z</time>
      </trkpt>
      <trkpt lat="45.3916" lon="4.71411">
        <ele>-500</ele>
        <time>2020-02-18T16:17:09Z</time>
      </trkpt>
      <trkpt lat="45.3916" lon="4.71394">
        <ele>-500</ele>
        <time>2020-02-18T16:17:12Z</time>
      </trkpt>
      <trkpt lat="45.39159" lon="4.71378">
        <ele>-500</ele>
        <time>2020-02-18T16:17:15Z</time>
      </trkpt>
      <trkpt lat="45.39159" lon="4.71362">
        <ele>-500</ele>
        <time>2020-02-18T16:17:18Z</time>
      </trkpt>
      <trkpt lat="45.39158" lon="4.71356">
        <ele>-500</ele>
        <time>2020-02-18T16:17:19Z</time>
      </trkpt>
      <trkpt lat="45.39158" lon="4.71339">
        <ele>-500</ele>
        <time>2020-02-18T16:17:22Z</time>
      </trkpt>
      <trkpt lat="45.39158" lon="4.71323">
        <ele>-500</ele>
        <time>2020-02-18T16:17:25Z</time>
      </trkpt>
      <trkpt lat="45.39157" lon="4.71302">
        <ele>-500</ele>
        <time>2020-02-18T16:17:29Z</time>
      </trkpt>
      <trkpt lat="45.39156" lon="4.71281">
        <ele>-500</ele>
        <time>2020-02-18T16:17:33Z</time>
      </trkpt>
      <trkpt lat="45.39154" lon="4.71263">
        <ele>-500</ele>
        <time>2020-02-18T16:17:37Z</time>
      </trkpt>
      <trkpt lat="45.39152" lon="4.71254">
        <ele>-500</ele>
        <time>2020-02-18T16:17:39Z</time>
      </trkpt>
      <trkpt lat="45.39151" lon="4.71239">
        <ele>-500</ele>
        <time>2020-02-18T16:17:42Z</time>
      </trkpt>
      <trkpt lat="45.39149" lon="4.71224">
        <ele>-500</ele>
        <time>2020-02-18T16:17:45Z</time>
      </trkpt>
      <trkpt lat="45.39144" lon="4.71205">
        <ele>-500</ele>
        <time>2020-02-18T16:17:49Z</time>
      </trkpt>
      <trkpt lat="45.39139" lon="4.71191">
        <ele>-500</ele>
        <time>2020-02-18T16:17:52Z</time>
      </trkpt>
      <trkpt lat="45.39133" lon="4.71175">
        <ele>-500</ele>
        <time>2020-02-18T16:17:56Z</time>
      </trkpt>
      <trkpt lat="45.39128" lon="4.71161">
        <ele>-500</ele>
        <time>2020-02-18T16:17:59Z</time>
      </trkpt>
      <trkpt lat="45.39125" lon="4.71152">
        <ele>-500</ele>
        <time>2020-02-18T16:18:01Z</time>
      </trkpt>
      <trkpt lat="45.39115" lon="4.71123">
        <ele>-500</ele>
        <time>2020-02-18T16:18:07Z</time>
      </trkpt>
      <trkpt lat="45.39112" lon="4.71113">
        <ele>-500</ele>
        <time>2020-02-18T16:18:09Z</time>
      </trkpt>
      <trkpt lat="45.39108" lon="4.71099">
        <ele>-500</ele>
        <time>2020-02-18T16:18:12Z</time>
      </trkpt>
      <trkpt lat="45.39102" lon="4.7108">
        <ele>-500</ele>
        <time>2020-02-18T16:18:16Z</time>
      </trkpt>
      <trkpt lat="45.39098" lon="4.71067">
        <ele>-500</ele>
        <time>2020-02-18T16:18:19Z</time>
      </trkpt>
      <trkpt lat="45.39095" lon="4.71053">
        <ele>-500</ele>
        <time>2020-02-18T16:18:22Z</time>
      </trkpt>
      <trkpt lat="45.39089" lon="4.71019">
        <ele>-500</ele>
        <time>2020-02-18T16:18:29Z</time>
      </trkpt>
      <trkpt lat="45.39084" lon="4.70992">
        <ele>-500</ele>
        <time>2020-02-18T16:18:35Z</time>
      </trkpt>
      <trkpt lat="45.39081" lon="4.70974">
        <ele>-500</ele>
        <time>2020-02-18T16:18:39Z</time>
      </trkpt>
      <trkpt lat="45.39076" lon="4.70956">
        <ele>-500</ele>
        <time>2020-02-18T16:18:43Z</time>
      </trkpt>
      <trkpt lat="45.39069" lon="4.7093">
        <ele>-500</ele>
        <time>2020-02-18T16:18:49Z</time>
      </trkpt>
      <trkpt lat="45.39067" lon="4.70926">
        <ele>-500</ele>
        <time>2020-02-18T16:18:50Z</time>
      </trkpt>
      <trkpt lat="45.39062" lon="4.70908">
        <ele>-500</ele>
        <time>2020-02-18T16:18:54Z</time>
      </trkpt>
      <trkpt lat="45.39056" lon="4.70885">
        <ele>-500</ele>
        <time>2020-02-18T16:18:59Z</time>
      </trkpt>
      <trkpt lat="45.39047" lon="4.70848">
        <ele>-500</ele>
        <time>2020-02-18T16:19:07Z</time>
      </trkpt>
      <trkpt lat="45.39046" lon="4.70838">
        <ele>-500</ele>
        <time>2020-02-18T16:19:09Z</time>
      </trkpt>
      <trkpt lat="45.39045" lon="4.70829">
        <ele>-500</ele>
        <time>2020-02-18T16:19:11Z</time>
      </trkpt>
      <trkpt lat="45.39039" lon="4.708">
        <ele>-500</ele>
        <time>2020-02-18T16:19:17Z</time>
      </trkpt>
      <trkpt lat="45.39037" lon="4.7079">
        <ele>-500</ele>
        <time>2020-02-18T16:19:19Z</time>
      </trkpt>
      <trkpt lat="45.39034" lon="4.70776">
        <ele>-500</ele>
        <time>2020-02-18T16:19:22Z</time>
      </trkpt>
      <trkpt lat="45.3903" lon="4.70756">
        <ele>-500</ele>
        <time>2020-02-18T16:19:26Z</time>
      </trkpt>
      <trkpt lat="45.39025" lon="4.70741">
        <ele>-500</ele>
        <time>2020-02-18T16:19:29Z</time>
      </trkpt>
      <trkpt lat="45.39023" lon="4.70736">
        <ele>-500</ele>
        <time>2020-02-18T16:19:30Z</time>
      </trkpt>
      <trkpt lat="45.39014" lon="4.70717">
        <ele>-500</ele>
        <time>2020-02-18T16:19:34Z</time>
      </trkpt>
      <trkpt lat="45.39011" lon="4.70707">
        <ele>-500</ele>
        <time>2020-02-18T16:19:36Z</time>
      </trkpt>
      <trkpt lat="45.39005" lon="4.70693">
        <ele>-500</ele>
        <time>2020-02-18T16:19:39Z</time>
      </trkpt>
      <trkpt lat="45.39" lon="4.70677">
        <ele>-500</ele>
        <time>2020-02-18T16:19:42Z</time>
      </trkpt>
      <trkpt lat="45.38996" lon="4.70659">
        <ele>-500</ele>
        <time>2020-02-18T16:19:45Z</time>
      </trkpt>
      <trkpt lat="45.38994" lon="4.70653">
        <ele>-500</ele>
        <time>2020-02-18T16:19:46Z</time>
      </trkpt>
      <trkpt lat="45.3899" lon="4.70636">
        <ele>-500</ele>
        <time>2020-02-18T16:19:49Z</time>
      </trkpt>
      <trkpt lat="45.38986" lon="4.70624">
        <ele>-500</ele>
        <time>2020-02-18T16:19:51Z</time>
      </trkpt>
      <trkpt lat="45.3898" lon="4.70608">
        <ele>-500</ele>
        <time>2020-02-18T16:19:54Z</time>
      </trkpt>
      <trkpt lat="45.38977" lon="4.70597">
        <ele>-500</ele>
        <time>2020-02-18T16:19:56Z</time>
      </trkpt>
      <trkpt lat="45.38976" lon="4.70591">
        <ele>-500</ele>
        <time>2020-02-18T16:19:57Z</time>
      </trkpt>
      <trkpt lat="45.38973" lon="4.70578">
        <ele>-500</ele>
        <time>2020-02-18T16:19:59Z</time>
      </trkpt>
      <trkpt lat="45.38972" lon="4.70572">
        <ele>-500</ele>
        <time>2020-02-18T16:20:00Z</time>
      </trkpt>
      <trkpt lat="45.38969" lon="4.7056">
        <ele>-500</ele>
        <time>2020-02-18T16:20:02Z</time>
      </trkpt>
      <trkpt lat="45.38968" lon="4.70553">
        <ele>-500</ele>
        <time>2020-02-18T16:20:03Z</time>
      </trkpt>
      <trkpt lat="45.38966" lon="4.70541">
        <ele>-500</ele>
        <time>2020-02-18T16:20:05Z</time>
      </trkpt>
      <trkpt lat="45.38965" lon="4.70534">
        <ele>-500</ele>
        <time>2020-02-18T16:20:06Z</time>
      </trkpt>
      <trkpt lat="45.38963" lon="4.70521">
        <ele>-500</ele>
        <time>2020-02-18T16:20:08Z</time>
      </trkpt>
      <trkpt lat="45.38963" lon="4.70515">
        <ele>-500</ele>
        <time>2020-02-18T16:20:09Z</time>
      </trkpt>
      <trkpt lat="45.38962" lon="4.70503">
        <ele>-500</ele>
        <time>2020-02-18T16:20:11Z</time>
      </trkpt>
      <trkpt lat="45.38962" lon="4.70496">
        <ele>-500</ele>
        <time>2020-02-18T16:20:12Z</time>
      </trkpt>
      <trkpt lat="45.38962" lon="4.70489">
        <ele>-500</ele>
        <time>2020-02-18T16:20:13Z</time>
      </trkpt>
      <trkpt lat="45.3896" lon="4.7047">
        <ele>-500</ele>
        <time>2020-02-18T16:20:16Z</time>
      </trkpt>
      <trkpt lat="45.3896" lon="4.70457">
        <ele>-500</ele>
        <time>2020-02-18T16:20:18Z</time>
      </trkpt>
      <trkpt lat="45.38959" lon="4.70451">
        <ele>-500</ele>
        <time>2020-02-18T16:20:19Z</time>
      </trkpt>
      <trkpt lat="45.3896" lon="4.70444">
        <ele>-500</ele>
        <time>2020-02-18T16:20:20Z</time>
      </trkpt>
      <trkpt lat="45.38961" lon="4.70438">
        <ele>-500</ele>
        <time>2020-02-18T16:20:21Z</time>
      </trkpt>
      <trkpt lat="45.38963" lon="4.70426">
        <ele>-500</ele>
        <time>2020-02-18T16:20:23Z</time>
      </trkpt>
      <trkpt lat="45.38967" lon="4.70413">
        <ele>-500</ele>
        <time>2020-02-18T16:20:25Z</time>
      </trkpt>
      <trkpt lat="45.38972" lon="4.70392">
        <ele>-500</ele>
        <time>2020-02-18T16:20:28Z</time>
      </trkpt>
      <trkpt lat="45.38974" lon="4.70385">
        <ele>-500</ele>
        <time>2020-02-18T16:20:29Z</time>
      </trkpt>
      <trkpt lat="45.38976" lon="4.70379">
        <ele>-500</ele>
        <time>2020-02-18T16:20:30Z</time>
      </trkpt>
      <trkpt lat="45.3898" lon="4.70366">
        <ele>-500</ele>
        <time>2020-02-18T16:20:32Z</time>
      </trkpt>
      <trkpt lat="45.38982" lon="4.7036">
        <ele>-500</ele>
        <time>2020-02-18T16:20:33Z</time>
      </trkpt>
      <trkpt lat="45.38984" lon="4.70353">
        <ele>-500</ele>
        <time>2020-02-18T16:20:34Z</time>
      </trkpt>
      <trkpt lat="45.38986" lon="4.70347">
        <ele>-500</ele>
        <time>2020-02-18T16:20:35Z</time>
      </trkpt>
      <trkpt lat="45.38989" lon="4.70333">
        <ele>-500</ele>
        <time>2020-02-18T16:20:37Z</time>
      </trkpt>
      <trkpt lat="45.3899" lon="4.70326">
        <ele>-500</ele>
        <time>2020-02-18T16:20:38Z</time>
      </trkpt>
      <trkpt lat="45.3899" lon="4.70321">
        <ele>-500</ele>
        <time>2020-02-18T16:20:39Z</time>
      </trkpt>
      <trkpt lat="45.38989" lon="4.70317">
        <ele>-500</ele>
        <time>2020-02-18T16:20:40Z</time>
      </trkpt>
      <trkpt lat="45.38988" lon="4.70313">
        <ele>-500</ele>
        <time>2020-02-18T16:20:41Z</time>
      </trkpt>
      <trkpt lat="45.38987" lon="4.7031">
        <ele>-500</ele>
        <time>2020-02-18T16:20:42Z</time>
      </trkpt>
      <trkpt lat="45.38988" lon="4.70308">
        <ele>-500</ele>
        <time>2020-02-18T16:20:43Z</time>
      </trkpt>
      <trkpt lat="45.38988" lon="4.70303">
        <ele>-500</ele>
        <time>2020-02-18T16:20:45Z</time>
      </trkpt>
      <trkpt lat="45.38987" lon="4.703">
        <ele>-500</ele>
        <time>2020-02-18T16:20:46Z</time>
      </trkpt>
      <trkpt lat="45.38985" lon="4.70296">
        <ele>-500</ele>
        <time>2020-02-18T16:20:47Z</time>
      </trkpt>
      <trkpt lat="45.38981" lon="4.70286">
        <ele>-500</ele>
        <time>2020-02-18T16:20:49Z</time>
      </trkpt>
      <trkpt lat="45.38978" lon="4.70275">
        <ele>-500</ele>
        <time>2020-02-18T16:20:51Z</time>
      </trkpt>
      <trkpt lat="45.38976" lon="4.70269">
        <ele>-500</ele>
        <time>2020-02-18T16:20:52Z</time>
      </trkpt>
      <trkpt lat="45.38973" lon="4.70263">
        <ele>-500</ele>
        <time>2020-02-18T16:20:53Z</time>
      </trkpt>
      <trkpt lat="45.38971" lon="4.70258">
        <ele>-500</ele>
        <time>2020-02-18T16:20:54Z</time>
      </trkpt>
      <trkpt lat="45.38968" lon="4.70253">
        <ele>-500</ele>
        <time>2020-02-18T16:20:55Z</time>
      </trkpt>
      <trkpt lat="45.38966" lon="4.70249">
        <ele>-500</ele>
        <time>2020-02-18T16:20:56Z</time>
      </trkpt>
      <trkpt lat="45.38964" lon="4.70244">
        <ele>-500</ele>
        <time>2020-02-18T16:20:57Z</time>
      </trkpt>
      <trkpt lat="45.38963" lon="4.70238">
        <ele>-500</ele>
        <time>2020-02-18T16:20:58Z</time>
      </trkpt>
      <trkpt lat="45.38963" lon="4.70233">
        <ele>-500</ele>
        <time>2020-02-18T16:20:59Z</time>
      </trkpt>
      <trkpt lat="45.38962" lon="4.70227">
        <ele>-500</ele>
        <time>2020-02-18T16:21:00Z</time>
      </trkpt>
      <trkpt lat="45.38963" lon="4.70221">
        <ele>-500</ele>
        <time>2020-02-18T16:21:01Z</time>
      </trkpt>
      <trkpt lat="45.38963" lon="4.70215">
        <ele>-500</ele>
        <time>2020-02-18T16:21:02Z</time>
      </trkpt>
      <trkpt lat="45.38965" lon="4.70199">
        <ele>-500</ele>
        <time>2020-02-18T16:21:04Z</time>
      </trkpt>
      <trkpt lat="45.38965" lon="4.70192">
        <ele>-500</ele>
        <time>2020-02-18T16:21:05Z</time>
      </trkpt>
      <trkpt lat="45.38964" lon="4.70183">
        <ele>-500</ele>
        <time>2020-02-18T16:21:06Z</time>
      </trkpt>
      <trkpt lat="45.38962" lon="4.70176">
        <ele>-500</ele>
        <time>2020-02-18T16:21:07Z</time>
      </trkpt>
      <trkpt lat="45.38959" lon="4.70169">
        <ele>-500</ele>
        <time>2020-02-18T16:21:08Z</time>
      </trkpt>
      <trkpt lat="45.38955" lon="4.70162">
        <ele>-500</ele>
        <time>2020-02-18T16:21:09Z</time>
      </trkpt>
      <trkpt lat="45.38951" lon="4.70156">
        <ele>-500</ele>
        <time>2020-02-18T16:21:10Z</time>
      </trkpt>
      <trkpt lat="45.38947" lon="4.70151">
        <ele>-500</ele>
        <time>2020-02-18T16:21:11Z</time>
      </trkpt>
      <trkpt lat="45.38938" lon="4.70143">
        <ele>-500</ele>
        <time>2020-02-18T16:21:13Z</time>
      </trkpt>
      <trkpt lat="45.38931" lon="4.7014">
        <ele>-500</ele>
        <time>2020-02-18T16:21:15Z</time>
      </trkpt>
      <trkpt lat="45.38928" lon="4.70141">
        <ele>-500</ele>
        <time>2020-02-18T16:21:16Z</time>
      </trkpt>
      <trkpt lat="45.38926" lon="4.70142">
        <ele>-500</ele>
        <time>2020-02-18T16:21:17Z</time>
      </trkpt>
      <trkpt lat="45.38922" lon="4.70145">
        <ele>-500</ele>
        <time>2020-02-18T16:21:19Z</time>
      </trkpt>
      <trkpt lat="45.3892" lon="4.70148">
        <ele>-500</ele>
        <time>2020-02-18T16:21:20Z</time>
      </trkpt>
      <trkpt lat="45.38917" lon="4.70153">
        <ele>-500</ele>
        <time>2020-02-18T16:21:22Z</time>
      </trkpt>
      <trkpt lat="45.38912" lon="4.70159">
        <ele>-500</ele>
        <time>2020-02-18T16:21:25Z</time>
      </trkpt>
      <trkpt lat="45.38906" lon="4.70165">
        <ele>-500</ele>
        <time>2020-02-18T16:21:29Z</time>
      </trkpt>
      <trkpt lat="45.38904" lon="4.70169">
        <ele>-500</ele>
        <time>2020-02-18T16:21:31Z</time>
      </trkpt>
      <trkpt lat="45.38896" lon="4.70185">
        <ele>-500</ele>
        <time>2020-02-18T16:21:39Z</time>
      </trkpt>
      <trkpt lat="45.38895" lon="4.70186">
        <ele>-500</ele>
        <time>2020-02-18T16:21:40Z</time>
      </trkpt>
      <trkpt lat="45.3889" lon="4.70201">
        <ele>-500</ele>
        <time>2020-02-18T16:21:47Z</time>
      </trkpt>
      <trkpt lat="45.38889" lon="4.70205">
        <ele>-500</ele>
        <time>2020-02-18T16:21:49Z</time>
      </trkpt>
      <trkpt lat="45.38886" lon="4.70213">
        <ele>-500</ele>
        <time>2020-02-18T16:21:53Z</time>
      </trkpt>
      <trkpt lat="45.38881" lon="4.70226">
        <ele>-500</ele>
        <time>2020-02-18T16:21:59Z</time>
      </trkpt>
      <trkpt lat="45.3888" lon="4.70229">
        <ele>-500</ele>
        <time>2020-02-18T16:22:00Z</time>
      </trkpt>
      <trkpt lat="45.38874" lon="4.70246">
        <ele>-500</ele>
        <time>2020-02-18T16:22:08Z</time>
      </trkpt>
      <trkpt lat="45.38874" lon="4.70248">
        <ele>-500</ele>
        <time>2020-02-18T16:22:09Z</time>
      </trkpt>
      <trkpt lat="45.38864" lon="4.70267">
        <ele>-500</ele>
        <time>2020-02-18T16:22:19Z</time>
      </trkpt>
      <trkpt lat="45.38862" lon="4.70271">
        <ele>-500</ele>
        <time>2020-02-18T16:22:21Z</time>
      </trkpt>
      <trkpt lat="45.38851" lon="4.70278">
        <ele>-500</ele>
        <time>2020-02-18T16:22:29Z</time>
      </trkpt>
      <trkpt lat="45.38839" lon="4.70276">
        <ele>-500</ele>
        <time>2020-02-18T16:22:36Z</time>
      </trkpt>
      <trkpt lat="45.38834" lon="4.70273">
        <ele>-500</ele>
        <time>2020-02-18T16:22:39Z</time>
      </trkpt>
      <trkpt lat="45.38819" lon="4.70264">
        <ele>-500</ele>
        <time>2020-02-18T16:22:49Z</time>
      </trkpt>
      <trkpt lat="45.38816" lon="4.70261">
        <ele>-500</ele>
        <time>2020-02-18T16:22:51Z</time>
      </trkpt>
      <trkpt lat="45.38808" lon="4.70252">
        <ele>-500</ele>
        <time>2020-02-18T16:22:57Z</time>
      </trkpt>
      <trkpt lat="45.38805" lon="4.70248">
        <ele>-500</ele>
        <time>2020-02-18T16:22:59Z</time>
      </trkpt>
      <trkpt lat="45.3879" lon="4.70235">
        <ele>-500</ele>
        <time>2020-02-18T16:23:09Z</time>
      </trkpt>
      <trkpt lat="45.38789" lon="4.70234">
        <ele>-500</ele>
        <time>2020-02-18T16:23:10Z</time>
      </trkpt>
      <trkpt lat="45.38774" lon="4.70224">
        <ele>-500</ele>
        <time>2020-02-18T16:23:19Z</time>
      </trkpt>
      <trkpt lat="45.38758" lon="4.70213">
        <ele>-500</ele>
        <time>2020-02-18T16:23:29Z</time>
      </trkpt>
      <trkpt lat="45.3875" lon="4.70205">
        <ele>-500</ele>
        <time>2020-02-18T16:23:35Z</time>
      </trkpt>
      <trkpt lat="45.38745" lon="4.70198">
        <ele>-500</ele>
        <time>2020-02-18T16:23:39Z</time>
      </trkpt>
      <trkpt lat="45.38731" lon="4.70184">
        <ele>-500</ele>
        <time>2020-02-18T16:23:47Z</time>
      </trkpt>
      <trkpt lat="45.38726" lon="4.70181">
        <ele>-500</ele>
        <time>2020-02-18T16:23:49Z</time>
      </trkpt>
      <trkpt lat="45.38718" lon="4.7018">
        <ele>-500</ele>
        <time>2020-02-18T16:23:52Z</time>
      </trkpt>
      <trkpt lat="45.38703" lon="4.70185">
        <ele>-500</ele>
        <time>2020-02-18T16:23:58Z</time>
      </trkpt>
      <trkpt lat="45.387" lon="4.70186">
        <ele>-500</ele>
        <time>2020-02-18T16:23:59Z</time>
      </trkpt>
      <trkpt lat="45.3868" lon="4.70191">
        <ele>-500</ele>
        <time>2020-02-18T16:24:09Z</time>
      </trkpt>
      <trkpt lat="45.38675" lon="4.70195">
        <ele>-500</ele>
        <time>2020-02-18T16:24:12Z</time>
      </trkpt>
      <trkpt lat="45.38678" lon="4.70216">
        <ele>-500</ele>
        <time>2020-02-18T16:24:19Z</time>
      </trkpt>
      <trkpt lat="45.38683" lon="4.70229">
        <ele>-500</ele>
        <time>2020-02-18T16:24:22Z</time>
      </trkpt>
      <trkpt lat="45.38688" lon="4.7024">
        <ele>-500</ele>
        <time>2020-02-18T16:24:24Z</time>
      </trkpt>
      <trkpt lat="45.38692" lon="4.70252">
        <ele>-500</ele>
        <time>2020-02-18T16:24:26Z</time>
      </trkpt>
      <trkpt lat="45.38697" lon="4.70262">
        <ele>-500</ele>
        <time>2020-02-18T16:24:28Z</time>
      </trkpt>
      <trkpt lat="45.38699" lon="4.70267">
        <ele>-500</ele>
        <time>2020-02-18T16:24:29Z</time>
      </trkpt>
      <trkpt lat="45.38701" lon="4.70271">
        <ele>-500</ele>
        <time>2020-02-18T16:24:30Z</time>
      </trkpt>
      <trkpt lat="45.38705" lon="4.7028">
        <ele>-500</ele>
        <time>2020-02-18T16:24:32Z</time>
      </trkpt>
      <trkpt lat="45.38711" lon="4.70288">
        <ele>-500</ele>
        <time>2020-02-18T16:24:34Z</time>
      </trkpt>
      <trkpt lat="45.38714" lon="4.70293">
        <ele>-500</ele>
        <time>2020-02-18T16:24:36Z</time>
      </trkpt>
      <trkpt lat="45.38714" lon="4.70293">
        <ele>-500</ele>
        <time>2020-02-18T16:24:37Z</time>
      </trkpt>
      <trkpt lat="45.38714" lon="4.70294">
        <ele>-500</ele>
        <time>2020-02-18T16:24:38Z</time>
      </trkpt>
      <trkpt lat="45.38714" lon="4.70294">
        <ele>-500</ele>
        <time>2020-02-18T16:24:39Z</time>
      </trkpt>
      <trkpt lat="45.38715" lon="4.70294">
        <ele>-500</ele>
        <time>2020-02-18T16:24:41Z</time>
      </trkpt>
      <trkpt lat="45.38715" lon="4.70296">
        <ele>-500</ele>
        <time>2020-02-18T16:24:43Z</time>
      </trkpt>
      <trkpt lat="45.38721" lon="4.70303">
        <ele>-500</ele>
        <time>2020-02-18T16:24:46Z</time>
      </trkpt>
      <trkpt lat="45.38725" lon="4.70311">
        <ele>-500</ele>
        <time>2020-02-18T16:24:48Z</time>
      </trkpt>
      <trkpt lat="45.38728" lon="4.70314">
        <ele>-500</ele>
        <time>2020-02-18T16:24:49Z</time>
      </trkpt>
      <trkpt lat="45.38731" lon="4.70318">
        <ele>-500</ele>
        <time>2020-02-18T16:24:50Z</time>
      </trkpt>
      <trkpt lat="45.38734" lon="4.70323">
        <ele>-500</ele>
        <time>2020-02-18T16:24:51Z</time>
      </trkpt>
      <trkpt lat="45.38737" lon="4.70328">
        <ele>-500</ele>
        <time>2020-02-18T16:24:52Z</time>
      </trkpt>
      <trkpt lat="45.3874" lon="4.70332">
        <ele>-500</ele>
        <time>2020-02-18T16:24:53Z</time>
      </trkpt>
      <trkpt lat="45.38743" lon="4.70337">
        <ele>-500</ele>
        <time>2020-02-18T16:24:54Z</time>
      </trkpt>
      <trkpt lat="45.38747" lon="4.70343">
        <ele>-500</ele>
        <time>2020-02-18T16:24:55Z</time>
      </trkpt>
      <trkpt lat="45.38753" lon="4.70354">
        <ele>-500</ele>
        <time>2020-02-18T16:24:57Z</time>
      </trkpt>
      <trkpt lat="45.38756" lon="4.7036">
        <ele>-500</ele>
        <time>2020-02-18T16:24:58Z</time>
      </trkpt>
      <trkpt lat="45.38759" lon="4.70366">
        <ele>-500</ele>
        <time>2020-02-18T16:24:59Z</time>
      </trkpt>
      <trkpt lat="45.38762" lon="4.70371">
        <ele>-500</ele>
        <time>2020-02-18T16:25:00Z</time>
      </trkpt>
      <trkpt lat="45.38765" lon="4.70375">
        <ele>-500</ele>
        <time>2020-02-18T16:25:01Z</time>
      </trkpt>
      <trkpt lat="45.38768" lon="4.7038">
        <ele>-500</ele>
        <time>2020-02-18T16:25:02Z</time>
      </trkpt>
      <trkpt lat="45.38771" lon="4.70384">
        <ele>-500</ele>
        <time>2020-02-18T16:25:03Z</time>
      </trkpt>
      <trkpt lat="45.38775" lon="4.70389">
        <ele>-500</ele>
        <time>2020-02-18T16:25:04Z</time>
      </trkpt>
      <trkpt lat="45.38778" lon="4.70394">
        <ele>-500</ele>
        <time>2020-02-18T16:25:05Z</time>
      </trkpt>
      <trkpt lat="45.38781" lon="4.704">
        <ele>-500</ele>
        <time>2020-02-18T16:25:06Z</time>
      </trkpt>
      <trkpt lat="45.38784" lon="4.70405">
        <ele>-500</ele>
        <time>2020-02-18T16:25:07Z</time>
      </trkpt>
      <trkpt lat="45.38788" lon="4.7041">
        <ele>-500</ele>
        <time>2020-02-18T16:25:08Z</time>
      </trkpt>
      <trkpt lat="45.38792" lon="4.70417">
        <ele>-500</ele>
        <time>2020-02-18T16:25:09Z</time>
      </trkpt>
      <trkpt lat="45.38794" lon="4.70423">
        <ele>-500</ele>
        <time>2020-02-18T16:25:10Z</time>
      </trkpt>
      <trkpt lat="45.38796" lon="4.7043">
        <ele>-500</ele>
        <time>2020-02-18T16:25:11Z</time>
      </trkpt>
      <trkpt lat="45.38797" lon="4.70436">
        <ele>-500</ele>
        <time>2020-02-18T16:25:12Z</time>
      </trkpt>
      <trkpt lat="45.38797" lon="4.70442">
        <ele>-500</ele>
        <time>2020-02-18T16:25:13Z</time>
      </trkpt>
      <trkpt lat="45.38797" lon="4.70449">
        <ele>-500</ele>
        <time>2020-02-18T16:25:14Z</time>
      </trkpt>
      <trkpt lat="45.38797" lon="4.70455">
        <ele>-500</ele>
        <time>2020-02-18T16:25:15Z</time>
      </trkpt>
      <trkpt lat="45.38796" lon="4.70461">
        <ele>-500</ele>
        <time>2020-02-18T16:25:16Z</time>
      </trkpt>
      <trkpt lat="45.38795" lon="4.70466">
        <ele>-500</ele>
        <time>2020-02-18T16:25:17Z</time>
      </trkpt>
      <trkpt lat="45.38794" lon="4.70472">
        <ele>-500</ele>
        <time>2020-02-18T16:25:18Z</time>
      </trkpt>
      <trkpt lat="45.38793" lon="4.70478">
        <ele>-500</ele>
        <time>2020-02-18T16:25:19Z</time>
      </trkpt>
      <trkpt lat="45.38792" lon="4.70483">
        <ele>-500</ele>
        <time>2020-02-18T16:25:20Z</time>
      </trkpt>
      <trkpt lat="45.38792" lon="4.70488">
        <ele>-500</ele>
        <time>2020-02-18T16:25:21Z</time>
      </trkpt>
      <trkpt lat="45.38792" lon="4.70492">
        <ele>-500</ele>
        <time>2020-02-18T16:25:22Z</time>
      </trkpt>
      <trkpt lat="45.38792" lon="4.70496">
        <ele>-500</ele>
        <time>2020-02-18T16:25:23Z</time>
      </trkpt>
      <trkpt lat="45.38791" lon="4.705">
        <ele>-500</ele>
        <time>2020-02-18T16:25:24Z</time>
      </trkpt>
      <trkpt lat="45.3879" lon="4.70505">
        <ele>-500</ele>
        <time>2020-02-18T16:25:25Z</time>
      </trkpt>
      <trkpt lat="45.38789" lon="4.70509">
        <ele>-500</ele>
        <time>2020-02-18T16:25:26Z</time>
      </trkpt>
      <trkpt lat="45.38789" lon="4.7052">
        <ele>-500</ele>
        <time>2020-02-18T16:25:28Z</time>
      </trkpt>
      <trkpt lat="45.38789" lon="4.70524">
        <ele>-500</ele>
        <time>2020-02-18T16:25:29Z</time>
      </trkpt>
      <trkpt lat="45.38789" lon="4.70528">
        <ele>-500</ele>
        <time>2020-02-18T16:25:30Z</time>
      </trkpt>
      <trkpt lat="45.3879" lon="4.70533">
        <ele>-500</ele>
        <time>2020-02-18T16:25:31Z</time>
      </trkpt>
      <trkpt lat="45.38791" lon="4.70536">
        <ele>-500</ele>
        <time>2020-02-18T16:25:32Z</time>
      </trkpt>
      <trkpt lat="45.38793" lon="4.70541">
        <ele>-500</ele>
        <time>2020-02-18T16:25:33Z</time>
      </trkpt>
      <trkpt lat="45.38793" lon="4.70546">
        <ele>-500</ele>
        <time>2020-02-18T16:25:34Z</time>
      </trkpt>
      <trkpt lat="45.38792" lon="4.70551">
        <ele>-500</ele>
        <time>2020-02-18T16:25:35Z</time>
      </trkpt>
      <trkpt lat="45.38791" lon="4.70556">
        <ele>-500</ele>
        <time>2020-02-18T16:25:36Z</time>
      </trkpt>
      <trkpt lat="45.38789" lon="4.7056">
        <ele>-500</ele>
        <time>2020-02-18T16:25:37Z</time>
      </trkpt>
      <trkpt lat="45.38786" lon="4.70566">
        <ele>-500</ele>
        <time>2020-02-18T16:25:39Z</time>
      </trkpt>
      <trkpt lat="45.38784" lon="4.70567">
        <ele>-500</ele>
        <time>2020-02-18T16:25:41Z</time>
      </trkpt>
      <trkpt lat="45.38783" lon="4.70569">
        <ele>-500</ele>
        <time>2020-02-18T16:25:43Z</time>
      </trkpt>
      <trkpt lat="45.38785" lon="4.70573">
        <ele>-500</ele>
        <time>2020-02-18T16:25:46Z</time>
      </trkpt>
      <trkpt lat="45.38786" lon="4.70575">
        <ele>-500</ele>
        <time>2020-02-18T16:25:47Z</time>
      </trkpt>
      <trkpt lat="45.38786" lon="4.70577">
        <ele>-500</ele>
        <time>2020-02-18T16:25:48Z</time>
      </trkpt>
      <trkpt lat="45.38786" lon="4.70578">
        <ele>-500</ele>
        <time>2020-02-18T16:25:49Z</time>
      </trkpt>
      <trkpt lat="45.38783" lon="4.70586">
        <ele>-500</ele>
        <time>2020-02-18T16:25:55Z</time>
      </trkpt>
      <trkpt lat="45.38777" lon="4.70595">
        <ele>-500</ele>
        <time>2020-02-18T16:25:59Z</time>
      </trkpt>
      <trkpt lat="45.38774" lon="4.70597">
        <ele>-500</ele>
        <time>2020-02-18T16:26:01Z</time>
      </trkpt>
      <trkpt lat="45.38769" lon="4.70602">
        <ele>-500</ele>
        <time>2020-02-18T16:26:04Z</time>
      </trkpt>
      <trkpt lat="45.38761" lon="4.70612">
        <ele>-500</ele>
        <time>2020-02-18T16:26:08Z</time>
      </trkpt>
      <trkpt lat="45.3876" lon="4.70614">
        <ele>-500</ele>
        <time>2020-02-18T16:26:09Z</time>
      </trkpt>
      <trkpt lat="45.38751" lon="4.70625">
        <ele>-500</ele>
        <time>2020-02-18T16:26:13Z</time>
      </trkpt>
      <trkpt lat="45.38746" lon="4.70645">
        <ele>-500</ele>
        <time>2020-02-18T16:26:19Z</time>
      </trkpt>
      <trkpt lat="45.38741" lon="4.7065">
        <ele>-500</ele>
        <time>2020-02-18T16:26:21Z</time>
      </trkpt>
      <trkpt lat="45.38734" lon="4.70661">
        <ele>-500</ele>
        <time>2020-02-18T16:26:24Z</time>
      </trkpt>
      <trkpt lat="45.38732" lon="4.7067">
        <ele>-500</ele>
        <time>2020-02-18T16:26:26Z</time>
      </trkpt>
      <trkpt lat="45.38728" lon="4.70677">
        <ele>-500</ele>
        <time>2020-02-18T16:26:28Z</time>
      </trkpt>
      <trkpt lat="45.38725" lon="4.70681">
        <ele>-500</ele>
        <time>2020-02-18T16:26:29Z</time>
      </trkpt>
      <trkpt lat="45.38716" lon="4.70693">
        <ele>-500</ele>
        <time>2020-02-18T16:26:32Z</time>
      </trkpt>
      <trkpt lat="45.38704" lon="4.70705">
        <ele>-500</ele>
        <time>2020-02-18T16:26:36Z</time>
      </trkpt>
      <trkpt lat="45.38703" lon="4.7072">
        <ele>-500</ele>
        <time>2020-02-18T16:26:39Z</time>
      </trkpt>
      <trkpt lat="45.38706" lon="4.70729">
        <ele>-500</ele>
        <time>2020-02-18T16:26:41Z</time>
      </trkpt>
      <trkpt lat="45.38708" lon="4.70733">
        <ele>-500</ele>
        <time>2020-02-18T16:26:42Z</time>
      </trkpt>
      <trkpt lat="45.38711" lon="4.70745">
        <ele>-500</ele>
        <time>2020-02-18T16:26:45Z</time>
      </trkpt>
      <trkpt lat="45.38709" lon="4.7075">
        <ele>-500</ele>
        <time>2020-02-18T16:26:46Z</time>
      </trkpt>
      <trkpt lat="45.38708" lon="4.70756">
        <ele>-500</ele>
        <time>2020-02-18T16:26:47Z</time>
      </trkpt>
      <trkpt lat="45.38708" lon="4.70767">
        <ele>-500</ele>
        <time>2020-02-18T16:26:49Z</time>
      </trkpt>
      <trkpt lat="45.38708" lon="4.70787">
        <ele>-500</ele>
        <time>2020-02-18T16:26:53Z</time>
      </trkpt>
      <trkpt lat="45.38707" lon="4.70792">
        <ele>-500</ele>
        <time>2020-02-18T16:26:54Z</time>
      </trkpt>
      <trkpt lat="45.38702" lon="4.70819">
        <ele>-500</ele>
        <time>2020-02-18T16:26:59Z</time>
      </trkpt>
      <trkpt lat="45.38701" lon="4.70826">
        <ele>-500</ele>
        <time>2020-02-18T16:27:00Z</time>
      </trkpt>
      <trkpt lat="45.387" lon="4.70839">
        <ele>-500</ele>
        <time>2020-02-18T16:27:02Z</time>
      </trkpt>
      <trkpt lat="45.38698" lon="4.70857">
        <ele>-500</ele>
        <time>2020-02-18T16:27:05Z</time>
      </trkpt>
      <trkpt lat="45.38683" lon="4.70902">
        <ele>-500</ele>
        <time>2020-02-18T16:27:10Z</time>
      </trkpt>
      <trkpt lat="45.38683" lon="4.70902">
        <ele>-500</ele>
        <time>2020-02-18T16:27:11Z</time>
      </trkpt>
      <trkpt lat="45.38679" lon="4.70917">
        <ele>-500</ele>
        <time>2020-02-18T16:27:13Z</time>
      </trkpt>
      <trkpt lat="45.38677" lon="4.70923">
        <ele>-500</ele>
        <time>2020-02-18T16:27:14Z</time>
      </trkpt>
      <trkpt lat="45.38674" lon="4.70929">
        <ele>-500</ele>
        <time>2020-02-18T16:27:15Z</time>
      </trkpt>
      <trkpt lat="45.3867" lon="4.70937">
        <ele>-500</ele>
        <time>2020-02-18T16:27:16Z</time>
      </trkpt>
      <trkpt lat="45.38667" lon="4.70944">
        <ele>-500</ele>
        <time>2020-02-18T16:27:17Z</time>
      </trkpt>
      <trkpt lat="45.3866" lon="4.70957">
        <ele>-500</ele>
        <time>2020-02-18T16:27:19Z</time>
      </trkpt>
      <trkpt lat="45.38655" lon="4.70963">
        <ele>-500</ele>
        <time>2020-02-18T16:27:20Z</time>
      </trkpt>
      <trkpt lat="45.38647" lon="4.70974">
        <ele>-500</ele>
        <time>2020-02-18T16:27:22Z</time>
      </trkpt>
      <trkpt lat="45.38639" lon="4.70987">
        <ele>-500</ele>
        <time>2020-02-18T16:27:24Z</time>
      </trkpt>
      <trkpt lat="45.38636" lon="4.70993">
        <ele>-500</ele>
        <time>2020-02-18T16:27:25Z</time>
      </trkpt>
      <trkpt lat="45.38634" lon="4.70999">
        <ele>-500</ele>
        <time>2020-02-18T16:27:26Z</time>
      </trkpt>
      <trkpt lat="45.38629" lon="4.71009">
        <ele>-500</ele>
        <time>2020-02-18T16:27:28Z</time>
      </trkpt>
      <trkpt lat="45.38625" lon="4.71014">
        <ele>-500</ele>
        <time>2020-02-18T16:27:29Z</time>
      </trkpt>
      <trkpt lat="45.38621" lon="4.71019">
        <ele>-500</ele>
        <time>2020-02-18T16:27:30Z</time>
      </trkpt>
      <trkpt lat="45.38612" lon="4.71027">
        <ele>-500</ele>
        <time>2020-02-18T16:27:32Z</time>
      </trkpt>
      <trkpt lat="45.38609" lon="4.71033">
        <ele>-500</ele>
        <time>2020-02-18T16:27:33Z</time>
      </trkpt>
      <trkpt lat="45.38606" lon="4.71046">
        <ele>-500</ele>
        <time>2020-02-18T16:27:35Z</time>
      </trkpt>
      <trkpt lat="45.38606" lon="4.71054">
        <ele>-500</ele>
        <time>2020-02-18T16:27:36Z</time>
      </trkpt>
      <trkpt lat="45.38607" lon="4.71061">
        <ele>-500</ele>
        <time>2020-02-18T16:27:37Z</time>
      </trkpt>
      <trkpt lat="45.38607" lon="4.71072">
        <ele>-500</ele>
        <time>2020-02-18T16:27:39Z</time>
      </trkpt>
      <trkpt lat="45.38606" lon="4.71076">
        <ele>-500</ele>
        <time>2020-02-18T16:27:40Z</time>
      </trkpt>
      <trkpt lat="45.38602" lon="4.7108">
        <ele>-500</ele>
        <time>2020-02-18T16:27:42Z</time>
      </trkpt>
      <trkpt lat="45.38599" lon="4.71082">
        <ele>-500</ele>
        <time>2020-02-18T16:27:44Z</time>
      </trkpt>
      <trkpt lat="45.38595" lon="4.71085">
        <ele>-500</ele>
        <time>2020-02-18T16:27:47Z</time>
      </trkpt>
      <trkpt lat="45.38593" lon="4.71089">
        <ele>-500</ele>
        <time>2020-02-18T16:27:50Z</time>
      </trkpt>
      <trkpt lat="45.38593" lon="4.71096">
        <ele>-500</ele>
        <time>2020-02-18T16:27:53Z</time>
      </trkpt>
      <trkpt lat="45.38592" lon="4.71102">
        <ele>-500</ele>
        <time>2020-02-18T16:27:55Z</time>
      </trkpt>
      <trkpt lat="45.38593" lon="4.71119">
        <ele>-500</ele>
        <time>2020-02-18T16:28:00Z</time>
      </trkpt>
      <trkpt lat="45.38596" lon="4.71132">
        <ele>-500</ele>
        <time>2020-02-18T16:28:03Z</time>
      </trkpt>
      <trkpt lat="45.38608" lon="4.71157">
        <ele>-500</ele>
        <time>2020-02-18T16:28:09Z</time>
      </trkpt>
      <trkpt lat="45.3861" lon="4.7116">
        <ele>-500</ele>
        <time>2020-02-18T16:28:10Z</time>
      </trkpt>
      <trkpt lat="45.38615" lon="4.71174">
        <ele>-500</ele>
        <time>2020-02-18T16:28:13Z</time>
      </trkpt>
      <trkpt lat="45.38618" lon="4.71179">
        <ele>-500</ele>
        <time>2020-02-18T16:28:14Z</time>
      </trkpt>
      <trkpt lat="45.38626" lon="4.71194">
        <ele>-500</ele>
        <time>2020-02-18T16:28:17Z</time>
      </trkpt>
      <trkpt lat="45.38629" lon="4.71199">
        <ele>-500</ele>
        <time>2020-02-18T16:28:18Z</time>
      </trkpt>
      <trkpt lat="45.38635" lon="4.71209">
        <ele>-500</ele>
        <time>2020-02-18T16:28:20Z</time>
      </trkpt>
      <trkpt lat="45.38638" lon="4.71214">
        <ele>-500</ele>
        <time>2020-02-18T16:28:21Z</time>
      </trkpt>
      <trkpt lat="45.38646" lon="4.71223">
        <ele>-500</ele>
        <time>2020-02-18T16:28:23Z</time>
      </trkpt>
      <trkpt lat="45.38651" lon="4.71227">
        <ele>-500</ele>
        <time>2020-02-18T16:28:24Z</time>
      </trkpt>
      <trkpt lat="45.38656" lon="4.71231">
        <ele>-500</ele>
        <time>2020-02-18T16:28:25Z</time>
      </trkpt>
      <trkpt lat="45.3866" lon="4.71236">
        <ele>-500</ele>
        <time>2020-02-18T16:28:26Z</time>
      </trkpt>
      <trkpt lat="45.38663" lon="4.71241">
        <ele>-500</ele>
        <time>2020-02-18T16:28:27Z</time>
      </trkpt>
      <trkpt lat="45.38665" lon="4.71245">
        <ele>-500</ele>
        <time>2020-02-18T16:28:28Z</time>
      </trkpt>
      <trkpt lat="45.38665" lon="4.71248">
        <ele>-500</ele>
        <time>2020-02-18T16:28:29Z</time>
      </trkpt>
      <trkpt lat="45.38666" lon="4.71251">
        <ele>-500</ele>
        <time>2020-02-18T16:28:30Z</time>
      </trkpt>
      <trkpt lat="45.38666" lon="4.71255">
        <ele>-500</ele>
        <time>2020-02-18T16:28:31Z</time>
      </trkpt>
      <trkpt lat="45.38673" lon="4.71276">
        <ele>-500</ele>
        <time>2020-02-18T16:28:37Z</time>
      </trkpt>
      <trkpt lat="45.38673" lon="4.71286">
        <ele>-500</ele>
        <time>2020-02-18T16:28:40Z</time>
      </trkpt>
      <trkpt lat="45.38672" lon="4.71293">
        <ele>-500</ele>
        <time>2020-02-18T16:28:43Z</time>
      </trkpt>
      <trkpt lat="45.38665" lon="4.713">
        <ele>-500</ele>
        <time>2020-02-18T16:28:46Z</time>
      </trkpt>
      <trkpt lat="45.38658" lon="4.71304">
        <ele>-500</ele>
        <time>2020-02-18T16:28:48Z</time>
      </trkpt>
      <trkpt lat="45.38652" lon="4.71309">
        <ele>-500</ele>
        <time>2020-02-18T16:28:50Z</time>
      </trkpt>
      <trkpt lat="45.38646" lon="4.71314">
        <ele>-500</ele>
        <time>2020-02-18T16:28:52Z</time>
      </trkpt>
      <trkpt lat="45.38637" lon="4.71324">
        <ele>-500</ele>
        <time>2020-02-18T16:28:55Z</time>
      </trkpt>
      <trkpt lat="45.38627" lon="4.71339">
        <ele>-500</ele>
        <time>2020-02-18T16:28:59Z</time>
      </trkpt>
      <trkpt lat="45.38625" lon="4.71343">
        <ele>-500</ele>
        <time>2020-02-18T16:29:00Z</time>
      </trkpt>
      <trkpt lat="45.38619" lon="4.71357">
        <ele>-500</ele>
        <time>2020-02-18T16:29:03Z</time>
      </trkpt>
      <trkpt lat="45.38618" lon="4.71373">
        <ele>-500</ele>
        <time>2020-02-18T16:29:06Z</time>
      </trkpt>
      <trkpt lat="45.38619" lon="4.71394">
        <ele>-500</ele>
        <time>2020-02-18T16:29:10Z</time>
      </trkpt>
      <trkpt lat="45.38621" lon="4.71405">
        <ele>-500</ele>
        <time>2020-02-18T16:29:12Z</time>
      </trkpt>
      <trkpt lat="45.38622" lon="4.71436">
        <ele>-500</ele>
        <time>2020-02-18T16:29:18Z</time>
      </trkpt>
      <trkpt lat="45.38624" lon="4.71447">
        <ele>-500</ele>
        <time>2020-02-18T16:29:20Z</time>
      </trkpt>
      <trkpt lat="45.38628" lon="4.71464">
        <ele>-500</ele>
        <time>2020-02-18T16:29:23Z</time>
      </trkpt>
      <trkpt lat="45.38629" lon="4.71471">
        <ele>-500</ele>
        <time>2020-02-18T16:29:24Z</time>
      </trkpt>
      <trkpt lat="45.38628" lon="4.71477">
        <ele>-500</ele>
        <time>2020-02-18T16:29:25Z</time>
      </trkpt>
      <trkpt lat="45.38624" lon="4.71489">
        <ele>-500</ele>
        <time>2020-02-18T16:29:27Z</time>
      </trkpt>
      <trkpt lat="45.38618" lon="4.71498">
        <ele>-500</ele>
        <time>2020-02-18T16:29:29Z</time>
      </trkpt>
      <trkpt lat="45.38614" lon="4.71502">
        <ele>-500</ele>
        <time>2020-02-18T16:29:30Z</time>
      </trkpt>
      <trkpt lat="45.38607" lon="4.7151">
        <ele>-500</ele>
        <time>2020-02-18T16:29:32Z</time>
      </trkpt>
      <trkpt lat="45.38597" lon="4.7152">
        <ele>-500</ele>
        <time>2020-02-18T16:29:35Z</time>
      </trkpt>
      <trkpt lat="45.38579" lon="4.71535">
        <ele>-500</ele>
        <time>2020-02-18T16:29:40Z</time>
      </trkpt>
      <trkpt lat="45.38571" lon="4.71542">
        <ele>-500</ele>
        <time>2020-02-18T16:29:42Z</time>
      </trkpt>
      <trkpt lat="45.38561" lon="4.71553">
        <ele>-500</ele>
        <time>2020-02-18T16:29:45Z</time>
      </trkpt>
      <trkpt lat="45.38558" lon="4.71557">
        <ele>-500</ele>
        <time>2020-02-18T16:29:46Z</time>
      </trkpt>
      <trkpt lat="45.38553" lon="4.71567">
        <ele>-500</ele>
        <time>2020-02-18T16:29:48Z</time>
      </trkpt>
      <trkpt lat="45.3855" lon="4.71573">
        <ele>-500</ele>
        <time>2020-02-18T16:29:49Z</time>
      </trkpt>
      <trkpt lat="45.38548" lon="4.7158">
        <ele>-500</ele>
        <time>2020-02-18T16:29:50Z</time>
      </trkpt>
      <trkpt lat="45.38542" lon="4.71597">
        <ele>-500</ele>
        <time>2020-02-18T16:29:53Z</time>
      </trkpt>
      <trkpt lat="45.38537" lon="4.71616">
        <ele>-500</ele>
        <time>2020-02-18T16:29:56Z</time>
      </trkpt>
      <trkpt lat="45.38536" lon="4.71628">
        <ele>-500</ele>
        <time>2020-02-18T16:29:58Z</time>
      </trkpt>
      <trkpt lat="45.38536" lon="4.71641">
        <ele>-500</ele>
        <time>2020-02-18T16:30:00Z</time>
      </trkpt>
      <trkpt lat="45.38537" lon="4.71648">
        <ele>-500</ele>
        <time>2020-02-18T16:30:01Z</time>
      </trkpt>
      <trkpt lat="45.38541" lon="4.71661">
        <ele>-500</ele>
        <time>2020-02-18T16:30:03Z</time>
      </trkpt>
      <trkpt lat="45.38548" lon="4.71687">
        <ele>-500</ele>
        <time>2020-02-18T16:30:07Z</time>
      </trkpt>
      <trkpt lat="45.38549" lon="4.71693">
        <ele>-500</ele>
        <time>2020-02-18T16:30:08Z</time>
      </trkpt>
      <trkpt lat="45.38551" lon="4.71705">
        <ele>-500</ele>
        <time>2020-02-18T16:30:10Z</time>
      </trkpt>
      <trkpt lat="45.38556" lon="4.71723">
        <ele>-500</ele>
        <time>2020-02-18T16:30:13Z</time>
      </trkpt>
      <trkpt lat="45.3856" lon="4.71735">
        <ele>-500</ele>
        <time>2020-02-18T16:30:15Z</time>
      </trkpt>
      <trkpt lat="45.38565" lon="4.71755">
        <ele>-500</ele>
        <time>2020-02-18T16:30:18Z</time>
      </trkpt>
      <trkpt lat="45.38568" lon="4.71768">
        <ele>-500</ele>
        <time>2020-02-18T16:30:20Z</time>
      </trkpt>
      <trkpt lat="45.38568" lon="4.71788">
        <ele>-500</ele>
        <time>2020-02-18T16:30:23Z</time>
      </trkpt>
      <trkpt lat="45.38567" lon="4.71795">
        <ele>-500</ele>
        <time>2020-02-18T16:30:24Z</time>
      </trkpt>
      <trkpt lat="45.38565" lon="4.71808">
        <ele>-500</ele>
        <time>2020-02-18T16:30:26Z</time>
      </trkpt>
      <trkpt lat="45.38561" lon="4.71819">
        <ele>-500</ele>
        <time>2020-02-18T16:30:28Z</time>
      </trkpt>
      <trkpt lat="45.38559" lon="4.7183">
        <ele>-500</ele>
        <time>2020-02-18T16:30:30Z</time>
      </trkpt>
      <trkpt lat="45.38548" lon="4.71867">
        <ele>-500</ele>
        <time>2020-02-18T16:30:37Z</time>
      </trkpt>
      <trkpt lat="45.38544" lon="4.71877">
        <ele>-500</ele>
        <time>2020-02-18T16:30:39Z</time>
      </trkpt>
      <trkpt lat="45.38542" lon="4.71882">
        <ele>-500</ele>
        <time>2020-02-18T16:30:40Z</time>
      </trkpt>
      <trkpt lat="45.3854" lon="4.7189">
        <ele>-500</ele>
        <time>2020-02-18T16:30:42Z</time>
      </trkpt>
      <trkpt lat="45.38538" lon="4.71903">
        <ele>-500</ele>
        <time>2020-02-18T16:30:44Z</time>
      </trkpt>
      <trkpt lat="45.38538" lon="4.71916">
        <ele>-500</ele>
        <time>2020-02-18T16:30:46Z</time>
      </trkpt>
      <trkpt lat="45.38538" lon="4.7193">
        <ele>-500</ele>
        <time>2020-02-18T16:30:48Z</time>
      </trkpt>
      <trkpt lat="45.38538" lon="4.71938">
        <ele>-500</ele>
        <time>2020-02-18T16:30:49Z</time>
      </trkpt>
      <trkpt lat="45.38538" lon="4.71946">
        <ele>-500</ele>
        <time>2020-02-18T16:30:50Z</time>
      </trkpt>
      <trkpt lat="45.38535" lon="4.71962">
        <ele>-500</ele>
        <time>2020-02-18T16:30:52Z</time>
      </trkpt>
      <trkpt lat="45.38529" lon="4.71987">
        <ele>-500</ele>
        <time>2020-02-18T16:30:55Z</time>
      </trkpt>
      <trkpt lat="45.38528" lon="4.71995">
        <ele>-500</ele>
        <time>2020-02-18T16:30:56Z</time>
      </trkpt>
      <trkpt lat="45.38527" lon="4.72004">
        <ele>-500</ele>
        <time>2020-02-18T16:30:57Z</time>
      </trkpt>
      <trkpt lat="45.38525" lon="4.72033">
        <ele>-500</ele>
        <time>2020-02-18T16:31:00Z</time>
      </trkpt>
      <trkpt lat="45.38524" lon="4.72056">
        <ele>-500</ele>
        <time>2020-02-18T16:31:02Z</time>
      </trkpt>
      <trkpt lat="45.38522" lon="4.72082">
        <ele>-500</ele>
        <time>2020-02-18T16:31:04Z</time>
      </trkpt>
      <trkpt lat="45.38518" lon="4.72108">
        <ele>-500</ele>
        <time>2020-02-18T16:31:06Z</time>
      </trkpt>
      <trkpt lat="45.38516" lon="4.7212">
        <ele>-500</ele>
        <time>2020-02-18T16:31:07Z</time>
      </trkpt>
      <trkpt lat="45.38514" lon="4.7213">
        <ele>-500</ele>
        <time>2020-02-18T16:31:08Z</time>
      </trkpt>
      <trkpt lat="45.38513" lon="4.7214">
        <ele>-500</ele>
        <time>2020-02-18T16:31:09Z</time>
      </trkpt>
      <trkpt lat="45.38511" lon="4.72148">
        <ele>-500</ele>
        <time>2020-02-18T16:31:10Z</time>
      </trkpt>
      <trkpt lat="45.3851" lon="4.72154">
        <ele>-500</ele>
        <time>2020-02-18T16:31:11Z</time>
      </trkpt>
      <trkpt lat="45.38508" lon="4.7216">
        <ele>-500</ele>
        <time>2020-02-18T16:31:12Z</time>
      </trkpt>
      <trkpt lat="45.38506" lon="4.72165">
        <ele>-500</ele>
        <time>2020-02-18T16:31:13Z</time>
      </trkpt>
      <trkpt lat="45.38503" lon="4.72168">
        <ele>-500</ele>
        <time>2020-02-18T16:31:14Z</time>
      </trkpt>
      <trkpt lat="45.38502" lon="4.7217">
        <ele>-500</ele>
        <time>2020-02-18T16:31:15Z</time>
      </trkpt>
      <trkpt lat="45.38502" lon="4.72171">
        <ele>-500</ele>
        <time>2020-02-18T16:31:16Z</time>
      </trkpt>
      <trkpt lat="45.38504" lon="4.72172">
        <ele>-500</ele>
        <time>2020-02-18T16:31:17Z</time>
      </trkpt>
      <trkpt lat="45.38506" lon="4.72173">
        <ele>-500</ele>
        <time>2020-02-18T16:31:18Z</time>
      </trkpt>
      <trkpt lat="45.38512" lon="4.72177">
        <ele>-500</ele>
        <time>2020-02-18T16:31:20Z</time>
      </trkpt>
      <trkpt lat="45.38524" lon="4.72197">
        <ele>-500</ele>
        <time>2020-02-18T16:31:24Z</time>
      </trkpt>
      <trkpt lat="45.38526" lon="4.72204">
        <ele>-500</ele>
        <time>2020-02-18T16:31:25Z</time>
      </trkpt>
      <trkpt lat="45.38532" lon="4.72227">
        <ele>-500</ele>
        <time>2020-02-18T16:31:28Z</time>
      </trkpt>
      <trkpt lat="45.38535" lon="4.72244">
        <ele>-500</ele>
        <time>2020-02-18T16:31:30Z</time>
      </trkpt>
      <trkpt lat="45.38536" lon="4.72253">
        <ele>-500</ele>
        <time>2020-02-18T16:31:31Z</time>
      </trkpt>
      <trkpt lat="45.38538" lon="4.72268">
        <ele>-500</ele>
        <time>2020-02-18T16:31:33Z</time>
      </trkpt>
      <trkpt lat="45.38539" lon="4.72272">
        <ele>-500</ele>
        <time>2020-02-18T16:31:34Z</time>
      </trkpt>
      <trkpt lat="45.3854" lon="4.72275">
        <ele>-500</ele>
        <time>2020-02-18T16:31:35Z</time>
      </trkpt>
      <trkpt lat="45.3854" lon="4.72277">
        <ele>-500</ele>
        <time>2020-02-18T16:31:36Z</time>
      </trkpt>
      <trkpt lat="45.38537" lon="4.72275">
        <ele>-500</ele>
        <time>2020-02-18T16:31:38Z</time>
      </trkpt>
      <trkpt lat="45.38537" lon="4.72271">
        <ele>-500</ele>
        <time>2020-02-18T16:31:39Z</time>
      </trkpt>
      <trkpt lat="45.38538" lon="4.72269">
        <ele>-500</ele>
        <time>2020-02-18T16:31:40Z</time>
      </trkpt>
      <trkpt lat="45.3854" lon="4.72268">
        <ele>-500</ele>
        <time>2020-02-18T16:31:41Z</time>
      </trkpt>
      <trkpt lat="45.38546" lon="4.72267">
        <ele>-500</ele>
        <time>2020-02-18T16:31:43Z</time>
      </trkpt>
      <trkpt lat="45.3855" lon="4.72268">
        <ele>-500</ele>
        <time>2020-02-18T16:31:44Z</time>
      </trkpt>
      <trkpt lat="45.38558" lon="4.72271">
        <ele>-500</ele>
        <time>2020-02-18T16:31:46Z</time>
      </trkpt>
      <trkpt lat="45.38559" lon="4.72274">
        <ele>-500</ele>
        <time>2020-02-18T16:31:47Z</time>
      </trkpt>
      <trkpt lat="45.3856" lon="4.72278">
        <ele>-500</ele>
        <time>2020-02-18T16:31:48Z</time>
      </trkpt>
      <trkpt lat="45.38561" lon="4.72282">
        <ele>-500</ele>
        <time>2020-02-18T16:31:49Z</time>
      </trkpt>
      <trkpt lat="45.38562" lon="4.72287">
        <ele>-500</ele>
        <time>2020-02-18T16:31:50Z</time>
      </trkpt>
      <trkpt lat="45.38564" lon="4.72291">
        <ele>-500</ele>
        <time>2020-02-18T16:31:51Z</time>
      </trkpt>
      <trkpt lat="45.38565" lon="4.72295">
        <ele>-500</ele>
        <time>2020-02-18T16:31:52Z</time>
      </trkpt>
      <trkpt lat="45.38567" lon="4.72296">
        <ele>-500</ele>
        <time>2020-02-18T16:31:53Z</time>
      </trkpt>
      <trkpt lat="45.38572" lon="4.72297">
        <ele>-500</ele>
        <time>2020-02-18T16:31:55Z</time>
      </trkpt>
      <trkpt lat="45.38574" lon="4.72298">
        <ele>-500</ele>
        <time>2020-02-18T16:31:56Z</time>
      </trkpt>
      <trkpt lat="45.38581" lon="4.72304">
        <ele>-500</ele>
        <time>2020-02-18T16:32:00Z</time>
      </trkpt>
      <trkpt lat="45.38589" lon="4.72326">
        <ele>-500</ele>
        <time>2020-02-18T16:32:08Z</time>
      </trkpt>
      <trkpt lat="45.38588" lon="4.7233">
        <ele>-500</ele>
        <time>2020-02-18T16:32:09Z</time>
      </trkpt>
      <trkpt lat="45.38588" lon="4.72334">
        <ele>-500</ele>
        <time>2020-02-18T16:32:10Z</time>
      </trkpt>
      <trkpt lat="45.38582" lon="4.72381">
        <ele>-500</ele>
        <time>2020-02-18T16:32:22Z</time>
      </trkpt>
      <trkpt lat="45.38586" lon="4.72381">
        <ele>-500</ele>
        <time>2020-02-18T16:32:25Z</time>
      </trkpt>
      <trkpt lat="45.3859" lon="4.72367">
        <ele>-500</ele>
        <time>2020-02-18T16:32:30Z</time>
      </trkpt>
      <trkpt lat="45.38591" lon="4.72361">
        <ele>-500</ele>
        <time>2020-02-18T16:32:32Z</time>
      </trkpt>
      <trkpt lat="45.38601" lon="4.72333">
        <ele>-500</ele>
        <time>2020-02-18T16:32:42Z</time>
      </trkpt>
      <trkpt lat="45.38603" lon="4.72331">
        <ele>-500</ele>
        <time>2020-02-18T16:32:43Z</time>
      </trkpt>
      <trkpt lat="45.3862" lon="4.72328">
        <ele>-500</ele>
        <time>2020-02-18T16:32:51Z</time>
      </trkpt>
      <trkpt lat="45.38622" lon="4.7233">
        <ele>-500</ele>
        <time>2020-02-18T16:32:52Z</time>
      </trkpt>
      <trkpt lat="45.38629" lon="4.72351">
        <ele>-500</ele>
        <time>2020-02-18T16:32:59Z</time>
      </trkpt>
      <trkpt lat="45.38629" lon="4.72361">
        <ele>-500</ele>
        <time>2020-02-18T16:33:02Z</time>
      </trkpt>
      <trkpt lat="45.38625" lon="4.72387">
        <ele>-500</ele>
        <time>2020-02-18T16:33:11Z</time>
      </trkpt>
      <trkpt lat="45.38625" lon="4.72389">
        <ele>-500</ele>
        <time>2020-02-18T16:33:12Z</time>
      </trkpt>
      <trkpt lat="45.38627" lon="4.72396">
        <ele>-500</ele>
        <time>2020-02-18T16:33:18Z</time>
      </trkpt>
      <trkpt lat="45.38633" lon="4.72401">
        <ele>-500</ele>
        <time>2020-02-18T16:33:22Z</time>
      </trkpt>
      <trkpt lat="45.38641" lon="4.72408">
        <ele>-500</ele>
        <time>2020-02-18T16:33:29Z</time>
      </trkpt>
      <trkpt lat="45.38646" lon="4.72412">
        <ele>-500</ele>
        <time>2020-02-18T16:33:32Z</time>
      </trkpt>
      <trkpt lat="45.38651" lon="4.72413">
        <ele>-500</ele>
        <time>2020-02-18T16:33:35Z</time>
      </trkpt>
      <trkpt lat="45.3866" lon="4.72416">
        <ele>-500</ele>
        <time>2020-02-18T16:33:42Z</time>
      </trkpt>
      <trkpt lat="45.38665" lon="4.72419">
        <ele>-500</ele>
        <time>2020-02-18T16:33:46Z</time>
      </trkpt>
      <trkpt lat="45.38671" lon="4.72422">
        <ele>-500</ele>
        <time>2020-02-18T16:33:52Z</time>
      </trkpt>
      <trkpt lat="45.38678" lon="4.72429">
        <ele>-500</ele>
        <time>2020-02-18T16:33:58Z</time>
      </trkpt>
      <trkpt lat="45.38681" lon="4.72433">
        <ele>-500</ele>
        <time>2020-02-18T16:34:01Z</time>
      </trkpt>
      <trkpt lat="45.38681" lon="4.72435">
        <ele>-500</ele>
        <time>2020-02-18T16:34:02Z</time>
      </trkpt>
      <trkpt lat="45.38681" lon="4.72436">
        <ele>-500</ele>
        <time>2020-02-18T16:34:03Z</time>
      </trkpt>
      <trkpt lat="45.38686" lon="4.72442">
        <ele>-500</ele>
        <time>2020-02-18T16:34:08Z</time>
      </trkpt>
      <trkpt lat="45.38689" lon="4.72447">
        <ele>-500</ele>
        <time>2020-02-18T16:34:12Z</time>
      </trkpt>
      <trkpt lat="45.38691" lon="4.72449">
        <ele>-500</ele>
        <time>2020-02-18T16:34:14Z</time>
      </trkpt>
      <trkpt lat="45.38692" lon="4.72449">
        <ele>-500</ele>
        <time>2020-02-18T16:34:15Z</time>
      </trkpt>
      <trkpt lat="45.38694" lon="4.72452">
        <ele>-500</ele>
        <time>2020-02-18T16:34:18Z</time>
      </trkpt>
      <trkpt lat="45.38698" lon="4.72457">
        <ele>-500</ele>
        <time>2020-02-18T16:34:22Z</time>
      </trkpt>
      <trkpt lat="45.38699" lon="4.72458">
        <ele>-500</ele>
        <time>2020-02-18T16:34:23Z</time>
      </trkpt>
      <trkpt lat="45.38703" lon="4.72464">
        <ele>-500</ele>
        <time>2020-02-18T16:34:28Z</time>
      </trkpt>
      <trkpt lat="45.38706" lon="4.72469">
        <ele>-500</ele>
        <time>2020-02-18T16:34:32Z</time>
      </trkpt>
      <trkpt lat="45.38711" lon="4.72474">
        <ele>-500</ele>
        <time>2020-02-18T16:34:37Z</time>
      </trkpt>
      <trkpt lat="45.38715" lon="4.72479">
        <ele>-500</ele>
        <time>2020-02-18T16:34:42Z</time>
      </trkpt>
      <trkpt lat="45.38716" lon="4.72483">
        <ele>-500</ele>
        <time>2020-02-18T16:34:45Z</time>
      </trkpt>
      <trkpt lat="45.3872" lon="4.7249">
        <ele>-500</ele>
        <time>2020-02-18T16:34:50Z</time>
      </trkpt>
      <trkpt lat="45.38721" lon="4.72494">
        <ele>-500</ele>
        <time>2020-02-18T16:34:52Z</time>
      </trkpt>
      <trkpt lat="45.38724" lon="4.72497">
        <ele>-500</ele>
        <time>2020-02-18T16:34:55Z</time>
      </trkpt>
      <trkpt lat="45.38726" lon="4.72501">
        <ele>-500</ele>
        <time>2020-02-18T16:34:58Z</time>
      </trkpt>
      <trkpt lat="45.38729" lon="4.72506">
        <ele>-500</ele>
        <time>2020-02-18T16:35:02Z</time>
      </trkpt>
      <trkpt lat="45.38731" lon="4.72509">
        <ele>-500</ele>
        <time>2020-02-18T16:35:04Z</time>
      </trkpt>
      <trkpt lat="45.38732" lon="4.7251">
        <ele>-500</ele>
        <time>2020-02-18T16:35:05Z</time>
      </trkpt>
      <trkpt lat="45.38733" lon="4.72512">
        <ele>-500</ele>
        <time>2020-02-18T16:35:07Z</time>
      </trkpt>
      <trkpt lat="45.38736" lon="4.72514">
        <ele>-500</ele>
        <time>2020-02-18T16:35:09Z</time>
      </trkpt>
      <trkpt lat="45.38737" lon="4.72516">
        <ele>-500</ele>
        <time>2020-02-18T16:35:11Z</time>
      </trkpt>
      <trkpt lat="45.38738" lon="4.72517">
        <ele>-500</ele>
        <time>2020-02-18T16:35:12Z</time>
      </trkpt>
      <trkpt lat="45.38744" lon="4.72524">
        <ele>-500</ele>
        <time>2020-02-18T16:35:18Z</time>
      </trkpt>
      <trkpt lat="45.38748" lon="4.72528">
        <ele>-500</ele>
        <time>2020-02-18T16:35:22Z</time>
      </trkpt>
      <trkpt lat="45.38751" lon="4.72532">
        <ele>-500</ele>
        <time>2020-02-18T16:35:25Z</time>
      </trkpt>
      <trkpt lat="45.38758" lon="4.7254">
        <ele>-500</ele>
        <time>2020-02-18T16:35:32Z</time>
      </trkpt>
      <trkpt lat="45.38761" lon="4.72543">
        <ele>-500</ele>
        <time>2020-02-18T16:35:35Z</time>
      </trkpt>
      <trkpt lat="45.38769" lon="4.7255">
        <ele>-500</ele>
        <time>2020-02-18T16:35:42Z</time>
      </trkpt>
      <trkpt lat="45.38777" lon="4.72554">
        <ele>-500</ele>
        <time>2020-02-18T16:35:48Z</time>
      </trkpt>
      <trkpt lat="45.38781" lon="4.72557">
        <ele>-500</ele>
        <time>2020-02-18T16:35:52Z</time>
      </trkpt>
      <trkpt lat="45.38785" lon="4.72561">
        <ele>-500</ele>
        <time>2020-02-18T16:35:56Z</time>
      </trkpt>
      <trkpt lat="45.38791" lon="4.72567">
        <ele>-500</ele>
        <time>2020-02-18T16:36:02Z</time>
      </trkpt>
      <trkpt lat="45.38793" lon="4.7257">
        <ele>-500</ele>
        <time>2020-02-18T16:36:04Z</time>
      </trkpt>
      <trkpt lat="45.388" lon="4.72582">
        <ele>-500</ele>
        <time>2020-02-18T16:36:12Z</time>
      </trkpt>
      <trkpt lat="45.38805" lon="4.72591">
        <ele>-500</ele>
        <time>2020-02-18T16:36:17Z</time>
      </trkpt>
      <trkpt lat="45.3881" lon="4.72598">
        <ele>-500</ele>
        <time>2020-02-18T16:36:22Z</time>
      </trkpt>
      <trkpt lat="45.38813" lon="4.72605">
        <ele>-500</ele>
        <time>2020-02-18T16:36:26Z</time>
      </trkpt>
      <trkpt lat="45.38819" lon="4.72614">
        <ele>-500</ele>
        <time>2020-02-18T16:36:32Z</time>
      </trkpt>
      <trkpt lat="45.3883" lon="4.7263">
        <ele>-500</ele>
        <time>2020-02-18T16:36:42Z</time>
      </trkpt>
      <trkpt lat="45.38831" lon="4.72631">
        <ele>-500</ele>
        <time>2020-02-18T16:36:43Z</time>
      </trkpt>
      <trkpt lat="45.38839" lon="4.72641">
        <ele>-500</ele>
        <time>2020-02-18T16:36:51Z</time>
      </trkpt>
      <trkpt lat="45.3884" lon="4.72643">
        <ele>-500</ele>
        <time>2020-02-18T16:36:52Z</time>
      </trkpt>
      <trkpt lat="45.38842" lon="4.72648">
        <ele>-500</ele>
        <time>2020-02-18T16:36:56Z</time>
      </trkpt>
      <trkpt lat="45.38847" lon="4.72656">
        <ele>-500</ele>
        <time>2020-02-18T16:37:02Z</time>
      </trkpt>
      <trkpt lat="45.38851" lon="4.72659">
        <ele>-500</ele>
        <time>2020-02-18T16:37:06Z</time>
      </trkpt>
      <trkpt lat="45.38854" lon="4.72663">
        <ele>-500</ele>
        <time>2020-02-18T16:37:09Z</time>
      </trkpt>
      <trkpt lat="45.38856" lon="4.72667">
        <ele>-500</ele>
        <time>2020-02-18T16:37:12Z</time>
      </trkpt>
      <trkpt lat="45.38859" lon="4.72671">
        <ele>-500</ele>
        <time>2020-02-18T16:37:15Z</time>
      </trkpt>
      <trkpt lat="45.38871" lon="4.72678">
        <ele>-500</ele>
        <time>2020-02-18T16:37:22Z</time>
      </trkpt>
      <trkpt lat="45.38891" lon="4.72687">
        <ele>-500</ele>
        <time>2020-02-18T16:37:32Z</time>
      </trkpt>
      <trkpt lat="45.38913" lon="4.72696">
        <ele>-500</ele>
        <time>2020-02-18T16:37:42Z</time>
      </trkpt>
      <trkpt lat="45.38936" lon="4.72706">
        <ele>-500</ele>
        <time>2020-02-18T16:37:52Z</time>
      </trkpt>
      <trkpt lat="45.38952" lon="4.72713">
        <ele>-500</ele>
        <time>2020-02-18T16:37:59Z</time>
      </trkpt>
      <trkpt lat="45.38958" lon="4.72714">
        <ele>-500</ele>
        <time>2020-02-18T16:38:02Z</time>
      </trkpt>
      <trkpt lat="45.38963" lon="4.72725">
        <ele>-500</ele>
        <time>2020-02-18T16:38:06Z</time>
      </trkpt>
      <trkpt lat="45.3896" lon="4.72734">
        <ele>-500</ele>
        <time>2020-02-18T16:38:08Z</time>
      </trkpt>
      <trkpt lat="45.38955" lon="4.72742">
        <ele>-500</ele>
        <time>2020-02-18T16:38:12Z</time>
      </trkpt>
      <trkpt lat="45.38955" lon="4.72742">
        <ele>-500</ele>
        <time>2020-02-18T16:38:15Z</time>
      </trkpt>
      <trkpt lat="45.38955" lon="4.72741">
        <ele>-500</ele>
        <time>2020-02-18T16:38:20Z</time>
      </trkpt>
      <trkpt lat="45.38955" lon="4.72741">
        <ele>-500</ele>
        <time>2020-02-18T16:38:22Z</time>
      </trkpt>
      <trkpt lat="45.38955" lon="4.72741">
        <ele>-500</ele>
        <time>2020-02-18T16:38:27Z</time>
      </trkpt>
      <trkpt lat="45.38955" lon="4.72741">
        <ele>-500</ele>
        <time>2020-02-18T16:38:32Z</time>
      </trkpt>
      <trkpt lat="45.38956" lon="4.72741">
        <ele>-500</ele>
        <time>2020-02-18T16:38:39Z</time>
      </trkpt>
      <trkpt lat="45.38956" lon="4.72741">
        <ele>-500</ele>
        <time>2020-02-18T16:38:42Z</time>
      </trkpt>
      <trkpt lat="45.38955" lon="4.72741">
        <ele>-500</ele>
        <time>2020-02-18T16:38:48Z</time>
      </trkpt>
      <trkpt lat="45.38956" lon="4.72741">
        <ele>-500</ele>
        <time>2020-02-18T16:38:52Z</time>
      </trkpt>
      <trkpt lat="45.38956" lon="4.7274">
        <ele>-500</ele>
        <time>2020-02-18T16:38:56Z</time>
      </trkpt>
      <trkpt lat="45.38956" lon="4.7274">
        <ele>-500</ele>
        <time>2020-02-18T16:39:02Z</time>
      </trkpt>
      <trkpt lat="45.38956" lon="4.7274">
        <ele>-500</ele>
        <time>2020-02-18T16:39:04Z</time>
      </trkpt>
      <trkpt lat="45.38954" lon="4.72747">
        <ele>-500</ele>
        <time>2020-02-18T16:39:11Z</time>
      </trkpt>
      <trkpt lat="45.38952" lon="4.72751">
        <ele>-500</ele>
        <time>2020-02-18T16:39:12Z</time>
      </trkpt>
      <trkpt lat="45.38947" lon="4.72765">
        <ele>-500</ele>
        <time>2020-02-18T16:39:15Z</time>
      </trkpt>
      <trkpt lat="45.38937" lon="4.7279">
        <ele>-500</ele>
        <time>2020-02-18T16:39:19Z</time>
      </trkpt>
      <trkpt lat="45.3893" lon="4.72809">
        <ele>-500</ele>
        <time>2020-02-18T16:39:22Z</time>
      </trkpt>
      <trkpt lat="45.38927" lon="4.72816">
        <ele>-500</ele>
        <time>2020-02-18T16:39:23Z</time>
      </trkpt>
      <trkpt lat="45.3892" lon="4.72836">
        <ele>-500</ele>
        <time>2020-02-18T16:39:26Z</time>
      </trkpt>
      <trkpt lat="45.38914" lon="4.72857">
        <ele>-500</ele>
        <time>2020-02-18T16:39:29Z</time>
      </trkpt>
      <trkpt lat="45.38907" lon="4.72879">
        <ele>-500</ele>
        <time>2020-02-18T16:39:32Z</time>
      </trkpt>
      <trkpt lat="45.38903" lon="4.72902">
        <ele>-500</ele>
        <time>2020-02-18T16:39:35Z</time>
      </trkpt>
      <trkpt lat="45.38901" lon="4.72935">
        <ele>-500</ele>
        <time>2020-02-18T16:39:39Z</time>
      </trkpt>
      <trkpt lat="45.389" lon="4.7296">
        <ele>-500</ele>
        <time>2020-02-18T16:39:42Z</time>
      </trkpt>
      <trkpt lat="45.38899" lon="4.72984">
        <ele>-500</ele>
        <time>2020-02-18T16:39:45Z</time>
      </trkpt>
      <trkpt lat="45.38899" lon="4.73007">
        <ele>-500</ele>
        <time>2020-02-18T16:39:48Z</time>
      </trkpt>
      <trkpt lat="45.38897" lon="4.7303">
        <ele>-500</ele>
        <time>2020-02-18T16:39:51Z</time>
      </trkpt>
      <trkpt lat="45.38897" lon="4.73038">
        <ele>-500</ele>
        <time>2020-02-18T16:39:52Z</time>
      </trkpt>
      <trkpt lat="45.38893" lon="4.73071">
        <ele>-500</ele>
        <time>2020-02-18T16:39:56Z</time>
      </trkpt>
      <trkpt lat="45.3889" lon="4.73102">
        <ele>-500</ele>
        <time>2020-02-18T16:40:00Z</time>
      </trkpt>
      <trkpt lat="45.38889" lon="4.73117">
        <ele>-500</ele>
        <time>2020-02-18T16:40:02Z</time>
      </trkpt>
      <trkpt lat="45.38887" lon="4.73133">
        <ele>-500</ele>
        <time>2020-02-18T16:40:04Z</time>
      </trkpt>
      <trkpt lat="45.38883" lon="4.73177">
        <ele>-500</ele>
        <time>2020-02-18T16:40:10Z</time>
      </trkpt>
      <trkpt lat="45.38882" lon="4.73192">
        <ele>-500</ele>
        <time>2020-02-18T16:40:12Z</time>
      </trkpt>
      <trkpt lat="45.38881" lon="4.73205">
        <ele>-500</ele>
        <time>2020-02-18T16:40:14Z</time>
      </trkpt>
      <trkpt lat="45.38879" lon="4.7323">
        <ele>-500</ele>
        <time>2020-02-18T16:40:18Z</time>
      </trkpt>
      <trkpt lat="45.38878" lon="4.73235">
        <ele>-500</ele>
        <time>2020-02-18T16:40:19Z</time>
      </trkpt>
      <trkpt lat="45.38878" lon="4.73246">
        <ele>-500</ele>
        <time>2020-02-18T16:40:21Z</time>
      </trkpt>
      <trkpt lat="45.38877" lon="4.73251">
        <ele>-500</ele>
        <time>2020-02-18T16:40:22Z</time>
      </trkpt>
      <trkpt lat="45.38874" lon="4.73278">
        <ele>-500</ele>
        <time>2020-02-18T16:40:28Z</time>
      </trkpt>
      <trkpt lat="45.38873" lon="4.73297">
        <ele>-500</ele>
        <time>2020-02-18T16:40:32Z</time>
      </trkpt>
      <trkpt lat="45.38871" lon="4.73317">
        <ele>-500</ele>
        <time>2020-02-18T16:40:37Z</time>
      </trkpt>
      <trkpt lat="45.3887" lon="4.73338">
        <ele>-500</ele>
        <time>2020-02-18T16:40:42Z</time>
      </trkpt>
      <trkpt lat="45.38869" lon="4.73395">
        <ele>-500</ele>
        <time>2020-02-18T16:40:52Z</time>
      </trkpt>
      <trkpt lat="45.38873" lon="4.73421">
        <ele>-500</ele>
        <time>2020-02-18T16:40:56Z</time>
      </trkpt>
      <trkpt lat="45.38877" lon="4.73442">
        <ele>-500</ele>
        <time>2020-02-18T16:40:59Z</time>
      </trkpt>
      <trkpt lat="45.38881" lon="4.73469">
        <ele>-500</ele>
        <time>2020-02-18T16:41:02Z</time>
      </trkpt>
      <trkpt lat="45.38882" lon="4.73479">
        <ele>-500</ele>
        <time>2020-02-18T16:41:03Z</time>
      </trkpt>
      <trkpt lat="45.38882" lon="4.73497">
        <ele>-500</ele>
        <time>2020-02-18T16:41:05Z</time>
      </trkpt>
      <trkpt lat="45.38881" lon="4.73511">
        <ele>-500</ele>
        <time>2020-02-18T16:41:07Z</time>
      </trkpt>
      <trkpt lat="45.38881" lon="4.73516">
        <ele>-500</ele>
        <time>2020-02-18T16:41:08Z</time>
      </trkpt>
      <trkpt lat="45.3888" lon="4.7352">
        <ele>-500</ele>
        <time>2020-02-18T16:41:09Z</time>
      </trkpt>
      <trkpt lat="45.3888" lon="4.73522">
        <ele>-500</ele>
        <time>2020-02-18T16:41:10Z</time>
      </trkpt>
      <trkpt lat="45.38879" lon="4.73527">
        <ele>-500</ele>
        <time>2020-02-18T16:41:12Z</time>
      </trkpt>
      <trkpt lat="45.38878" lon="4.73537">
        <ele>-500</ele>
        <time>2020-02-18T16:41:15Z</time>
      </trkpt>
      <trkpt lat="45.38871" lon="4.73552">
        <ele>-500</ele>
        <time>2020-02-18T16:41:19Z</time>
      </trkpt>
      <trkpt lat="45.38864" lon="4.73567">
        <ele>-500</ele>
        <time>2020-02-18T16:41:22Z</time>
      </trkpt>
      <trkpt lat="45.38849" lon="4.73589">
        <ele>-500</ele>
        <time>2020-02-18T16:41:26Z</time>
      </trkpt>
      <trkpt lat="45.38841" lon="4.73602">
        <ele>-500</ele>
        <time>2020-02-18T16:41:28Z</time>
      </trkpt>
      <trkpt lat="45.38835" lon="4.73618">
        <ele>-500</ele>
        <time>2020-02-18T16:41:30Z</time>
      </trkpt>
      <trkpt lat="45.3883" lon="4.73638">
        <ele>-500</ele>
        <time>2020-02-18T16:41:32Z</time>
      </trkpt>
      <trkpt lat="45.38828" lon="4.73647">
        <ele>-500</ele>
        <time>2020-02-18T16:41:33Z</time>
      </trkpt>
      <trkpt lat="45.38827" lon="4.73657">
        <ele>-500</ele>
        <time>2020-02-18T16:41:34Z</time>
      </trkpt>
      <trkpt lat="45.38826" lon="4.73667">
        <ele>-500</ele>
        <time>2020-02-18T16:41:35Z</time>
      </trkpt>
      <trkpt lat="45.38826" lon="4.73677">
        <ele>-500</ele>
        <time>2020-02-18T16:41:36Z</time>
      </trkpt>
      <trkpt lat="45.38829" lon="4.73685">
        <ele>-500</ele>
        <time>2020-02-18T16:41:37Z</time>
      </trkpt>
      <trkpt lat="45.38833" lon="4.73692">
        <ele>-500</ele>
        <time>2020-02-18T16:41:38Z</time>
      </trkpt>
      <trkpt lat="45.38837" lon="4.73697">
        <ele>-500</ele>
        <time>2020-02-18T16:41:39Z</time>
      </trkpt>
      <trkpt lat="45.38843" lon="4.73699">
        <ele>-500</ele>
        <time>2020-02-18T16:41:40Z</time>
      </trkpt>
      <trkpt lat="45.38849" lon="4.73698">
        <ele>-500</ele>
        <time>2020-02-18T16:41:41Z</time>
      </trkpt>
      <trkpt lat="45.38855" lon="4.73695">
        <ele>-500</ele>
        <time>2020-02-18T16:41:42Z</time>
      </trkpt>
      <trkpt lat="45.38862" lon="4.73692">
        <ele>-500</ele>
        <time>2020-02-18T16:41:43Z</time>
      </trkpt>
      <trkpt lat="45.38868" lon="4.73689">
        <ele>-500</ele>
        <time>2020-02-18T16:41:44Z</time>
      </trkpt>
      <trkpt lat="45.38875" lon="4.73686">
        <ele>-500</ele>
        <time>2020-02-18T16:41:45Z</time>
      </trkpt>
      <trkpt lat="45.3889" lon="4.73684">
        <ele>-500</ele>
        <time>2020-02-18T16:41:47Z</time>
      </trkpt>
      <trkpt lat="45.38905" lon="4.73689">
        <ele>-500</ele>
        <time>2020-02-18T16:41:49Z</time>
      </trkpt>
      <trkpt lat="45.38913" lon="4.73693">
        <ele>-500</ele>
        <time>2020-02-18T16:41:50Z</time>
      </trkpt>
      <trkpt lat="45.3892" lon="4.73695">
        <ele>-500</ele>
        <time>2020-02-18T16:41:51Z</time>
      </trkpt>
      <trkpt lat="45.38927" lon="4.73696">
        <ele>-500</ele>
        <time>2020-02-18T16:41:52Z</time>
      </trkpt>
      <trkpt lat="45.38933" lon="4.73693">
        <ele>-500</ele>
        <time>2020-02-18T16:41:53Z</time>
      </trkpt>
      <trkpt lat="45.38938" lon="4.73689">
        <ele>-500</ele>
        <time>2020-02-18T16:41:54Z</time>
      </trkpt>
      <trkpt lat="45.38942" lon="4.73686">
        <ele>-500</ele>
        <time>2020-02-18T16:41:55Z</time>
      </trkpt>
      <trkpt lat="45.38946" lon="4.73686">
        <ele>-500</ele>
        <time>2020-02-18T16:41:56Z</time>
      </trkpt>
      <trkpt lat="45.38948" lon="4.7369">
        <ele>-500</ele>
        <time>2020-02-18T16:41:57Z</time>
      </trkpt>
      <trkpt lat="45.38949" lon="4.73696">
        <ele>-500</ele>
        <time>2020-02-18T16:41:58Z</time>
      </trkpt>
      <trkpt lat="45.38948" lon="4.73702">
        <ele>-500</ele>
        <time>2020-02-18T16:41:59Z</time>
      </trkpt>
      <trkpt lat="45.38946" lon="4.73708">
        <ele>-500</ele>
        <time>2020-02-18T16:42:00Z</time>
      </trkpt>
      <trkpt lat="45.38943" lon="4.73712">
        <ele>-500</ele>
        <time>2020-02-18T16:42:01Z</time>
      </trkpt>
      <trkpt lat="45.38939" lon="4.73715">
        <ele>-500</ele>
        <time>2020-02-18T16:42:02Z</time>
      </trkpt>
      <trkpt lat="45.38934" lon="4.73717">
        <ele>-500</ele>
        <time>2020-02-18T16:42:03Z</time>
      </trkpt>
      <trkpt lat="45.38929" lon="4.73719">
        <ele>-500</ele>
        <time>2020-02-18T16:42:04Z</time>
      </trkpt>
      <trkpt lat="45.38923" lon="4.73724">
        <ele>-500</ele>
        <time>2020-02-18T16:42:05Z</time>
      </trkpt>
      <trkpt lat="45.38914" lon="4.73738">
        <ele>-500</ele>
        <time>2020-02-18T16:42:07Z</time>
      </trkpt>
      <trkpt lat="45.38915" lon="4.73755">
        <ele>-500</ele>
        <time>2020-02-18T16:42:09Z</time>
      </trkpt>
      <trkpt lat="45.38919" lon="4.73765">
        <ele>-500</ele>
        <time>2020-02-18T16:42:10Z</time>
      </trkpt>
      <trkpt lat="45.38924" lon="4.73782">
        <ele>-500</ele>
        <time>2020-02-18T16:42:11Z</time>
      </trkpt>
      <trkpt lat="45.38926" lon="4.73788">
        <ele>-500</ele>
        <time>2020-02-18T16:42:12Z</time>
      </trkpt>
      <trkpt lat="45.3893" lon="4.73808">
        <ele>-500</ele>
        <time>2020-02-18T16:42:13Z</time>
      </trkpt>
      <trkpt lat="45.38931" lon="4.73818">
        <ele>-500</ele>
        <time>2020-02-18T16:42:14Z</time>
      </trkpt>
      <trkpt lat="45.38932" lon="4.73836">
        <ele>-500</ele>
        <time>2020-02-18T16:42:15Z</time>
      </trkpt>
      <trkpt lat="45.38932" lon="4.73849">
        <ele>-500</ele>
        <time>2020-02-18T16:42:16Z</time>
      </trkpt>
      <trkpt lat="45.38932" lon="4.73855">
        <ele>-500</ele>
        <time>2020-02-18T16:42:17Z</time>
      </trkpt>
      <trkpt lat="45.38932" lon="4.73862">
        <ele>-500</ele>
        <time>2020-02-18T16:42:18Z</time>
      </trkpt>
      <trkpt lat="45.38933" lon="4.73875">
        <ele>-500</ele>
        <time>2020-02-18T16:42:19Z</time>
      </trkpt>
      <trkpt lat="45.38933" lon="4.73888">
        <ele>-500</ele>
        <time>2020-02-18T16:42:20Z</time>
      </trkpt>
      <trkpt lat="45.38932" lon="4.73908">
        <ele>-500</ele>
        <time>2020-02-18T16:42:21Z</time>
      </trkpt>
      <trkpt lat="45.38931" lon="4.73912">
        <ele>-500</ele>
        <time>2020-02-18T16:42:22Z</time>
      </trkpt>
      <trkpt lat="45.38929" lon="4.73917">
        <ele>-500</ele>
        <time>2020-02-18T16:42:23Z</time>
      </trkpt>
      <trkpt lat="45.38925" lon="4.73927">
        <ele>-500</ele>
        <time>2020-02-18T16:42:24Z</time>
      </trkpt>
      <trkpt lat="45.38921" lon="4.73938">
        <ele>-500</ele>
        <time>2020-02-18T16:42:25Z</time>
      </trkpt>
      <trkpt lat="45.38919" lon="4.73949">
        <ele>-500</ele>
        <time>2020-02-18T16:42:26Z</time>
      </trkpt>
      <trkpt lat="45.38919" lon="4.73961">
        <ele>-500</ele>
        <time>2020-02-18T16:42:27Z</time>
      </trkpt>
      <trkpt lat="45.3892" lon="4.73974">
        <ele>-500</ele>
        <time>2020-02-18T16:42:28Z</time>
      </trkpt>
      <trkpt lat="45.38923" lon="4.73987">
        <ele>-500</ele>
        <time>2020-02-18T16:42:29Z</time>
      </trkpt>
      <trkpt lat="45.38928" lon="4.74007">
        <ele>-500</ele>
        <time>2020-02-18T16:42:30Z</time>
      </trkpt>
      <trkpt lat="45.3893" lon="4.74012">
        <ele>-500</ele>
        <time>2020-02-18T16:42:31Z</time>
      </trkpt>
      <trkpt lat="45.38933" lon="4.7402">
        <ele>-500</ele>
        <time>2020-02-18T16:42:32Z</time>
      </trkpt>
      <trkpt lat="45.38934" lon="4.74025">
        <ele>-500</ele>
        <time>2020-02-18T16:42:33Z</time>
      </trkpt>
      <trkpt lat="45.38936" lon="4.74029">
        <ele>-500</ele>
        <time>2020-02-18T16:42:34Z</time>
      </trkpt>
      <trkpt lat="45.38938" lon="4.74033">
        <ele>-500</ele>
        <time>2020-02-18T16:42:35Z</time>
      </trkpt>
      <trkpt lat="45.38941" lon="4.74039">
        <ele>-500</ele>
        <time>2020-02-18T16:42:36Z</time>
      </trkpt>
      <trkpt lat="45.38942" lon="4.74045">
        <ele>-500</ele>
        <time>2020-02-18T16:42:37Z</time>
      </trkpt>
      <trkpt lat="45.38942" lon="4.7405">
        <ele>-500</ele>
        <time>2020-02-18T16:42:38Z</time>
      </trkpt>
      <trkpt lat="45.38942" lon="4.74056">
        <ele>-500</ele>
        <time>2020-02-18T16:42:39Z</time>
      </trkpt>
      <trkpt lat="45.38942" lon="4.74061">
        <ele>-500</ele>
        <time>2020-02-18T16:42:40Z</time>
      </trkpt>
      <trkpt lat="45.38942" lon="4.74071">
        <ele>-500</ele>
        <time>2020-02-18T16:42:42Z</time>
      </trkpt>
      <trkpt lat="45.38944" lon="4.74074">
        <ele>-500</ele>
        <time>2020-02-18T16:42:43Z</time>
      </trkpt>
      <trkpt lat="45.38946" lon="4.74078">
        <ele>-500</ele>
        <time>2020-02-18T16:42:44Z</time>
      </trkpt>
      <trkpt lat="45.38947" lon="4.74083">
        <ele>-500</ele>
        <time>2020-02-18T16:42:45Z</time>
      </trkpt>
      <trkpt lat="45.3895" lon="4.74095">
        <ele>-500</ele>
        <time>2020-02-18T16:42:47Z</time>
      </trkpt>
      <trkpt lat="45.38953" lon="4.74102">
        <ele>-500</ele>
        <time>2020-02-18T16:42:48Z</time>
      </trkpt>
      <trkpt lat="45.38955" lon="4.74109">
        <ele>-500</ele>
        <time>2020-02-18T16:42:49Z</time>
      </trkpt>
      <trkpt lat="45.38956" lon="4.74117">
        <ele>-500</ele>
        <time>2020-02-18T16:42:50Z</time>
      </trkpt>
      <trkpt lat="45.38957" lon="4.74125">
        <ele>-500</ele>
        <time>2020-02-18T16:42:51Z</time>
      </trkpt>
      <trkpt lat="45.38956" lon="4.74133">
        <ele>-500</ele>
        <time>2020-02-18T16:42:52Z</time>
      </trkpt>
      <trkpt lat="45.38954" lon="4.74141">
        <ele>-500</ele>
        <time>2020-02-18T16:42:53Z</time>
      </trkpt>
      <trkpt lat="45.38947" lon="4.74155">
        <ele>-500</ele>
        <time>2020-02-18T16:42:55Z</time>
      </trkpt>
      <trkpt lat="45.38941" lon="4.74172">
        <ele>-500</ele>
        <time>2020-02-18T16:42:57Z</time>
      </trkpt>
      <trkpt lat="45.38939" lon="4.74184">
        <ele>-500</ele>
        <time>2020-02-18T16:42:58Z</time>
      </trkpt>
      <trkpt lat="45.38939" lon="4.74197">
        <ele>-500</ele>
        <time>2020-02-18T16:42:59Z</time>
      </trkpt>
      <trkpt lat="45.38939" lon="4.74208">
        <ele>-500</ele>
        <time>2020-02-18T16:43:00Z</time>
      </trkpt>
      <trkpt lat="45.38939" lon="4.74218">
        <ele>-500</ele>
        <time>2020-02-18T16:43:01Z</time>
      </trkpt>
      <trkpt lat="45.38939" lon="4.74225">
        <ele>-500</ele>
        <time>2020-02-18T16:43:02Z</time>
      </trkpt>
      <trkpt lat="45.38939" lon="4.74232">
        <ele>-500</ele>
        <time>2020-02-18T16:43:03Z</time>
      </trkpt>
      <trkpt lat="45.38937" lon="4.7424">
        <ele>-500</ele>
        <time>2020-02-18T16:43:04Z</time>
      </trkpt>
      <trkpt lat="45.38935" lon="4.74247">
        <ele>-500</ele>
        <time>2020-02-18T16:43:05Z</time>
      </trkpt>
      <trkpt lat="45.38933" lon="4.74253">
        <ele>-500</ele>
        <time>2020-02-18T16:43:06Z</time>
      </trkpt>
      <trkpt lat="45.38931" lon="4.74259">
        <ele>-500</ele>
        <time>2020-02-18T16:43:07Z</time>
      </trkpt>
      <trkpt lat="45.38928" lon="4.74267">
        <ele>-500</ele>
        <time>2020-02-18T16:43:08Z</time>
      </trkpt>
      <trkpt lat="45.38924" lon="4.74276">
        <ele>-500</ele>
        <time>2020-02-18T16:43:09Z</time>
      </trkpt>
      <trkpt lat="45.38918" lon="4.74292">
        <ele>-500</ele>
        <time>2020-02-18T16:43:10Z</time>
      </trkpt>
      <trkpt lat="45.38918" lon="4.74292">
        <ele>-500</ele>
        <time>2020-02-18T16:43:11Z</time>
      </trkpt>
      <trkpt lat="45.38914" lon="4.74302">
        <ele>-500</ele>
        <time>2020-02-18T16:43:12Z</time>
      </trkpt>
      <trkpt lat="45.38913" lon="4.74305">
        <ele>-500</ele>
        <time>2020-02-18T16:43:13Z</time>
      </trkpt>
      <trkpt lat="45.3891" lon="4.74311">
        <ele>-500</ele>
        <time>2020-02-18T16:43:14Z</time>
      </trkpt>
      <trkpt lat="45.38907" lon="4.74318">
        <ele>-500</ele>
        <time>2020-02-18T16:43:15Z</time>
      </trkpt>
      <trkpt lat="45.38903" lon="4.7433">
        <ele>-500</ele>
        <time>2020-02-18T16:43:16Z</time>
      </trkpt>
      <trkpt lat="45.38901" lon="4.74334">
        <ele>-500</ele>
        <time>2020-02-18T16:43:17Z</time>
      </trkpt>
      <trkpt lat="45.38897" lon="4.74343">
        <ele>-500</ele>
        <time>2020-02-18T16:43:18Z</time>
      </trkpt>
      <trkpt lat="45.38894" lon="4.74349">
        <ele>-500</ele>
        <time>2020-02-18T16:43:19Z</time>
      </trkpt>
      <trkpt lat="45.38892" lon="4.74353">
        <ele>-500</ele>
        <time>2020-02-18T16:43:20Z</time>
      </trkpt>
      <trkpt lat="45.38891" lon="4.74356">
        <ele>-500</ele>
        <time>2020-02-18T16:43:21Z</time>
      </trkpt>
      <trkpt lat="45.38887" lon="4.74375">
        <ele>-500</ele>
        <time>2020-02-18T16:43:22Z</time>
      </trkpt>
      <trkpt lat="45.38886" lon="4.7438">
        <ele>-500</ele>
        <time>2020-02-18T16:43:23Z</time>
      </trkpt>
      <trkpt lat="45.38885" lon="4.74385">
        <ele>-500</ele>
        <time>2020-02-18T16:43:24Z</time>
      </trkpt>
      <trkpt lat="45.38881" lon="4.74394">
        <ele>-500</ele>
        <time>2020-02-18T16:43:25Z</time>
      </trkpt>
      <trkpt lat="45.38876" lon="4.74402">
        <ele>-500</ele>
        <time>2020-02-18T16:43:26Z</time>
      </trkpt>
      <trkpt lat="45.38871" lon="4.74411">
        <ele>-500</ele>
        <time>2020-02-18T16:43:27Z</time>
      </trkpt>
      <trkpt lat="45.38867" lon="4.7442">
        <ele>-500</ele>
        <time>2020-02-18T16:43:28Z</time>
      </trkpt>
      <trkpt lat="45.38864" lon="4.74432">
        <ele>-500</ele>
        <time>2020-02-18T16:43:29Z</time>
      </trkpt>
      <trkpt lat="45.38861" lon="4.74444">
        <ele>-500</ele>
        <time>2020-02-18T16:43:30Z</time>
      </trkpt>
      <trkpt lat="45.38855" lon="4.74464">
        <ele>-500</ele>
        <time>2020-02-18T16:43:31Z</time>
      </trkpt>
      <trkpt lat="45.38854" lon="4.74468">
        <ele>-500</ele>
        <time>2020-02-18T16:43:32Z</time>
      </trkpt>
      <trkpt lat="45.38853" lon="4.74471">
        <ele>-500</ele>
        <time>2020-02-18T16:43:33Z</time>
      </trkpt>
      <trkpt lat="45.38851" lon="4.74478">
        <ele>-500</ele>
        <time>2020-02-18T16:43:34Z</time>
      </trkpt>
      <trkpt lat="45.38849" lon="4.74483">
        <ele>-500</ele>
        <time>2020-02-18T16:43:35Z</time>
      </trkpt>
      <trkpt lat="45.38845" lon="4.74487">
        <ele>-500</ele>
        <time>2020-02-18T16:43:36Z</time>
      </trkpt>
      <trkpt lat="45.38841" lon="4.74489">
        <ele>-500</ele>
        <time>2020-02-18T16:43:37Z</time>
      </trkpt>
      <trkpt lat="45.38836" lon="4.74491">
        <ele>-500</ele>
        <time>2020-02-18T16:43:38Z</time>
      </trkpt>
      <trkpt lat="45.38829" lon="4.74496">
        <ele>-500</ele>
        <time>2020-02-18T16:43:40Z</time>
      </trkpt>
      <trkpt lat="45.38817" lon="4.74504">
        <ele>-500</ele>
        <time>2020-02-18T16:43:42Z</time>
      </trkpt>
      <trkpt lat="45.3881" lon="4.74506">
        <ele>-500</ele>
        <time>2020-02-18T16:43:45Z</time>
      </trkpt>
      <trkpt lat="45.38803" lon="4.74504">
        <ele>-500</ele>
        <time>2020-02-18T16:43:48Z</time>
      </trkpt>
      <trkpt lat="45.38787" lon="4.74494">
        <ele>-500</ele>
        <time>2020-02-18T16:43:52Z</time>
      </trkpt>
      <trkpt lat="45.38776" lon="4.74497">
        <ele>-500</ele>
        <time>2020-02-18T16:43:56Z</time>
      </trkpt>
      <trkpt lat="45.38767" lon="4.74509">
        <ele>-500</ele>
        <time>2020-02-18T16:44:02Z</time>
      </trkpt>
      <trkpt lat="45.38767" lon="4.7451">
        <ele>-500</ele>
        <time>2020-02-18T16:44:04Z</time>
      </trkpt>
      <trkpt lat="45.38762" lon="4.74521">
        <ele>-500</ele>
        <time>2020-02-18T16:44:08Z</time>
      </trkpt>
      <trkpt lat="45.38765" lon="4.74543">
        <ele>-500</ele>
        <time>2020-02-18T16:44:12Z</time>
      </trkpt>
      <trkpt lat="45.38761" lon="4.74556">
        <ele>-500</ele>
        <time>2020-02-18T16:44:15Z</time>
      </trkpt>
      <trkpt lat="45.38752" lon="4.74568">
        <ele>-500</ele>
        <time>2020-02-18T16:44:20Z</time>
      </trkpt>
      <trkpt lat="45.38747" lon="4.74572">
        <ele>-500</ele>
        <time>2020-02-18T16:44:22Z</time>
      </trkpt>
      <trkpt lat="45.38739" lon="4.74579">
        <ele>-500</ele>
        <time>2020-02-18T16:44:25Z</time>
      </trkpt>
      <trkpt lat="45.38711" lon="4.74594">
        <ele>-500</ele>
        <time>2020-02-18T16:44:32Z</time>
      </trkpt>
      <trkpt lat="45.38677" lon="4.74609">
        <ele>-500</ele>
        <time>2020-02-18T16:44:41Z</time>
      </trkpt>
      <trkpt lat="45.3867" lon="4.74612">
        <ele>-500</ele>
        <time>2020-02-18T16:44:42Z</time>
      </trkpt>
      <trkpt lat="45.38642" lon="4.74621">
        <ele>-500</ele>
        <time>2020-02-18T16:44:50Z</time>
      </trkpt>
      <trkpt lat="45.38638" lon="4.74622">
        <ele>-500</ele>
        <time>2020-02-18T16:44:52Z</time>
      </trkpt>
      <trkpt lat="45.38612" lon="4.74631">
        <ele>-500</ele>
        <time>2020-02-18T16:45:00Z</time>
      </trkpt>
      <trkpt lat="45.38605" lon="4.74634">
        <ele>-500</ele>
        <time>2020-02-18T16:45:02Z</time>
      </trkpt>
      <trkpt lat="45.38589" lon="4.74642">
        <ele>-500</ele>
        <time>2020-02-18T16:45:06Z</time>
      </trkpt>
      <trkpt lat="45.38571" lon="4.74653">
        <ele>-500</ele>
        <time>2020-02-18T16:45:12Z</time>
      </trkpt>
      <trkpt lat="45.38558" lon="4.74663">
        <ele>-500</ele>
        <time>2020-02-18T16:45:16Z</time>
      </trkpt>
      <trkpt lat="45.38541" lon="4.74676">
        <ele>-500</ele>
        <time>2020-02-18T16:45:22Z</time>
      </trkpt>
      <trkpt lat="45.38538" lon="4.74679">
        <ele>-500</ele>
        <time>2020-02-18T16:45:23Z</time>
      </trkpt>
      <trkpt lat="45.3852" lon="4.74692">
        <ele>-500</ele>
        <time>2020-02-18T16:45:29Z</time>
      </trkpt>
      <trkpt lat="45.38511" lon="4.74699">
        <ele>-500</ele>
        <time>2020-02-18T16:45:32Z</time>
      </trkpt>
      <trkpt lat="45.38503" lon="4.74706">
        <ele>-500</ele>
        <time>2020-02-18T16:45:35Z</time>
      </trkpt>
      <trkpt lat="45.38485" lon="4.74722">
        <ele>-500</ele>
        <time>2020-02-18T16:45:42Z</time>
      </trkpt>
      <trkpt lat="45.38482" lon="4.74728">
        <ele>-500</ele>
        <time>2020-02-18T16:45:44Z</time>
      </trkpt>
      <trkpt lat="45.38464" lon="4.74736">
        <ele>-500</ele>
        <time>2020-02-18T16:45:52Z</time>
      </trkpt>
      <trkpt lat="45.38461" lon="4.74735">
        <ele>-500</ele>
        <time>2020-02-18T16:45:53Z</time>
      </trkpt>
      <trkpt lat="45.38436" lon="4.74733">
        <ele>-500</ele>
        <time>2020-02-18T16:46:02Z</time>
      </trkpt>
      <trkpt lat="45.38429" lon="4.74728">
        <ele>-500</ele>
        <time>2020-02-18T16:46:06Z</time>
      </trkpt>
      <trkpt lat="45.38421" lon="4.74721">
        <ele>-500</ele>
        <time>2020-02-18T16:46:11Z</time>
      </trkpt>
      <trkpt lat="45.3842" lon="4.74719">
        <ele>-500</ele>
        <time>2020-02-18T16:46:12Z</time>
      </trkpt>
      <trkpt lat="45.38412" lon="4.74711">
        <ele>-500</ele>
        <time>2020-02-18T16:46:18Z</time>
      </trkpt>
      <trkpt lat="45.38411" lon="4.74709">
        <ele>-500</ele>
        <time>2020-02-18T16:46:19Z</time>
      </trkpt>
      <trkpt lat="45.38405" lon="4.74702">
        <ele>-500</ele>
        <time>2020-02-18T16:46:22Z</time>
      </trkpt>
      <trkpt lat="45.384" lon="4.74697">
        <ele>-500</ele>
        <time>2020-02-18T16:46:25Z</time>
      </trkpt>
      <trkpt lat="45.38393" lon="4.74687">
        <ele>-500</ele>
        <time>2020-02-18T16:46:31Z</time>
      </trkpt>
      <trkpt lat="45.38391" lon="4.74686">
        <ele>-500</ele>
        <time>2020-02-18T16:46:32Z</time>
      </trkpt>
      <trkpt lat="45.38387" lon="4.74683">
        <ele>-500</ele>
        <time>2020-02-18T16:46:35Z</time>
      </trkpt>
      <trkpt lat="45.38385" lon="4.74678">
        <ele>-500</ele>
        <time>2020-02-18T16:46:38Z</time>
      </trkpt>
      <trkpt lat="45.38381" lon="4.74675">
        <ele>-500</ele>
        <time>2020-02-18T16:46:42Z</time>
      </trkpt>
      <trkpt lat="45.38374" lon="4.74665">
        <ele>-500</ele>
        <time>2020-02-18T16:46:47Z</time>
      </trkpt>
      <trkpt lat="45.38371" lon="4.74663">
        <ele>-500</ele>
        <time>2020-02-18T16:46:49Z</time>
      </trkpt>
      <trkpt lat="45.38367" lon="4.7466">
        <ele>-500</ele>
        <time>2020-02-18T16:46:52Z</time>
      </trkpt>
      <trkpt lat="45.38365" lon="4.74657">
        <ele>-500</ele>
        <time>2020-02-18T16:46:55Z</time>
      </trkpt>
      <trkpt lat="45.38356" lon="4.74647">
        <ele>-500</ele>
        <time>2020-02-18T16:47:02Z</time>
      </trkpt>
      <trkpt lat="45.38334" lon="4.74635">
        <ele>-500</ele>
        <time>2020-02-18T16:47:12Z</time>
      </trkpt>
      <trkpt lat="45.38317" lon="4.74621">
        <ele>-500</ele>
        <time>2020-02-18T16:47:22Z</time>
      </trkpt>
      <trkpt lat="45.38301" lon="4.74608">
        <ele>-500</ele>
        <time>2020-02-18T16:47:32Z</time>
      </trkpt>
      <trkpt lat="45.38296" lon="4.74602">
        <ele>-500</ele>
        <time>2020-02-18T16:47:36Z</time>
      </trkpt>
      <trkpt lat="45.38295" lon="4.74597">
        <ele>-500</ele>
        <time>2020-02-18T16:47:39Z</time>
      </trkpt>
      <trkpt lat="45.38296" lon="4.74592">
        <ele>-500</ele>
        <time>2020-02-18T16:47:42Z</time>
      </trkpt>
      <trkpt lat="45.38301" lon="4.74578">
        <ele>-500</ele>
        <time>2020-02-18T16:47:50Z</time>
      </trkpt>
      <trkpt lat="45.38301" lon="4.74575">
        <ele>-500</ele>
        <time>2020-02-18T16:47:52Z</time>
      </trkpt>
      <trkpt lat="45.383" lon="4.74571">
        <ele>-500</ele>
        <time>2020-02-18T16:47:56Z</time>
      </trkpt>
      <trkpt lat="45.383" lon="4.74561">
        <ele>-500</ele>
        <time>2020-02-18T16:48:02Z</time>
      </trkpt>
      <trkpt lat="45.38299" lon="4.74556">
        <ele>-500</ele>
        <time>2020-02-18T16:48:05Z</time>
      </trkpt>
      <trkpt lat="45.38298" lon="4.74544">
        <ele>-500</ele>
        <time>2020-02-18T16:48:12Z</time>
      </trkpt>
      <trkpt lat="45.38296" lon="4.74539">
        <ele>-500</ele>
        <time>2020-02-18T16:48:16Z</time>
      </trkpt>
      <trkpt lat="45.38294" lon="4.7453">
        <ele>-500</ele>
        <time>2020-02-18T16:48:22Z</time>
      </trkpt>
      <trkpt lat="45.38294" lon="4.74524">
        <ele>-500</ele>
        <time>2020-02-18T16:48:26Z</time>
      </trkpt>
      <trkpt lat="45.38294" lon="4.74518">
        <ele>-500</ele>
        <time>2020-02-18T16:48:30Z</time>
      </trkpt>
      <trkpt lat="45.38294" lon="4.74515">
        <ele>-500</ele>
        <time>2020-02-18T16:48:32Z</time>
      </trkpt>
      <trkpt lat="45.38297" lon="4.74504">
        <ele>-500</ele>
        <time>2020-02-18T16:48:39Z</time>
      </trkpt>
      <trkpt lat="45.38298" lon="4.745">
        <ele>-500</ele>
        <time>2020-02-18T16:48:42Z</time>
      </trkpt>
      <trkpt lat="45.38301" lon="4.74492">
        <ele>-500</ele>
        <time>2020-02-18T16:48:50Z</time>
      </trkpt>
      <trkpt lat="45.38303" lon="4.74491">
        <ele>-500</ele>
        <time>2020-02-18T16:48:52Z</time>
      </trkpt>
      <trkpt lat="45.38304" lon="4.7449">
        <ele>-500</ele>
        <time>2020-02-18T16:48:55Z</time>
      </trkpt>
      <trkpt lat="45.38305" lon="4.74489">
        <ele>-500</ele>
        <time>2020-02-18T16:48:58Z</time>
      </trkpt>
      <trkpt lat="45.38309" lon="4.74486">
        <ele>-500</ele>
        <time>2020-02-18T16:49:02Z</time>
      </trkpt>
      <trkpt lat="45.3831" lon="4.74485">
        <ele>-500</ele>
        <time>2020-02-18T16:49:04Z</time>
      </trkpt>
      <trkpt lat="45.38313" lon="4.74482">
        <ele>-500</ele>
        <time>2020-02-18T16:49:12Z</time>
      </trkpt>
      <trkpt lat="45.38318" lon="4.74478">
        <ele>-500</ele>
        <time>2020-02-18T16:49:16Z</time>
      </trkpt>
      <trkpt lat="45.38326" lon="4.74472">
        <ele>-500</ele>
        <time>2020-02-18T16:49:22Z</time>
      </trkpt>
      <trkpt lat="45.38331" lon="4.7447">
        <ele>-500</ele>
        <time>2020-02-18T16:49:27Z</time>
      </trkpt>
      <trkpt lat="45.38332" lon="4.74469">
        <ele>-500</ele>
        <time>2020-02-18T16:49:28Z</time>
      </trkpt>
      <trkpt lat="45.38334" lon="4.74469">
        <ele>-500</ele>
        <time>2020-02-18T16:49:30Z</time>
      </trkpt>
      <trkpt lat="45.38336" lon="4.74468">
        <ele>-500</ele>
        <time>2020-02-18T16:49:32Z</time>
      </trkpt>
      <trkpt lat="45.38343" lon="4.74461">
        <ele>-500</ele>
        <time>2020-02-18T16:49:39Z</time>
      </trkpt>
      <trkpt lat="45.38345" lon="4.74461">
        <ele>-500</ele>
        <time>2020-02-18T16:49:42Z</time>
      </trkpt>
      <trkpt lat="45.38346" lon="4.7446">
        <ele>-500</ele>
        <time>2020-02-18T16:49:43Z</time>
      </trkpt>
      <trkpt lat="45.38348" lon="4.74456">
        <ele>-500</ele>
        <time>2020-02-18T16:49:46Z</time>
      </trkpt>
      <trkpt lat="45.38352" lon="4.74453">
        <ele>-500</ele>
        <time>2020-02-18T16:49:52Z</time>
      </trkpt>
      <trkpt lat="45.38361" lon="4.74447">
        <ele>-500</ele>
        <time>2020-02-18T16:50:02Z</time>
      </trkpt>
      <trkpt lat="45.38369" lon="4.74441">
        <ele>-500</ele>
        <time>2020-02-18T16:50:11Z</time>
      </trkpt>
      <trkpt lat="45.38369" lon="4.7444">
        <ele>-500</ele>
        <time>2020-02-18T16:50:12Z</time>
      </trkpt>
      <trkpt lat="45.38377" lon="4.7443">
        <ele>-500</ele>
        <time>2020-02-18T16:50:21Z</time>
      </trkpt>
      <trkpt lat="45.38379" lon="4.74429">
        <ele>-500</ele>
        <time>2020-02-18T16:50:22Z</time>
      </trkpt>
      <trkpt lat="45.38384" lon="4.74423">
        <ele>-500</ele>
        <time>2020-02-18T16:50:27Z</time>
      </trkpt>
      <trkpt lat="45.38384" lon="4.74422">
        <ele>-500</ele>
        <time>2020-02-18T16:50:28Z</time>
      </trkpt>
      <trkpt lat="45.38385" lon="4.74415">
        <ele>-500</ele>
        <time>2020-02-18T16:50:32Z</time>
      </trkpt>
      <trkpt lat="45.38386" lon="4.74412">
        <ele>-500</ele>
        <time>2020-02-18T16:50:34Z</time>
      </trkpt>
      <trkpt lat="45.38384" lon="4.744">
        <ele>-500</ele>
        <time>2020-02-18T16:50:42Z</time>
      </trkpt>
      <trkpt lat="45.38385" lon="4.74384">
        <ele>-500</ele>
        <time>2020-02-18T16:50:52Z</time>
      </trkpt>
      <trkpt lat="45.38386" lon="4.74368">
        <ele>-500</ele>
        <time>2020-02-18T16:51:02Z</time>
      </trkpt>
      <trkpt lat="45.38385" lon="4.74358">
        <ele>-500</ele>
        <time>2020-02-18T16:51:08Z</time>
      </trkpt>
      <trkpt lat="45.38385" lon="4.74347">
        <ele>-500</ele>
        <time>2020-02-18T16:51:12Z</time>
      </trkpt>
      <trkpt lat="45.38384" lon="4.74314">
        <ele>-500</ele>
        <time>2020-02-18T16:51:20Z</time>
      </trkpt>
      <trkpt lat="45.38385" lon="4.74305">
        <ele>-500</ele>
        <time>2020-02-18T16:51:22Z</time>
      </trkpt>
      <trkpt lat="45.38384" lon="4.74295">
        <ele>-500</ele>
        <time>2020-02-18T16:51:24Z</time>
      </trkpt>
      <trkpt lat="45.38382" lon="4.74268">
        <ele>-500</ele>
        <time>2020-02-18T16:51:28Z</time>
      </trkpt>
      <trkpt lat="45.38381" lon="4.74251">
        <ele>-500</ele>
        <time>2020-02-18T16:51:30Z</time>
      </trkpt>
      <trkpt lat="45.38381" lon="4.74232">
        <ele>-500</ele>
        <time>2020-02-18T16:51:32Z</time>
      </trkpt>
      <trkpt lat="45.38381" lon="4.74221">
        <ele>-500</ele>
        <time>2020-02-18T16:51:33Z</time>
      </trkpt>
      <trkpt lat="45.3838" lon="4.7421">
        <ele>-500</ele>
        <time>2020-02-18T16:51:34Z</time>
      </trkpt>
      <trkpt lat="45.38377" lon="4.74188">
        <ele>-500</ele>
        <time>2020-02-18T16:51:36Z</time>
      </trkpt>
      <trkpt lat="45.38375" lon="4.74178">
        <ele>-500</ele>
        <time>2020-02-18T16:51:37Z</time>
      </trkpt>
      <trkpt lat="45.38372" lon="4.7416">
        <ele>-500</ele>
        <time>2020-02-18T16:51:39Z</time>
      </trkpt>
      <trkpt lat="45.38369" lon="4.74141">
        <ele>-500</ele>
        <time>2020-02-18T16:51:42Z</time>
      </trkpt>
      <trkpt lat="45.38363" lon="4.74115">
        <ele>-500</ele>
        <time>2020-02-18T16:51:52Z</time>
      </trkpt>
      <trkpt lat="45.38361" lon="4.74106">
        <ele>-500</ele>
        <time>2020-02-18T16:51:57Z</time>
      </trkpt>
      <trkpt lat="45.38359" lon="4.74099">
        <ele>-500</ele>
        <time>2020-02-18T16:52:01Z</time>
      </trkpt>
      <trkpt lat="45.38358" lon="4.74098">
        <ele>-500</ele>
        <time>2020-02-18T16:52:02Z</time>
      </trkpt>
      <trkpt lat="45.38353" lon="4.74091">
        <ele>-500</ele>
        <time>2020-02-18T16:52:07Z</time>
      </trkpt>
      <trkpt lat="45.38349" lon="4.74084">
        <ele>-500</ele>
        <time>2020-02-18T16:52:12Z</time>
      </trkpt>
      <trkpt lat="45.3834" lon="4.74075">
        <ele>-500</ele>
        <time>2020-02-18T16:52:22Z</time>
      </trkpt>
      <trkpt lat="45.38339" lon="4.74074">
        <ele>-500</ele>
        <time>2020-02-18T16:52:23Z</time>
      </trkpt>
      <trkpt lat="45.38336" lon="4.74072">
        <ele>-500</ele>
        <time>2020-02-18T16:52:26Z</time>
      </trkpt>
      <trkpt lat="45.38328" lon="4.74068">
        <ele>-500</ele>
        <time>2020-02-18T16:52:32Z</time>
      </trkpt>
      <trkpt lat="45.38313" lon="4.74063">
        <ele>-500</ele>
        <time>2020-02-18T16:52:42Z</time>
      </trkpt>
      <trkpt lat="45.38303" lon="4.74058">
        <ele>-500</ele>
        <time>2020-02-18T16:52:49Z</time>
      </trkpt>
      <trkpt lat="45.38299" lon="4.74054">
        <ele>-500</ele>
        <time>2020-02-18T16:52:52Z</time>
      </trkpt>
      <trkpt lat="45.38289" lon="4.74043">
        <ele>-500</ele>
        <time>2020-02-18T16:53:01Z</time>
      </trkpt>
      <trkpt lat="45.38289" lon="4.74043">
        <ele>-500</ele>
        <time>2020-02-18T16:53:02Z</time>
      </trkpt>
      <trkpt lat="45.3828" lon="4.74024">
        <ele>-500</ele>
        <time>2020-02-18T16:53:12Z</time>
      </trkpt>
      <trkpt lat="45.3828" lon="4.74024">
        <ele>-500</ele>
        <time>2020-02-18T16:53:13Z</time>
      </trkpt>
      <trkpt lat="45.38275" lon="4.74006">
        <ele>-500</ele>
        <time>2020-02-18T16:53:22Z</time>
      </trkpt>
      <trkpt lat="45.38274" lon="4.74004">
        <ele>-500</ele>
        <time>2020-02-18T16:53:23Z</time>
      </trkpt>
      <trkpt lat="45.38267" lon="4.73984">
        <ele>-500</ele>
        <time>2020-02-18T16:53:32Z</time>
      </trkpt>
      <trkpt lat="45.38254" lon="4.73961">
        <ele>-500</ele>
        <time>2020-02-18T16:53:42Z</time>
      </trkpt>
      <trkpt lat="45.38237" lon="4.73943">
        <ele>-500</ele>
        <time>2020-02-18T16:53:52Z</time>
      </trkpt>
      <trkpt lat="45.38224" lon="4.73932">
        <ele>-500</ele>
        <time>2020-02-18T16:53:59Z</time>
      </trkpt>
      <trkpt lat="45.38217" lon="4.73929">
        <ele>-500</ele>
        <time>2020-02-18T16:54:02Z</time>
      </trkpt>
      <trkpt lat="45.38196" lon="4.73921">
        <ele>-500</ele>
        <time>2020-02-18T16:54:12Z</time>
      </trkpt>
      <trkpt lat="45.38179" lon="4.73903">
        <ele>-500</ele>
        <time>2020-02-18T16:54:22Z</time>
      </trkpt>
      <trkpt lat="45.38169" lon="4.73892">
        <ele>-500</ele>
        <time>2020-02-18T16:54:28Z</time>
      </trkpt>
      <trkpt lat="45.38168" lon="4.73881">
        <ele>-500</ele>
        <time>2020-02-18T16:54:32Z</time>
      </trkpt>
      <trkpt lat="45.38163" lon="4.73853">
        <ele>-500</ele>
        <time>2020-02-18T16:54:42Z</time>
      </trkpt>
      <trkpt lat="45.38156" lon="4.73838">
        <ele>-500</ele>
        <time>2020-02-18T16:54:50Z</time>
      </trkpt>
      <trkpt lat="45.38154" lon="4.73836">
        <ele>-500</ele>
        <time>2020-02-18T16:54:52Z</time>
      </trkpt>
      <trkpt lat="45.38148" lon="4.73832">
        <ele>-500</ele>
        <time>2020-02-18T16:54:55Z</time>
      </trkpt>
      <trkpt lat="45.38147" lon="4.73831">
        <ele>-500</ele>
        <time>2020-02-18T16:54:57Z</time>
      </trkpt>
      <trkpt lat="45.38141" lon="4.73828">
        <ele>-500</ele>
        <time>2020-02-18T16:55:02Z</time>
      </trkpt>
      <trkpt lat="45.3814" lon="4.73827">
        <ele>-500</ele>
        <time>2020-02-18T16:55:03Z</time>
      </trkpt>
      <trkpt lat="45.38136" lon="4.73824">
        <ele>-500</ele>
        <time>2020-02-18T16:55:09Z</time>
      </trkpt>
      <trkpt lat="45.38133" lon="4.73825">
        <ele>-500</ele>
        <time>2020-02-18T16:55:12Z</time>
      </trkpt>
      <trkpt lat="45.38132" lon="4.73825">
        <ele>-500</ele>
        <time>2020-02-18T16:55:13Z</time>
      </trkpt>
      <trkpt lat="45.38126" lon="4.73829">
        <ele>-500</ele>
        <time>2020-02-18T16:55:20Z</time>
      </trkpt>
      <trkpt lat="45.38125" lon="4.7383">
        <ele>-500</ele>
        <time>2020-02-18T16:55:22Z</time>
      </trkpt>
      <trkpt lat="45.38123" lon="4.73832">
        <ele>-500</ele>
        <time>2020-02-18T16:55:23Z</time>
      </trkpt>
      <trkpt lat="45.38122" lon="4.73832">
        <ele>-500</ele>
        <time>2020-02-18T16:55:24Z</time>
      </trkpt>
      <trkpt lat="45.3812" lon="4.73835">
        <ele>-500</ele>
        <time>2020-02-18T16:55:28Z</time>
      </trkpt>
      <trkpt lat="45.38119" lon="4.73837">
        <ele>-500</ele>
        <time>2020-02-18T16:55:31Z</time>
      </trkpt>
      <trkpt lat="45.38119" lon="4.73837">
        <ele>-500</ele>
        <time>2020-02-18T16:55:32Z</time>
      </trkpt>
      <trkpt lat="45.38116" lon="4.73839">
        <ele>-500</ele>
        <time>2020-02-18T16:55:35Z</time>
      </trkpt>
      <trkpt lat="45.38109" lon="4.73844">
        <ele>-500</ele>
        <time>2020-02-18T16:55:41Z</time>
      </trkpt>
      <trkpt lat="45.38108" lon="4.73844">
        <ele>-500</ele>
        <time>2020-02-18T16:55:42Z</time>
      </trkpt>
      <trkpt lat="45.38105" lon="4.73847">
        <ele>-500</ele>
        <time>2020-02-18T16:55:44Z</time>
      </trkpt>
      <trkpt lat="45.38098" lon="4.73851">
        <ele>-500</ele>
        <time>2020-02-18T16:55:51Z</time>
      </trkpt>
      <trkpt lat="45.38097" lon="4.73852">
        <ele>-500</ele>
        <time>2020-02-18T16:55:52Z</time>
      </trkpt>
      <trkpt lat="45.38089" lon="4.73856">
        <ele>-500</ele>
        <time>2020-02-18T16:55:59Z</time>
      </trkpt>
      <trkpt lat="45.38087" lon="4.73857">
        <ele>-500</ele>
        <time>2020-02-18T16:56:02Z</time>
      </trkpt>
      <trkpt lat="45.38086" lon="4.7386">
        <ele>-500</ele>
        <time>2020-02-18T16:56:05Z</time>
      </trkpt>
      <trkpt lat="45.38084" lon="4.73862">
        <ele>-500</ele>
        <time>2020-02-18T16:56:07Z</time>
      </trkpt>
      <trkpt lat="45.38082" lon="4.73863">
        <ele>-500</ele>
        <time>2020-02-18T16:56:10Z</time>
      </trkpt>
      <trkpt lat="45.38081" lon="4.73864">
        <ele>-500</ele>
        <time>2020-02-18T16:56:12Z</time>
      </trkpt>
      <trkpt lat="45.38079" lon="4.73865">
        <ele>-500</ele>
        <time>2020-02-18T16:56:16Z</time>
      </trkpt>
      <trkpt lat="45.38075" lon="4.73869">
        <ele>-500</ele>
        <time>2020-02-18T16:56:22Z</time>
      </trkpt>
      <trkpt lat="45.38074" lon="4.7387">
        <ele>-500</ele>
        <time>2020-02-18T16:56:23Z</time>
      </trkpt>
      <trkpt lat="45.38066" lon="4.73873">
        <ele>-500</ele>
        <time>2020-02-18T16:56:32Z</time>
      </trkpt>
      <trkpt lat="45.38053" lon="4.73877">
        <ele>-500</ele>
        <time>2020-02-18T16:56:42Z</time>
      </trkpt>
      <trkpt lat="45.38047" lon="4.7388">
        <ele>-500</ele>
        <time>2020-02-18T16:56:49Z</time>
      </trkpt>
      <trkpt lat="45.38045" lon="4.73882">
        <ele>-500</ele>
        <time>2020-02-18T16:56:52Z</time>
      </trkpt>
      <trkpt lat="45.38042" lon="4.73884">
        <ele>-500</ele>
        <time>2020-02-18T16:56:56Z</time>
      </trkpt>
      <trkpt lat="45.38036" lon="4.73887">
        <ele>-500</ele>
        <time>2020-02-18T16:57:02Z</time>
      </trkpt>
      <trkpt lat="45.38032" lon="4.73888">
        <ele>-500</ele>
        <time>2020-02-18T16:57:06Z</time>
      </trkpt>
      <trkpt lat="45.38028" lon="4.73893">
        <ele>-500</ele>
        <time>2020-02-18T16:57:12Z</time>
      </trkpt>
      <trkpt lat="45.38024" lon="4.73899">
        <ele>-500</ele>
        <time>2020-02-18T16:57:20Z</time>
      </trkpt>
      <trkpt lat="45.38024" lon="4.73901">
        <ele>-500</ele>
        <time>2020-02-18T16:57:22Z</time>
      </trkpt>
      <trkpt lat="45.38019" lon="4.73908">
        <ele>-500</ele>
        <time>2020-02-18T16:57:27Z</time>
      </trkpt>
      <trkpt lat="45.38014" lon="4.73914">
        <ele>-500</ele>
        <time>2020-02-18T16:57:32Z</time>
      </trkpt>
      <trkpt lat="45.38013" lon="4.73916">
        <ele>-500</ele>
        <time>2020-02-18T16:57:34Z</time>
      </trkpt>
      <trkpt lat="45.38012" lon="4.73919">
        <ele>-500</ele>
        <time>2020-02-18T16:57:36Z</time>
      </trkpt>
      <trkpt lat="45.38011" lon="4.7392">
        <ele>-500</ele>
        <time>2020-02-18T16:57:38Z</time>
      </trkpt>
      <trkpt lat="45.3801" lon="4.73921">
        <ele>-500</ele>
        <time>2020-02-18T16:57:42Z</time>
      </trkpt>
      <trkpt lat="45.38008" lon="4.73921">
        <ele>-500</ele>
        <time>2020-02-18T16:57:52Z</time>
      </trkpt>
      <trkpt lat="45.38006" lon="4.73931">
        <ele>-500</ele>
        <time>2020-02-18T16:58:02Z</time>
      </trkpt>
      <trkpt lat="45.38001" lon="4.73936">
        <ele>-500</ele>
        <time>2020-02-18T16:58:09Z</time>
      </trkpt>
      <trkpt lat="45.37998" lon="4.73938">
        <ele>-500</ele>
        <time>2020-02-18T16:58:12Z</time>
      </trkpt>
      <trkpt lat="45.37991" lon="4.73939">
        <ele>-500</ele>
        <time>2020-02-18T16:58:18Z</time>
      </trkpt>
      <trkpt lat="45.37989" lon="4.7394">
        <ele>-500</ele>
        <time>2020-02-18T16:58:20Z</time>
      </trkpt>
      <trkpt lat="45.37988" lon="4.73941">
        <ele>-500</ele>
        <time>2020-02-18T16:58:22Z</time>
      </trkpt>
      <trkpt lat="45.37986" lon="4.73943">
        <ele>-500</ele>
        <time>2020-02-18T16:58:25Z</time>
      </trkpt>
      <trkpt lat="45.37981" lon="4.73946">
        <ele>-500</ele>
        <time>2020-02-18T16:58:32Z</time>
      </trkpt>
      <trkpt lat="45.3798" lon="4.73947">
        <ele>-500</ele>
        <time>2020-02-18T16:58:33Z</time>
      </trkpt>
      <trkpt lat="45.37974" lon="4.73952">
        <ele>-500</ele>
        <time>2020-02-18T16:58:40Z</time>
      </trkpt>
      <trkpt lat="45.37972" lon="4.73953">
        <ele>-500</ele>
        <time>2020-02-18T16:58:42Z</time>
      </trkpt>
      <trkpt lat="45.3797" lon="4.73955">
        <ele>-500</ele>
        <time>2020-02-18T16:58:44Z</time>
      </trkpt>
      <trkpt lat="45.37964" lon="4.73959">
        <ele>-500</ele>
        <time>2020-02-18T16:58:50Z</time>
      </trkpt>
      <trkpt lat="45.37963" lon="4.7396">
        <ele>-500</ele>
        <time>2020-02-18T16:58:52Z</time>
      </trkpt>
      <trkpt lat="45.37956" lon="4.73965">
        <ele>-500</ele>
        <time>2020-02-18T16:59:00Z</time>
      </trkpt>
      <trkpt lat="45.37954" lon="4.73966">
        <ele>-500</ele>
        <time>2020-02-18T16:59:02Z</time>
      </trkpt>
      <trkpt lat="45.37951" lon="4.73968">
        <ele>-500</ele>
        <time>2020-02-18T16:59:06Z</time>
      </trkpt>
      <trkpt lat="45.3795" lon="4.73968">
        <ele>-500</ele>
        <time>2020-02-18T16:59:07Z</time>
      </trkpt>
      <trkpt lat="45.37945" lon="4.7397">
        <ele>-500</ele>
        <time>2020-02-18T16:59:12Z</time>
      </trkpt>
      <trkpt lat="45.37936" lon="4.73971">
        <ele>-500</ele>
        <time>2020-02-18T16:59:20Z</time>
      </trkpt>
      <trkpt lat="45.37934" lon="4.73972">
        <ele>-500</ele>
        <time>2020-02-18T16:59:22Z</time>
      </trkpt>
      <trkpt lat="45.37922" lon="4.73972">
        <ele>-500</ele>
        <time>2020-02-18T16:59:32Z</time>
      </trkpt>
      <trkpt lat="45.37921" lon="4.73972">
        <ele>-500</ele>
        <time>2020-02-18T16:59:33Z</time>
      </trkpt>
      <trkpt lat="45.37912" lon="4.73971">
        <ele>-500</ele>
        <time>2020-02-18T16:59:42Z</time>
      </trkpt>
      <trkpt lat="45.37908" lon="4.73972">
        <ele>-500</ele>
        <time>2020-02-18T16:59:46Z</time>
      </trkpt>
      <trkpt lat="45.37903" lon="4.73972">
        <ele>-500</ele>
        <time>2020-02-18T16:59:52Z</time>
      </trkpt>
      <trkpt lat="45.37895" lon="4.73972">
        <ele>-500</ele>
        <time>2020-02-18T16:59:59Z</time>
      </trkpt>
      <trkpt lat="45.37891" lon="4.73972">
        <ele>-500</ele>
        <time>2020-02-18T17:00:02Z</time>
      </trkpt>
      <trkpt lat="45.37882" lon="4.73972">
        <ele>-500</ele>
        <time>2020-02-18T17:00:12Z</time>
      </trkpt>
      <trkpt lat="45.37871" lon="4.73973">
        <ele>-500</ele>
        <time>2020-02-18T17:00:22Z</time>
      </trkpt>
      <trkpt lat="45.3786" lon="4.73975">
        <ele>-500</ele>
        <time>2020-02-18T17:00:30Z</time>
      </trkpt>
      <trkpt lat="45.37858" lon="4.73976">
        <ele>-500</ele>
        <time>2020-02-18T17:00:32Z</time>
      </trkpt>
      <trkpt lat="45.3785" lon="4.73977">
        <ele>-500</ele>
        <time>2020-02-18T17:00:39Z</time>
      </trkpt>
      <trkpt lat="45.37847" lon="4.73979">
        <ele>-500</ele>
        <time>2020-02-18T17:00:42Z</time>
      </trkpt>
      <trkpt lat="45.37836" lon="4.73984">
        <ele>-500</ele>
        <time>2020-02-18T17:00:52Z</time>
      </trkpt>
      <trkpt lat="45.37832" lon="4.73985">
        <ele>-500</ele>
        <time>2020-02-18T17:00:55Z</time>
      </trkpt>
      <trkpt lat="45.37824" lon="4.73987">
        <ele>-500</ele>
        <time>2020-02-18T17:01:02Z</time>
      </trkpt>
      <trkpt lat="45.37818" lon="4.73988">
        <ele>-500</ele>
        <time>2020-02-18T17:01:07Z</time>
      </trkpt>
      <trkpt lat="45.37813" lon="4.73989">
        <ele>-500</ele>
        <time>2020-02-18T17:01:12Z</time>
      </trkpt>
      <trkpt lat="45.3781" lon="4.73989">
        <ele>-500</ele>
        <time>2020-02-18T17:01:14Z</time>
      </trkpt>
      <trkpt lat="45.37808" lon="4.73989">
        <ele>-500</ele>
        <time>2020-02-18T17:01:16Z</time>
      </trkpt>
      <trkpt lat="45.37802" lon="4.7399">
        <ele>-500</ele>
        <time>2020-02-18T17:01:21Z</time>
      </trkpt>
      <trkpt lat="45.378" lon="4.73991">
        <ele>-500</ele>
        <time>2020-02-18T17:01:22Z</time>
      </trkpt>
      <trkpt lat="45.37794" lon="4.73992">
        <ele>-500</ele>
        <time>2020-02-18T17:01:28Z</time>
      </trkpt>
      <trkpt lat="45.3779" lon="4.73993">
        <ele>-500</ele>
        <time>2020-02-18T17:01:32Z</time>
      </trkpt>
      <trkpt lat="45.37787" lon="4.73994">
        <ele>-500</ele>
        <time>2020-02-18T17:01:35Z</time>
      </trkpt>
      <trkpt lat="45.37779" lon="4.73997">
        <ele>-500</ele>
        <time>2020-02-18T17:01:42Z</time>
      </trkpt>
      <trkpt lat="45.37772" lon="4.74004">
        <ele>-500</ele>
        <time>2020-02-18T17:01:49Z</time>
      </trkpt>
      <trkpt lat="45.37769" lon="4.74007">
        <ele>-500</ele>
        <time>2020-02-18T17:01:52Z</time>
      </trkpt>
      <trkpt lat="45.37756" lon="4.74009">
        <ele>-500</ele>
        <time>2020-02-18T17:02:02Z</time>
      </trkpt>
      <trkpt lat="45.37753" lon="4.74009">
        <ele>-500</ele>
        <time>2020-02-18T17:02:05Z</time>
      </trkpt>
      <trkpt lat="45.37745" lon="4.74005">
        <ele>-500</ele>
        <time>2020-02-18T17:02:12Z</time>
      </trkpt>
      <trkpt lat="45.37742" lon="4.74002">
        <ele>-500</ele>
        <time>2020-02-18T17:02:15Z</time>
      </trkpt>
      <trkpt lat="45.37735" lon="4.73997">
        <ele>-500</ele>
        <time>2020-02-18T17:02:22Z</time>
      </trkpt>
      <trkpt lat="45.37732" lon="4.73996">
        <ele>-500</ele>
        <time>2020-02-18T17:02:24Z</time>
      </trkpt>
      <trkpt lat="45.37724" lon="4.73993">
        <ele>-500</ele>
        <time>2020-02-18T17:02:32Z</time>
      </trkpt>
      <trkpt lat="45.37711" lon="4.73988">
        <ele>-500</ele>
        <time>2020-02-18T17:02:42Z</time>
      </trkpt>
      <trkpt lat="45.37692" lon="4.73982">
        <ele>-500</ele>
        <time>2020-02-18T17:02:52Z</time>
      </trkpt>
      <trkpt lat="45.37675" lon="4.73976">
        <ele>-500</ele>
        <time>2020-02-18T17:03:01Z</time>
      </trkpt>
      <trkpt lat="45.37673" lon="4.73975">
        <ele>-500</ele>
        <time>2020-02-18T17:03:02Z</time>
      </trkpt>
      <trkpt lat="45.37656" lon="4.7396">
        <ele>-500</ele>
        <time>2020-02-18T17:03:12Z</time>
      </trkpt>
      <trkpt lat="45.37645" lon="4.73943">
        <ele>-500</ele>
        <time>2020-02-18T17:03:22Z</time>
      </trkpt>
      <trkpt lat="45.37651" lon="4.73938">
        <ele>-500</ele>
        <time>2020-02-18T17:03:26Z</time>
      </trkpt>
      <trkpt lat="45.37653" lon="4.73938">
        <ele>-500</ele>
        <time>2020-02-18T17:03:28Z</time>
      </trkpt>
      <trkpt lat="45.37648" lon="4.73938">
        <ele>-500</ele>
        <time>2020-02-18T17:03:32Z</time>
      </trkpt>
      <trkpt lat="45.37622" lon="4.73943">
        <ele>-500</ele>
        <time>2020-02-18T17:03:41Z</time>
      </trkpt>
      <trkpt lat="45.37619" lon="4.73943">
        <ele>-500</ele>
        <time>2020-02-18T17:03:42Z</time>
      </trkpt>
      <trkpt lat="45.37601" lon="4.73946">
        <ele>-500</ele>
        <time>2020-02-18T17:03:47Z</time>
      </trkpt>
      <trkpt lat="45.37582" lon="4.73951">
        <ele>-500</ele>
        <time>2020-02-18T17:03:52Z</time>
      </trkpt>
      <trkpt lat="45.37562" lon="4.73953">
        <ele>-500</ele>
        <time>2020-02-18T17:03:57Z</time>
      </trkpt>
      <trkpt lat="45.37545" lon="4.73954">
        <ele>-500</ele>
        <time>2020-02-18T17:04:02Z</time>
      </trkpt>
      <trkpt lat="45.37511" lon="4.73957">
        <ele>-500</ele>
        <time>2020-02-18T17:04:12Z</time>
      </trkpt>
      <trkpt lat="45.37498" lon="4.73956">
        <ele>-500</ele>
        <time>2020-02-18T17:04:16Z</time>
      </trkpt>
      <trkpt lat="45.37486" lon="4.73943">
        <ele>-500</ele>
        <time>2020-02-18T17:04:22Z</time>
      </trkpt>
      <trkpt lat="45.37481" lon="4.73908">
        <ele>-500</ele>
        <time>2020-02-18T17:04:32Z</time>
      </trkpt>
      <trkpt lat="45.37475" lon="4.73877">
        <ele>-500</ele>
        <time>2020-02-18T17:04:42Z</time>
      </trkpt>
      <trkpt lat="45.37472" lon="4.73855">
        <ele>-500</ele>
        <time>2020-02-18T17:04:50Z</time>
      </trkpt>
      <trkpt lat="45.37474" lon="4.73852">
        <ele>-500</ele>
        <time>2020-02-18T17:04:52Z</time>
      </trkpt>
      <trkpt lat="45.37481" lon="4.73852">
        <ele>-500</ele>
        <time>2020-02-18T17:04:57Z</time>
      </trkpt>
      <trkpt lat="45.3749" lon="4.73851">
        <ele>-500</ele>
        <time>2020-02-18T17:05:02Z</time>
      </trkpt>
      <trkpt lat="45.37511" lon="4.7385">
        <ele>-500</ele>
        <time>2020-02-18T17:05:12Z</time>
      </trkpt>
      <trkpt lat="45.37528" lon="4.73848">
        <ele>-500</ele>
        <time>2020-02-18T17:05:19Z</time>
      </trkpt>
      <trkpt lat="45.37536" lon="4.73846">
        <ele>-500</ele>
        <time>2020-02-18T17:05:22Z</time>
      </trkpt>
      <trkpt lat="45.37546" lon="4.73843">
        <ele>-500</ele>
        <time>2020-02-18T17:05:26Z</time>
      </trkpt>
      <trkpt lat="45.37561" lon="4.73838">
        <ele>-500</ele>
        <time>2020-02-18T17:05:32Z</time>
      </trkpt>
      <trkpt lat="45.37566" lon="4.73837">
        <ele>-500</ele>
        <time>2020-02-18T17:05:34Z</time>
      </trkpt>
      <trkpt lat="45.37577" lon="4.73832">
        <ele>-500</ele>
        <time>2020-02-18T17:05:39Z</time>
      </trkpt>
      <trkpt lat="45.37583" lon="4.7383">
        <ele>-500</ele>
        <time>2020-02-18T17:05:42Z</time>
      </trkpt>
      <trkpt lat="45.37608" lon="4.73822">
        <ele>-500</ele>
        <time>2020-02-18T17:05:52Z</time>
      </trkpt>
      <trkpt lat="45.37635" lon="4.7381">
        <ele>-500</ele>
        <time>2020-02-18T17:06:02Z</time>
      </trkpt>
      <trkpt lat="45.37638" lon="4.73809">
        <ele>-500</ele>
        <time>2020-02-18T17:06:03Z</time>
      </trkpt>
      <trkpt lat="45.37659" lon="4.73798">
        <ele>-500</ele>
        <time>2020-02-18T17:06:12Z</time>
      </trkpt>
      <trkpt lat="45.37671" lon="4.73791">
        <ele>-500</ele>
        <time>2020-02-18T17:06:18Z</time>
      </trkpt>
      <trkpt lat="45.3768" lon="4.73784">
        <ele>-500</ele>
        <time>2020-02-18T17:06:22Z</time>
      </trkpt>
      <trkpt lat="45.37695" lon="4.73777">
        <ele>-500</ele>
        <time>2020-02-18T17:06:31Z</time>
      </trkpt>
      <trkpt lat="45.37697" lon="4.73775">
        <ele>-500</ele>
        <time>2020-02-18T17:06:32Z</time>
      </trkpt>
      <trkpt lat="45.3771" lon="4.73768">
        <ele>-500</ele>
        <time>2020-02-18T17:06:38Z</time>
      </trkpt>
      <trkpt lat="45.37718" lon="4.73765">
        <ele>-500</ele>
        <time>2020-02-18T17:06:42Z</time>
      </trkpt>
      <trkpt lat="45.37729" lon="4.73768">
        <ele>-500</ele>
        <time>2020-02-18T17:06:46Z</time>
      </trkpt>
      <trkpt lat="45.37742" lon="4.73762">
        <ele>-500</ele>
        <time>2020-02-18T17:06:52Z</time>
      </trkpt>
      <trkpt lat="45.37765" lon="4.73743">
        <ele>-500</ele>
        <time>2020-02-18T17:07:00Z</time>
      </trkpt>
      <trkpt lat="45.37768" lon="4.73737">
        <ele>-500</ele>
        <time>2020-02-18T17:07:02Z</time>
      </trkpt>
      <trkpt lat="45.37769" lon="4.73734">
        <ele>-500</ele>
        <time>2020-02-18T17:07:03Z</time>
      </trkpt>
      <trkpt lat="45.37774" lon="4.73728">
        <ele>-500</ele>
        <time>2020-02-18T17:07:08Z</time>
      </trkpt>
      <trkpt lat="45.37776" lon="4.73727">
        <ele>-500</ele>
        <time>2020-02-18T17:07:12Z</time>
      </trkpt>
      <trkpt lat="45.37777" lon="4.73726">
        <ele>-500</ele>
        <time>2020-02-18T17:07:13Z</time>
      </trkpt>
      <trkpt lat="45.37774" lon="4.73729">
        <ele>-500</ele>
        <time>2020-02-18T17:07:18Z</time>
      </trkpt>
      <trkpt lat="45.37772" lon="4.7373">
        <ele>-500</ele>
        <time>2020-02-18T17:07:19Z</time>
      </trkpt>
      <trkpt lat="45.37768" lon="4.73735">
        <ele>-500</ele>
        <time>2020-02-18T17:07:22Z</time>
      </trkpt>
      <trkpt lat="45.37758" lon="4.7375">
        <ele>-500</ele>
        <time>2020-02-18T17:07:28Z</time>
      </trkpt>
      <trkpt lat="45.37749" lon="4.73758">
        <ele>-500</ele>
        <time>2020-02-18T17:07:32Z</time>
      </trkpt>
      <trkpt lat="45.37736" lon="4.73764">
        <ele>-500</ele>
        <time>2020-02-18T17:07:37Z</time>
      </trkpt>
      <trkpt lat="45.37721" lon="4.73766">
        <ele>-500</ele>
        <time>2020-02-18T17:07:42Z</time>
      </trkpt>
      <trkpt lat="45.37708" lon="4.73731">
        <ele>-500</ele>
        <time>2020-02-18T17:07:52Z</time>
      </trkpt>
      <trkpt lat="45.37692" lon="4.73698">
        <ele>-500</ele>
        <time>2020-02-18T17:08:02Z</time>
      </trkpt>
      <trkpt lat="45.37689" lon="4.73663">
        <ele>-500</ele>
        <time>2020-02-18T17:08:12Z</time>
      </trkpt>
      <trkpt lat="45.37691" lon="4.73653">
        <ele>-500</ele>
        <time>2020-02-18T17:08:15Z</time>
      </trkpt>
      <trkpt lat="45.37699" lon="4.73634">
        <ele>-500</ele>
        <time>2020-02-18T17:08:22Z</time>
      </trkpt>
      <trkpt lat="45.37703" lon="4.73602">
        <ele>-500</ele>
        <time>2020-02-18T17:08:32Z</time>
      </trkpt>
      <trkpt lat="45.37702" lon="4.73599">
        <ele>-500</ele>
        <time>2020-02-18T17:08:33Z</time>
      </trkpt>
      <trkpt lat="45.37684" lon="4.73584">
        <ele>-500</ele>
        <time>2020-02-18T17:08:42Z</time>
      </trkpt>
      <trkpt lat="45.37668" lon="4.73554">
        <ele>-500</ele>
        <time>2020-02-18T17:08:52Z</time>
      </trkpt>
      <trkpt lat="45.37664" lon="4.73519">
        <ele>-500</ele>
        <time>2020-02-18T17:09:01Z</time>
      </trkpt>
      <trkpt lat="45.37663" lon="4.73516">
        <ele>-500</ele>
        <time>2020-02-18T17:09:02Z</time>
      </trkpt>
      <trkpt lat="45.37652" lon="4.73478">
        <ele>-500</ele>
        <time>2020-02-18T17:09:12Z</time>
      </trkpt>
      <trkpt lat="45.37642" lon="4.7344">
        <ele>-500</ele>
        <time>2020-02-18T17:09:22Z</time>
      </trkpt>
      <trkpt lat="45.37633" lon="4.734">
        <ele>-500</ele>
        <time>2020-02-18T17:09:32Z</time>
      </trkpt>
      <trkpt lat="45.3762" lon="4.7336">
        <ele>-500</ele>
        <time>2020-02-18T17:09:42Z</time>
      </trkpt>
      <trkpt lat="45.37603" lon="4.7332">
        <ele>-500</ele>
        <time>2020-02-18T17:09:52Z</time>
      </trkpt>
      <trkpt lat="45.37579" lon="4.73288">
        <ele>-500</ele>
        <time>2020-02-18T17:10:02Z</time>
      </trkpt>
      <trkpt lat="45.37555" lon="4.73244">
        <ele>-500</ele>
        <time>2020-02-18T17:10:12Z</time>
      </trkpt>
      <trkpt lat="45.37539" lon="4.73206">
        <ele>-500</ele>
        <time>2020-02-18T17:10:22Z</time>
      </trkpt>
      <trkpt lat="45.37522" lon="4.73166">
        <ele>-500</ele>
        <time>2020-02-18T17:10:32Z</time>
      </trkpt>
      <trkpt lat="45.37505" lon="4.73127">
        <ele>-500</ele>
        <time>2020-02-18T17:10:42Z</time>
      </trkpt>
      <trkpt lat="45.37498" lon="4.7308">
        <ele>-500</ele>
        <time>2020-02-18T17:10:52Z</time>
      </trkpt>
      <trkpt lat="45.37495" lon="4.73057">
        <ele>-500</ele>
        <time>2020-02-18T17:10:58Z</time>
      </trkpt>
      <trkpt lat="45.37494" lon="4.73046">
        <ele>-500</ele>
        <time>2020-02-18T17:11:02Z</time>
      </trkpt>
      <trkpt lat="45.37492" lon="4.7303">
        <ele>-500</ele>
        <time>2020-02-18T17:11:07Z</time>
      </trkpt>
      <trkpt lat="45.3749" lon="4.73011">
        <ele>-500</ele>
        <time>2020-02-18T17:11:12Z</time>
      </trkpt>
      <trkpt lat="45.37472" lon="4.72997">
        <ele>-500</ele>
        <time>2020-02-18T17:11:22Z</time>
      </trkpt>
      <trkpt lat="45.37454" lon="4.72985">
        <ele>-500</ele>
        <time>2020-02-18T17:11:32Z</time>
      </trkpt>
      <trkpt lat="45.37448" lon="4.72977">
        <ele>-500</ele>
        <time>2020-02-18T17:11:35Z</time>
      </trkpt>
      <trkpt lat="45.37439" lon="4.72963">
        <ele>-500</ele>
        <time>2020-02-18T17:11:42Z</time>
      </trkpt>
      <trkpt lat="45.3743" lon="4.72952">
        <ele>-500</ele>
        <time>2020-02-18T17:11:48Z</time>
      </trkpt>
      <trkpt lat="45.37426" lon="4.72946">
        <ele>-500</ele>
        <time>2020-02-18T17:11:52Z</time>
      </trkpt>
      <trkpt lat="45.37422" lon="4.72941">
        <ele>-500</ele>
        <time>2020-02-18T17:11:55Z</time>
      </trkpt>
      <trkpt lat="45.37416" lon="4.72932">
        <ele>-500</ele>
        <time>2020-02-18T17:12:00Z</time>
      </trkpt>
      <trkpt lat="45.37413" lon="4.72929">
        <ele>-500</ele>
        <time>2020-02-18T17:12:02Z</time>
      </trkpt>
      <trkpt lat="45.37408" lon="4.7292">
        <ele>-500</ele>
        <time>2020-02-18T17:12:07Z</time>
      </trkpt>
      <trkpt lat="45.37404" lon="4.72916">
        <ele>-500</ele>
        <time>2020-02-18T17:12:10Z</time>
      </trkpt>
      <trkpt lat="45.37403" lon="4.72913">
        <ele>-500</ele>
        <time>2020-02-18T17:12:12Z</time>
      </trkpt>
      <trkpt lat="45.37401" lon="4.72911">
        <ele>-500</ele>
        <time>2020-02-18T17:12:15Z</time>
      </trkpt>
      <trkpt lat="45.37392" lon="4.72901">
        <ele>-500</ele>
        <time>2020-02-18T17:12:22Z</time>
      </trkpt>
      <trkpt lat="45.37376" lon="4.72884">
        <ele>-500</ele>
        <time>2020-02-18T17:12:32Z</time>
      </trkpt>
      <trkpt lat="45.37362" lon="4.72869">
        <ele>-500</ele>
        <time>2020-02-18T17:12:41Z</time>
      </trkpt>
      <trkpt lat="45.37361" lon="4.72868">
        <ele>-500</ele>
        <time>2020-02-18T17:12:42Z</time>
      </trkpt>
      <trkpt lat="45.37347" lon="4.72854">
        <ele>-500</ele>
        <time>2020-02-18T17:12:50Z</time>
      </trkpt>
      <trkpt lat="45.37344" lon="4.7285">
        <ele>-500</ele>
        <time>2020-02-18T17:12:52Z</time>
      </trkpt>
      <trkpt lat="45.37328" lon="4.72826">
        <ele>-500</ele>
        <time>2020-02-18T17:13:02Z</time>
      </trkpt>
      <trkpt lat="45.37326" lon="4.72815">
        <ele>-500</ele>
        <time>2020-02-18T17:13:08Z</time>
      </trkpt>
      <trkpt lat="45.37323" lon="4.72801">
        <ele>-500</ele>
        <time>2020-02-18T17:13:12Z</time>
      </trkpt>
      <trkpt lat="45.37317" lon="4.72775">
        <ele>-500</ele>
        <time>2020-02-18T17:13:22Z</time>
      </trkpt>
      <trkpt lat="45.37311" lon="4.72751">
        <ele>-500</ele>
        <time>2020-02-18T17:13:32Z</time>
      </trkpt>
      <trkpt lat="45.37305" lon="4.72737">
        <ele>-500</ele>
        <time>2020-02-18T17:13:39Z</time>
      </trkpt>
      <trkpt lat="45.37303" lon="4.72732">
        <ele>-500</ele>
        <time>2020-02-18T17:13:42Z</time>
      </trkpt>
      <trkpt lat="45.373" lon="4.72713">
        <ele>-500</ele>
        <time>2020-02-18T17:13:52Z</time>
      </trkpt>
      <trkpt lat="45.37298" lon="4.72707">
        <ele>-500</ele>
        <time>2020-02-18T17:13:55Z</time>
      </trkpt>
      <trkpt lat="45.37295" lon="4.72695">
        <ele>-500</ele>
        <time>2020-02-18T17:14:02Z</time>
      </trkpt>
      <trkpt lat="45.37291" lon="4.72677">
        <ele>-500</ele>
        <time>2020-02-18T17:14:11Z</time>
      </trkpt>
      <trkpt lat="45.3729" lon="4.72671">
        <ele>-500</ele>
        <time>2020-02-18T17:14:15Z</time>
      </trkpt>
      <trkpt lat="45.37286" lon="4.72657">
        <ele>-500</ele>
        <time>2020-02-18T17:14:22Z</time>
      </trkpt>
      <trkpt lat="45.37281" lon="4.72647">
        <ele>-500</ele>
        <time>2020-02-18T17:14:29Z</time>
      </trkpt>
      <trkpt lat="45.37279" lon="4.72641">
        <ele>-500</ele>
        <time>2020-02-18T17:14:32Z</time>
      </trkpt>
      <trkpt lat="45.37278" lon="4.72634">
        <ele>-500</ele>
        <time>2020-02-18T17:14:37Z</time>
      </trkpt>
      <trkpt lat="45.37276" lon="4.72629">
        <ele>-500</ele>
        <time>2020-02-18T17:14:40Z</time>
      </trkpt>
      <trkpt lat="45.37275" lon="4.72626">
        <ele>-500</ele>
        <time>2020-02-18T17:14:42Z</time>
      </trkpt>
      <trkpt lat="45.37269" lon="4.72611">
        <ele>-500</ele>
        <time>2020-02-18T17:14:52Z</time>
      </trkpt>
      <trkpt lat="45.37266" lon="4.72607">
        <ele>-500</ele>
        <time>2020-02-18T17:14:56Z</time>
      </trkpt>
      <trkpt lat="45.37255" lon="4.72604">
        <ele>-500</ele>
        <time>2020-02-18T17:15:02Z</time>
      </trkpt>
      <trkpt lat="45.37237" lon="4.72601">
        <ele>-500</ele>
        <time>2020-02-18T17:15:12Z</time>
      </trkpt>
      <trkpt lat="45.37221" lon="4.72599">
        <ele>-500</ele>
        <time>2020-02-18T17:15:22Z</time>
      </trkpt>
      <trkpt lat="45.37205" lon="4.72597">
        <ele>-500</ele>
        <time>2020-02-18T17:15:32Z</time>
      </trkpt>
      <trkpt lat="45.3719" lon="4.72594">
        <ele>-500</ele>
        <time>2020-02-18T17:15:41Z</time>
      </trkpt>
      <trkpt lat="45.37189" lon="4.72593">
        <ele>-500</ele>
        <time>2020-02-18T17:15:42Z</time>
      </trkpt>
      <trkpt lat="45.37173" lon="4.72591">
        <ele>-500</ele>
        <time>2020-02-18T17:15:52Z</time>
      </trkpt>
      <trkpt lat="45.37156" lon="4.72589">
        <ele>-500</ele>
        <time>2020-02-18T17:16:02Z</time>
      </trkpt>
      <trkpt lat="45.37142" lon="4.72587">
        <ele>-500</ele>
        <time>2020-02-18T17:16:12Z</time>
      </trkpt>
      <trkpt lat="45.37123" lon="4.72586">
        <ele>-500</ele>
        <time>2020-02-18T17:16:22Z</time>
      </trkpt>
      <trkpt lat="45.37108" lon="4.72586">
        <ele>-500</ele>
        <time>2020-02-18T17:16:32Z</time>
      </trkpt>
      <trkpt lat="45.37102" lon="4.72585">
        <ele>-500</ele>
        <time>2020-02-18T17:16:36Z</time>
      </trkpt>
      <trkpt lat="45.37093" lon="4.72582">
        <ele>-500</ele>
        <time>2020-02-18T17:16:42Z</time>
      </trkpt>
      <trkpt lat="45.37086" lon="4.72579">
        <ele>-500</ele>
        <time>2020-02-18T17:16:47Z</time>
      </trkpt>
      <trkpt lat="45.37081" lon="4.72576">
        <ele>-500</ele>
        <time>2020-02-18T17:16:52Z</time>
      </trkpt>
      <trkpt lat="45.37074" lon="4.72573">
        <ele>-500</ele>
        <time>2020-02-18T17:16:55Z</time>
      </trkpt>
      <trkpt lat="45.37067" lon="4.72569">
        <ele>-500</ele>
        <time>2020-02-18T17:17:02Z</time>
      </trkpt>
      <trkpt lat="45.37063" lon="4.72566">
        <ele>-500</ele>
        <time>2020-02-18T17:17:04Z</time>
      </trkpt>
      <trkpt lat="45.37056" lon="4.72561">
        <ele>-500</ele>
        <time>2020-02-18T17:17:11Z</time>
      </trkpt>
      <trkpt lat="45.37056" lon="4.72561">
        <ele>-500</ele>
        <time>2020-02-18T17:17:12Z</time>
      </trkpt>
      <trkpt lat="45.37054" lon="4.7256">
        <ele>-500</ele>
        <time>2020-02-18T17:17:13Z</time>
      </trkpt>
      <trkpt lat="45.37052" lon="4.72559">
        <ele>-500</ele>
        <time>2020-02-18T17:17:15Z</time>
      </trkpt>
      <trkpt lat="45.37042" lon="4.72553">
        <ele>-500</ele>
        <time>2020-02-18T17:17:22Z</time>
      </trkpt>
      <trkpt lat="45.37037" lon="4.72551">
        <ele>-500</ele>
        <time>2020-02-18T17:17:27Z</time>
      </trkpt>
      <trkpt lat="45.37031" lon="4.72549">
        <ele>-500</ele>
        <time>2020-02-18T17:17:32Z</time>
      </trkpt>
      <trkpt lat="45.37025" lon="4.72544">
        <ele>-500</ele>
        <time>2020-02-18T17:17:38Z</time>
      </trkpt>
      <trkpt lat="45.3702" lon="4.72542">
        <ele>-500</ele>
        <time>2020-02-18T17:17:42Z</time>
      </trkpt>
      <trkpt lat="45.37019" lon="4.72542">
        <ele>-500</ele>
        <time>2020-02-18T17:17:43Z</time>
      </trkpt>
      <trkpt lat="45.37015" lon="4.72539">
        <ele>-500</ele>
        <time>2020-02-18T17:17:46Z</time>
      </trkpt>
      <trkpt lat="45.37008" lon="4.72536">
        <ele>-500</ele>
        <time>2020-02-18T17:17:52Z</time>
      </trkpt>
      <trkpt lat="45.37003" lon="4.72533">
        <ele>-500</ele>
        <time>2020-02-18T17:17:57Z</time>
      </trkpt>
      <trkpt lat="45.37" lon="4.72532">
        <ele>-500</ele>
        <time>2020-02-18T17:17:59Z</time>
      </trkpt>
      <trkpt lat="45.36998" lon="4.7253">
        <ele>-500</ele>
        <time>2020-02-18T17:18:01Z</time>
      </trkpt>
      <trkpt lat="45.36998" lon="4.7253">
        <ele>-500</ele>
        <time>2020-02-18T17:18:02Z</time>
      </trkpt>
      <trkpt lat="45.36995" lon="4.72528">
        <ele>-500</ele>
        <time>2020-02-18T17:18:04Z</time>
      </trkpt>
      <trkpt lat="45.36983" lon="4.72523">
        <ele>-500</ele>
        <time>2020-02-18T17:18:12Z</time>
      </trkpt>
      <trkpt lat="45.36979" lon="4.72522">
        <ele>-500</ele>
        <time>2020-02-18T17:18:15Z</time>
      </trkpt>
      <trkpt lat="45.36972" lon="4.72519">
        <ele>-500</ele>
        <time>2020-02-18T17:18:21Z</time>
      </trkpt>
      <trkpt lat="45.36971" lon="4.72519">
        <ele>-500</ele>
        <time>2020-02-18T17:18:22Z</time>
      </trkpt>
      <trkpt lat="45.36965" lon="4.72515">
        <ele>-500</ele>
        <time>2020-02-18T17:18:27Z</time>
      </trkpt>
      <trkpt lat="45.36961" lon="4.72512">
        <ele>-500</ele>
        <time>2020-02-18T17:18:32Z</time>
      </trkpt>
      <trkpt lat="45.36959" lon="4.72511">
        <ele>-500</ele>
        <time>2020-02-18T17:18:33Z</time>
      </trkpt>
      <trkpt lat="45.36958" lon="4.72511">
        <ele>-500</ele>
        <time>2020-02-18T17:18:34Z</time>
      </trkpt>
      <trkpt lat="45.36946" lon="4.72511">
        <ele>-500</ele>
        <time>2020-02-18T17:18:42Z</time>
      </trkpt>
      <trkpt lat="45.36938" lon="4.72511">
        <ele>-500</ele>
        <time>2020-02-18T17:18:47Z</time>
      </trkpt>
      <trkpt lat="45.36932" lon="4.7251">
        <ele>-500</ele>
        <time>2020-02-18T17:18:51Z</time>
      </trkpt>
      <trkpt lat="45.3693" lon="4.7251">
        <ele>-500</ele>
        <time>2020-02-18T17:18:52Z</time>
      </trkpt>
      <trkpt lat="45.36906" lon="4.72518">
        <ele>-500</ele>
        <time>2020-02-18T17:19:02Z</time>
      </trkpt>
      <trkpt lat="45.36883" lon="4.72525">
        <ele>-500</ele>
        <time>2020-02-18T17:19:12Z</time>
      </trkpt>
      <trkpt lat="45.36859" lon="4.72533">
        <ele>-500</ele>
        <time>2020-02-18T17:19:22Z</time>
      </trkpt>
      <trkpt lat="45.36841" lon="4.72538">
        <ele>-500</ele>
        <time>2020-02-18T17:19:32Z</time>
      </trkpt>
      <trkpt lat="45.36821" lon="4.72537">
        <ele>-500</ele>
        <time>2020-02-18T17:19:42Z</time>
      </trkpt>
      <trkpt lat="45.36802" lon="4.72533">
        <ele>-500</ele>
        <time>2020-02-18T17:19:52Z</time>
      </trkpt>
      <trkpt lat="45.36787" lon="4.72514">
        <ele>-500</ele>
        <time>2020-02-18T17:20:02Z</time>
      </trkpt>
      <trkpt lat="45.36785" lon="4.72511">
        <ele>-500</ele>
        <time>2020-02-18T17:20:12Z</time>
      </trkpt>
      <trkpt lat="45.36785" lon="4.72511">
        <ele>-500</ele>
        <time>2020-02-18T17:20:21Z</time>
      </trkpt>
      <trkpt lat="45.36785" lon="4.72511">
        <ele>-500</ele>
        <time>2020-02-18T17:20:22Z</time>
      </trkpt>
      <trkpt lat="45.36785" lon="4.72511">
        <ele>-500</ele>
        <time>2020-02-18T17:20:32Z</time>
      </trkpt>
      <trkpt lat="45.36785" lon="4.72511">
        <ele>-500</ele>
        <time>2020-02-18T17:20:41Z</time>
      </trkpt>
      <trkpt lat="45.36785" lon="4.72511">
        <ele>-500</ele>
        <time>2020-02-18T17:20:42Z</time>
      </trkpt>
      <trkpt lat="45.36785" lon="4.72511">
        <ele>-500</ele>
        <time>2020-02-18T17:20:49Z</time>
      </trkpt>
      <trkpt lat="45.36785" lon="4.72511">
        <ele>-500</ele>
        <time>2020-02-18T17:20:52Z</time>
      </trkpt>
      <trkpt lat="45.36785" lon="4.72512">
        <ele>-500</ele>
        <time>2020-02-18T17:21:02Z</time>
      </trkpt>
      <trkpt lat="45.36785" lon="4.72512">
        <ele>-500</ele>
        <time>2020-02-18T17:21:12Z</time>
      </trkpt>
      <trkpt lat="45.36785" lon="4.72512">
        <ele>-500</ele>
        <time>2020-02-18T17:21:21Z</time>
      </trkpt>
      <trkpt lat="45.36785" lon="4.72512">
        <ele>-500</ele>
        <time>2020-02-18T17:21:22Z</time>
      </trkpt>
      <trkpt lat="45.36785" lon="4.72511">
        <ele>-500</ele>
        <time>2020-02-18T17:21:31Z</time>
      </trkpt>
      <trkpt lat="45.36785" lon="4.72511">
        <ele>-500</ele>
        <time>2020-02-18T17:21:32Z</time>
      </trkpt>
      <trkpt lat="45.36785" lon="4.72511">
        <ele>-500</ele>
        <time>2020-02-18T17:21:39Z</time>
      </trkpt>
      <trkpt lat="45.36785" lon="4.72511">
        <ele>-500</ele>
        <time>2020-02-18T17:21:42Z</time>
      </trkpt>
      <trkpt lat="45.36785" lon="4.72511">
        <ele>-500</ele>
        <time>2020-02-18T17:21:50Z</time>
      </trkpt>
      <trkpt lat="45.36785" lon="4.7251">
        <ele>-500</ele>
        <time>2020-02-18T17:21:52Z</time>
      </trkpt>
      <trkpt lat="45.36785" lon="4.7251">
        <ele>-500</ele>
        <time>2020-02-18T17:21:59Z</time>
      </trkpt>
      <trkpt lat="45.36785" lon="4.7251">
        <ele>-500</ele>
        <time>2020-02-18T17:22:02Z</time>
      </trkpt>
      <trkpt lat="45.36784" lon="4.72507">
        <ele>-500</ele>
        <time>2020-02-18T17:22:12Z</time>
      </trkpt>
      <trkpt lat="45.36782" lon="4.72507">
        <ele>-500</ele>
        <time>2020-02-18T17:22:14Z</time>
      </trkpt>
      <trkpt lat="45.36778" lon="4.72505">
        <ele>-500</ele>
        <time>2020-02-18T17:22:17Z</time>
      </trkpt>
      <trkpt lat="45.36769" lon="4.72507">
        <ele>-500</ele>
        <time>2020-02-18T17:22:21Z</time>
      </trkpt>
      <trkpt lat="45.36766" lon="4.72508">
        <ele>-500</ele>
        <time>2020-02-18T17:22:22Z</time>
      </trkpt>
      <trkpt lat="45.36757" lon="4.72506">
        <ele>-500</ele>
        <time>2020-02-18T17:22:25Z</time>
      </trkpt>
      <trkpt lat="45.36748" lon="4.72506">
        <ele>-500</ele>
        <time>2020-02-18T17:22:28Z</time>
      </trkpt>
      <trkpt lat="45.36739" lon="4.72507">
        <ele>-500</ele>
        <time>2020-02-18T17:22:32Z</time>
      </trkpt>
      <trkpt lat="45.36729" lon="4.72508">
        <ele>-500</ele>
        <time>2020-02-18T17:22:37Z</time>
      </trkpt>
      <trkpt lat="45.36726" lon="4.72511">
        <ele>-500</ele>
        <time>2020-02-18T17:22:39Z</time>
      </trkpt>
      <trkpt lat="45.36719" lon="4.72516">
        <ele>-500</ele>
        <time>2020-02-18T17:22:42Z</time>
      </trkpt>
      <trkpt lat="45.36709" lon="4.72527">
        <ele>-500</ele>
        <time>2020-02-18T17:22:47Z</time>
      </trkpt>
      <trkpt lat="45.36696" lon="4.72531">
        <ele>-500</ele>
        <time>2020-02-18T17:22:52Z</time>
      </trkpt>
      <trkpt lat="45.36691" lon="4.72531">
        <ele>-500</ele>
        <time>2020-02-18T17:22:54Z</time>
      </trkpt>
      <trkpt lat="45.36685" lon="4.72531">
        <ele>-500</ele>
        <time>2020-02-18T17:22:56Z</time>
      </trkpt>
      <trkpt lat="45.36672" lon="4.72528">
        <ele>-500</ele>
        <time>2020-02-18T17:23:02Z</time>
      </trkpt>
      <trkpt lat="45.36649" lon="4.72516">
        <ele>-500</ele>
        <time>2020-02-18T17:23:12Z</time>
      </trkpt>
      <trkpt lat="45.36646" lon="4.72515">
        <ele>-500</ele>
        <time>2020-02-18T17:23:13Z</time>
      </trkpt>
      <trkpt lat="45.36633" lon="4.72517">
        <ele>-500</ele>
        <time>2020-02-18T17:23:19Z</time>
      </trkpt>
      <trkpt lat="45.36631" lon="4.72518">
        <ele>-500</ele>
        <time>2020-02-18T17:23:20Z</time>
      </trkpt>
      <trkpt lat="45.36628" lon="4.7252">
        <ele>-500</ele>
        <time>2020-02-18T17:23:22Z</time>
      </trkpt>
      <trkpt lat="45.36625" lon="4.72525">
        <ele>-500</ele>
        <time>2020-02-18T17:23:25Z</time>
      </trkpt>
      <trkpt lat="45.36625" lon="4.72527">
        <ele>-500</ele>
        <time>2020-02-18T17:23:26Z</time>
      </trkpt>
      <trkpt lat="45.36622" lon="4.7254">
        <ele>-500</ele>
        <time>2020-02-18T17:23:31Z</time>
      </trkpt>
      <trkpt lat="45.36621" lon="4.72543">
        <ele>-500</ele>
        <time>2020-02-18T17:23:32Z</time>
      </trkpt>
      <trkpt lat="45.36618" lon="4.72544">
        <ele>-500</ele>
        <time>2020-02-18T17:23:33Z</time>
      </trkpt>
      <trkpt lat="45.36605" lon="4.72551">
        <ele>-500</ele>
        <time>2020-02-18T17:23:39Z</time>
      </trkpt>
      <trkpt lat="45.36597" lon="4.72553">
        <ele>-500</ele>
        <time>2020-02-18T17:23:42Z</time>
      </trkpt>
      <trkpt lat="45.36574" lon="4.72561">
        <ele>-500</ele>
        <time>2020-02-18T17:23:52Z</time>
      </trkpt>
      <trkpt lat="45.36571" lon="4.72564">
        <ele>-500</ele>
        <time>2020-02-18T17:23:54Z</time>
      </trkpt>
      <trkpt lat="45.36568" lon="4.72564">
        <ele>-500</ele>
        <time>2020-02-18T17:23:56Z</time>
      </trkpt>
      <trkpt lat="45.36567" lon="4.7256">
        <ele>-500</ele>
        <time>2020-02-18T17:23:58Z</time>
      </trkpt>
      <trkpt lat="45.36567" lon="4.72558">
        <ele>-500</ele>
        <time>2020-02-18T17:23:59Z</time>
      </trkpt>
      <trkpt lat="45.36561" lon="4.72553">
        <ele>-500</ele>
        <time>2020-02-18T17:24:02Z</time>
      </trkpt>
      <trkpt lat="45.36556" lon="4.72548">
        <ele>-500</ele>
        <time>2020-02-18T17:24:05Z</time>
      </trkpt>
      <trkpt lat="45.36553" lon="4.72549">
        <ele>-500</ele>
        <time>2020-02-18T17:24:07Z</time>
      </trkpt>
      <trkpt lat="45.36551" lon="4.7255">
        <ele>-500</ele>
        <time>2020-02-18T17:24:08Z</time>
      </trkpt>
      <trkpt lat="45.36547" lon="4.7256">
        <ele>-500</ele>
        <time>2020-02-18T17:24:12Z</time>
      </trkpt>
      <trkpt lat="45.3654" lon="4.72563">
        <ele>-500</ele>
        <time>2020-02-18T17:24:16Z</time>
      </trkpt>
      <trkpt lat="45.36535" lon="4.72563">
        <ele>-500</ele>
        <time>2020-02-18T17:24:18Z</time>
      </trkpt>
      <trkpt lat="45.36526" lon="4.72567">
        <ele>-500</ele>
        <time>2020-02-18T17:24:21Z</time>
      </trkpt>
      <trkpt lat="45.36523" lon="4.72567">
        <ele>-500</ele>
        <time>2020-02-18T17:24:22Z</time>
      </trkpt>
      <trkpt lat="45.3651" lon="4.72559">
        <ele>-500</ele>
        <time>2020-02-18T17:24:27Z</time>
      </trkpt>
      <trkpt lat="45.36507" lon="4.72552">
        <ele>-500</ele>
        <time>2020-02-18T17:24:29Z</time>
      </trkpt>
      <trkpt lat="45.36502" lon="4.72549">
        <ele>-500</ele>
        <time>2020-02-18T17:24:31Z</time>
      </trkpt>
      <trkpt lat="45.36499" lon="4.72547">
        <ele>-500</ele>
        <time>2020-02-18T17:24:32Z</time>
      </trkpt>
      <trkpt lat="45.36491" lon="4.72543">
        <ele>-500</ele>
        <time>2020-02-18T17:24:35Z</time>
      </trkpt>
      <trkpt lat="45.36488" lon="4.72543">
        <ele>-500</ele>
        <time>2020-02-18T17:24:36Z</time>
      </trkpt>
      <trkpt lat="45.36485" lon="4.72544">
        <ele>-500</ele>
        <time>2020-02-18T17:24:37Z</time>
      </trkpt>
      <trkpt lat="45.36479" lon="4.72541">
        <ele>-500</ele>
        <time>2020-02-18T17:24:39Z</time>
      </trkpt>
      <trkpt lat="45.36474" lon="4.72537">
        <ele>-500</ele>
        <time>2020-02-18T17:24:41Z</time>
      </trkpt>
      <trkpt lat="45.3647" lon="4.72537">
        <ele>-500</ele>
        <time>2020-02-18T17:24:42Z</time>
      </trkpt>
      <trkpt lat="45.36466" lon="4.72536">
        <ele>-500</ele>
        <time>2020-02-18T17:24:43Z</time>
      </trkpt>
      <trkpt lat="45.36458" lon="4.72535">
        <ele>-500</ele>
        <time>2020-02-18T17:24:45Z</time>
      </trkpt>
      <trkpt lat="45.36451" lon="4.72537">
        <ele>-500</ele>
        <time>2020-02-18T17:24:47Z</time>
      </trkpt>
      <trkpt lat="45.36446" lon="4.72534">
        <ele>-500</ele>
        <time>2020-02-18T17:24:49Z</time>
      </trkpt>
      <trkpt lat="45.36443" lon="4.72531">
        <ele>-500</ele>
        <time>2020-02-18T17:24:50Z</time>
      </trkpt>
      <trkpt lat="45.36441" lon="4.72529">
        <ele>-500</ele>
        <time>2020-02-18T17:24:51Z</time>
      </trkpt>
      <trkpt lat="45.3644" lon="4.72526">
        <ele>-500</ele>
        <time>2020-02-18T17:24:52Z</time>
      </trkpt>
      <trkpt lat="45.36438" lon="4.72523">
        <ele>-500</ele>
        <time>2020-02-18T17:24:53Z</time>
      </trkpt>
      <trkpt lat="45.36436" lon="4.72522">
        <ele>-500</ele>
        <time>2020-02-18T17:24:54Z</time>
      </trkpt>
      <trkpt lat="45.36431" lon="4.72517">
        <ele>-500</ele>
        <time>2020-02-18T17:24:56Z</time>
      </trkpt>
      <trkpt lat="45.36427" lon="4.72511">
        <ele>-500</ele>
        <time>2020-02-18T17:24:58Z</time>
      </trkpt>
      <trkpt lat="45.36426" lon="4.72508">
        <ele>-500</ele>
        <time>2020-02-18T17:24:59Z</time>
      </trkpt>
      <trkpt lat="45.36423" lon="4.72507">
        <ele>-500</ele>
        <time>2020-02-18T17:25:00Z</time>
      </trkpt>
      <trkpt lat="45.36417" lon="4.72507">
        <ele>-500</ele>
        <time>2020-02-18T17:25:02Z</time>
      </trkpt>
      <trkpt lat="45.36413" lon="4.7251">
        <ele>-500</ele>
        <time>2020-02-18T17:25:04Z</time>
      </trkpt>
      <trkpt lat="45.36411" lon="4.72513">
        <ele>-500</ele>
        <time>2020-02-18T17:25:05Z</time>
      </trkpt>
      <trkpt lat="45.36408" lon="4.72514">
        <ele>-500</ele>
        <time>2020-02-18T17:25:06Z</time>
      </trkpt>
      <trkpt lat="45.36404" lon="4.72513">
        <ele>-500</ele>
        <time>2020-02-18T17:25:07Z</time>
      </trkpt>
      <trkpt lat="45.36401" lon="4.7251">
        <ele>-500</ele>
        <time>2020-02-18T17:25:08Z</time>
      </trkpt>
      <trkpt lat="45.36397" lon="4.72506">
        <ele>-500</ele>
        <time>2020-02-18T17:25:09Z</time>
      </trkpt>
      <trkpt lat="45.3639" lon="4.72497">
        <ele>-500</ele>
        <time>2020-02-18T17:25:11Z</time>
      </trkpt>
      <trkpt lat="45.36388" lon="4.72493">
        <ele>-500</ele>
        <time>2020-02-18T17:25:12Z</time>
      </trkpt>
      <trkpt lat="45.36385" lon="4.7249">
        <ele>-500</ele>
        <time>2020-02-18T17:25:13Z</time>
      </trkpt>
      <trkpt lat="45.36376" lon="4.72483">
        <ele>-500</ele>
        <time>2020-02-18T17:25:15Z</time>
      </trkpt>
      <trkpt lat="45.36368" lon="4.72476">
        <ele>-500</ele>
        <time>2020-02-18T17:25:17Z</time>
      </trkpt>
      <trkpt lat="45.36362" lon="4.72469">
        <ele>-500</ele>
        <time>2020-02-18T17:25:19Z</time>
      </trkpt>
      <trkpt lat="45.36357" lon="4.72459">
        <ele>-500</ele>
        <time>2020-02-18T17:25:21Z</time>
      </trkpt>
      <trkpt lat="45.36354" lon="4.72453">
        <ele>-500</ele>
        <time>2020-02-18T17:25:22Z</time>
      </trkpt>
      <trkpt lat="45.36351" lon="4.72447">
        <ele>-500</ele>
        <time>2020-02-18T17:25:23Z</time>
      </trkpt>
      <trkpt lat="45.36344" lon="4.72432">
        <ele>-500</ele>
        <time>2020-02-18T17:25:25Z</time>
      </trkpt>
      <trkpt lat="45.36337" lon="4.72415">
        <ele>-500</ele>
        <time>2020-02-18T17:25:27Z</time>
      </trkpt>
      <trkpt lat="45.36334" lon="4.72406">
        <ele>-500</ele>
        <time>2020-02-18T17:25:28Z</time>
      </trkpt>
      <trkpt lat="45.36331" lon="4.72397">
        <ele>-500</ele>
        <time>2020-02-18T17:25:29Z</time>
      </trkpt>
      <trkpt lat="45.36328" lon="4.72383">
        <ele>-500</ele>
        <time>2020-02-18T17:25:31Z</time>
      </trkpt>
      <trkpt lat="45.36327" lon="4.7238">
        <ele>-500</ele>
        <time>2020-02-18T17:25:32Z</time>
      </trkpt>
      <trkpt lat="45.36326" lon="4.72378">
        <ele>-500</ele>
        <time>2020-02-18T17:25:33Z</time>
      </trkpt>
      <trkpt lat="45.36324" lon="4.72378">
        <ele>-500</ele>
        <time>2020-02-18T17:25:34Z</time>
      </trkpt>
      <trkpt lat="45.36323" lon="4.72377">
        <ele>-500</ele>
        <time>2020-02-18T17:25:35Z</time>
      </trkpt>
      <trkpt lat="45.36322" lon="4.72377">
        <ele>-500</ele>
        <time>2020-02-18T17:25:37Z</time>
      </trkpt>
      <trkpt lat="45.36321" lon="4.72376">
        <ele>-500</ele>
        <time>2020-02-18T17:25:41Z</time>
      </trkpt>
      <trkpt lat="45.3632" lon="4.72373">
        <ele>-500</ele>
        <time>2020-02-18T17:25:42Z</time>
      </trkpt>
      <trkpt lat="45.36319" lon="4.72369">
        <ele>-500</ele>
        <time>2020-02-18T17:25:43Z</time>
      </trkpt>
      <trkpt lat="45.36315" lon="4.72358">
        <ele>-500</ele>
        <time>2020-02-18T17:25:45Z</time>
      </trkpt>
      <trkpt lat="45.36308" lon="4.72339">
        <ele>-500</ele>
        <time>2020-02-18T17:25:48Z</time>
      </trkpt>
      <trkpt lat="45.36303" lon="4.72332">
        <ele>-500</ele>
        <time>2020-02-18T17:25:50Z</time>
      </trkpt>
      <trkpt lat="45.36301" lon="4.72328">
        <ele>-500</ele>
        <time>2020-02-18T17:25:51Z</time>
      </trkpt>
      <trkpt lat="45.36298" lon="4.72325">
        <ele>-500</ele>
        <time>2020-02-18T17:25:52Z</time>
      </trkpt>
      <trkpt lat="45.36297" lon="4.7232">
        <ele>-500</ele>
        <time>2020-02-18T17:25:53Z</time>
      </trkpt>
      <trkpt lat="45.36298" lon="4.72315">
        <ele>-500</ele>
        <time>2020-02-18T17:25:54Z</time>
      </trkpt>
      <trkpt lat="45.36299" lon="4.7231">
        <ele>-500</ele>
        <time>2020-02-18T17:25:55Z</time>
      </trkpt>
      <trkpt lat="45.36298" lon="4.72306">
        <ele>-500</ele>
        <time>2020-02-18T17:25:56Z</time>
      </trkpt>
      <trkpt lat="45.36294" lon="4.72301">
        <ele>-500</ele>
        <time>2020-02-18T17:25:57Z</time>
      </trkpt>
      <trkpt lat="45.3629" lon="4.72297">
        <ele>-500</ele>
        <time>2020-02-18T17:25:58Z</time>
      </trkpt>
      <trkpt lat="45.36285" lon="4.72293">
        <ele>-500</ele>
        <time>2020-02-18T17:25:59Z</time>
      </trkpt>
      <trkpt lat="45.36274" lon="4.72287">
        <ele>-500</ele>
        <time>2020-02-18T17:26:01Z</time>
      </trkpt>
      <trkpt lat="45.36269" lon="4.72283">
        <ele>-500</ele>
        <time>2020-02-18T17:26:02Z</time>
      </trkpt>
      <trkpt lat="45.36265" lon="4.72281">
        <ele>-500</ele>
        <time>2020-02-18T17:26:03Z</time>
      </trkpt>
      <trkpt lat="45.36262" lon="4.72276">
        <ele>-500</ele>
        <time>2020-02-18T17:26:05Z</time>
      </trkpt>
      <trkpt lat="45.3626" lon="4.72275">
        <ele>-500</ele>
        <time>2020-02-18T17:26:06Z</time>
      </trkpt>
      <trkpt lat="45.36259" lon="4.72275">
        <ele>-500</ele>
        <time>2020-02-18T17:26:07Z</time>
      </trkpt>
      <trkpt lat="45.36258" lon="4.72275">
        <ele>-500</ele>
        <time>2020-02-18T17:26:09Z</time>
      </trkpt>
      <trkpt lat="45.36258" lon="4.72275">
        <ele>-500</ele>
        <time>2020-02-18T17:26:12Z</time>
      </trkpt>
      <trkpt lat="45.36258" lon="4.72275">
        <ele>-500</ele>
        <time>2020-02-18T17:26:20Z</time>
      </trkpt>
      <trkpt lat="45.36258" lon="4.72275">
        <ele>-500</ele>
        <time>2020-02-18T17:26:22Z</time>
      </trkpt>
      <trkpt lat="45.36258" lon="4.72275">
        <ele>-500</ele>
        <time>2020-02-18T17:26:30Z</time>
      </trkpt>
      <trkpt lat="45.36258" lon="4.72275">
        <ele>-500</ele>
        <time>2020-02-18T17:26:32Z</time>
      </trkpt>
      <trkpt lat="45.36258" lon="4.72275">
        <ele>-500</ele>
        <time>2020-02-18T17:26:39Z</time>
      </trkpt>
      <trkpt lat="45.36258" lon="4.72275">
        <ele>-500</ele>
        <time>2020-02-18T17:26:42Z</time>
      </trkpt>
      <trkpt lat="45.36258" lon="4.72275">
        <ele>-500</ele>
        <time>2020-02-18T17:26:47Z</time>
      </trkpt>
      <trkpt lat="45.36258" lon="4.72275">
        <ele>-500</ele>
        <time>2020-02-18T17:26:52Z</time>
      </trkpt>
      <trkpt lat="45.36258" lon="4.72275">
        <ele>-500</ele>
        <time>2020-02-18T17:26:55Z</time>
      </trkpt>
      <trkpt lat="45.36258" lon="4.72275">
        <ele>-500</ele>
        <time>2020-02-18T17:27:01Z</time>
      </trkpt>
      <trkpt lat="45.36258" lon="4.72275">
        <ele>-500</ele>
        <time>2020-02-18T17:27:02Z</time>
      </trkpt>
      <trkpt lat="45.36258" lon="4.72275">
        <ele>-500</ele>
        <time>2020-02-18T17:27:12Z</time>
      </trkpt>
      <trkpt lat="45.36258" lon="4.72275">
        <ele>-500</ele>
        <time>2020-02-18T17:27:13Z</time>
      </trkpt>
      <trkpt lat="45.36258" lon="4.72275">
        <ele>-500</ele>
        <time>2020-02-18T17:27:20Z</time>
      </trkpt>
      <trkpt lat="45.36258" lon="4.72275">
        <ele>-500</ele>
        <time>2020-02-18T17:27:22Z</time>
      </trkpt>
      <trkpt lat="45.36258" lon="4.72275">
        <ele>-500</ele>
        <time>2020-02-18T17:27:29Z</time>
      </trkpt>
      <trkpt lat="45.36258" lon="4.72275">
        <ele>-500</ele>
        <time>2020-02-18T17:27:32Z</time>
      </trkpt>
      <trkpt lat="45.36258" lon="4.72275">
        <ele>-500</ele>
        <time>2020-02-18T17:27:36Z</time>
      </trkpt>
      <trkpt lat="45.36258" lon="4.72275">
        <ele>-500</ele>
        <time>2020-02-18T17:27:42Z</time>
      </trkpt>
      <trkpt lat="45.36258" lon="4.72275">
        <ele>-500</ele>
        <time>2020-02-18T17:27:46Z</time>
      </trkpt>
      <trkpt lat="45.36258" lon="4.72275">
        <ele>-500</ele>
        <time>2020-02-18T17:27:52Z</time>
      </trkpt>
      <trkpt lat="45.36258" lon="4.72275">
        <ele>-500</ele>
        <time>2020-02-18T17:27:55Z</time>
      </trkpt>
      <trkpt lat="45.36258" lon="4.72275">
        <ele>-500</ele>
        <time>2020-02-18T17:28:02Z</time>
      </trkpt>
      <trkpt lat="45.36258" lon="4.72275">
        <ele>-500</ele>
        <time>2020-02-18T17:28:06Z</time>
      </trkpt>
      <trkpt lat="45.36258" lon="4.72275">
        <ele>-500</ele>
        <time>2020-02-18T17:28:12Z</time>
      </trkpt>
      <trkpt lat="45.36258" lon="4.72275">
        <ele>-500</ele>
        <time>2020-02-18T17:28:17Z</time>
      </trkpt>
      <trkpt lat="45.36258" lon="4.72275">
        <ele>-500</ele>
        <time>2020-02-18T17:28:22Z</time>
      </trkpt>
      <trkpt lat="45.36258" lon="4.72275">
        <ele>-500</ele>
        <time>2020-02-18T17:28:23Z</time>
      </trkpt>
      <trkpt lat="45.36258" lon="4.72275">
        <ele>-500</ele>
        <time>2020-02-18T17:28:31Z</time>
      </trkpt>
      <trkpt lat="45.36258" lon="4.72275">
        <ele>-500</ele>
        <time>2020-02-18T17:28:32Z</time>
      </trkpt>
      <trkpt lat="45.36258" lon="4.72275">
        <ele>-500</ele>
        <time>2020-02-18T17:28:42Z</time>
      </trkpt>
      <trkpt lat="45.36258" lon="4.72275">
        <ele>-500</ele>
        <time>2020-02-18T17:28:52Z</time>
      </trkpt>
      <trkpt lat="45.36258" lon="4.72275">
        <ele>-500</ele>
        <time>2020-02-18T17:28:53Z</time>
      </trkpt>
      <trkpt lat="45.36245" lon="4.72293">
        <ele>-500</ele>
        <time>2020-02-18T17:29:02Z</time>
      </trkpt>
      <trkpt lat="45.36238" lon="4.72312">
        <ele>-500</ele>
        <time>2020-02-18T17:29:06Z</time>
      </trkpt>
      <trkpt lat="45.36227" lon="4.72338">
        <ele>-500</ele>
        <time>2020-02-18T17:29:12Z</time>
      </trkpt>
      <trkpt lat="45.36206" lon="4.72383">
        <ele>-500</ele>
        <time>2020-02-18T17:29:22Z</time>
      </trkpt>
      <trkpt lat="45.36183" lon="4.72441">
        <ele>-500</ele>
        <time>2020-02-18T17:29:32Z</time>
      </trkpt>
      <trkpt lat="45.36181" lon="4.72447">
        <ele>-500</ele>
        <time>2020-02-18T17:29:33Z</time>
      </trkpt>
      <trkpt lat="45.36172" lon="4.72492">
        <ele>-500</ele>
        <time>2020-02-18T17:29:40Z</time>
      </trkpt>
      <trkpt lat="45.36171" lon="4.72504">
        <ele>-500</ele>
        <time>2020-02-18T17:29:42Z</time>
      </trkpt>
      <trkpt lat="45.36175" lon="4.72555">
        <ele>-500</ele>
        <time>2020-02-18T17:29:52Z</time>
      </trkpt>
      <trkpt lat="45.36177" lon="4.72583">
        <ele>-500</ele>
        <time>2020-02-18T17:29:58Z</time>
      </trkpt>
      <trkpt lat="45.36178" lon="4.72603">
        <ele>-500</ele>
        <time>2020-02-18T17:30:02Z</time>
      </trkpt>
      <trkpt lat="45.36179" lon="4.72627">
        <ele>-500</ele>
        <time>2020-02-18T17:30:06Z</time>
      </trkpt>
      <trkpt lat="45.3618" lon="4.7265">
        <ele>-500</ele>
        <time>2020-02-18T17:30:09Z</time>
      </trkpt>
      <trkpt lat="45.36181" lon="4.72667">
        <ele>-500</ele>
        <time>2020-02-18T17:30:11Z</time>
      </trkpt>
      <trkpt lat="45.36183" lon="4.72676">
        <ele>-500</ele>
        <time>2020-02-18T17:30:12Z</time>
      </trkpt>
      <trkpt lat="45.36184" lon="4.72694">
        <ele>-500</ele>
        <time>2020-02-18T17:30:14Z</time>
      </trkpt>
      <trkpt lat="45.36185" lon="4.72703">
        <ele>-500</ele>
        <time>2020-02-18T17:30:15Z</time>
      </trkpt>
      <trkpt lat="45.36186" lon="4.72733">
        <ele>-500</ele>
        <time>2020-02-18T17:30:18Z</time>
      </trkpt>
      <trkpt lat="45.36187" lon="4.72743">
        <ele>-500</ele>
        <time>2020-02-18T17:30:19Z</time>
      </trkpt>
      <trkpt lat="45.36189" lon="4.72753">
        <ele>-500</ele>
        <time>2020-02-18T17:30:20Z</time>
      </trkpt>
      <trkpt lat="45.36195" lon="4.72771">
        <ele>-500</ele>
        <time>2020-02-18T17:30:22Z</time>
      </trkpt>
      <trkpt lat="45.362" lon="4.72779">
        <ele>-500</ele>
        <time>2020-02-18T17:30:23Z</time>
      </trkpt>
      <trkpt lat="45.36203" lon="4.72789">
        <ele>-500</ele>
        <time>2020-02-18T17:30:24Z</time>
      </trkpt>
      <trkpt lat="45.36206" lon="4.72799">
        <ele>-500</ele>
        <time>2020-02-18T17:30:25Z</time>
      </trkpt>
      <trkpt lat="45.3621" lon="4.7282">
        <ele>-500</ele>
        <time>2020-02-18T17:30:27Z</time>
      </trkpt>
      <trkpt lat="45.36211" lon="4.72831">
        <ele>-500</ele>
        <time>2020-02-18T17:30:28Z</time>
      </trkpt>
      <trkpt lat="45.36211" lon="4.72842">
        <ele>-500</ele>
        <time>2020-02-18T17:30:29Z</time>
      </trkpt>
      <trkpt lat="45.36209" lon="4.72865">
        <ele>-500</ele>
        <time>2020-02-18T17:30:31Z</time>
      </trkpt>
      <trkpt lat="45.36209" lon="4.72877">
        <ele>-500</ele>
        <time>2020-02-18T17:30:32Z</time>
      </trkpt>
      <trkpt lat="45.36208" lon="4.72888">
        <ele>-500</ele>
        <time>2020-02-18T17:30:33Z</time>
      </trkpt>
      <trkpt lat="45.36206" lon="4.72911">
        <ele>-500</ele>
        <time>2020-02-18T17:30:35Z</time>
      </trkpt>
      <trkpt lat="45.36206" lon="4.72923">
        <ele>-500</ele>
        <time>2020-02-18T17:30:36Z</time>
      </trkpt>
      <trkpt lat="45.36207" lon="4.72934">
        <ele>-500</ele>
        <time>2020-02-18T17:30:37Z</time>
      </trkpt>
      <trkpt lat="45.36208" lon="4.72946">
        <ele>-500</ele>
        <time>2020-02-18T17:30:38Z</time>
      </trkpt>
      <trkpt lat="45.36211" lon="4.72958">
        <ele>-500</ele>
        <time>2020-02-18T17:30:39Z</time>
      </trkpt>
      <trkpt lat="45.36216" lon="4.72981">
        <ele>-500</ele>
        <time>2020-02-18T17:30:41Z</time>
      </trkpt>
      <trkpt lat="45.36217" lon="4.72992">
        <ele>-500</ele>
        <time>2020-02-18T17:30:42Z</time>
      </trkpt>
      <trkpt lat="45.36217" lon="4.73003">
        <ele>-500</ele>
        <time>2020-02-18T17:30:43Z</time>
      </trkpt>
      <trkpt lat="45.36217" lon="4.73013">
        <ele>-500</ele>
        <time>2020-02-18T17:30:44Z</time>
      </trkpt>
      <trkpt lat="45.36216" lon="4.73024">
        <ele>-500</ele>
        <time>2020-02-18T17:30:45Z</time>
      </trkpt>
      <trkpt lat="45.36215" lon="4.73034">
        <ele>-500</ele>
        <time>2020-02-18T17:30:46Z</time>
      </trkpt>
      <trkpt lat="45.36214" lon="4.73044">
        <ele>-500</ele>
        <time>2020-02-18T17:30:47Z</time>
      </trkpt>
      <trkpt lat="45.36211" lon="4.73053">
        <ele>-500</ele>
        <time>2020-02-18T17:30:48Z</time>
      </trkpt>
      <trkpt lat="45.36207" lon="4.7306">
        <ele>-500</ele>
        <time>2020-02-18T17:30:49Z</time>
      </trkpt>
      <trkpt lat="45.36201" lon="4.73066">
        <ele>-500</ele>
        <time>2020-02-18T17:30:50Z</time>
      </trkpt>
      <trkpt lat="45.36195" lon="4.73069">
        <ele>-500</ele>
        <time>2020-02-18T17:30:51Z</time>
      </trkpt>
      <trkpt lat="45.36188" lon="4.73072">
        <ele>-500</ele>
        <time>2020-02-18T17:30:52Z</time>
      </trkpt>
      <trkpt lat="45.3618" lon="4.73075">
        <ele>-500</ele>
        <time>2020-02-18T17:30:53Z</time>
      </trkpt>
      <trkpt lat="45.36173" lon="4.73078">
        <ele>-500</ele>
        <time>2020-02-18T17:30:54Z</time>
      </trkpt>
      <trkpt lat="45.36166" lon="4.73082">
        <ele>-500</ele>
        <time>2020-02-18T17:30:55Z</time>
      </trkpt>
      <trkpt lat="45.36158" lon="4.73087">
        <ele>-500</ele>
        <time>2020-02-18T17:30:56Z</time>
      </trkpt>
      <trkpt lat="45.36151" lon="4.73094">
        <ele>-500</ele>
        <time>2020-02-18T17:30:57Z</time>
      </trkpt>
      <trkpt lat="45.36144" lon="4.73102">
        <ele>-500</ele>
        <time>2020-02-18T17:30:58Z</time>
      </trkpt>
      <trkpt lat="45.3614" lon="4.7311">
        <ele>-500</ele>
        <time>2020-02-18T17:30:59Z</time>
      </trkpt>
      <trkpt lat="45.36137" lon="4.7312">
        <ele>-500</ele>
        <time>2020-02-18T17:31:00Z</time>
      </trkpt>
      <trkpt lat="45.36134" lon="4.7313">
        <ele>-500</ele>
        <time>2020-02-18T17:31:01Z</time>
      </trkpt>
      <trkpt lat="45.36132" lon="4.73141">
        <ele>-500</ele>
        <time>2020-02-18T17:31:02Z</time>
      </trkpt>
      <trkpt lat="45.36129" lon="4.73151">
        <ele>-500</ele>
        <time>2020-02-18T17:31:03Z</time>
      </trkpt>
      <trkpt lat="45.36125" lon="4.73161">
        <ele>-500</ele>
        <time>2020-02-18T17:31:04Z</time>
      </trkpt>
      <trkpt lat="45.36122" lon="4.73171">
        <ele>-500</ele>
        <time>2020-02-18T17:31:05Z</time>
      </trkpt>
      <trkpt lat="45.3612" lon="4.73179">
        <ele>-500</ele>
        <time>2020-02-18T17:31:06Z</time>
      </trkpt>
      <trkpt lat="45.36119" lon="4.73186">
        <ele>-500</ele>
        <time>2020-02-18T17:31:07Z</time>
      </trkpt>
      <trkpt lat="45.36119" lon="4.73191">
        <ele>-500</ele>
        <time>2020-02-18T17:31:08Z</time>
      </trkpt>
      <trkpt lat="45.36121" lon="4.73194">
        <ele>-500</ele>
        <time>2020-02-18T17:31:09Z</time>
      </trkpt>
      <trkpt lat="45.36124" lon="4.73195">
        <ele>-500</ele>
        <time>2020-02-18T17:31:10Z</time>
      </trkpt>
      <trkpt lat="45.36132" lon="4.73196">
        <ele>-500</ele>
        <time>2020-02-18T17:31:12Z</time>
      </trkpt>
      <trkpt lat="45.36158" lon="4.73193">
        <ele>-500</ele>
        <time>2020-02-18T17:31:19Z</time>
      </trkpt>
      <trkpt lat="45.36169" lon="4.73192">
        <ele>-500</ele>
        <time>2020-02-18T17:31:22Z</time>
      </trkpt>
      <trkpt lat="45.36204" lon="4.73188">
        <ele>-500</ele>
        <time>2020-02-18T17:31:32Z</time>
      </trkpt>
      <trkpt lat="45.36214" lon="4.73186">
        <ele>-500</ele>
        <time>2020-02-18T17:31:35Z</time>
      </trkpt>
      <trkpt lat="45.36237" lon="4.73185">
        <ele>-500</ele>
        <time>2020-02-18T17:31:42Z</time>
      </trkpt>
      <trkpt lat="45.36243" lon="4.73185">
        <ele>-500</ele>
        <time>2020-02-18T17:31:44Z</time>
      </trkpt>
      <trkpt lat="45.36269" lon="4.73187">
        <ele>-500</ele>
        <time>2020-02-18T17:31:52Z</time>
      </trkpt>
      <trkpt lat="45.36304" lon="4.7319">
        <ele>-500</ele>
        <time>2020-02-18T17:32:02Z</time>
      </trkpt>
      <trkpt lat="45.36345" lon="4.73192">
        <ele>-500</ele>
        <time>2020-02-18T17:32:12Z</time>
      </trkpt>
      <trkpt lat="45.36385" lon="4.73201">
        <ele>-500</ele>
        <time>2020-02-18T17:32:22Z</time>
      </trkpt>
      <trkpt lat="45.36403" lon="4.73209">
        <ele>-500</ele>
        <time>2020-02-18T17:32:26Z</time>
      </trkpt>
      <trkpt lat="45.36425" lon="4.73221">
        <ele>-500</ele>
        <time>2020-02-18T17:32:31Z</time>
      </trkpt>
      <trkpt lat="45.3643" lon="4.73224">
        <ele>-500</ele>
        <time>2020-02-18T17:32:32Z</time>
      </trkpt>
      <trkpt lat="45.36434" lon="4.73227">
        <ele>-500</ele>
        <time>2020-02-18T17:32:33Z</time>
      </trkpt>
      <trkpt lat="45.36442" lon="4.73235">
        <ele>-500</ele>
        <time>2020-02-18T17:32:35Z</time>
      </trkpt>
      <trkpt lat="45.36454" lon="4.73251">
        <ele>-500</ele>
        <time>2020-02-18T17:32:38Z</time>
      </trkpt>
      <trkpt lat="45.36459" lon="4.73256">
        <ele>-500</ele>
        <time>2020-02-18T17:32:39Z</time>
      </trkpt>
      <trkpt lat="45.3647" lon="4.73264">
        <ele>-500</ele>
        <time>2020-02-18T17:32:41Z</time>
      </trkpt>
      <trkpt lat="45.36475" lon="4.73267">
        <ele>-500</ele>
        <time>2020-02-18T17:32:42Z</time>
      </trkpt>
      <trkpt lat="45.36485" lon="4.73275">
        <ele>-500</ele>
        <time>2020-02-18T17:32:44Z</time>
      </trkpt>
      <trkpt lat="45.36489" lon="4.7328">
        <ele>-500</ele>
        <time>2020-02-18T17:32:45Z</time>
      </trkpt>
      <trkpt lat="45.36492" lon="4.73287">
        <ele>-500</ele>
        <time>2020-02-18T17:32:46Z</time>
      </trkpt>
      <trkpt lat="45.36496" lon="4.73307">
        <ele>-500</ele>
        <time>2020-02-18T17:32:48Z</time>
      </trkpt>
      <trkpt lat="45.365" lon="4.73316">
        <ele>-500</ele>
        <time>2020-02-18T17:32:49Z</time>
      </trkpt>
      <trkpt lat="45.36506" lon="4.73323">
        <ele>-500</ele>
        <time>2020-02-18T17:32:50Z</time>
      </trkpt>
      <trkpt lat="45.36513" lon="4.73326">
        <ele>-500</ele>
        <time>2020-02-18T17:32:51Z</time>
      </trkpt>
      <trkpt lat="45.3652" lon="4.73327">
        <ele>-500</ele>
        <time>2020-02-18T17:32:52Z</time>
      </trkpt>
      <trkpt lat="45.36533" lon="4.73328">
        <ele>-500</ele>
        <time>2020-02-18T17:32:54Z</time>
      </trkpt>
      <trkpt lat="45.36551" lon="4.7333">
        <ele>-500</ele>
        <time>2020-02-18T17:32:57Z</time>
      </trkpt>
      <trkpt lat="45.36568" lon="4.73332">
        <ele>-500</ele>
        <time>2020-02-18T17:33:00Z</time>
      </trkpt>
      <trkpt lat="45.36579" lon="4.73334">
        <ele>-500</ele>
        <time>2020-02-18T17:33:02Z</time>
      </trkpt>
      <trkpt lat="45.36591" lon="4.73335">
        <ele>-500</ele>
        <time>2020-02-18T17:33:04Z</time>
      </trkpt>
      <trkpt lat="45.36634" lon="4.73341">
        <ele>-500</ele>
        <time>2020-02-18T17:33:12Z</time>
      </trkpt>
      <trkpt lat="45.36649" lon="4.73338">
        <ele>-500</ele>
        <time>2020-02-18T17:33:15Z</time>
      </trkpt>
      <trkpt lat="45.36673" lon="4.73325">
        <ele>-500</ele>
        <time>2020-02-18T17:33:22Z</time>
      </trkpt>
      <trkpt lat="45.36712" lon="4.7334">
        <ele>-500</ele>
        <time>2020-02-18T17:33:32Z</time>
      </trkpt>
      <trkpt lat="45.36717" lon="4.73342">
        <ele>-500</ele>
        <time>2020-02-18T17:33:33Z</time>
      </trkpt>
      <trkpt lat="45.36723" lon="4.73345">
        <ele>-500</ele>
        <time>2020-02-18T17:33:34Z</time>
      </trkpt>
      <trkpt lat="45.36733" lon="4.73354">
        <ele>-500</ele>
        <time>2020-02-18T17:33:36Z</time>
      </trkpt>
      <trkpt lat="45.3676" lon="4.73373">
        <ele>-500</ele>
        <time>2020-02-18T17:33:41Z</time>
      </trkpt>
      <trkpt lat="45.36765" lon="4.73375">
        <ele>-500</ele>
        <time>2020-02-18T17:33:42Z</time>
      </trkpt>
      <trkpt lat="45.36771" lon="4.73378">
        <ele>-500</ele>
        <time>2020-02-18T17:33:43Z</time>
      </trkpt>
      <trkpt lat="45.36786" lon="4.7339">
        <ele>-500</ele>
        <time>2020-02-18T17:33:46Z</time>
      </trkpt>
      <trkpt lat="45.36808" lon="4.73406">
        <ele>-500</ele>
        <time>2020-02-18T17:33:50Z</time>
      </trkpt>
      <trkpt lat="45.36819" lon="4.73414">
        <ele>-500</ele>
        <time>2020-02-18T17:33:52Z</time>
      </trkpt>
      <trkpt lat="45.36829" lon="4.73422">
        <ele>-500</ele>
        <time>2020-02-18T17:33:54Z</time>
      </trkpt>
      <trkpt lat="45.36851" lon="4.7344">
        <ele>-500</ele>
        <time>2020-02-18T17:33:58Z</time>
      </trkpt>
      <trkpt lat="45.36866" lon="4.73456">
        <ele>-500</ele>
        <time>2020-02-18T17:34:01Z</time>
      </trkpt>
      <trkpt lat="45.3687" lon="4.73462">
        <ele>-500</ele>
        <time>2020-02-18T17:34:02Z</time>
      </trkpt>
      <trkpt lat="45.36886" lon="4.7349">
        <ele>-500</ele>
        <time>2020-02-18T17:34:06Z</time>
      </trkpt>
      <trkpt lat="45.36897" lon="4.73511">
        <ele>-500</ele>
        <time>2020-02-18T17:34:09Z</time>
      </trkpt>
      <trkpt lat="45.3691" lon="4.73529">
        <ele>-500</ele>
        <time>2020-02-18T17:34:12Z</time>
      </trkpt>
      <trkpt lat="45.36916" lon="4.73534">
        <ele>-500</ele>
        <time>2020-02-18T17:34:13Z</time>
      </trkpt>
      <trkpt lat="45.36922" lon="4.73538">
        <ele>-500</ele>
        <time>2020-02-18T17:34:14Z</time>
      </trkpt>
      <trkpt lat="45.36934" lon="4.73541">
        <ele>-500</ele>
        <time>2020-02-18T17:34:16Z</time>
      </trkpt>
      <trkpt lat="45.3694" lon="4.73541">
        <ele>-500</ele>
        <time>2020-02-18T17:34:17Z</time>
      </trkpt>
      <trkpt lat="45.36958" lon="4.73539">
        <ele>-500</ele>
        <time>2020-02-18T17:34:20Z</time>
      </trkpt>
      <trkpt lat="45.3697" lon="4.73541">
        <ele>-500</ele>
        <time>2020-02-18T17:34:22Z</time>
      </trkpt>
      <trkpt lat="45.36994" lon="4.73551">
        <ele>-500</ele>
        <time>2020-02-18T17:34:26Z</time>
      </trkpt>
      <trkpt lat="45.37026" lon="4.73565">
        <ele>-500</ele>
        <time>2020-02-18T17:34:31Z</time>
      </trkpt>
      <trkpt lat="45.37033" lon="4.73568">
        <ele>-500</ele>
        <time>2020-02-18T17:34:32Z</time>
      </trkpt>
      <trkpt lat="45.37046" lon="4.73575">
        <ele>-500</ele>
        <time>2020-02-18T17:34:34Z</time>
      </trkpt>
      <trkpt lat="45.37067" lon="4.73587">
        <ele>-500</ele>
        <time>2020-02-18T17:34:37Z</time>
      </trkpt>
      <trkpt lat="45.37081" lon="4.73596">
        <ele>-500</ele>
        <time>2020-02-18T17:34:39Z</time>
      </trkpt>
      <trkpt lat="45.37101" lon="4.73608">
        <ele>-500</ele>
        <time>2020-02-18T17:34:42Z</time>
      </trkpt>
      <trkpt lat="45.37115" lon="4.73615">
        <ele>-500</ele>
        <time>2020-02-18T17:34:44Z</time>
      </trkpt>
      <trkpt lat="45.37136" lon="4.73625">
        <ele>-500</ele>
        <time>2020-02-18T17:34:47Z</time>
      </trkpt>
      <trkpt lat="45.37164" lon="4.73637">
        <ele>-500</ele>
        <time>2020-02-18T17:34:51Z</time>
      </trkpt>
      <trkpt lat="45.37171" lon="4.73639">
        <ele>-500</ele>
        <time>2020-02-18T17:34:52Z</time>
      </trkpt>
      <trkpt lat="45.37186" lon="4.73644">
        <ele>-500</ele>
        <time>2020-02-18T17:34:54Z</time>
      </trkpt>
      <trkpt lat="45.3721" lon="4.73649">
        <ele>-500</ele>
        <time>2020-02-18T17:34:57Z</time>
      </trkpt>
      <trkpt lat="45.37228" lon="4.73653">
        <ele>-500</ele>
        <time>2020-02-18T17:34:59Z</time>
      </trkpt>
      <trkpt lat="45.37247" lon="4.73658">
        <ele>-500</ele>
        <time>2020-02-18T17:35:01Z</time>
      </trkpt>
      <trkpt lat="45.37256" lon="4.73661">
        <ele>-500</ele>
        <time>2020-02-18T17:35:02Z</time>
      </trkpt>
      <trkpt lat="45.37266" lon="4.73666">
        <ele>-500</ele>
        <time>2020-02-18T17:35:03Z</time>
      </trkpt>
      <trkpt lat="45.37275" lon="4.73674">
        <ele>-500</ele>
        <time>2020-02-18T17:35:04Z</time>
      </trkpt>
      <trkpt lat="45.37284" lon="4.73682">
        <ele>-500</ele>
        <time>2020-02-18T17:35:05Z</time>
      </trkpt>
      <trkpt lat="45.37292" lon="4.73692">
        <ele>-500</ele>
        <time>2020-02-18T17:35:06Z</time>
      </trkpt>
      <trkpt lat="45.37301" lon="4.73701">
        <ele>-500</ele>
        <time>2020-02-18T17:35:07Z</time>
      </trkpt>
      <trkpt lat="45.37319" lon="4.73721">
        <ele>-500</ele>
        <time>2020-02-18T17:35:09Z</time>
      </trkpt>
      <trkpt lat="45.37326" lon="4.73731">
        <ele>-500</ele>
        <time>2020-02-18T17:35:10Z</time>
      </trkpt>
      <trkpt lat="45.37333" lon="4.73743">
        <ele>-500</ele>
        <time>2020-02-18T17:35:11Z</time>
      </trkpt>
      <trkpt lat="45.37338" lon="4.73755">
        <ele>-500</ele>
        <time>2020-02-18T17:35:12Z</time>
      </trkpt>
      <trkpt lat="45.37343" lon="4.73766">
        <ele>-500</ele>
        <time>2020-02-18T17:35:13Z</time>
      </trkpt>
      <trkpt lat="45.37352" lon="4.73787">
        <ele>-500</ele>
        <time>2020-02-18T17:35:15Z</time>
      </trkpt>
      <trkpt lat="45.37358" lon="4.73805">
        <ele>-500</ele>
        <time>2020-02-18T17:35:17Z</time>
      </trkpt>
      <trkpt lat="45.37366" lon="4.73816">
        <ele>-500</ele>
        <time>2020-02-18T17:35:19Z</time>
      </trkpt>
      <trkpt lat="45.3737" lon="4.7382">
        <ele>-500</ele>
        <time>2020-02-18T17:35:20Z</time>
      </trkpt>
      <trkpt lat="45.37379" lon="4.73825">
        <ele>-500</ele>
        <time>2020-02-18T17:35:22Z</time>
      </trkpt>
      <trkpt lat="45.37402" lon="4.73835">
        <ele>-500</ele>
        <time>2020-02-18T17:35:28Z</time>
      </trkpt>
      <trkpt lat="45.37406" lon="4.73836">
        <ele>-500</ele>
        <time>2020-02-18T17:35:29Z</time>
      </trkpt>
      <trkpt lat="45.37417" lon="4.7384">
        <ele>-500</ele>
        <time>2020-02-18T17:35:32Z</time>
      </trkpt>
      <trkpt lat="45.37421" lon="4.73841">
        <ele>-500</ele>
        <time>2020-02-18T17:35:33Z</time>
      </trkpt>
      <trkpt lat="45.37458" lon="4.73857">
        <ele>-500</ele>
        <time>2020-02-18T17:35:43Z</time>
      </trkpt>
      <trkpt lat="45.37478" lon="4.73901">
        <ele>-500</ele>
        <time>2020-02-18T17:35:53Z</time>
      </trkpt>
      <trkpt lat="45.37481" lon="4.73924">
        <ele>-500</ele>
        <time>2020-02-18T17:35:56Z</time>
      </trkpt>
      <trkpt lat="45.37485" lon="4.73952">
        <ele>-500</ele>
        <time>2020-02-18T17:35:59Z</time>
      </trkpt>
      <trkpt lat="45.37487" lon="4.73971">
        <ele>-500</ele>
        <time>2020-02-18T17:36:01Z</time>
      </trkpt>
      <trkpt lat="45.37489" lon="4.73992">
        <ele>-500</ele>
        <time>2020-02-18T17:36:03Z</time>
      </trkpt>
      <trkpt lat="45.37492" lon="4.74014">
        <ele>-500</ele>
        <time>2020-02-18T17:36:05Z</time>
      </trkpt>
      <trkpt lat="45.37494" lon="4.74034">
        <ele>-500</ele>
        <time>2020-02-18T17:36:07Z</time>
      </trkpt>
      <trkpt lat="45.37494" lon="4.74052">
        <ele>-500</ele>
        <time>2020-02-18T17:36:09Z</time>
      </trkpt>
      <trkpt lat="45.37496" lon="4.7406">
        <ele>-500</ele>
        <time>2020-02-18T17:36:10Z</time>
      </trkpt>
      <trkpt lat="45.37497" lon="4.74069">
        <ele>-500</ele>
        <time>2020-02-18T17:36:11Z</time>
      </trkpt>
      <trkpt lat="45.37503" lon="4.74085">
        <ele>-500</ele>
        <time>2020-02-18T17:36:13Z</time>
      </trkpt>
      <trkpt lat="45.3751" lon="4.74101">
        <ele>-500</ele>
        <time>2020-02-18T17:36:15Z</time>
      </trkpt>
      <trkpt lat="45.37519" lon="4.74114">
        <ele>-500</ele>
        <time>2020-02-18T17:36:17Z</time>
      </trkpt>
      <trkpt lat="45.37528" lon="4.74126">
        <ele>-500</ele>
        <time>2020-02-18T17:36:19Z</time>
      </trkpt>
      <trkpt lat="45.37539" lon="4.74136">
        <ele>-500</ele>
        <time>2020-02-18T17:36:21Z</time>
      </trkpt>
      <trkpt lat="45.37551" lon="4.74142">
        <ele>-500</ele>
        <time>2020-02-18T17:36:23Z</time>
      </trkpt>
      <trkpt lat="45.37563" lon="4.74146">
        <ele>-500</ele>
        <time>2020-02-18T17:36:25Z</time>
      </trkpt>
      <trkpt lat="45.37569" lon="4.74147">
        <ele>-500</ele>
        <time>2020-02-18T17:36:26Z</time>
      </trkpt>
      <trkpt lat="45.37574" lon="4.74148">
        <ele>-500</ele>
        <time>2020-02-18T17:36:27Z</time>
      </trkpt>
      <trkpt lat="45.37588" lon="4.74153">
        <ele>-500</ele>
        <time>2020-02-18T17:36:30Z</time>
      </trkpt>
      <trkpt lat="45.37592" lon="4.74155">
        <ele>-500</ele>
        <time>2020-02-18T17:36:31Z</time>
      </trkpt>
      <trkpt lat="45.376" lon="4.7416">
        <ele>-500</ele>
        <time>2020-02-18T17:36:33Z</time>
      </trkpt>
      <trkpt lat="45.37605" lon="4.74161">
        <ele>-500</ele>
        <time>2020-02-18T17:36:34Z</time>
      </trkpt>
      <trkpt lat="45.37614" lon="4.74163">
        <ele>-500</ele>
        <time>2020-02-18T17:36:36Z</time>
      </trkpt>
      <trkpt lat="45.37624" lon="4.74168">
        <ele>-500</ele>
        <time>2020-02-18T17:36:38Z</time>
      </trkpt>
      <trkpt lat="45.37635" lon="4.7417">
        <ele>-500</ele>
        <time>2020-02-18T17:36:40Z</time>
      </trkpt>
      <trkpt lat="45.37641" lon="4.74169">
        <ele>-500</ele>
        <time>2020-02-18T17:36:41Z</time>
      </trkpt>
      <trkpt lat="45.37652" lon="4.74167">
        <ele>-500</ele>
        <time>2020-02-18T17:36:43Z</time>
      </trkpt>
      <trkpt lat="45.37658" lon="4.74165">
        <ele>-500</ele>
        <time>2020-02-18T17:36:44Z</time>
      </trkpt>
      <trkpt lat="45.37663" lon="4.74163">
        <ele>-500</ele>
        <time>2020-02-18T17:36:45Z</time>
      </trkpt>
      <trkpt lat="45.37667" lon="4.74161">
        <ele>-500</ele>
        <time>2020-02-18T17:36:46Z</time>
      </trkpt>
      <trkpt lat="45.37672" lon="4.7416">
        <ele>-500</ele>
        <time>2020-02-18T17:36:47Z</time>
      </trkpt>
      <trkpt lat="45.37678" lon="4.7416">
        <ele>-500</ele>
        <time>2020-02-18T17:36:48Z</time>
      </trkpt>
      <trkpt lat="45.37683" lon="4.74161">
        <ele>-500</ele>
        <time>2020-02-18T17:36:49Z</time>
      </trkpt>
      <trkpt lat="45.37689" lon="4.7416">
        <ele>-500</ele>
        <time>2020-02-18T17:36:50Z</time>
      </trkpt>
      <trkpt lat="45.37699" lon="4.7416">
        <ele>-500</ele>
        <time>2020-02-18T17:36:52Z</time>
      </trkpt>
      <trkpt lat="45.37703" lon="4.74158">
        <ele>-500</ele>
        <time>2020-02-18T17:36:53Z</time>
      </trkpt>
      <trkpt lat="45.37707" lon="4.74157">
        <ele>-500</ele>
        <time>2020-02-18T17:36:54Z</time>
      </trkpt>
      <trkpt lat="45.37711" lon="4.74157">
        <ele>-500</ele>
        <time>2020-02-18T17:36:55Z</time>
      </trkpt>
      <trkpt lat="45.37715" lon="4.74157">
        <ele>-500</ele>
        <time>2020-02-18T17:36:56Z</time>
      </trkpt>
      <trkpt lat="45.37719" lon="4.74158">
        <ele>-500</ele>
        <time>2020-02-18T17:36:57Z</time>
      </trkpt>
      <trkpt lat="45.37723" lon="4.7416">
        <ele>-500</ele>
        <time>2020-02-18T17:36:58Z</time>
      </trkpt>
      <trkpt lat="45.37733" lon="4.74163">
        <ele>-500</ele>
        <time>2020-02-18T17:37:00Z</time>
      </trkpt>
      <trkpt lat="45.37738" lon="4.74165">
        <ele>-500</ele>
        <time>2020-02-18T17:37:01Z</time>
      </trkpt>
      <trkpt lat="45.37748" lon="4.74172">
        <ele>-500</ele>
        <time>2020-02-18T17:37:03Z</time>
      </trkpt>
      <trkpt lat="45.37752" lon="4.74175">
        <ele>-500</ele>
        <time>2020-02-18T17:37:04Z</time>
      </trkpt>
      <trkpt lat="45.37757" lon="4.74177">
        <ele>-500</ele>
        <time>2020-02-18T17:37:05Z</time>
      </trkpt>
      <trkpt lat="45.37762" lon="4.74177">
        <ele>-500</ele>
        <time>2020-02-18T17:37:06Z</time>
      </trkpt>
      <trkpt lat="45.37766" lon="4.74176">
        <ele>-500</ele>
        <time>2020-02-18T17:37:07Z</time>
      </trkpt>
      <trkpt lat="45.3777" lon="4.74175">
        <ele>-500</ele>
        <time>2020-02-18T17:37:08Z</time>
      </trkpt>
      <trkpt lat="45.37773" lon="4.74174">
        <ele>-500</ele>
        <time>2020-02-18T17:37:09Z</time>
      </trkpt>
      <trkpt lat="45.37777" lon="4.74173">
        <ele>-500</ele>
        <time>2020-02-18T17:37:10Z</time>
      </trkpt>
      <trkpt lat="45.37781" lon="4.74172">
        <ele>-500</ele>
        <time>2020-02-18T17:37:11Z</time>
      </trkpt>
      <trkpt lat="45.37786" lon="4.74173">
        <ele>-500</ele>
        <time>2020-02-18T17:37:12Z</time>
      </trkpt>
      <trkpt lat="45.37791" lon="4.74172">
        <ele>-500</ele>
        <time>2020-02-18T17:37:13Z</time>
      </trkpt>
      <trkpt lat="45.37797" lon="4.74173">
        <ele>-500</ele>
        <time>2020-02-18T17:37:14Z</time>
      </trkpt>
      <trkpt lat="45.37802" lon="4.74174">
        <ele>-500</ele>
        <time>2020-02-18T17:37:15Z</time>
      </trkpt>
      <trkpt lat="45.37807" lon="4.74175">
        <ele>-500</ele>
        <time>2020-02-18T17:37:16Z</time>
      </trkpt>
      <trkpt lat="45.37813" lon="4.74176">
        <ele>-500</ele>
        <time>2020-02-18T17:37:17Z</time>
      </trkpt>
      <trkpt lat="45.37818" lon="4.74177">
        <ele>-500</ele>
        <time>2020-02-18T17:37:18Z</time>
      </trkpt>
      <trkpt lat="45.37823" lon="4.7418">
        <ele>-500</ele>
        <time>2020-02-18T17:37:19Z</time>
      </trkpt>
      <trkpt lat="45.37828" lon="4.74182">
        <ele>-500</ele>
        <time>2020-02-18T17:37:20Z</time>
      </trkpt>
      <trkpt lat="45.37833" lon="4.74184">
        <ele>-500</ele>
        <time>2020-02-18T17:37:21Z</time>
      </trkpt>
      <trkpt lat="45.37838" lon="4.74186">
        <ele>-500</ele>
        <time>2020-02-18T17:37:22Z</time>
      </trkpt>
      <trkpt lat="45.37842" lon="4.74188">
        <ele>-500</ele>
        <time>2020-02-18T17:37:23Z</time>
      </trkpt>
      <trkpt lat="45.37847" lon="4.7419">
        <ele>-500</ele>
        <time>2020-02-18T17:37:24Z</time>
      </trkpt>
      <trkpt lat="45.3785" lon="4.74192">
        <ele>-500</ele>
        <time>2020-02-18T17:37:25Z</time>
      </trkpt>
      <trkpt lat="45.37854" lon="4.74196">
        <ele>-500</ele>
        <time>2020-02-18T17:37:26Z</time>
      </trkpt>
      <trkpt lat="45.37857" lon="4.742">
        <ele>-500</ele>
        <time>2020-02-18T17:37:27Z</time>
      </trkpt>
      <trkpt lat="45.37859" lon="4.74206">
        <ele>-500</ele>
        <time>2020-02-18T17:37:28Z</time>
      </trkpt>
      <trkpt lat="45.37862" lon="4.74211">
        <ele>-500</ele>
        <time>2020-02-18T17:37:29Z</time>
      </trkpt>
      <trkpt lat="45.37863" lon="4.74217">
        <ele>-500</ele>
        <time>2020-02-18T17:37:30Z</time>
      </trkpt>
      <trkpt lat="45.37864" lon="4.74224">
        <ele>-500</ele>
        <time>2020-02-18T17:37:31Z</time>
      </trkpt>
      <trkpt lat="45.37864" lon="4.74231">
        <ele>-500</ele>
        <time>2020-02-18T17:37:32Z</time>
      </trkpt>
      <trkpt lat="45.37864" lon="4.74239">
        <ele>-500</ele>
        <time>2020-02-18T17:37:33Z</time>
      </trkpt>
      <trkpt lat="45.37863" lon="4.74247">
        <ele>-500</ele>
        <time>2020-02-18T17:37:34Z</time>
      </trkpt>
      <trkpt lat="45.37861" lon="4.74256">
        <ele>-500</ele>
        <time>2020-02-18T17:37:35Z</time>
      </trkpt>
      <trkpt lat="45.3786" lon="4.74264">
        <ele>-500</ele>
        <time>2020-02-18T17:37:36Z</time>
      </trkpt>
      <trkpt lat="45.37859" lon="4.74272">
        <ele>-500</ele>
        <time>2020-02-18T17:37:37Z</time>
      </trkpt>
      <trkpt lat="45.37858" lon="4.74279">
        <ele>-500</ele>
        <time>2020-02-18T17:37:38Z</time>
      </trkpt>
      <trkpt lat="45.37858" lon="4.74287">
        <ele>-500</ele>
        <time>2020-02-18T17:37:39Z</time>
      </trkpt>
      <trkpt lat="45.37859" lon="4.74294">
        <ele>-500</ele>
        <time>2020-02-18T17:37:40Z</time>
      </trkpt>
      <trkpt lat="45.37861" lon="4.743">
        <ele>-500</ele>
        <time>2020-02-18T17:37:41Z</time>
      </trkpt>
      <trkpt lat="45.37863" lon="4.74308">
        <ele>-500</ele>
        <time>2020-02-18T17:37:42Z</time>
      </trkpt>
      <trkpt lat="45.37865" lon="4.74316">
        <ele>-500</ele>
        <time>2020-02-18T17:37:43Z</time>
      </trkpt>
      <trkpt lat="45.37866" lon="4.74324">
        <ele>-500</ele>
        <time>2020-02-18T17:37:44Z</time>
      </trkpt>
      <trkpt lat="45.37868" lon="4.74331">
        <ele>-500</ele>
        <time>2020-02-18T17:37:45Z</time>
      </trkpt>
      <trkpt lat="45.3787" lon="4.74338">
        <ele>-500</ele>
        <time>2020-02-18T17:37:46Z</time>
      </trkpt>
      <trkpt lat="45.37871" lon="4.74343">
        <ele>-500</ele>
        <time>2020-02-18T17:37:47Z</time>
      </trkpt>
      <trkpt lat="45.37873" lon="4.74347">
        <ele>-500</ele>
        <time>2020-02-18T17:37:48Z</time>
      </trkpt>
      <trkpt lat="45.37873" lon="4.7435">
        <ele>-500</ele>
        <time>2020-02-18T17:37:49Z</time>
      </trkpt>
      <trkpt lat="45.37873" lon="4.74354">
        <ele>-500</ele>
        <time>2020-02-18T17:37:50Z</time>
      </trkpt>
      <trkpt lat="45.37871" lon="4.74357">
        <ele>-500</ele>
        <time>2020-02-18T17:37:51Z</time>
      </trkpt>
      <trkpt lat="45.37871" lon="4.7436">
        <ele>-500</ele>
        <time>2020-02-18T17:37:52Z</time>
      </trkpt>
      <trkpt lat="45.37871" lon="4.74363">
        <ele>-500</ele>
        <time>2020-02-18T17:37:53Z</time>
      </trkpt>
      <trkpt lat="45.37872" lon="4.74365">
        <ele>-500</ele>
        <time>2020-02-18T17:37:54Z</time>
      </trkpt>
      <trkpt lat="45.37882" lon="4.74361">
        <ele>-500</ele>
        <time>2020-02-18T17:37:59Z</time>
      </trkpt>
      <trkpt lat="45.37888" lon="4.74358">
        <ele>-500</ele>
        <time>2020-02-18T17:38:01Z</time>
      </trkpt>
      <trkpt lat="45.37894" lon="4.74352">
        <ele>-500</ele>
        <time>2020-02-18T17:38:03Z</time>
      </trkpt>
      <trkpt lat="45.37899" lon="4.74348">
        <ele>-500</ele>
        <time>2020-02-18T17:38:05Z</time>
      </trkpt>
      <trkpt lat="45.37902" lon="4.74348">
        <ele>-500</ele>
        <time>2020-02-18T17:38:07Z</time>
      </trkpt>
      <trkpt lat="45.37905" lon="4.74352">
        <ele>-500</ele>
        <time>2020-02-18T17:38:09Z</time>
      </trkpt>
      <trkpt lat="45.37908" lon="4.74363">
        <ele>-500</ele>
        <time>2020-02-18T17:38:13Z</time>
      </trkpt>
      <trkpt lat="45.3791" lon="4.74364">
        <ele>-500</ele>
        <time>2020-02-18T17:38:16Z</time>
      </trkpt>
      <trkpt lat="45.3791" lon="4.7436">
        <ele>-500</ele>
        <time>2020-02-18T17:38:18Z</time>
      </trkpt>
      <trkpt lat="45.37904" lon="4.7435">
        <ele>-500</ele>
        <time>2020-02-18T17:38:23Z</time>
      </trkpt>
      <trkpt lat="45.37903" lon="4.74348">
        <ele>-500</ele>
        <time>2020-02-18T17:38:24Z</time>
      </trkpt>
      <trkpt lat="45.37915" lon="4.7433">
        <ele>-500</ele>
        <time>2020-02-18T17:38:29Z</time>
      </trkpt>
      <trkpt lat="45.37924" lon="4.74324">
        <ele>-500</ele>
        <time>2020-02-18T17:38:31Z</time>
      </trkpt>
      <trkpt lat="45.3793" lon="4.74322">
        <ele>-500</ele>
        <time>2020-02-18T17:38:32Z</time>
      </trkpt>
      <trkpt lat="45.37935" lon="4.74321">
        <ele>-500</ele>
        <time>2020-02-18T17:38:33Z</time>
      </trkpt>
      <trkpt lat="45.37946" lon="4.74317">
        <ele>-500</ele>
        <time>2020-02-18T17:38:35Z</time>
      </trkpt>
      <trkpt lat="45.37952" lon="4.74314">
        <ele>-500</ele>
        <time>2020-02-18T17:38:36Z</time>
      </trkpt>
      <trkpt lat="45.37957" lon="4.7431">
        <ele>-500</ele>
        <time>2020-02-18T17:38:37Z</time>
      </trkpt>
      <trkpt lat="45.37963" lon="4.74305">
        <ele>-500</ele>
        <time>2020-02-18T17:38:38Z</time>
      </trkpt>
      <trkpt lat="45.37967" lon="4.74299">
        <ele>-500</ele>
        <time>2020-02-18T17:38:39Z</time>
      </trkpt>
      <trkpt lat="45.37971" lon="4.74292">
        <ele>-500</ele>
        <time>2020-02-18T17:38:40Z</time>
      </trkpt>
      <trkpt lat="45.37974" lon="4.74286">
        <ele>-500</ele>
        <time>2020-02-18T17:38:41Z</time>
      </trkpt>
      <trkpt lat="45.37977" lon="4.74281">
        <ele>-500</ele>
        <time>2020-02-18T17:38:42Z</time>
      </trkpt>
      <trkpt lat="45.37981" lon="4.74277">
        <ele>-500</ele>
        <time>2020-02-18T17:38:43Z</time>
      </trkpt>
      <trkpt lat="45.37986" lon="4.74276">
        <ele>-500</ele>
        <time>2020-02-18T17:38:44Z</time>
      </trkpt>
      <trkpt lat="45.37992" lon="4.74278">
        <ele>-500</ele>
        <time>2020-02-18T17:38:45Z</time>
      </trkpt>
      <trkpt lat="45.37998" lon="4.74281">
        <ele>-500</ele>
        <time>2020-02-18T17:38:46Z</time>
      </trkpt>
      <trkpt lat="45.38005" lon="4.74287">
        <ele>-500</ele>
        <time>2020-02-18T17:38:47Z</time>
      </trkpt>
      <trkpt lat="45.3801" lon="4.74295">
        <ele>-500</ele>
        <time>2020-02-18T17:38:48Z</time>
      </trkpt>
      <trkpt lat="45.38015" lon="4.74304">
        <ele>-500</ele>
        <time>2020-02-18T17:38:49Z</time>
      </trkpt>
      <trkpt lat="45.38019" lon="4.74312">
        <ele>-500</ele>
        <time>2020-02-18T17:38:50Z</time>
      </trkpt>
      <trkpt lat="45.38025" lon="4.74319">
        <ele>-500</ele>
        <time>2020-02-18T17:38:51Z</time>
      </trkpt>
      <trkpt lat="45.3803" lon="4.74323">
        <ele>-500</ele>
        <time>2020-02-18T17:38:52Z</time>
      </trkpt>
      <trkpt lat="45.38034" lon="4.74325">
        <ele>-500</ele>
        <time>2020-02-18T17:38:53Z</time>
      </trkpt>
      <trkpt lat="45.38038" lon="4.74328">
        <ele>-500</ele>
        <time>2020-02-18T17:38:54Z</time>
      </trkpt>
      <trkpt lat="45.38039" lon="4.74333">
        <ele>-500</ele>
        <time>2020-02-18T17:38:55Z</time>
      </trkpt>
      <trkpt lat="45.38041" lon="4.74338">
        <ele>-500</ele>
        <time>2020-02-18T17:38:56Z</time>
      </trkpt>
      <trkpt lat="45.38042" lon="4.74342">
        <ele>-500</ele>
        <time>2020-02-18T17:38:57Z</time>
      </trkpt>
      <trkpt lat="45.38046" lon="4.74348">
        <ele>-500</ele>
        <time>2020-02-18T17:38:59Z</time>
      </trkpt>
      <trkpt lat="45.38053" lon="4.74346">
        <ele>-500</ele>
        <time>2020-02-18T17:39:01Z</time>
      </trkpt>
      <trkpt lat="45.3806" lon="4.74346">
        <ele>-500</ele>
        <time>2020-02-18T17:39:03Z</time>
      </trkpt>
      <trkpt lat="45.38068" lon="4.74354">
        <ele>-500</ele>
        <time>2020-02-18T17:39:05Z</time>
      </trkpt>
      <trkpt lat="45.38081" lon="4.74372">
        <ele>-500</ele>
        <time>2020-02-18T17:39:08Z</time>
      </trkpt>
      <trkpt lat="45.38097" lon="4.74391">
        <ele>-500</ele>
        <time>2020-02-18T17:39:11Z</time>
      </trkpt>
      <trkpt lat="45.38108" lon="4.74404">
        <ele>-500</ele>
        <time>2020-02-18T17:39:13Z</time>
      </trkpt>
      <trkpt lat="45.3812" lon="4.74418">
        <ele>-500</ele>
        <time>2020-02-18T17:39:15Z</time>
      </trkpt>
      <trkpt lat="45.38132" lon="4.74432">
        <ele>-500</ele>
        <time>2020-02-18T17:39:17Z</time>
      </trkpt>
      <trkpt lat="45.38137" lon="4.7444">
        <ele>-500</ele>
        <time>2020-02-18T17:39:18Z</time>
      </trkpt>
      <trkpt lat="45.38142" lon="4.74448">
        <ele>-500</ele>
        <time>2020-02-18T17:39:19Z</time>
      </trkpt>
      <trkpt lat="45.38147" lon="4.74457">
        <ele>-500</ele>
        <time>2020-02-18T17:39:20Z</time>
      </trkpt>
      <trkpt lat="45.38155" lon="4.74474">
        <ele>-500</ele>
        <time>2020-02-18T17:39:22Z</time>
      </trkpt>
      <trkpt lat="45.38158" lon="4.74482">
        <ele>-500</ele>
        <time>2020-02-18T17:39:23Z</time>
      </trkpt>
      <trkpt lat="45.38162" lon="4.74489">
        <ele>-500</ele>
        <time>2020-02-18T17:39:24Z</time>
      </trkpt>
      <trkpt lat="45.38165" lon="4.74496">
        <ele>-500</ele>
        <time>2020-02-18T17:39:25Z</time>
      </trkpt>
      <trkpt lat="45.38169" lon="4.74503">
        <ele>-500</ele>
        <time>2020-02-18T17:39:26Z</time>
      </trkpt>
      <trkpt lat="45.38175" lon="4.74518">
        <ele>-500</ele>
        <time>2020-02-18T17:39:28Z</time>
      </trkpt>
      <trkpt lat="45.38181" lon="4.74532">
        <ele>-500</ele>
        <time>2020-02-18T17:39:30Z</time>
      </trkpt>
      <trkpt lat="45.38186" lon="4.74543">
        <ele>-500</ele>
        <time>2020-02-18T17:39:32Z</time>
      </trkpt>
      <trkpt lat="45.38188" lon="4.74548">
        <ele>-500</ele>
        <time>2020-02-18T17:39:33Z</time>
      </trkpt>
      <trkpt lat="45.3819" lon="4.74552">
        <ele>-500</ele>
        <time>2020-02-18T17:39:34Z</time>
      </trkpt>
      <trkpt lat="45.38192" lon="4.74555">
        <ele>-500</ele>
        <time>2020-02-18T17:39:35Z</time>
      </trkpt>
      <trkpt lat="45.38193" lon="4.74559">
        <ele>-500</ele>
        <time>2020-02-18T17:39:36Z</time>
      </trkpt>
      <trkpt lat="45.38196" lon="4.74566">
        <ele>-500</ele>
        <time>2020-02-18T17:39:38Z</time>
      </trkpt>
      <trkpt lat="45.38197" lon="4.74571">
        <ele>-500</ele>
        <time>2020-02-18T17:39:39Z</time>
      </trkpt>
      <trkpt lat="45.382" lon="4.74581">
        <ele>-500</ele>
        <time>2020-02-18T17:39:41Z</time>
      </trkpt>
      <trkpt lat="45.38204" lon="4.74591">
        <ele>-500</ele>
        <time>2020-02-18T17:39:43Z</time>
      </trkpt>
      <trkpt lat="45.38207" lon="4.74595">
        <ele>-500</ele>
        <time>2020-02-18T17:39:44Z</time>
      </trkpt>
      <trkpt lat="45.38209" lon="4.74597">
        <ele>-500</ele>
        <time>2020-02-18T17:39:45Z</time>
      </trkpt>
      <trkpt lat="45.38212" lon="4.74598">
        <ele>-500</ele>
        <time>2020-02-18T17:39:46Z</time>
      </trkpt>
      <trkpt lat="45.38218" lon="4.74595">
        <ele>-500</ele>
        <time>2020-02-18T17:39:48Z</time>
      </trkpt>
      <trkpt lat="45.38225" lon="4.7459">
        <ele>-500</ele>
        <time>2020-02-18T17:39:50Z</time>
      </trkpt>
      <trkpt lat="45.38234" lon="4.74579">
        <ele>-500</ele>
        <time>2020-02-18T17:39:53Z</time>
      </trkpt>
      <trkpt lat="45.38237" lon="4.74575">
        <ele>-500</ele>
        <time>2020-02-18T17:39:54Z</time>
      </trkpt>
      <trkpt lat="45.38243" lon="4.74567">
        <ele>-500</ele>
        <time>2020-02-18T17:39:56Z</time>
      </trkpt>
      <trkpt lat="45.38254" lon="4.74557">
        <ele>-500</ele>
        <time>2020-02-18T17:39:59Z</time>
      </trkpt>
      <trkpt lat="45.38259" lon="4.74553">
        <ele>-500</ele>
        <time>2020-02-18T17:40:01Z</time>
      </trkpt>
      <trkpt lat="45.38265" lon="4.74557">
        <ele>-500</ele>
        <time>2020-02-18T17:40:03Z</time>
      </trkpt>
      <trkpt lat="45.38269" lon="4.74567">
        <ele>-500</ele>
        <time>2020-02-18T17:40:05Z</time>
      </trkpt>
      <trkpt lat="45.38277" lon="4.74583">
        <ele>-500</ele>
        <time>2020-02-18T17:40:08Z</time>
      </trkpt>
      <trkpt lat="45.38281" lon="4.74588">
        <ele>-500</ele>
        <time>2020-02-18T17:40:09Z</time>
      </trkpt>
      <trkpt lat="45.38289" lon="4.746">
        <ele>-500</ele>
        <time>2020-02-18T17:40:11Z</time>
      </trkpt>
      <trkpt lat="45.38293" lon="4.74606">
        <ele>-500</ele>
        <time>2020-02-18T17:40:12Z</time>
      </trkpt>
      <trkpt lat="45.38299" lon="4.74612">
        <ele>-500</ele>
        <time>2020-02-18T17:40:13Z</time>
      </trkpt>
      <trkpt lat="45.38305" lon="4.74617">
        <ele>-500</ele>
        <time>2020-02-18T17:40:14Z</time>
      </trkpt>
      <trkpt lat="45.38317" lon="4.74626">
        <ele>-500</ele>
        <time>2020-02-18T17:40:16Z</time>
      </trkpt>
      <trkpt lat="45.38329" lon="4.74635">
        <ele>-500</ele>
        <time>2020-02-18T17:40:18Z</time>
      </trkpt>
      <trkpt lat="45.38338" lon="4.74641">
        <ele>-500</ele>
        <time>2020-02-18T17:40:20Z</time>
      </trkpt>
      <trkpt lat="45.38343" lon="4.74644">
        <ele>-500</ele>
        <time>2020-02-18T17:40:21Z</time>
      </trkpt>
      <trkpt lat="45.38348" lon="4.74645">
        <ele>-500</ele>
        <time>2020-02-18T17:40:22Z</time>
      </trkpt>
      <trkpt lat="45.38352" lon="4.74646">
        <ele>-500</ele>
        <time>2020-02-18T17:40:23Z</time>
      </trkpt>
      <trkpt lat="45.38359" lon="4.74651">
        <ele>-500</ele>
        <time>2020-02-18T17:40:25Z</time>
      </trkpt>
      <trkpt lat="45.3837" lon="4.74662">
        <ele>-500</ele>
        <time>2020-02-18T17:40:28Z</time>
      </trkpt>
      <trkpt lat="45.38383" lon="4.74678">
        <ele>-500</ele>
        <time>2020-02-18T17:40:31Z</time>
      </trkpt>
      <trkpt lat="45.38386" lon="4.74685">
        <ele>-500</ele>
        <time>2020-02-18T17:40:32Z</time>
      </trkpt>
      <trkpt lat="45.3839" lon="4.7469">
        <ele>-500</ele>
        <time>2020-02-18T17:40:33Z</time>
      </trkpt>
      <trkpt lat="45.38394" lon="4.74695">
        <ele>-500</ele>
        <time>2020-02-18T17:40:34Z</time>
      </trkpt>
      <trkpt lat="45.38398" lon="4.74699">
        <ele>-500</ele>
        <time>2020-02-18T17:40:35Z</time>
      </trkpt>
      <trkpt lat="45.38403" lon="4.74703">
        <ele>-500</ele>
        <time>2020-02-18T17:40:36Z</time>
      </trkpt>
      <trkpt lat="45.38408" lon="4.74708">
        <ele>-500</ele>
        <time>2020-02-18T17:40:37Z</time>
      </trkpt>
      <trkpt lat="45.38413" lon="4.74713">
        <ele>-500</ele>
        <time>2020-02-18T17:40:38Z</time>
      </trkpt>
      <trkpt lat="45.38418" lon="4.74717">
        <ele>-500</ele>
        <time>2020-02-18T17:40:39Z</time>
      </trkpt>
      <trkpt lat="45.38422" lon="4.74721">
        <ele>-500</ele>
        <time>2020-02-18T17:40:40Z</time>
      </trkpt>
      <trkpt lat="45.38426" lon="4.74726">
        <ele>-500</ele>
        <time>2020-02-18T17:40:41Z</time>
      </trkpt>
      <trkpt lat="45.3843" lon="4.74729">
        <ele>-500</ele>
        <time>2020-02-18T17:40:42Z</time>
      </trkpt>
      <trkpt lat="45.38435" lon="4.74731">
        <ele>-500</ele>
        <time>2020-02-18T17:40:43Z</time>
      </trkpt>
      <trkpt lat="45.3844" lon="4.74731">
        <ele>-500</ele>
        <time>2020-02-18T17:40:44Z</time>
      </trkpt>
      <trkpt lat="45.38445" lon="4.74731">
        <ele>-500</ele>
        <time>2020-02-18T17:40:45Z</time>
      </trkpt>
      <trkpt lat="45.38449" lon="4.74732">
        <ele>-500</ele>
        <time>2020-02-18T17:40:46Z</time>
      </trkpt>
      <trkpt lat="45.38459" lon="4.74732">
        <ele>-500</ele>
        <time>2020-02-18T17:40:48Z</time>
      </trkpt>
      <trkpt lat="45.38464" lon="4.74732">
        <ele>-500</ele>
        <time>2020-02-18T17:40:49Z</time>
      </trkpt>
      <trkpt lat="45.38469" lon="4.74737">
        <ele>-500</ele>
        <time>2020-02-18T17:40:51Z</time>
      </trkpt>
      <trkpt lat="45.38472" lon="4.74745">
        <ele>-500</ele>
        <time>2020-02-18T17:40:53Z</time>
      </trkpt>
      <trkpt lat="45.38479" lon="4.74757">
        <ele>-500</ele>
        <time>2020-02-18T17:40:56Z</time>
      </trkpt>
      <trkpt lat="45.38492" lon="4.74765">
        <ele>-500</ele>
        <time>2020-02-18T17:40:59Z</time>
      </trkpt>
      <trkpt lat="45.38496" lon="4.74767">
        <ele>-500</ele>
        <time>2020-02-18T17:41:00Z</time>
      </trkpt>
      <trkpt lat="45.38501" lon="4.7477">
        <ele>-500</ele>
        <time>2020-02-18T17:41:01Z</time>
      </trkpt>
      <trkpt lat="45.38505" lon="4.74771">
        <ele>-500</ele>
        <time>2020-02-18T17:41:02Z</time>
      </trkpt>
      <trkpt lat="45.3851" lon="4.74771">
        <ele>-500</ele>
        <time>2020-02-18T17:41:03Z</time>
      </trkpt>
      <trkpt lat="45.38519" lon="4.74773">
        <ele>-500</ele>
        <time>2020-02-18T17:41:05Z</time>
      </trkpt>
      <trkpt lat="45.38542" lon="4.74775">
        <ele>-500</ele>
        <time>2020-02-18T17:41:09Z</time>
      </trkpt>
      <trkpt lat="45.38557" lon="4.74777">
        <ele>-500</ele>
        <time>2020-02-18T17:41:11Z</time>
      </trkpt>
      <trkpt lat="45.38572" lon="4.74779">
        <ele>-500</ele>
        <time>2020-02-18T17:41:13Z</time>
      </trkpt>
      <trkpt lat="45.38588" lon="4.74782">
        <ele>-500</ele>
        <time>2020-02-18T17:41:15Z</time>
      </trkpt>
      <trkpt lat="45.38603" lon="4.74787">
        <ele>-500</ele>
        <time>2020-02-18T17:41:17Z</time>
      </trkpt>
      <trkpt lat="45.3861" lon="4.74791">
        <ele>-500</ele>
        <time>2020-02-18T17:41:18Z</time>
      </trkpt>
      <trkpt lat="45.38616" lon="4.74796">
        <ele>-500</ele>
        <time>2020-02-18T17:41:19Z</time>
      </trkpt>
      <trkpt lat="45.38621" lon="4.74801">
        <ele>-500</ele>
        <time>2020-02-18T17:41:20Z</time>
      </trkpt>
      <trkpt lat="45.38627" lon="4.74806">
        <ele>-500</ele>
        <time>2020-02-18T17:41:21Z</time>
      </trkpt>
      <trkpt lat="45.38641" lon="4.74809">
        <ele>-500</ele>
        <time>2020-02-18T17:41:23Z</time>
      </trkpt>
      <trkpt lat="45.38655" lon="4.74806">
        <ele>-500</ele>
        <time>2020-02-18T17:41:25Z</time>
      </trkpt>
      <trkpt lat="45.38676" lon="4.748">
        <ele>-500</ele>
        <time>2020-02-18T17:41:28Z</time>
      </trkpt>
      <trkpt lat="45.38707" lon="4.74791">
        <ele>-500</ele>
        <time>2020-02-18T17:41:33Z</time>
      </trkpt>
      <trkpt lat="45.38713" lon="4.74789">
        <ele>-500</ele>
        <time>2020-02-18T17:41:34Z</time>
      </trkpt>
      <trkpt lat="45.38762" lon="4.74761">
        <ele>-500</ele>
        <time>2020-02-18T17:41:43Z</time>
      </trkpt>
      <trkpt lat="45.388" lon="4.74736">
        <ele>-500</ele>
        <time>2020-02-18T17:41:51Z</time>
      </trkpt>
      <trkpt lat="45.3881" lon="4.74732">
        <ele>-500</ele>
        <time>2020-02-18T17:41:53Z</time>
      </trkpt>
      <trkpt lat="45.38837" lon="4.74724">
        <ele>-500</ele>
        <time>2020-02-18T17:41:59Z</time>
      </trkpt>
      <trkpt lat="45.3885" lon="4.7472">
        <ele>-500</ele>
        <time>2020-02-18T17:42:02Z</time>
      </trkpt>
      <trkpt lat="45.38854" lon="4.7472">
        <ele>-500</ele>
        <time>2020-02-18T17:42:03Z</time>
      </trkpt>
      <trkpt lat="45.38858" lon="4.74721">
        <ele>-500</ele>
        <time>2020-02-18T17:42:04Z</time>
      </trkpt>
      <trkpt lat="45.38867" lon="4.74726">
        <ele>-500</ele>
        <time>2020-02-18T17:42:06Z</time>
      </trkpt>
      <trkpt lat="45.38887" lon="4.74746">
        <ele>-500</ele>
        <time>2020-02-18T17:42:11Z</time>
      </trkpt>
      <trkpt lat="45.38895" lon="4.74749">
        <ele>-500</ele>
        <time>2020-02-18T17:42:13Z</time>
      </trkpt>
      <trkpt lat="45.38904" lon="4.7475">
        <ele>-500</ele>
        <time>2020-02-18T17:42:15Z</time>
      </trkpt>
      <trkpt lat="45.38913" lon="4.74755">
        <ele>-500</ele>
        <time>2020-02-18T17:42:17Z</time>
      </trkpt>
      <trkpt lat="45.3894" lon="4.74796">
        <ele>-500</ele>
        <time>2020-02-18T17:42:23Z</time>
      </trkpt>
      <trkpt lat="45.38949" lon="4.7481">
        <ele>-500</ele>
        <time>2020-02-18T17:42:25Z</time>
      </trkpt>
      <trkpt lat="45.38971" lon="4.74845">
        <ele>-500</ele>
        <time>2020-02-18T17:42:30Z</time>
      </trkpt>
      <trkpt lat="45.38984" lon="4.74865">
        <ele>-500</ele>
        <time>2020-02-18T17:42:33Z</time>
      </trkpt>
      <trkpt lat="45.39001" lon="4.74891">
        <ele>-500</ele>
        <time>2020-02-18T17:42:37Z</time>
      </trkpt>
      <trkpt lat="45.39021" lon="4.74921">
        <ele>-500</ele>
        <time>2020-02-18T17:42:42Z</time>
      </trkpt>
      <trkpt lat="45.39026" lon="4.74926">
        <ele>-500</ele>
        <time>2020-02-18T17:42:43Z</time>
      </trkpt>
      <trkpt lat="45.39031" lon="4.74929">
        <ele>-500</ele>
        <time>2020-02-18T17:42:44Z</time>
      </trkpt>
      <trkpt lat="45.39073" lon="4.7494">
        <ele>-500</ele>
        <time>2020-02-18T17:42:51Z</time>
      </trkpt>
      <trkpt lat="45.39079" lon="4.74941">
        <ele>-500</ele>
        <time>2020-02-18T17:42:52Z</time>
      </trkpt>
      <trkpt lat="45.39085" lon="4.74943">
        <ele>-500</ele>
        <time>2020-02-18T17:42:53Z</time>
      </trkpt>
      <trkpt lat="45.39141" lon="4.74951">
        <ele>-500</ele>
        <time>2020-02-18T17:43:02Z</time>
      </trkpt>
      <trkpt lat="45.39147" lon="4.74953">
        <ele>-500</ele>
        <time>2020-02-18T17:43:03Z</time>
      </trkpt>
      <trkpt lat="45.39204" lon="4.74961">
        <ele>-500</ele>
        <time>2020-02-18T17:43:13Z</time>
      </trkpt>
      <trkpt lat="45.39262" lon="4.74971">
        <ele>-500</ele>
        <time>2020-02-18T17:43:23Z</time>
      </trkpt>
      <trkpt lat="45.39273" lon="4.74973">
        <ele>-500</ele>
        <time>2020-02-18T17:43:25Z</time>
      </trkpt>
      <trkpt lat="45.39319" lon="4.74976">
        <ele>-500</ele>
        <time>2020-02-18T17:43:33Z</time>
      </trkpt>
      <trkpt lat="45.39352" lon="4.74977">
        <ele>-500</ele>
        <time>2020-02-18T17:43:39Z</time>
      </trkpt>
      <trkpt lat="45.39374" lon="4.74978">
        <ele>-500</ele>
        <time>2020-02-18T17:43:43Z</time>
      </trkpt>
      <trkpt lat="45.39406" lon="4.74979">
        <ele>-500</ele>
        <time>2020-02-18T17:43:49Z</time>
      </trkpt>
      <trkpt lat="45.39427" lon="4.7498">
        <ele>-500</ele>
        <time>2020-02-18T17:43:53Z</time>
      </trkpt>
      <trkpt lat="45.39468" lon="4.74981">
        <ele>-500</ele>
        <time>2020-02-18T17:44:01Z</time>
      </trkpt>
      <trkpt lat="45.39478" lon="4.74981">
        <ele>-500</ele>
        <time>2020-02-18T17:44:03Z</time>
      </trkpt>
      <trkpt lat="45.39518" lon="4.74986">
        <ele>-500</ele>
        <time>2020-02-18T17:44:11Z</time>
      </trkpt>
      <trkpt lat="45.39528" lon="4.74989">
        <ele>-500</ele>
        <time>2020-02-18T17:44:13Z</time>
      </trkpt>
      <trkpt lat="45.39558" lon="4.74996">
        <ele>-500</ele>
        <time>2020-02-18T17:44:19Z</time>
      </trkpt>
      <trkpt lat="45.39571" lon="4.75003">
        <ele>-500</ele>
        <time>2020-02-18T17:44:22Z</time>
      </trkpt>
      <trkpt lat="45.39574" lon="4.75006">
        <ele>-500</ele>
        <time>2020-02-18T17:44:23Z</time>
      </trkpt>
      <trkpt lat="45.39579" lon="4.75019">
        <ele>-500</ele>
        <time>2020-02-18T17:44:26Z</time>
      </trkpt>
      <trkpt lat="45.39591" lon="4.75049">
        <ele>-500</ele>
        <time>2020-02-18T17:44:32Z</time>
      </trkpt>
      <trkpt lat="45.39593" lon="4.75055">
        <ele>-500</ele>
        <time>2020-02-18T17:44:33Z</time>
      </trkpt>
      <trkpt lat="45.39594" lon="4.75061">
        <ele>-500</ele>
        <time>2020-02-18T17:44:34Z</time>
      </trkpt>
      <trkpt lat="45.39594" lon="4.75073">
        <ele>-500</ele>
        <time>2020-02-18T17:44:36Z</time>
      </trkpt>
      <trkpt lat="45.39593" lon="4.75086">
        <ele>-500</ele>
        <time>2020-02-18T17:44:38Z</time>
      </trkpt>
      <trkpt lat="45.39589" lon="4.75107">
        <ele>-500</ele>
        <time>2020-02-18T17:44:42Z</time>
      </trkpt>
      <trkpt lat="45.39588" lon="4.75112">
        <ele>-500</ele>
        <time>2020-02-18T17:44:43Z</time>
      </trkpt>
      <trkpt lat="45.39584" lon="4.7513">
        <ele>-500</ele>
        <time>2020-02-18T17:44:46Z</time>
      </trkpt>
      <trkpt lat="45.39588" lon="4.75138">
        <ele>-500</ele>
        <time>2020-02-18T17:44:48Z</time>
      </trkpt>
      <trkpt lat="45.39592" lon="4.75141">
        <ele>-500</ele>
        <time>2020-02-18T17:44:49Z</time>
      </trkpt>
      <trkpt lat="45.39604" lon="4.75141">
        <ele>-500</ele>
        <time>2020-02-18T17:44:52Z</time>
      </trkpt>
      <trkpt lat="45.39608" lon="4.75138">
        <ele>-500</ele>
        <time>2020-02-18T17:44:53Z</time>
      </trkpt>
      <trkpt lat="45.39612" lon="4.75135">
        <ele>-500</ele>
        <time>2020-02-18T17:44:54Z</time>
      </trkpt>
      <trkpt lat="45.39629" lon="4.75122">
        <ele>-500</ele>
        <time>2020-02-18T17:44:58Z</time>
      </trkpt>
      <trkpt lat="45.39651" lon="4.75111">
        <ele>-500</ele>
        <time>2020-02-18T17:45:03Z</time>
      </trkpt>
      <trkpt lat="45.39655" lon="4.75108">
        <ele>-500</ele>
        <time>2020-02-18T17:45:04Z</time>
      </trkpt>
      <trkpt lat="45.39667" lon="4.75097">
        <ele>-500</ele>
        <time>2020-02-18T17:45:07Z</time>
      </trkpt>
      <trkpt lat="45.3968" lon="4.7509">
        <ele>-500</ele>
        <time>2020-02-18T17:45:09Z</time>
      </trkpt>
      <trkpt lat="45.3968" lon="4.7509">
        <ele>-500</ele>
        <time>2020-02-18T17:45:10Z</time>
      </trkpt>
      <trkpt lat="45.39692" lon="4.75081">
        <ele>-500</ele>
        <time>2020-02-18T17:45:13Z</time>
      </trkpt>
      <trkpt lat="45.39697" lon="4.75079">
        <ele>-500</ele>
        <time>2020-02-18T17:45:14Z</time>
      </trkpt>
      <trkpt lat="45.39702" lon="4.75078">
        <ele>-500</ele>
        <time>2020-02-18T17:45:15Z</time>
      </trkpt>
      <trkpt lat="45.39724" lon="4.75066">
        <ele>-500</ele>
        <time>2020-02-18T17:45:20Z</time>
      </trkpt>
      <trkpt lat="45.39732" lon="4.7506">
        <ele>-500</ele>
        <time>2020-02-18T17:45:22Z</time>
      </trkpt>
      <trkpt lat="45.39737" lon="4.75057">
        <ele>-500</ele>
        <time>2020-02-18T17:45:23Z</time>
      </trkpt>
      <trkpt lat="45.39749" lon="4.75048">
        <ele>-500</ele>
        <time>2020-02-18T17:45:26Z</time>
      </trkpt>
      <trkpt lat="45.39753" lon="4.75045">
        <ele>-500</ele>
        <time>2020-02-18T17:45:27Z</time>
      </trkpt>
      <trkpt lat="45.39757" lon="4.75043">
        <ele>-500</ele>
        <time>2020-02-18T17:45:28Z</time>
      </trkpt>
      <trkpt lat="45.3977" lon="4.75035">
        <ele>-500</ele>
        <time>2020-02-18T17:45:31Z</time>
      </trkpt>
      <trkpt lat="45.39774" lon="4.75033">
        <ele>-500</ele>
        <time>2020-02-18T17:45:32Z</time>
      </trkpt>
      <trkpt lat="45.39778" lon="4.7503">
        <ele>-500</ele>
        <time>2020-02-18T17:45:33Z</time>
      </trkpt>
      <trkpt lat="45.39782" lon="4.75027">
        <ele>-500</ele>
        <time>2020-02-18T17:45:34Z</time>
      </trkpt>
      <trkpt lat="45.39794" lon="4.75019">
        <ele>-500</ele>
        <time>2020-02-18T17:45:37Z</time>
      </trkpt>
      <trkpt lat="45.39802" lon="4.75015">
        <ele>-500</ele>
        <time>2020-02-18T17:45:39Z</time>
      </trkpt>
      <trkpt lat="45.39819" lon="4.75003">
        <ele>-500</ele>
        <time>2020-02-18T17:45:43Z</time>
      </trkpt>
      <trkpt lat="45.39823" lon="4.75001">
        <ele>-500</ele>
        <time>2020-02-18T17:45:44Z</time>
      </trkpt>
      <trkpt lat="45.39835" lon="4.74991">
        <ele>-500</ele>
        <time>2020-02-18T17:45:47Z</time>
      </trkpt>
      <trkpt lat="45.39842" lon="4.74982">
        <ele>-500</ele>
        <time>2020-02-18T17:45:49Z</time>
      </trkpt>
      <trkpt lat="45.39849" lon="4.74974">
        <ele>-500</ele>
        <time>2020-02-18T17:45:51Z</time>
      </trkpt>
      <trkpt lat="45.39858" lon="4.74972">
        <ele>-500</ele>
        <time>2020-02-18T17:45:53Z</time>
      </trkpt>
      <trkpt lat="45.39862" lon="4.7497">
        <ele>-500</ele>
        <time>2020-02-18T17:45:54Z</time>
      </trkpt>
      <trkpt lat="45.39871" lon="4.74965">
        <ele>-500</ele>
        <time>2020-02-18T17:45:56Z</time>
      </trkpt>
      <trkpt lat="45.3988" lon="4.74959">
        <ele>-500</ele>
        <time>2020-02-18T17:45:58Z</time>
      </trkpt>
      <trkpt lat="45.39901" lon="4.74946">
        <ele>-500</ele>
        <time>2020-02-18T17:46:03Z</time>
      </trkpt>
      <trkpt lat="45.39909" lon="4.74938">
        <ele>-500</ele>
        <time>2020-02-18T17:46:05Z</time>
      </trkpt>
      <trkpt lat="45.39936" lon="4.74913">
        <ele>-500</ele>
        <time>2020-02-18T17:46:12Z</time>
      </trkpt>
      <trkpt lat="45.3994" lon="4.74909">
        <ele>-500</ele>
        <time>2020-02-18T17:46:13Z</time>
      </trkpt>
      <trkpt lat="45.39967" lon="4.74882">
        <ele>-500</ele>
        <time>2020-02-18T17:46:20Z</time>
      </trkpt>
      <trkpt lat="45.39979" lon="4.74871">
        <ele>-500</ele>
        <time>2020-02-18T17:46:23Z</time>
      </trkpt>
      <trkpt lat="45.39994" lon="4.74857">
        <ele>-500</ele>
        <time>2020-02-18T17:46:27Z</time>
      </trkpt>
      <trkpt lat="45.40005" lon="4.74845">
        <ele>-500</ele>
        <time>2020-02-18T17:46:30Z</time>
      </trkpt>
      <trkpt lat="45.40015" lon="4.74832">
        <ele>-500</ele>
        <time>2020-02-18T17:46:33Z</time>
      </trkpt>
      <trkpt lat="45.40019" lon="4.74828">
        <ele>-500</ele>
        <time>2020-02-18T17:46:34Z</time>
      </trkpt>
      <trkpt lat="45.40037" lon="4.74808">
        <ele>-500</ele>
        <time>2020-02-18T17:46:39Z</time>
      </trkpt>
      <trkpt lat="45.40041" lon="4.74806">
        <ele>-500</ele>
        <time>2020-02-18T17:46:40Z</time>
      </trkpt>
      <trkpt lat="45.40045" lon="4.74803">
        <ele>-500</ele>
        <time>2020-02-18T17:46:41Z</time>
      </trkpt>
      <trkpt lat="45.40052" lon="4.74796">
        <ele>-500</ele>
        <time>2020-02-18T17:46:43Z</time>
      </trkpt>
      <trkpt lat="45.4007" lon="4.74776">
        <ele>-500</ele>
        <time>2020-02-18T17:46:48Z</time>
      </trkpt>
      <trkpt lat="45.40087" lon="4.74757">
        <ele>-500</ele>
        <time>2020-02-18T17:46:53Z</time>
      </trkpt>
      <trkpt lat="45.4009" lon="4.74754">
        <ele>-500</ele>
        <time>2020-02-18T17:46:54Z</time>
      </trkpt>
      <trkpt lat="45.40096" lon="4.74746">
        <ele>-500</ele>
        <time>2020-02-18T17:46:56Z</time>
      </trkpt>
      <trkpt lat="45.40106" lon="4.74735">
        <ele>-500</ele>
        <time>2020-02-18T17:46:59Z</time>
      </trkpt>
      <trkpt lat="45.40114" lon="4.7473">
        <ele>-500</ele>
        <time>2020-02-18T17:47:01Z</time>
      </trkpt>
      <trkpt lat="45.40122" lon="4.74727">
        <ele>-500</ele>
        <time>2020-02-18T17:47:03Z</time>
      </trkpt>
      <trkpt lat="45.40133" lon="4.74718">
        <ele>-500</ele>
        <time>2020-02-18T17:47:06Z</time>
      </trkpt>
      <trkpt lat="45.40137" lon="4.74714">
        <ele>-500</ele>
        <time>2020-02-18T17:47:07Z</time>
      </trkpt>
      <trkpt lat="45.4014" lon="4.74709">
        <ele>-500</ele>
        <time>2020-02-18T17:47:08Z</time>
      </trkpt>
      <trkpt lat="45.40154" lon="4.74692">
        <ele>-500</ele>
        <time>2020-02-18T17:47:12Z</time>
      </trkpt>
      <trkpt lat="45.40158" lon="4.7469">
        <ele>-500</ele>
        <time>2020-02-18T17:47:13Z</time>
      </trkpt>
      <trkpt lat="45.40162" lon="4.74688">
        <ele>-500</ele>
        <time>2020-02-18T17:47:14Z</time>
      </trkpt>
      <trkpt lat="45.40197" lon="4.74657">
        <ele>-500</ele>
        <time>2020-02-18T17:47:23Z</time>
      </trkpt>
      <trkpt lat="45.40235" lon="4.7462">
        <ele>-500</ele>
        <time>2020-02-18T17:47:33Z</time>
      </trkpt>
      <trkpt lat="45.40273" lon="4.74584">
        <ele>-500</ele>
        <time>2020-02-18T17:47:43Z</time>
      </trkpt>
      <trkpt lat="45.40304" lon="4.74557">
        <ele>-500</ele>
        <time>2020-02-18T17:47:51Z</time>
      </trkpt>
      <trkpt lat="45.40307" lon="4.74552">
        <ele>-500</ele>
        <time>2020-02-18T17:47:52Z</time>
      </trkpt>
      <trkpt lat="45.40311" lon="4.74549">
        <ele>-500</ele>
        <time>2020-02-18T17:47:53Z</time>
      </trkpt>
      <trkpt lat="45.40322" lon="4.74538">
        <ele>-500</ele>
        <time>2020-02-18T17:47:56Z</time>
      </trkpt>
      <trkpt lat="45.40333" lon="4.74528">
        <ele>-500</ele>
        <time>2020-02-18T17:47:59Z</time>
      </trkpt>
      <trkpt lat="45.40343" lon="4.74516">
        <ele>-500</ele>
        <time>2020-02-18T17:48:02Z</time>
      </trkpt>
      <trkpt lat="45.40346" lon="4.74511">
        <ele>-500</ele>
        <time>2020-02-18T17:48:03Z</time>
      </trkpt>
      <trkpt lat="45.40349" lon="4.74507">
        <ele>-500</ele>
        <time>2020-02-18T17:48:04Z</time>
      </trkpt>
      <trkpt lat="45.40371" lon="4.74485">
        <ele>-500</ele>
        <time>2020-02-18T17:48:10Z</time>
      </trkpt>
      <trkpt lat="45.40382" lon="4.74473">
        <ele>-500</ele>
        <time>2020-02-18T17:48:13Z</time>
      </trkpt>
      <trkpt lat="45.40389" lon="4.74465">
        <ele>-500</ele>
        <time>2020-02-18T17:48:15Z</time>
      </trkpt>
      <trkpt lat="45.40396" lon="4.74458">
        <ele>-500</ele>
        <time>2020-02-18T17:48:17Z</time>
      </trkpt>
      <trkpt lat="45.40411" lon="4.74443">
        <ele>-500</ele>
        <time>2020-02-18T17:48:21Z</time>
      </trkpt>
      <trkpt lat="45.40418" lon="4.74435">
        <ele>-500</ele>
        <time>2020-02-18T17:48:23Z</time>
      </trkpt>
      <trkpt lat="45.40426" lon="4.74428">
        <ele>-500</ele>
        <time>2020-02-18T17:48:24Z</time>
      </trkpt>
      <trkpt lat="45.40441" lon="4.74414">
        <ele>-500</ele>
        <time>2020-02-18T17:48:29Z</time>
      </trkpt>
      <trkpt lat="45.40449" lon="4.74407">
        <ele>-500</ele>
        <time>2020-02-18T17:48:31Z</time>
      </trkpt>
      <trkpt lat="45.40456" lon="4.744">
        <ele>-500</ele>
        <time>2020-02-18T17:48:33Z</time>
      </trkpt>
      <trkpt lat="45.40471" lon="4.74386">
        <ele>-500</ele>
        <time>2020-02-18T17:48:37Z</time>
      </trkpt>
      <trkpt lat="45.40481" lon="4.74374">
        <ele>-500</ele>
        <time>2020-02-18T17:48:40Z</time>
      </trkpt>
      <trkpt lat="45.40491" lon="4.74361">
        <ele>-500</ele>
        <time>2020-02-18T17:48:43Z</time>
      </trkpt>
      <trkpt lat="45.40494" lon="4.74358">
        <ele>-500</ele>
        <time>2020-02-18T17:48:44Z</time>
      </trkpt>
      <trkpt lat="45.4051" lon="4.74347">
        <ele>-500</ele>
        <time>2020-02-18T17:48:48Z</time>
      </trkpt>
      <trkpt lat="45.40517" lon="4.74341">
        <ele>-500</ele>
        <time>2020-02-18T17:48:50Z</time>
      </trkpt>
      <trkpt lat="45.40525" lon="4.74335">
        <ele>-500</ele>
        <time>2020-02-18T17:48:52Z</time>
      </trkpt>
      <trkpt lat="45.40529" lon="4.74333">
        <ele>-500</ele>
        <time>2020-02-18T17:48:53Z</time>
      </trkpt>
      <trkpt lat="45.40543" lon="4.74327">
        <ele>-500</ele>
        <time>2020-02-18T17:48:56Z</time>
      </trkpt>
      <trkpt lat="45.40571" lon="4.74308">
        <ele>-500</ele>
        <time>2020-02-18T17:49:03Z</time>
      </trkpt>
      <trkpt lat="45.40578" lon="4.74301">
        <ele>-500</ele>
        <time>2020-02-18T17:49:05Z</time>
      </trkpt>
      <trkpt lat="45.40586" lon="4.74295">
        <ele>-500</ele>
        <time>2020-02-18T17:49:07Z</time>
      </trkpt>
      <trkpt lat="45.40601" lon="4.74284">
        <ele>-500</ele>
        <time>2020-02-18T17:49:11Z</time>
      </trkpt>
      <trkpt lat="45.4061" lon="4.74278">
        <ele>-500</ele>
        <time>2020-02-18T17:49:13Z</time>
      </trkpt>
      <trkpt lat="45.40618" lon="4.74275">
        <ele>-500</ele>
        <time>2020-02-18T17:49:15Z</time>
      </trkpt>
      <trkpt lat="45.40648" lon="4.74256">
        <ele>-500</ele>
        <time>2020-02-18T17:49:23Z</time>
      </trkpt>
      <trkpt lat="45.40657" lon="4.74253">
        <ele>-500</ele>
        <time>2020-02-18T17:49:25Z</time>
      </trkpt>
      <trkpt lat="45.40689" lon="4.74231">
        <ele>-500</ele>
        <time>2020-02-18T17:49:33Z</time>
      </trkpt>
      <trkpt lat="45.40727" lon="4.74202">
        <ele>-500</ele>
        <time>2020-02-18T17:49:43Z</time>
      </trkpt>
      <trkpt lat="45.4073" lon="4.74198">
        <ele>-500</ele>
        <time>2020-02-18T17:49:44Z</time>
      </trkpt>
      <trkpt lat="45.40734" lon="4.74194">
        <ele>-500</ele>
        <time>2020-02-18T17:49:45Z</time>
      </trkpt>
      <trkpt lat="45.40737" lon="4.7419">
        <ele>-500</ele>
        <time>2020-02-18T17:49:46Z</time>
      </trkpt>
      <trkpt lat="45.40766" lon="4.7417">
        <ele>-500</ele>
        <time>2020-02-18T17:49:53Z</time>
      </trkpt>
      <trkpt lat="45.40778" lon="4.74163">
        <ele>-500</ele>
        <time>2020-02-18T17:49:56Z</time>
      </trkpt>
      <trkpt lat="45.40809" lon="4.74143">
        <ele>-500</ele>
        <time>2020-02-18T17:50:02Z</time>
      </trkpt>
      <trkpt lat="45.40813" lon="4.74141">
        <ele>-500</ele>
        <time>2020-02-18T17:50:03Z</time>
      </trkpt>
      <trkpt lat="45.40821" lon="4.74138">
        <ele>-500</ele>
        <time>2020-02-18T17:50:05Z</time>
      </trkpt>
      <trkpt lat="45.40843" lon="4.74124">
        <ele>-500</ele>
        <time>2020-02-18T17:50:11Z</time>
      </trkpt>
      <trkpt lat="45.40851" lon="4.7412">
        <ele>-500</ele>
        <time>2020-02-18T17:50:13Z</time>
      </trkpt>
      <trkpt lat="45.40892" lon="4.74096">
        <ele>-500</ele>
        <time>2020-02-18T17:50:23Z</time>
      </trkpt>
      <trkpt lat="45.40933" lon="4.74071">
        <ele>-500</ele>
        <time>2020-02-18T17:50:33Z</time>
      </trkpt>
      <trkpt lat="45.40955" lon="4.74061">
        <ele>-500</ele>
        <time>2020-02-18T17:50:39Z</time>
      </trkpt>
      <trkpt lat="45.40965" lon="4.74058">
        <ele>-500</ele>
        <time>2020-02-18T17:50:43Z</time>
      </trkpt>
      <trkpt lat="45.40982" lon="4.74049">
        <ele>-500</ele>
        <time>2020-02-18T17:50:48Z</time>
      </trkpt>
      <trkpt lat="45.41002" lon="4.74042">
        <ele>-500</ele>
        <time>2020-02-18T17:50:53Z</time>
      </trkpt>
      <trkpt lat="45.41045" lon="4.74025">
        <ele>-500</ele>
        <time>2020-02-18T17:51:03Z</time>
      </trkpt>
      <trkpt lat="45.4109" lon="4.74012">
        <ele>-500</ele>
        <time>2020-02-18T17:51:14Z</time>
      </trkpt>
      <trkpt lat="45.41098" lon="4.7401">
        <ele>-500</ele>
        <time>2020-02-18T17:51:16Z</time>
      </trkpt>
      <trkpt lat="45.41129" lon="4.74005">
        <ele>-500</ele>
        <time>2020-02-18T17:51:23Z</time>
      </trkpt>
      <trkpt lat="45.41171" lon="4.73996">
        <ele>-500</ele>
        <time>2020-02-18T17:51:33Z</time>
      </trkpt>
      <trkpt lat="45.41175" lon="4.73995">
        <ele>-500</ele>
        <time>2020-02-18T17:51:34Z</time>
      </trkpt>
      <trkpt lat="45.41206" lon="4.73981">
        <ele>-500</ele>
        <time>2020-02-18T17:51:43Z</time>
      </trkpt>
      <trkpt lat="45.41209" lon="4.7393">
        <ele>-500</ele>
        <time>2020-02-18T17:51:53Z</time>
      </trkpt>
      <trkpt lat="45.41208" lon="4.73875">
        <ele>-500</ele>
        <time>2020-02-18T17:52:03Z</time>
      </trkpt>
      <trkpt lat="45.41206" lon="4.73822">
        <ele>-500</ele>
        <time>2020-02-18T17:52:13Z</time>
      </trkpt>
      <trkpt lat="45.41213" lon="4.73795">
        <ele>-500</ele>
        <time>2020-02-18T17:52:20Z</time>
      </trkpt>
      <trkpt lat="45.41224" lon="4.73781">
        <ele>-500</ele>
        <time>2020-02-18T17:52:23Z</time>
      </trkpt>
      <trkpt lat="45.41249" lon="4.73751">
        <ele>-500</ele>
        <time>2020-02-18T17:52:33Z</time>
      </trkpt>
      <trkpt lat="45.41281" lon="4.73744">
        <ele>-500</ele>
        <time>2020-02-18T17:52:43Z</time>
      </trkpt>
      <trkpt lat="45.41303" lon="4.73741">
        <ele>-500</ele>
        <time>2020-02-18T17:52:50Z</time>
      </trkpt>
      <trkpt lat="45.41306" lon="4.73738">
        <ele>-500</ele>
        <time>2020-02-18T17:52:53Z</time>
      </trkpt>
      <trkpt lat="45.41307" lon="4.73736">
        <ele>-500</ele>
        <time>2020-02-18T17:52:54Z</time>
      </trkpt>
      <trkpt lat="45.4131" lon="4.73713">
        <ele>-500</ele>
        <time>2020-02-18T17:53:01Z</time>
      </trkpt>
      <trkpt lat="45.41312" lon="4.73707">
        <ele>-500</ele>
        <time>2020-02-18T17:53:03Z</time>
      </trkpt>
      <trkpt lat="45.41334" lon="4.73708">
        <ele>-500</ele>
        <time>2020-02-18T17:53:13Z</time>
      </trkpt>
      <trkpt lat="45.41366" lon="4.7371">
        <ele>-500</ele>
        <time>2020-02-18T17:53:23Z</time>
      </trkpt>
      <trkpt lat="45.41369" lon="4.73707">
        <ele>-500</ele>
        <time>2020-02-18T17:53:24Z</time>
      </trkpt>
      <trkpt lat="45.41368" lon="4.73666">
        <ele>-500</ele>
        <time>2020-02-18T17:53:33Z</time>
      </trkpt>
      <trkpt lat="45.41366" lon="4.73652">
        <ele>-500</ele>
        <time>2020-02-18T17:53:38Z</time>
      </trkpt>
      <trkpt lat="45.41377" lon="4.73649">
        <ele>-500</ele>
        <time>2020-02-18T17:53:43Z</time>
      </trkpt>
      <trkpt lat="45.4138" lon="4.73646">
        <ele>-500</ele>
        <time>2020-02-18T17:53:45Z</time>
      </trkpt>
      <trkpt lat="45.41389" lon="4.73634">
        <ele>-500</ele>
        <time>2020-02-18T17:53:53Z</time>
      </trkpt>
      <trkpt lat="45.41391" lon="4.73634">
        <ele>-500</ele>
        <time>2020-02-18T17:53:54Z</time>
      </trkpt>
      <trkpt lat="45.41406" lon="4.73612">
        <ele>-500</ele>
        <time>2020-02-18T17:54:03Z</time>
      </trkpt>
      <trkpt lat="45.41396" lon="4.73582">
        <ele>-500</ele>
        <time>2020-02-18T17:54:09Z</time>
      </trkpt>
      <trkpt lat="45.41394" lon="4.73562">
        <ele>-500</ele>
        <time>2020-02-18T17:54:13Z</time>
      </trkpt>
      <trkpt lat="45.41402" lon="4.73523">
        <ele>-500</ele>
        <time>2020-02-18T17:54:23Z</time>
      </trkpt>
      <trkpt lat="45.41425" lon="4.73508">
        <ele>-500</ele>
        <time>2020-02-18T17:54:33Z</time>
      </trkpt>
      <trkpt lat="45.41452" lon="4.7349">
        <ele>-500</ele>
        <time>2020-02-18T17:54:43Z</time>
      </trkpt>
      <trkpt lat="45.41471" lon="4.73478">
        <ele>-500</ele>
        <time>2020-02-18T17:54:51Z</time>
      </trkpt>
      <trkpt lat="45.41476" lon="4.73474">
        <ele>-500</ele>
        <time>2020-02-18T17:54:53Z</time>
      </trkpt>
      <trkpt lat="45.41481" lon="4.73466">
        <ele>-500</ele>
        <time>2020-02-18T17:54:55Z</time>
      </trkpt>
      <trkpt lat="45.41482" lon="4.73459">
        <ele>-500</ele>
        <time>2020-02-18T17:54:57Z</time>
      </trkpt>
      <trkpt lat="45.4148" lon="4.73436">
        <ele>-500</ele>
        <time>2020-02-18T17:55:03Z</time>
      </trkpt>
      <trkpt lat="45.41475" lon="4.73408">
        <ele>-500</ele>
        <time>2020-02-18T17:55:10Z</time>
      </trkpt>
      <trkpt lat="45.41473" lon="4.73396">
        <ele>-500</ele>
        <time>2020-02-18T17:55:13Z</time>
      </trkpt>
      <trkpt lat="45.41459" lon="4.73355">
        <ele>-500</ele>
        <time>2020-02-18T17:55:23Z</time>
      </trkpt>
      <trkpt lat="45.41444" lon="4.73321">
        <ele>-500</ele>
        <time>2020-02-18T17:55:33Z</time>
      </trkpt>
      <trkpt lat="45.4144" lon="4.73306">
        <ele>-500</ele>
        <time>2020-02-18T17:55:36Z</time>
      </trkpt>
      <trkpt lat="45.41441" lon="4.73302">
        <ele>-500</ele>
        <time>2020-02-18T17:55:38Z</time>
      </trkpt>
      <trkpt lat="45.41454" lon="4.73295">
        <ele>-500</ele>
        <time>2020-02-18T17:55:43Z</time>
      </trkpt>
      <trkpt lat="45.41461" lon="4.7329">
        <ele>-500</ele>
        <time>2020-02-18T17:55:47Z</time>
      </trkpt>
      <trkpt lat="45.41465" lon="4.73287">
        <ele>-500</ele>
        <time>2020-02-18T17:55:50Z</time>
      </trkpt>
      <trkpt lat="45.41468" lon="4.73287">
        <ele>-500</ele>
        <time>2020-02-18T17:55:51Z</time>
      </trkpt>
      <trkpt lat="45.41472" lon="4.73289">
        <ele>-500</ele>
        <time>2020-02-18T17:55:53Z</time>
      </trkpt>
      <trkpt lat="45.41474" lon="4.73291">
        <ele>-500</ele>
        <time>2020-02-18T17:55:54Z</time>
      </trkpt>
      <trkpt lat="45.41483" lon="4.73317">
        <ele>-500</ele>
        <time>2020-02-18T17:56:03Z</time>
      </trkpt>
      <trkpt lat="45.41495" lon="4.73321">
        <ele>-500</ele>
        <time>2020-02-18T17:56:13Z</time>
      </trkpt>
      <trkpt lat="45.41504" lon="4.73312">
        <ele>-500</ele>
        <time>2020-02-18T17:56:23Z</time>
      </trkpt>
      <trkpt lat="45.41508" lon="4.7331">
        <ele>-500</ele>
        <time>2020-02-18T17:56:27Z</time>
      </trkpt>
      <trkpt lat="45.41512" lon="4.73304">
        <ele>-500</ele>
        <time>2020-02-18T17:56:33Z</time>
      </trkpt>
      <trkpt lat="45.41518" lon="4.733">
        <ele>-500</ele>
        <time>2020-02-18T17:56:39Z</time>
      </trkpt>
      <trkpt lat="45.41521" lon="4.73297">
        <ele>-500</ele>
        <time>2020-02-18T17:56:43Z</time>
      </trkpt>
      <trkpt lat="45.41522" lon="4.73297">
        <ele>-500</ele>
        <time>2020-02-18T17:56:44Z</time>
      </trkpt>
      <trkpt lat="45.41528" lon="4.73293">
        <ele>-500</ele>
        <time>2020-02-18T17:56:50Z</time>
      </trkpt>
      <trkpt lat="45.41531" lon="4.73292">
        <ele>-500</ele>
        <time>2020-02-18T17:56:53Z</time>
      </trkpt>
      <trkpt lat="45.41532" lon="4.73292">
        <ele>-500</ele>
        <time>2020-02-18T17:56:55Z</time>
      </trkpt>
      <trkpt lat="45.41539" lon="4.73294">
        <ele>-500</ele>
        <time>2020-02-18T17:57:01Z</time>
      </trkpt>
      <trkpt lat="45.41541" lon="4.73293">
        <ele>-500</ele>
        <time>2020-02-18T17:57:03Z</time>
      </trkpt>
      <trkpt lat="45.41544" lon="4.73291">
        <ele>-500</ele>
        <time>2020-02-18T17:57:07Z</time>
      </trkpt>
      <trkpt lat="45.41549" lon="4.73285">
        <ele>-500</ele>
        <time>2020-02-18T17:57:13Z</time>
      </trkpt>
      <trkpt lat="45.41551" lon="4.73284">
        <ele>-500</ele>
        <time>2020-02-18T17:57:15Z</time>
      </trkpt>
      <trkpt lat="45.41555" lon="4.7328">
        <ele>-500</ele>
        <time>2020-02-18T17:57:21Z</time>
      </trkpt>
      <trkpt lat="45.41557" lon="4.73279">
        <ele>-500</ele>
        <time>2020-02-18T17:57:23Z</time>
      </trkpt>
      <trkpt lat="45.4156" lon="4.73276">
        <ele>-500</ele>
        <time>2020-02-18T17:57:29Z</time>
      </trkpt>
      <trkpt lat="45.41562" lon="4.73276">
        <ele>-500</ele>
        <time>2020-02-18T17:57:33Z</time>
      </trkpt>
      <trkpt lat="45.41563" lon="4.73279">
        <ele>-500</ele>
        <time>2020-02-18T17:57:35Z</time>
      </trkpt>
      <trkpt lat="45.4157" lon="4.73301">
        <ele>-500</ele>
        <time>2020-02-18T17:57:43Z</time>
      </trkpt>
      <trkpt lat="45.41574" lon="4.73312">
        <ele>-500</ele>
        <time>2020-02-18T17:57:46Z</time>
      </trkpt>
      <trkpt lat="45.41582" lon="4.73332">
        <ele>-500</ele>
        <time>2020-02-18T17:57:51Z</time>
      </trkpt>
      <trkpt lat="45.41587" lon="4.73336">
        <ele>-500</ele>
        <time>2020-02-18T17:57:53Z</time>
      </trkpt>
      <trkpt lat="45.41602" lon="4.73353">
        <ele>-500</ele>
        <time>2020-02-18T17:58:02Z</time>
      </trkpt>
    </trkseg>
  </trk>
</gpx>